<?xml version="1.0" encoding="UTF-8" standalone="no" ?>
<gpx xmlns="http://www.topografix.com/GPX/1/1" xmlns:xsi="http://www.w3.org/2001/XMLSchema-instance" xsi:schemaLocation="http://www.topografix.com/GPX/1/1 http://www.topografix.com/GPX/1/1/gpx.xsd" version="1.1" creator="VisuGPX - https://www.visugpx.com">
  <metadata>
    <name>milmil\'s 2013</name>
    <desc><![CDATA[fait le 23/02/2013]]></desc>
  </metadata>
  <trk>
    <name><![CDATA[2013-02-22T19:07:33Z]]></name>
    <trkseg>
      <trkpt lat="45.76096" lon="4.82689">
        <ele>180</ele>
        <time>2013-02-22T19:07:33Z</time>
      </trkpt>
      <trkpt lat="45.76101" lon="4.82682">
        <ele>180</ele>
        <time>2013-02-22T19:07:46Z</time>
      </trkpt>
      <trkpt lat="45.76105" lon="4.82668">
        <ele>180</ele>
        <time>2013-02-22T19:07:51Z</time>
      </trkpt>
      <trkpt lat="45.76107" lon="4.82665">
        <ele>181</ele>
        <time>2013-02-22T19:07:52Z</time>
      </trkpt>
      <trkpt lat="45.76114" lon="4.82653">
        <ele>181</ele>
        <time>2013-02-22T19:07:57Z</time>
      </trkpt>
      <trkpt lat="45.76117" lon="4.82649">
        <ele>182</ele>
        <time>2013-02-22T19:08:00Z</time>
      </trkpt>
      <trkpt lat="45.76118" lon="4.82649">
        <ele>182</ele>
        <time>2013-02-22T19:08:02Z</time>
      </trkpt>
      <trkpt lat="45.76119" lon="4.82647">
        <ele>182</ele>
        <time>2013-02-22T19:08:06Z</time>
      </trkpt>
      <trkpt lat="45.76121" lon="4.82648">
        <ele>182</ele>
        <time>2013-02-22T19:08:08Z</time>
      </trkpt>
      <trkpt lat="45.76122" lon="4.82649">
        <ele>182</ele>
        <time>2013-02-22T19:08:09Z</time>
      </trkpt>
      <trkpt lat="45.76135" lon="4.82656">
        <ele>182</ele>
        <time>2013-02-22T19:08:15Z</time>
      </trkpt>
      <trkpt lat="45.76138" lon="4.82658">
        <ele>182</ele>
        <time>2013-02-22T19:08:16Z</time>
      </trkpt>
      <trkpt lat="45.76146" lon="4.82654">
        <ele>183</ele>
        <time>2013-02-22T19:08:20Z</time>
      </trkpt>
      <trkpt lat="45.76157" lon="4.82657">
        <ele>183</ele>
        <time>2013-02-22T19:08:25Z</time>
      </trkpt>
      <trkpt lat="45.7617" lon="4.82667">
        <ele>184</ele>
        <time>2013-02-22T19:08:31Z</time>
      </trkpt>
      <trkpt lat="45.76174" lon="4.8267">
        <ele>184</ele>
        <time>2013-02-22T19:08:33Z</time>
      </trkpt>
      <trkpt lat="45.76178" lon="4.82669">
        <ele>184</ele>
        <time>2013-02-22T19:08:35Z</time>
      </trkpt>
      <trkpt lat="45.7618" lon="4.82667">
        <ele>186</ele>
        <time>2013-02-22T19:08:36Z</time>
      </trkpt>
      <trkpt lat="45.76186" lon="4.82662">
        <ele>187</ele>
        <time>2013-02-22T19:08:41Z</time>
      </trkpt>
      <trkpt lat="45.76187" lon="4.8266">
        <ele>187</ele>
        <time>2013-02-22T19:08:43Z</time>
      </trkpt>
      <trkpt lat="45.76189" lon="4.82657">
        <ele>187</ele>
        <time>2013-02-22T19:08:46Z</time>
      </trkpt>
      <trkpt lat="45.7619" lon="4.82655">
        <ele>187</ele>
        <time>2013-02-22T19:08:47Z</time>
      </trkpt>
      <trkpt lat="45.76192" lon="4.82646">
        <ele>187</ele>
        <time>2013-02-22T19:08:50Z</time>
      </trkpt>
      <trkpt lat="45.76195" lon="4.82633">
        <ele>188</ele>
        <time>2013-02-22T19:08:55Z</time>
      </trkpt>
      <trkpt lat="45.76196" lon="4.82632">
        <ele>188</ele>
        <time>2013-02-22T19:08:56Z</time>
      </trkpt>
      <trkpt lat="45.76198" lon="4.82631">
        <ele>188</ele>
        <time>2013-02-22T19:08:58Z</time>
      </trkpt>
      <trkpt lat="45.76202" lon="4.8263">
        <ele>189</ele>
        <time>2013-02-22T19:09:02Z</time>
      </trkpt>
      <trkpt lat="45.76205" lon="4.82631">
        <ele>189</ele>
        <time>2013-02-22T19:09:06Z</time>
      </trkpt>
      <trkpt lat="45.76205" lon="4.82632">
        <ele>189</ele>
        <time>2013-02-22T19:09:15Z</time>
      </trkpt>
      <trkpt lat="45.76208" lon="4.82626">
        <ele>189</ele>
        <time>2013-02-22T19:09:18Z</time>
      </trkpt>
      <trkpt lat="45.76213" lon="4.82624">
        <ele>190</ele>
        <time>2013-02-22T19:09:22Z</time>
      </trkpt>
      <trkpt lat="45.76216" lon="4.82623">
        <ele>190</ele>
        <time>2013-02-22T19:09:28Z</time>
      </trkpt>
      <trkpt lat="45.76221" lon="4.82621">
        <ele>190</ele>
        <time>2013-02-22T19:09:31Z</time>
      </trkpt>
      <trkpt lat="45.76227" lon="4.82612">
        <ele>191</ele>
        <time>2013-02-22T19:09:36Z</time>
      </trkpt>
      <trkpt lat="45.76229" lon="4.82611">
        <ele>192</ele>
        <time>2013-02-22T19:09:37Z</time>
      </trkpt>
      <trkpt lat="45.76229" lon="4.82607">
        <ele>192</ele>
        <time>2013-02-22T19:09:40Z</time>
      </trkpt>
      <trkpt lat="45.76229" lon="4.82602">
        <ele>193</ele>
        <time>2013-02-22T19:09:44Z</time>
      </trkpt>
      <trkpt lat="45.76238" lon="4.82591">
        <ele>196</ele>
        <time>2013-02-22T19:09:57Z</time>
      </trkpt>
      <trkpt lat="45.76239" lon="4.82588">
        <ele>197</ele>
        <time>2013-02-22T19:09:59Z</time>
      </trkpt>
      <trkpt lat="45.76238" lon="4.82583">
        <ele>203</ele>
        <time>2013-02-22T19:10:02Z</time>
      </trkpt>
      <trkpt lat="45.76241" lon="4.82583">
        <ele>203</ele>
        <time>2013-02-22T19:10:03Z</time>
      </trkpt>
      <trkpt lat="45.7624" lon="4.82583">
        <ele>203</ele>
        <time>2013-02-22T19:10:06Z</time>
      </trkpt>
      <trkpt lat="45.76243" lon="4.8258">
        <ele>203</ele>
        <time>2013-02-22T19:10:29Z</time>
      </trkpt>
      <trkpt lat="45.76247" lon="4.82572">
        <ele>203</ele>
        <time>2013-02-22T19:10:43Z</time>
      </trkpt>
      <trkpt lat="45.7625" lon="4.82567">
        <ele>209</ele>
        <time>2013-02-22T19:10:50Z</time>
      </trkpt>
      <trkpt lat="45.76262" lon="4.82558">
        <ele>212</ele>
        <time>2013-02-22T19:11:18Z</time>
      </trkpt>
      <trkpt lat="45.76263" lon="4.82554">
        <ele>213</ele>
        <time>2013-02-22T19:11:21Z</time>
      </trkpt>
      <trkpt lat="45.76265" lon="4.82549">
        <ele>214</ele>
        <time>2013-02-22T19:11:25Z</time>
      </trkpt>
      <trkpt lat="45.76268" lon="4.82544">
        <ele>215</ele>
        <time>2013-02-22T19:11:29Z</time>
      </trkpt>
      <trkpt lat="45.7627" lon="4.82536">
        <ele>217</ele>
        <time>2013-02-22T19:12:09Z</time>
      </trkpt>
      <trkpt lat="45.76269" lon="4.82532">
        <ele>217</ele>
        <time>2013-02-22T19:12:19Z</time>
      </trkpt>
      <trkpt lat="45.76272" lon="4.82535">
        <ele>217</ele>
        <time>2013-02-22T19:12:23Z</time>
      </trkpt>
      <trkpt lat="45.76274" lon="4.82536">
        <ele>217</ele>
        <time>2013-02-22T19:12:29Z</time>
      </trkpt>
      <trkpt lat="45.76276" lon="4.82538">
        <ele>217</ele>
        <time>2013-02-22T19:12:39Z</time>
      </trkpt>
      <trkpt lat="45.76275" lon="4.82533">
        <ele>217</ele>
        <time>2013-02-22T19:12:56Z</time>
      </trkpt>
      <trkpt lat="45.76275" lon="4.82532">
        <ele>217</ele>
        <time>2013-02-22T19:12:57Z</time>
      </trkpt>
      <trkpt lat="45.76274" lon="4.82534">
        <ele>217</ele>
        <time>2013-02-22T19:13:03Z</time>
      </trkpt>
      <trkpt lat="45.76275" lon="4.82537">
        <ele>217</ele>
        <time>2013-02-22T19:13:08Z</time>
      </trkpt>
      <trkpt lat="45.76275" lon="4.82531">
        <ele>217</ele>
        <time>2013-02-22T19:13:24Z</time>
      </trkpt>
      <trkpt lat="45.76275" lon="4.8253">
        <ele>218</ele>
        <time>2013-02-22T19:13:25Z</time>
      </trkpt>
      <trkpt lat="45.76271" lon="4.82526">
        <ele>218</ele>
        <time>2013-02-22T19:13:28Z</time>
      </trkpt>
      <trkpt lat="45.7627" lon="4.82525">
        <ele>218</ele>
        <time>2013-02-22T19:13:30Z</time>
      </trkpt>
      <trkpt lat="45.76269" lon="4.82524">
        <ele>218</ele>
        <time>2013-02-22T19:13:31Z</time>
      </trkpt>
      <trkpt lat="45.76266" lon="4.82521">
        <ele>219</ele>
        <time>2013-02-22T19:13:34Z</time>
      </trkpt>
      <trkpt lat="45.76263" lon="4.82518">
        <ele>219</ele>
        <time>2013-02-22T19:13:40Z</time>
      </trkpt>
      <trkpt lat="45.76265" lon="4.82523">
        <ele>218</ele>
        <time>2013-02-22T19:13:46Z</time>
      </trkpt>
      <trkpt lat="45.76262" lon="4.82524">
        <ele>218</ele>
        <time>2013-02-22T19:13:51Z</time>
      </trkpt>
      <trkpt lat="45.76259" lon="4.82524">
        <ele>218</ele>
        <time>2013-02-22T19:14:03Z</time>
      </trkpt>
      <trkpt lat="45.76258" lon="4.82524">
        <ele>218</ele>
        <time>2013-02-22T19:14:53Z</time>
      </trkpt>
      <trkpt lat="45.76252" lon="4.82512">
        <ele>220</ele>
        <time>2013-02-22T19:15:30Z</time>
      </trkpt>
      <trkpt lat="45.76248" lon="4.82507">
        <ele>218</ele>
        <time>2013-02-22T19:15:33Z</time>
      </trkpt>
      <trkpt lat="45.76248" lon="4.82504">
        <ele>219</ele>
        <time>2013-02-22T19:15:34Z</time>
      </trkpt>
      <trkpt lat="45.76247" lon="4.82503">
        <ele>219</ele>
        <time>2013-02-22T19:15:35Z</time>
      </trkpt>
      <trkpt lat="45.76243" lon="4.82496">
        <ele>224</ele>
        <time>2013-02-22T19:15:39Z</time>
      </trkpt>
      <trkpt lat="45.76241" lon="4.82486">
        <ele>226</ele>
        <time>2013-02-22T19:15:44Z</time>
      </trkpt>
      <trkpt lat="45.76242" lon="4.82484">
        <ele>226</ele>
        <time>2013-02-22T19:15:45Z</time>
      </trkpt>
      <trkpt lat="45.76244" lon="4.82482">
        <ele>227</ele>
        <time>2013-02-22T19:15:47Z</time>
      </trkpt>
      <trkpt lat="45.76243" lon="4.82478">
        <ele>228</ele>
        <time>2013-02-22T19:15:50Z</time>
      </trkpt>
      <trkpt lat="45.76241" lon="4.82476">
        <ele>228</ele>
        <time>2013-02-22T19:15:52Z</time>
      </trkpt>
      <trkpt lat="45.76236" lon="4.82471">
        <ele>229</ele>
        <time>2013-02-22T19:15:56Z</time>
      </trkpt>
      <trkpt lat="45.76235" lon="4.8247">
        <ele>229</ele>
        <time>2013-02-22T19:15:57Z</time>
      </trkpt>
      <trkpt lat="45.76232" lon="4.82464">
        <ele>230</ele>
        <time>2013-02-22T19:16:01Z</time>
      </trkpt>
      <trkpt lat="45.76228" lon="4.82454">
        <ele>232</ele>
        <time>2013-02-22T19:16:06Z</time>
      </trkpt>
      <trkpt lat="45.76225" lon="4.82446">
        <ele>233</ele>
        <time>2013-02-22T19:16:11Z</time>
      </trkpt>
      <trkpt lat="45.76224" lon="4.82444">
        <ele>234</ele>
        <time>2013-02-22T19:16:13Z</time>
      </trkpt>
      <trkpt lat="45.76222" lon="4.82442">
        <ele>234</ele>
        <time>2013-02-22T19:16:14Z</time>
      </trkpt>
      <trkpt lat="45.7622" lon="4.82437">
        <ele>234</ele>
        <time>2013-02-22T19:16:17Z</time>
      </trkpt>
      <trkpt lat="45.76218" lon="4.82433">
        <ele>235</ele>
        <time>2013-02-22T19:16:20Z</time>
      </trkpt>
      <trkpt lat="45.76215" lon="4.82428">
        <ele>235</ele>
        <time>2013-02-22T19:16:23Z</time>
      </trkpt>
      <trkpt lat="45.76214" lon="4.82426">
        <ele>235</ele>
        <time>2013-02-22T19:16:24Z</time>
      </trkpt>
      <trkpt lat="45.76215" lon="4.82422">
        <ele>236</ele>
        <time>2013-02-22T19:16:27Z</time>
      </trkpt>
      <trkpt lat="45.76215" lon="4.82419">
        <ele>236</ele>
        <time>2013-02-22T19:16:29Z</time>
      </trkpt>
      <trkpt lat="45.76215" lon="4.82418">
        <ele>236</ele>
        <time>2013-02-22T19:16:30Z</time>
      </trkpt>
      <trkpt lat="45.76218" lon="4.82415">
        <ele>254</ele>
        <time>2013-02-22T19:16:34Z</time>
      </trkpt>
      <trkpt lat="45.76223" lon="4.82421">
        <ele>237</ele>
        <time>2013-02-22T19:16:40Z</time>
      </trkpt>
      <trkpt lat="45.76225" lon="4.82421">
        <ele>237</ele>
        <time>2013-02-22T19:16:41Z</time>
      </trkpt>
      <trkpt lat="45.7623" lon="4.82424">
        <ele>238</ele>
        <time>2013-02-22T19:16:46Z</time>
      </trkpt>
      <trkpt lat="45.76233" lon="4.82424">
        <ele>239</ele>
        <time>2013-02-22T19:16:49Z</time>
      </trkpt>
      <trkpt lat="45.76237" lon="4.82425">
        <ele>240</ele>
        <time>2013-02-22T19:16:52Z</time>
      </trkpt>
      <trkpt lat="45.76243" lon="4.82427">
        <ele>241</ele>
        <time>2013-02-22T19:16:56Z</time>
      </trkpt>
      <trkpt lat="45.76245" lon="4.82428">
        <ele>241</ele>
        <time>2013-02-22T19:16:58Z</time>
      </trkpt>
      <trkpt lat="45.76252" lon="4.82433">
        <ele>244</ele>
        <time>2013-02-22T19:17:03Z</time>
      </trkpt>
      <trkpt lat="45.76253" lon="4.82434">
        <ele>244</ele>
        <time>2013-02-22T19:17:04Z</time>
      </trkpt>
      <trkpt lat="45.76263" lon="4.82434">
        <ele>243</ele>
        <time>2013-02-22T19:17:12Z</time>
      </trkpt>
      <trkpt lat="45.76265" lon="4.82425">
        <ele>245</ele>
        <time>2013-02-22T19:17:17Z</time>
      </trkpt>
      <trkpt lat="45.76259" lon="4.8242">
        <ele>246</ele>
        <time>2013-02-22T19:17:21Z</time>
      </trkpt>
      <trkpt lat="45.76256" lon="4.82416">
        <ele>252</ele>
        <time>2013-02-22T19:17:23Z</time>
      </trkpt>
      <trkpt lat="45.76249" lon="4.82409">
        <ele>251</ele>
        <time>2013-02-22T19:17:28Z</time>
      </trkpt>
      <trkpt lat="45.76247" lon="4.82407">
        <ele>252</ele>
        <time>2013-02-22T19:17:30Z</time>
      </trkpt>
      <trkpt lat="45.76241" lon="4.82403">
        <ele>254</ele>
        <time>2013-02-22T19:17:35Z</time>
      </trkpt>
      <trkpt lat="45.76239" lon="4.82402">
        <ele>254</ele>
        <time>2013-02-22T19:17:37Z</time>
      </trkpt>
      <trkpt lat="45.76235" lon="4.82398">
        <ele>255</ele>
        <time>2013-02-22T19:17:41Z</time>
      </trkpt>
      <trkpt lat="45.76234" lon="4.82396">
        <ele>256</ele>
        <time>2013-02-22T19:17:42Z</time>
      </trkpt>
      <trkpt lat="45.76227" lon="4.82391">
        <ele>257</ele>
        <time>2013-02-22T19:17:48Z</time>
      </trkpt>
      <trkpt lat="45.76224" lon="4.82388">
        <ele>258</ele>
        <time>2013-02-22T19:17:51Z</time>
      </trkpt>
      <trkpt lat="45.76224" lon="4.82382">
        <ele>259</ele>
        <time>2013-02-22T19:17:54Z</time>
      </trkpt>
      <trkpt lat="45.76224" lon="4.82378">
        <ele>260</ele>
        <time>2013-02-22T19:17:56Z</time>
      </trkpt>
      <trkpt lat="45.76225" lon="4.82376">
        <ele>260</ele>
        <time>2013-02-22T19:17:57Z</time>
      </trkpt>
      <trkpt lat="45.76227" lon="4.82371">
        <ele>261</ele>
        <time>2013-02-22T19:18:00Z</time>
      </trkpt>
      <trkpt lat="45.76231" lon="4.82369">
        <ele>262</ele>
        <time>2013-02-22T19:18:03Z</time>
      </trkpt>
      <trkpt lat="45.76234" lon="4.8237">
        <ele>262</ele>
        <time>2013-02-22T19:18:05Z</time>
      </trkpt>
      <trkpt lat="45.7624" lon="4.82372">
        <ele>261</ele>
        <time>2013-02-22T19:18:09Z</time>
      </trkpt>
      <trkpt lat="45.76241" lon="4.82373">
        <ele>261</ele>
        <time>2013-02-22T19:18:10Z</time>
      </trkpt>
      <trkpt lat="45.76247" lon="4.82375">
        <ele>261</ele>
        <time>2013-02-22T19:18:14Z</time>
      </trkpt>
      <trkpt lat="45.76255" lon="4.82377">
        <ele>264</ele>
        <time>2013-02-22T19:18:19Z</time>
      </trkpt>
      <trkpt lat="45.76259" lon="4.82378">
        <ele>263</ele>
        <time>2013-02-22T19:18:21Z</time>
      </trkpt>
      <trkpt lat="45.76262" lon="4.82379">
        <ele>263</ele>
        <time>2013-02-22T19:18:23Z</time>
      </trkpt>
      <trkpt lat="45.76263" lon="4.82379">
        <ele>263</ele>
        <time>2013-02-22T19:18:24Z</time>
      </trkpt>
      <trkpt lat="45.76266" lon="4.8238">
        <ele>263</ele>
        <time>2013-02-22T19:18:26Z</time>
      </trkpt>
      <trkpt lat="45.76274" lon="4.82379">
        <ele>264</ele>
        <time>2013-02-22T19:18:31Z</time>
      </trkpt>
      <trkpt lat="45.76275" lon="4.82374">
        <ele>265</ele>
        <time>2013-02-22T19:18:33Z</time>
      </trkpt>
      <trkpt lat="45.76275" lon="4.82371">
        <ele>265</ele>
        <time>2013-02-22T19:18:34Z</time>
      </trkpt>
      <trkpt lat="45.76274" lon="4.82369">
        <ele>266</ele>
        <time>2013-02-22T19:18:35Z</time>
      </trkpt>
      <trkpt lat="45.76273" lon="4.82367">
        <ele>266</ele>
        <time>2013-02-22T19:18:36Z</time>
      </trkpt>
      <trkpt lat="45.76265" lon="4.82362">
        <ele>267</ele>
        <time>2013-02-22T19:18:41Z</time>
      </trkpt>
      <trkpt lat="45.76264" lon="4.82361">
        <ele>267</ele>
        <time>2013-02-22T19:18:42Z</time>
      </trkpt>
      <trkpt lat="45.7626" lon="4.8236">
        <ele>267</ele>
        <time>2013-02-22T19:18:44Z</time>
      </trkpt>
      <trkpt lat="45.76253" lon="4.82357">
        <ele>268</ele>
        <time>2013-02-22T19:18:48Z</time>
      </trkpt>
      <trkpt lat="45.76247" lon="4.82355">
        <ele>266</ele>
        <time>2013-02-22T19:18:52Z</time>
      </trkpt>
      <trkpt lat="45.76244" lon="4.82353">
        <ele>266</ele>
        <time>2013-02-22T19:18:54Z</time>
      </trkpt>
      <trkpt lat="45.76242" lon="4.82351">
        <ele>267</ele>
        <time>2013-02-22T19:18:55Z</time>
      </trkpt>
      <trkpt lat="45.76234" lon="4.82345">
        <ele>267</ele>
        <time>2013-02-22T19:19:00Z</time>
      </trkpt>
      <trkpt lat="45.7623" lon="4.82339">
        <ele>267</ele>
        <time>2013-02-22T19:19:04Z</time>
      </trkpt>
      <trkpt lat="45.76229" lon="4.82336">
        <ele>268</ele>
        <time>2013-02-22T19:19:06Z</time>
      </trkpt>
      <trkpt lat="45.7623" lon="4.82335">
        <ele>268</ele>
        <time>2013-02-22T19:19:07Z</time>
      </trkpt>
      <trkpt lat="45.76235" lon="4.82337">
        <ele>269</ele>
        <time>2013-02-22T19:19:11Z</time>
      </trkpt>
      <trkpt lat="45.76243" lon="4.82341">
        <ele>270</ele>
        <time>2013-02-22T19:19:17Z</time>
      </trkpt>
      <trkpt lat="45.76246" lon="4.82343">
        <ele>270</ele>
        <time>2013-02-22T19:19:20Z</time>
      </trkpt>
      <trkpt lat="45.76249" lon="4.82345">
        <ele>270</ele>
        <time>2013-02-22T19:19:22Z</time>
      </trkpt>
      <trkpt lat="45.76257" lon="4.82351">
        <ele>269</ele>
        <time>2013-02-22T19:19:28Z</time>
      </trkpt>
      <trkpt lat="45.76266" lon="4.82353">
        <ele>269</ele>
        <time>2013-02-22T19:19:34Z</time>
      </trkpt>
      <trkpt lat="45.76267" lon="4.82352">
        <ele>269</ele>
        <time>2013-02-22T19:19:35Z</time>
      </trkpt>
      <trkpt lat="45.76272" lon="4.82354">
        <ele>268</ele>
        <time>2013-02-22T19:19:39Z</time>
      </trkpt>
      <trkpt lat="45.76276" lon="4.82353">
        <ele>268</ele>
        <time>2013-02-22T19:19:41Z</time>
      </trkpt>
      <trkpt lat="45.76281" lon="4.82343">
        <ele>269</ele>
        <time>2013-02-22T19:19:46Z</time>
      </trkpt>
      <trkpt lat="45.76281" lon="4.82341">
        <ele>269</ele>
        <time>2013-02-22T19:19:47Z</time>
      </trkpt>
      <trkpt lat="45.76276" lon="4.82335">
        <ele>270</ele>
        <time>2013-02-22T19:19:51Z</time>
      </trkpt>
      <trkpt lat="45.76271" lon="4.82326">
        <ele>282</ele>
        <time>2013-02-22T19:19:57Z</time>
      </trkpt>
      <trkpt lat="45.76268" lon="4.82325">
        <ele>282</ele>
        <time>2013-02-22T19:19:59Z</time>
      </trkpt>
      <trkpt lat="45.76266" lon="4.82324">
        <ele>282</ele>
        <time>2013-02-22T19:20:01Z</time>
      </trkpt>
      <trkpt lat="45.7626" lon="4.82319">
        <ele>282</ele>
        <time>2013-02-22T19:20:06Z</time>
      </trkpt>
      <trkpt lat="45.76257" lon="4.82318">
        <ele>281</ele>
        <time>2013-02-22T19:20:08Z</time>
      </trkpt>
      <trkpt lat="45.76253" lon="4.82315">
        <ele>282</ele>
        <time>2013-02-22T19:20:11Z</time>
      </trkpt>
      <trkpt lat="45.76252" lon="4.82315">
        <ele>282</ele>
        <time>2013-02-22T19:20:12Z</time>
      </trkpt>
      <trkpt lat="45.7625" lon="4.82312">
        <ele>282</ele>
        <time>2013-02-22T19:20:14Z</time>
      </trkpt>
      <trkpt lat="45.76248" lon="4.82309">
        <ele>283</ele>
        <time>2013-02-22T19:20:18Z</time>
      </trkpt>
      <trkpt lat="45.76249" lon="4.82309">
        <ele>283</ele>
        <time>2013-02-22T19:20:19Z</time>
      </trkpt>
      <trkpt lat="45.76254" lon="4.82309">
        <ele>283</ele>
        <time>2013-02-22T19:20:22Z</time>
      </trkpt>
      <trkpt lat="45.76257" lon="4.8231">
        <ele>283</ele>
        <time>2013-02-22T19:20:24Z</time>
      </trkpt>
      <trkpt lat="45.76264" lon="4.82312">
        <ele>283</ele>
        <time>2013-02-22T19:20:27Z</time>
      </trkpt>
      <trkpt lat="45.76278" lon="4.82313">
        <ele>284</ele>
        <time>2013-02-22T19:20:34Z</time>
      </trkpt>
      <trkpt lat="45.76282" lon="4.82315">
        <ele>284</ele>
        <time>2013-02-22T19:20:36Z</time>
      </trkpt>
      <trkpt lat="45.7629" lon="4.82318">
        <ele>285</ele>
        <time>2013-02-22T19:20:40Z</time>
      </trkpt>
      <trkpt lat="45.76295" lon="4.82318">
        <ele>285</ele>
        <time>2013-02-22T19:20:43Z</time>
      </trkpt>
      <trkpt lat="45.76298" lon="4.82313">
        <ele>285</ele>
        <time>2013-02-22T19:20:46Z</time>
      </trkpt>
      <trkpt lat="45.76298" lon="4.82312">
        <ele>285</ele>
        <time>2013-02-22T19:20:47Z</time>
      </trkpt>
      <trkpt lat="45.76298" lon="4.82312">
        <ele>285</ele>
        <time>2013-02-22T19:20:48Z</time>
      </trkpt>
      <trkpt lat="45.76299" lon="4.8231">
        <ele>286</ele>
        <time>2013-02-22T19:20:50Z</time>
      </trkpt>
      <trkpt lat="45.76298" lon="4.82306">
        <ele>286</ele>
        <time>2013-02-22T19:20:52Z</time>
      </trkpt>
      <trkpt lat="45.76292" lon="4.82304">
        <ele>286</ele>
        <time>2013-02-22T19:20:56Z</time>
      </trkpt>
      <trkpt lat="45.76288" lon="4.82304">
        <ele>286</ele>
        <time>2013-02-22T19:20:58Z</time>
      </trkpt>
      <trkpt lat="45.76285" lon="4.82305">
        <ele>286</ele>
        <time>2013-02-22T19:21:01Z</time>
      </trkpt>
      <trkpt lat="45.76284" lon="4.82305">
        <ele>286</ele>
        <time>2013-02-22T19:21:02Z</time>
      </trkpt>
      <trkpt lat="45.76282" lon="4.82306">
        <ele>285</ele>
        <time>2013-02-22T19:21:05Z</time>
      </trkpt>
      <trkpt lat="45.76282" lon="4.82307">
        <ele>285</ele>
        <time>2013-02-22T19:21:07Z</time>
      </trkpt>
      <trkpt lat="45.76284" lon="4.82308">
        <ele>285</ele>
        <time>2013-02-22T19:21:17Z</time>
      </trkpt>
      <trkpt lat="45.76288" lon="4.82302">
        <ele>286</ele>
        <time>2013-02-22T19:22:27Z</time>
      </trkpt>
      <trkpt lat="45.76288" lon="4.82302">
        <ele>286</ele>
        <time>2013-02-22T19:22:31Z</time>
      </trkpt>
      <trkpt lat="45.76285" lon="4.82296">
        <ele>287</ele>
        <time>2013-02-22T19:22:51Z</time>
      </trkpt>
      <trkpt lat="45.76285" lon="4.82294">
        <ele>287</ele>
        <time>2013-02-22T19:22:52Z</time>
      </trkpt>
      <trkpt lat="45.76286" lon="4.82282">
        <ele>289</ele>
        <time>2013-02-22T19:22:57Z</time>
      </trkpt>
      <trkpt lat="45.76284" lon="4.82268">
        <ele>290</ele>
        <time>2013-02-22T19:23:03Z</time>
      </trkpt>
      <trkpt lat="45.76281" lon="4.82249">
        <ele>297</ele>
        <time>2013-02-22T19:23:09Z</time>
      </trkpt>
      <trkpt lat="45.76278" lon="4.82241">
        <ele>297</ele>
        <time>2013-02-22T19:23:12Z</time>
      </trkpt>
      <trkpt lat="45.76275" lon="4.82235">
        <ele>297</ele>
        <time>2013-02-22T19:23:14Z</time>
      </trkpt>
      <trkpt lat="45.76266" lon="4.82222">
        <ele>297</ele>
        <time>2013-02-22T19:23:19Z</time>
      </trkpt>
      <trkpt lat="45.76264" lon="4.82206">
        <ele>296</ele>
        <time>2013-02-22T19:23:24Z</time>
      </trkpt>
      <trkpt lat="45.76265" lon="4.82196">
        <ele>296</ele>
        <time>2013-02-22T19:23:27Z</time>
      </trkpt>
      <trkpt lat="45.76266" lon="4.82182">
        <ele>295</ele>
        <time>2013-02-22T19:23:31Z</time>
      </trkpt>
      <trkpt lat="45.76262" lon="4.82169">
        <ele>295</ele>
        <time>2013-02-22T19:23:35Z</time>
      </trkpt>
      <trkpt lat="45.76261" lon="4.82165">
        <ele>292</ele>
        <time>2013-02-22T19:23:36Z</time>
      </trkpt>
      <trkpt lat="45.7625" lon="4.82156">
        <ele>292</ele>
        <time>2013-02-22T19:23:41Z</time>
      </trkpt>
      <trkpt lat="45.76248" lon="4.82155">
        <ele>293</ele>
        <time>2013-02-22T19:23:42Z</time>
      </trkpt>
      <trkpt lat="45.76236" lon="4.82152">
        <ele>293</ele>
        <time>2013-02-22T19:23:47Z</time>
      </trkpt>
      <trkpt lat="45.76229" lon="4.82151">
        <ele>293</ele>
        <time>2013-02-22T19:23:50Z</time>
      </trkpt>
      <trkpt lat="45.76219" lon="4.82149">
        <ele>293</ele>
        <time>2013-02-22T19:23:54Z</time>
      </trkpt>
      <trkpt lat="45.7621" lon="4.82149">
        <ele>293</ele>
        <time>2013-02-22T19:23:58Z</time>
      </trkpt>
      <trkpt lat="45.76206" lon="4.8215">
        <ele>293</ele>
        <time>2013-02-22T19:24:00Z</time>
      </trkpt>
      <trkpt lat="45.76203" lon="4.82155">
        <ele>294</ele>
        <time>2013-02-22T19:24:02Z</time>
      </trkpt>
      <trkpt lat="45.76201" lon="4.82163">
        <ele>294</ele>
        <time>2013-02-22T19:24:04Z</time>
      </trkpt>
      <trkpt lat="45.76202" lon="4.82169">
        <ele>297</ele>
        <time>2013-02-22T19:24:06Z</time>
      </trkpt>
      <trkpt lat="45.76203" lon="4.82179">
        <ele>297</ele>
        <time>2013-02-22T19:24:09Z</time>
      </trkpt>
      <trkpt lat="45.76204" lon="4.8219">
        <ele>297</ele>
        <time>2013-02-22T19:24:14Z</time>
      </trkpt>
      <trkpt lat="45.76204" lon="4.82191">
        <ele>297</ele>
        <time>2013-02-22T19:24:15Z</time>
      </trkpt>
      <trkpt lat="45.76205" lon="4.82196">
        <ele>297</ele>
        <time>2013-02-22T19:24:21Z</time>
      </trkpt>
      <trkpt lat="45.76205" lon="4.82197">
        <ele>297</ele>
        <time>2013-02-22T19:24:22Z</time>
      </trkpt>
      <trkpt lat="45.76205" lon="4.82197">
        <ele>297</ele>
        <time>2013-02-22T19:24:23Z</time>
      </trkpt>
      <trkpt lat="45.76208" lon="4.82199">
        <ele>297</ele>
        <time>2013-02-22T19:24:29Z</time>
      </trkpt>
      <trkpt lat="45.76218" lon="4.82194">
        <ele>296</ele>
        <time>2013-02-22T19:24:34Z</time>
      </trkpt>
      <trkpt lat="45.76222" lon="4.82193">
        <ele>296</ele>
        <time>2013-02-22T19:24:36Z</time>
      </trkpt>
      <trkpt lat="45.76232" lon="4.82194">
        <ele>296</ele>
        <time>2013-02-22T19:24:40Z</time>
      </trkpt>
      <trkpt lat="45.76242" lon="4.82196">
        <ele>296</ele>
        <time>2013-02-22T19:24:44Z</time>
      </trkpt>
      <trkpt lat="45.76247" lon="4.82199">
        <ele>296</ele>
        <time>2013-02-22T19:24:47Z</time>
      </trkpt>
      <trkpt lat="45.76252" lon="4.8221">
        <ele>296</ele>
        <time>2013-02-22T19:24:51Z</time>
      </trkpt>
      <trkpt lat="45.76253" lon="4.82212">
        <ele>296</ele>
        <time>2013-02-22T19:24:52Z</time>
      </trkpt>
      <trkpt lat="45.76253" lon="4.82216">
        <ele>296</ele>
        <time>2013-02-22T19:24:54Z</time>
      </trkpt>
      <trkpt lat="45.76254" lon="4.82218">
        <ele>296</ele>
        <time>2013-02-22T19:24:55Z</time>
      </trkpt>
      <trkpt lat="45.76257" lon="4.82222">
        <ele>297</ele>
        <time>2013-02-22T19:24:57Z</time>
      </trkpt>
      <trkpt lat="45.76259" lon="4.82229">
        <ele>297</ele>
        <time>2013-02-22T19:24:59Z</time>
      </trkpt>
      <trkpt lat="45.76261" lon="4.8224">
        <ele>297</ele>
        <time>2013-02-22T19:25:02Z</time>
      </trkpt>
      <trkpt lat="45.76262" lon="4.82243">
        <ele>297</ele>
        <time>2013-02-22T19:25:03Z</time>
      </trkpt>
      <trkpt lat="45.76262" lon="4.82266">
        <ele>292</ele>
        <time>2013-02-22T19:25:10Z</time>
      </trkpt>
      <trkpt lat="45.76259" lon="4.82285">
        <ele>288</ele>
        <time>2013-02-22T19:25:16Z</time>
      </trkpt>
      <trkpt lat="45.76258" lon="4.82292">
        <ele>287</ele>
        <time>2013-02-22T19:25:19Z</time>
      </trkpt>
      <trkpt lat="45.76257" lon="4.82292">
        <ele>287</ele>
        <time>2013-02-22T19:25:20Z</time>
      </trkpt>
      <trkpt lat="45.76253" lon="4.82293">
        <ele>287</ele>
        <time>2013-02-22T19:25:25Z</time>
      </trkpt>
      <trkpt lat="45.76252" lon="4.82294">
        <ele>287</ele>
        <time>2013-02-22T19:25:26Z</time>
      </trkpt>
      <trkpt lat="45.7625" lon="4.82295">
        <ele>286</ele>
        <time>2013-02-22T19:25:29Z</time>
      </trkpt>
      <trkpt lat="45.76249" lon="4.82296">
        <ele>286</ele>
        <time>2013-02-22T19:25:32Z</time>
      </trkpt>
      <trkpt lat="45.76247" lon="4.82302">
        <ele>284</ele>
        <time>2013-02-22T19:25:36Z</time>
      </trkpt>
      <trkpt lat="45.76248" lon="4.82304">
        <ele>284</ele>
        <time>2013-02-22T19:25:37Z</time>
      </trkpt>
      <trkpt lat="45.7625" lon="4.82308">
        <ele>283</ele>
        <time>2013-02-22T19:25:39Z</time>
      </trkpt>
      <trkpt lat="45.76249" lon="4.8231">
        <ele>283</ele>
        <time>2013-02-22T19:25:40Z</time>
      </trkpt>
      <trkpt lat="45.76248" lon="4.82311">
        <ele>282</ele>
        <time>2013-02-22T19:25:41Z</time>
      </trkpt>
      <trkpt lat="45.76239" lon="4.82313">
        <ele>282</ele>
        <time>2013-02-22T19:25:45Z</time>
      </trkpt>
      <trkpt lat="45.76236" lon="4.82314">
        <ele>282</ele>
        <time>2013-02-22T19:25:46Z</time>
      </trkpt>
      <trkpt lat="45.76231" lon="4.82316">
        <ele>283</ele>
        <time>2013-02-22T19:25:48Z</time>
      </trkpt>
      <trkpt lat="45.76225" lon="4.82318">
        <ele>283</ele>
        <time>2013-02-22T19:25:50Z</time>
      </trkpt>
      <trkpt lat="45.76213" lon="4.82312">
        <ele>284</ele>
        <time>2013-02-22T19:25:55Z</time>
      </trkpt>
      <trkpt lat="45.76205" lon="4.82307">
        <ele>285</ele>
        <time>2013-02-22T19:26:00Z</time>
      </trkpt>
      <trkpt lat="45.76198" lon="4.82302">
        <ele>285</ele>
        <time>2013-02-22T19:26:05Z</time>
      </trkpt>
      <trkpt lat="45.76194" lon="4.82302">
        <ele>285</ele>
        <time>2013-02-22T19:26:07Z</time>
      </trkpt>
      <trkpt lat="45.76186" lon="4.82303">
        <ele>285</ele>
        <time>2013-02-22T19:26:11Z</time>
      </trkpt>
      <trkpt lat="45.76175" lon="4.82305">
        <ele>284</ele>
        <time>2013-02-22T19:26:16Z</time>
      </trkpt>
      <trkpt lat="45.76173" lon="4.82306">
        <ele>284</ele>
        <time>2013-02-22T19:26:17Z</time>
      </trkpt>
      <trkpt lat="45.76168" lon="4.82311">
        <ele>283</ele>
        <time>2013-02-22T19:26:22Z</time>
      </trkpt>
      <trkpt lat="45.76176" lon="4.82315">
        <ele>283</ele>
        <time>2013-02-22T19:26:26Z</time>
      </trkpt>
      <trkpt lat="45.76178" lon="4.82316">
        <ele>283</ele>
        <time>2013-02-22T19:26:27Z</time>
      </trkpt>
      <trkpt lat="45.76179" lon="4.82318">
        <ele>282</ele>
        <time>2013-02-22T19:26:28Z</time>
      </trkpt>
      <trkpt lat="45.76177" lon="4.82321">
        <ele>282</ele>
        <time>2013-02-22T19:26:30Z</time>
      </trkpt>
      <trkpt lat="45.7617" lon="4.82323">
        <ele>281</ele>
        <time>2013-02-22T19:26:34Z</time>
      </trkpt>
      <trkpt lat="45.76168" lon="4.82324">
        <ele>280</ele>
        <time>2013-02-22T19:26:35Z</time>
      </trkpt>
      <trkpt lat="45.76167" lon="4.82326">
        <ele>279</ele>
        <time>2013-02-22T19:26:36Z</time>
      </trkpt>
      <trkpt lat="45.76167" lon="4.82328">
        <ele>279</ele>
        <time>2013-02-22T19:26:37Z</time>
      </trkpt>
      <trkpt lat="45.76169" lon="4.82329">
        <ele>279</ele>
        <time>2013-02-22T19:26:38Z</time>
      </trkpt>
      <trkpt lat="45.76181" lon="4.82331">
        <ele>281</ele>
        <time>2013-02-22T19:26:43Z</time>
      </trkpt>
      <trkpt lat="45.76185" lon="4.82333">
        <ele>282</ele>
        <time>2013-02-22T19:26:46Z</time>
      </trkpt>
      <trkpt lat="45.7619" lon="4.82334">
        <ele>268</ele>
        <time>2013-02-22T19:26:48Z</time>
      </trkpt>
      <trkpt lat="45.76195" lon="4.82335">
        <ele>267</ele>
        <time>2013-02-22T19:26:50Z</time>
      </trkpt>
      <trkpt lat="45.76203" lon="4.82336">
        <ele>266</ele>
        <time>2013-02-22T19:26:53Z</time>
      </trkpt>
      <trkpt lat="45.76208" lon="4.82338">
        <ele>266</ele>
        <time>2013-02-22T19:26:55Z</time>
      </trkpt>
      <trkpt lat="45.76209" lon="4.82345">
        <ele>265</ele>
        <time>2013-02-22T19:26:57Z</time>
      </trkpt>
      <trkpt lat="45.76203" lon="4.82349">
        <ele>265</ele>
        <time>2013-02-22T19:27:00Z</time>
      </trkpt>
      <trkpt lat="45.76201" lon="4.82349">
        <ele>265</ele>
        <time>2013-02-22T19:27:01Z</time>
      </trkpt>
      <trkpt lat="45.76199" lon="4.8235">
        <ele>265</ele>
        <time>2013-02-22T19:27:02Z</time>
      </trkpt>
      <trkpt lat="45.76192" lon="4.82351">
        <ele>265</ele>
        <time>2013-02-22T19:27:05Z</time>
      </trkpt>
      <trkpt lat="45.76183" lon="4.82351">
        <ele>266</ele>
        <time>2013-02-22T19:27:09Z</time>
      </trkpt>
      <trkpt lat="45.7618" lon="4.82351">
        <ele>266</ele>
        <time>2013-02-22T19:27:10Z</time>
      </trkpt>
      <trkpt lat="45.76172" lon="4.82355">
        <ele>266</ele>
        <time>2013-02-22T19:27:14Z</time>
      </trkpt>
      <trkpt lat="45.7617" lon="4.82359">
        <ele>265</ele>
        <time>2013-02-22T19:27:15Z</time>
      </trkpt>
      <trkpt lat="45.76168" lon="4.82364">
        <ele>263</ele>
        <time>2013-02-22T19:27:17Z</time>
      </trkpt>
      <trkpt lat="45.76164" lon="4.82364">
        <ele>261</ele>
        <time>2013-02-22T19:27:19Z</time>
      </trkpt>
      <trkpt lat="45.76153" lon="4.82363">
        <ele>261</ele>
        <time>2013-02-22T19:27:24Z</time>
      </trkpt>
      <trkpt lat="45.7615" lon="4.82363">
        <ele>261</ele>
        <time>2013-02-22T19:27:25Z</time>
      </trkpt>
      <trkpt lat="45.76139" lon="4.82364">
        <ele>259</ele>
        <time>2013-02-22T19:27:30Z</time>
      </trkpt>
      <trkpt lat="45.76131" lon="4.82365">
        <ele>259</ele>
        <time>2013-02-22T19:27:33Z</time>
      </trkpt>
      <trkpt lat="45.76126" lon="4.82366">
        <ele>258</ele>
        <time>2013-02-22T19:27:35Z</time>
      </trkpt>
      <trkpt lat="45.76116" lon="4.82362">
        <ele>259</ele>
        <time>2013-02-22T19:27:39Z</time>
      </trkpt>
      <trkpt lat="45.76113" lon="4.82361">
        <ele>259</ele>
        <time>2013-02-22T19:27:41Z</time>
      </trkpt>
      <trkpt lat="45.7611" lon="4.82363">
        <ele>259</ele>
        <time>2013-02-22T19:27:43Z</time>
      </trkpt>
      <trkpt lat="45.76095" lon="4.82364">
        <ele>259</ele>
        <time>2013-02-22T19:27:50Z</time>
      </trkpt>
      <trkpt lat="45.76083" lon="4.82361">
        <ele>255</ele>
        <time>2013-02-22T19:27:56Z</time>
      </trkpt>
      <trkpt lat="45.76077" lon="4.82358">
        <ele>256</ele>
        <time>2013-02-22T19:27:59Z</time>
      </trkpt>
      <trkpt lat="45.76073" lon="4.82355">
        <ele>256</ele>
        <time>2013-02-22T19:28:01Z</time>
      </trkpt>
      <trkpt lat="45.76067" lon="4.82352">
        <ele>256</ele>
        <time>2013-02-22T19:28:04Z</time>
      </trkpt>
      <trkpt lat="45.76065" lon="4.82349">
        <ele>257</ele>
        <time>2013-02-22T19:28:06Z</time>
      </trkpt>
      <trkpt lat="45.76061" lon="4.82344">
        <ele>257</ele>
        <time>2013-02-22T19:28:09Z</time>
      </trkpt>
      <trkpt lat="45.76055" lon="4.82336">
        <ele>256</ele>
        <time>2013-02-22T19:28:13Z</time>
      </trkpt>
      <trkpt lat="45.76053" lon="4.82332">
        <ele>268</ele>
        <time>2013-02-22T19:28:15Z</time>
      </trkpt>
      <trkpt lat="45.76049" lon="4.82327">
        <ele>267</ele>
        <time>2013-02-22T19:28:18Z</time>
      </trkpt>
      <trkpt lat="45.76047" lon="4.82325">
        <ele>267</ele>
        <time>2013-02-22T19:28:19Z</time>
      </trkpt>
      <trkpt lat="45.76042" lon="4.82316">
        <ele>267</ele>
        <time>2013-02-22T19:28:24Z</time>
      </trkpt>
      <trkpt lat="45.76036" lon="4.82304">
        <ele>267</ele>
        <time>2013-02-22T19:28:30Z</time>
      </trkpt>
      <trkpt lat="45.76035" lon="4.82301">
        <ele>267</ele>
        <time>2013-02-22T19:28:32Z</time>
      </trkpt>
      <trkpt lat="45.76033" lon="4.82293">
        <ele>268</ele>
        <time>2013-02-22T19:28:35Z</time>
      </trkpt>
      <trkpt lat="45.76033" lon="4.82291">
        <ele>268</ele>
        <time>2013-02-22T19:28:36Z</time>
      </trkpt>
      <trkpt lat="45.76029" lon="4.82284">
        <ele>268</ele>
        <time>2013-02-22T19:28:39Z</time>
      </trkpt>
      <trkpt lat="45.76029" lon="4.82281">
        <ele>268</ele>
        <time>2013-02-22T19:28:40Z</time>
      </trkpt>
      <trkpt lat="45.76028" lon="4.82268">
        <ele>269</ele>
        <time>2013-02-22T19:28:47Z</time>
      </trkpt>
      <trkpt lat="45.76027" lon="4.82267">
        <ele>269</ele>
        <time>2013-02-22T19:28:50Z</time>
      </trkpt>
      <trkpt lat="45.76026" lon="4.82268">
        <ele>269</ele>
        <time>2013-02-22T19:28:52Z</time>
      </trkpt>
      <trkpt lat="45.76024" lon="4.82267">
        <ele>268</ele>
        <time>2013-02-22T19:28:58Z</time>
      </trkpt>
      <trkpt lat="45.76022" lon="4.8226">
        <ele>268</ele>
        <time>2013-02-22T19:29:36Z</time>
      </trkpt>
      <trkpt lat="45.76022" lon="4.82259">
        <ele>268</ele>
        <time>2013-02-22T19:29:38Z</time>
      </trkpt>
      <trkpt lat="45.7602" lon="4.8226">
        <ele>268</ele>
        <time>2013-02-22T19:29:43Z</time>
      </trkpt>
      <trkpt lat="45.76016" lon="4.8226">
        <ele>268</ele>
        <time>2013-02-22T19:29:50Z</time>
      </trkpt>
      <trkpt lat="45.76004" lon="4.82256">
        <ele>267</ele>
        <time>2013-02-22T19:29:58Z</time>
      </trkpt>
      <trkpt lat="45.75991" lon="4.82256">
        <ele>263</ele>
        <time>2013-02-22T19:30:04Z</time>
      </trkpt>
      <trkpt lat="45.75987" lon="4.82257">
        <ele>262</ele>
        <time>2013-02-22T19:30:07Z</time>
      </trkpt>
      <trkpt lat="45.75985" lon="4.82256">
        <ele>262</ele>
        <time>2013-02-22T19:30:09Z</time>
      </trkpt>
      <trkpt lat="45.75981" lon="4.82252">
        <ele>261</ele>
        <time>2013-02-22T19:30:16Z</time>
      </trkpt>
      <trkpt lat="45.75982" lon="4.82249">
        <ele>264</ele>
        <time>2013-02-22T19:30:29Z</time>
      </trkpt>
      <trkpt lat="45.75982" lon="4.82244">
        <ele>264</ele>
        <time>2013-02-22T19:30:41Z</time>
      </trkpt>
      <trkpt lat="45.7598" lon="4.82242">
        <ele>264</ele>
        <time>2013-02-22T19:30:43Z</time>
      </trkpt>
      <trkpt lat="45.7598" lon="4.8224">
        <ele>264</ele>
        <time>2013-02-22T19:30:47Z</time>
      </trkpt>
      <trkpt lat="45.75982" lon="4.82241">
        <ele>264</ele>
        <time>2013-02-22T19:30:55Z</time>
      </trkpt>
      <trkpt lat="45.75983" lon="4.82232">
        <ele>264</ele>
        <time>2013-02-22T19:31:03Z</time>
      </trkpt>
      <trkpt lat="45.75981" lon="4.82228">
        <ele>263</ele>
        <time>2013-02-22T19:31:07Z</time>
      </trkpt>
      <trkpt lat="45.7598" lon="4.82229">
        <ele>263</ele>
        <time>2013-02-22T19:31:09Z</time>
      </trkpt>
      <trkpt lat="45.75978" lon="4.82234">
        <ele>263</ele>
        <time>2013-02-22T19:31:14Z</time>
      </trkpt>
      <trkpt lat="45.7598" lon="4.82238">
        <ele>263</ele>
        <time>2013-02-22T19:31:22Z</time>
      </trkpt>
      <trkpt lat="45.75979" lon="4.82244">
        <ele>263</ele>
        <time>2013-02-22T19:31:26Z</time>
      </trkpt>
      <trkpt lat="45.75971" lon="4.82242">
        <ele>263</ele>
        <time>2013-02-22T19:31:30Z</time>
      </trkpt>
      <trkpt lat="45.75968" lon="4.82236">
        <ele>262</ele>
        <time>2013-02-22T19:31:33Z</time>
      </trkpt>
      <trkpt lat="45.75966" lon="4.82234">
        <ele>262</ele>
        <time>2013-02-22T19:31:35Z</time>
      </trkpt>
      <trkpt lat="45.75965" lon="4.82234">
        <ele>262</ele>
        <time>2013-02-22T19:31:36Z</time>
      </trkpt>
      <trkpt lat="45.75957" lon="4.82236">
        <ele>261</ele>
        <time>2013-02-22T19:31:40Z</time>
      </trkpt>
      <trkpt lat="45.7595" lon="4.82237">
        <ele>260</ele>
        <time>2013-02-22T19:31:45Z</time>
      </trkpt>
      <trkpt lat="45.75949" lon="4.82236">
        <ele>260</ele>
        <time>2013-02-22T19:31:46Z</time>
      </trkpt>
      <trkpt lat="45.75947" lon="4.82235">
        <ele>260</ele>
        <time>2013-02-22T19:31:49Z</time>
      </trkpt>
      <trkpt lat="45.75941" lon="4.82236">
        <ele>259</ele>
        <time>2013-02-22T19:31:51Z</time>
      </trkpt>
      <trkpt lat="45.75933" lon="4.82239">
        <ele>258</ele>
        <time>2013-02-22T19:31:55Z</time>
      </trkpt>
      <trkpt lat="45.7593" lon="4.82239">
        <ele>257</ele>
        <time>2013-02-22T19:31:58Z</time>
      </trkpt>
      <trkpt lat="45.75926" lon="4.82235">
        <ele>257</ele>
        <time>2013-02-22T19:32:01Z</time>
      </trkpt>
      <trkpt lat="45.75924" lon="4.82237">
        <ele>257</ele>
        <time>2013-02-22T19:32:05Z</time>
      </trkpt>
      <trkpt lat="45.75924" lon="4.82239">
        <ele>257</ele>
        <time>2013-02-22T19:32:16Z</time>
      </trkpt>
      <trkpt lat="45.75924" lon="4.82247">
        <ele>256</ele>
        <time>2013-02-22T19:32:30Z</time>
      </trkpt>
      <trkpt lat="45.75925" lon="4.82268">
        <ele>255</ele>
        <time>2013-02-22T19:32:34Z</time>
      </trkpt>
      <trkpt lat="45.75923" lon="4.82274">
        <ele>255</ele>
        <time>2013-02-22T19:32:35Z</time>
      </trkpt>
      <trkpt lat="45.75922" lon="4.8228">
        <ele>255</ele>
        <time>2013-02-22T19:32:37Z</time>
      </trkpt>
      <trkpt lat="45.75921" lon="4.82289">
        <ele>254</ele>
        <time>2013-02-22T19:32:41Z</time>
      </trkpt>
      <trkpt lat="45.7592" lon="4.82301">
        <ele>254</ele>
        <time>2013-02-22T19:32:44Z</time>
      </trkpt>
      <trkpt lat="45.75917" lon="4.82309">
        <ele>253</ele>
        <time>2013-02-22T19:32:46Z</time>
      </trkpt>
      <trkpt lat="45.75914" lon="4.82315">
        <ele>246</ele>
        <time>2013-02-22T19:32:50Z</time>
      </trkpt>
      <trkpt lat="45.75912" lon="4.82316">
        <ele>246</ele>
        <time>2013-02-22T19:32:51Z</time>
      </trkpt>
      <trkpt lat="45.75907" lon="4.82314">
        <ele>246</ele>
        <time>2013-02-22T19:32:54Z</time>
      </trkpt>
      <trkpt lat="45.75903" lon="4.82312">
        <ele>245</ele>
        <time>2013-02-22T19:32:56Z</time>
      </trkpt>
      <trkpt lat="45.75897" lon="4.82311">
        <ele>245</ele>
        <time>2013-02-22T19:32:58Z</time>
      </trkpt>
      <trkpt lat="45.75889" lon="4.8231">
        <ele>244</ele>
        <time>2013-02-22T19:33:01Z</time>
      </trkpt>
      <trkpt lat="45.75883" lon="4.8231">
        <ele>244</ele>
        <time>2013-02-22T19:33:03Z</time>
      </trkpt>
      <trkpt lat="45.7587" lon="4.82303">
        <ele>243</ele>
        <time>2013-02-22T19:33:07Z</time>
      </trkpt>
      <trkpt lat="45.75868" lon="4.823">
        <ele>243</ele>
        <time>2013-02-22T19:33:09Z</time>
      </trkpt>
      <trkpt lat="45.75862" lon="4.82281">
        <ele>243</ele>
        <time>2013-02-22T19:33:12Z</time>
      </trkpt>
      <trkpt lat="45.75859" lon="4.82262">
        <ele>243</ele>
        <time>2013-02-22T19:33:16Z</time>
      </trkpt>
      <trkpt lat="45.75857" lon="4.82251">
        <ele>243</ele>
        <time>2013-02-22T19:33:18Z</time>
      </trkpt>
      <trkpt lat="45.75853" lon="4.82241">
        <ele>245</ele>
        <time>2013-02-22T19:33:20Z</time>
      </trkpt>
      <trkpt lat="45.75848" lon="4.82227">
        <ele>246</ele>
        <time>2013-02-22T19:33:23Z</time>
      </trkpt>
      <trkpt lat="45.75843" lon="4.8221">
        <ele>246</ele>
        <time>2013-02-22T19:33:27Z</time>
      </trkpt>
      <trkpt lat="45.75841" lon="4.82203">
        <ele>246</ele>
        <time>2013-02-22T19:33:29Z</time>
      </trkpt>
      <trkpt lat="45.75833" lon="4.82189">
        <ele>242</ele>
        <time>2013-02-22T19:33:33Z</time>
      </trkpt>
      <trkpt lat="45.75829" lon="4.82183">
        <ele>242</ele>
        <time>2013-02-22T19:33:35Z</time>
      </trkpt>
      <trkpt lat="45.75827" lon="4.82183">
        <ele>242</ele>
        <time>2013-02-22T19:33:37Z</time>
      </trkpt>
      <trkpt lat="45.75826" lon="4.82183">
        <ele>242</ele>
        <time>2013-02-22T19:33:43Z</time>
      </trkpt>
      <trkpt lat="45.75827" lon="4.82184">
        <ele>242</ele>
        <time>2013-02-22T19:33:49Z</time>
      </trkpt>
      <trkpt lat="45.75826" lon="4.82182">
        <ele>242</ele>
        <time>2013-02-22T19:33:56Z</time>
      </trkpt>
      <trkpt lat="45.75826" lon="4.82183">
        <ele>242</ele>
        <time>2013-02-22T19:34:01Z</time>
      </trkpt>
      <trkpt lat="45.75826" lon="4.82182">
        <ele>242</ele>
        <time>2013-02-22T19:34:09Z</time>
      </trkpt>
      <trkpt lat="45.75823" lon="4.82183">
        <ele>242</ele>
        <time>2013-02-22T19:34:14Z</time>
      </trkpt>
      <trkpt lat="45.75823" lon="4.8218">
        <ele>242</ele>
        <time>2013-02-22T19:34:20Z</time>
      </trkpt>
      <trkpt lat="45.75824" lon="4.82186">
        <ele>242</ele>
        <time>2013-02-22T19:34:35Z</time>
      </trkpt>
      <trkpt lat="45.75822" lon="4.82189">
        <ele>241</ele>
        <time>2013-02-22T19:34:38Z</time>
      </trkpt>
      <trkpt lat="45.75821" lon="4.82188">
        <ele>241</ele>
        <time>2013-02-22T19:34:51Z</time>
      </trkpt>
      <trkpt lat="45.75821" lon="4.82192">
        <ele>241</ele>
        <time>2013-02-22T19:34:55Z</time>
      </trkpt>
      <trkpt lat="45.7582" lon="4.82194">
        <ele>241</ele>
        <time>2013-02-22T19:34:56Z</time>
      </trkpt>
      <trkpt lat="45.7581" lon="4.82198">
        <ele>241</ele>
        <time>2013-02-22T19:35:04Z</time>
      </trkpt>
      <trkpt lat="45.7581" lon="4.82199">
        <ele>241</ele>
        <time>2013-02-22T19:35:10Z</time>
      </trkpt>
      <trkpt lat="45.75808" lon="4.82201">
        <ele>241</ele>
        <time>2013-02-22T19:35:18Z</time>
      </trkpt>
      <trkpt lat="45.75798" lon="4.82198">
        <ele>240</ele>
        <time>2013-02-22T19:35:24Z</time>
      </trkpt>
      <trkpt lat="45.75795" lon="4.82198">
        <ele>240</ele>
        <time>2013-02-22T19:35:25Z</time>
      </trkpt>
      <trkpt lat="45.75782" lon="4.82191">
        <ele>240</ele>
        <time>2013-02-22T19:35:29Z</time>
      </trkpt>
      <trkpt lat="45.75776" lon="4.82185">
        <ele>240</ele>
        <time>2013-02-22T19:35:31Z</time>
      </trkpt>
      <trkpt lat="45.7577" lon="4.8218">
        <ele>240</ele>
        <time>2013-02-22T19:35:34Z</time>
      </trkpt>
      <trkpt lat="45.7576" lon="4.82171">
        <ele>241</ele>
        <time>2013-02-22T19:35:40Z</time>
      </trkpt>
      <trkpt lat="45.75762" lon="4.82171">
        <ele>240</ele>
        <time>2013-02-22T19:35:42Z</time>
      </trkpt>
      <trkpt lat="45.75765" lon="4.82175">
        <ele>240</ele>
        <time>2013-02-22T19:35:44Z</time>
      </trkpt>
      <trkpt lat="45.7577" lon="4.82182">
        <ele>240</ele>
        <time>2013-02-22T19:35:47Z</time>
      </trkpt>
      <trkpt lat="45.75772" lon="4.82185">
        <ele>240</ele>
        <time>2013-02-22T19:35:48Z</time>
      </trkpt>
      <trkpt lat="45.75775" lon="4.82194">
        <ele>240</ele>
        <time>2013-02-22T19:35:50Z</time>
      </trkpt>
      <trkpt lat="45.75777" lon="4.82201">
        <ele>240</ele>
        <time>2013-02-22T19:35:52Z</time>
      </trkpt>
      <trkpt lat="45.75779" lon="4.82215">
        <ele>239</ele>
        <time>2013-02-22T19:35:56Z</time>
      </trkpt>
      <trkpt lat="45.75778" lon="4.8222">
        <ele>239</ele>
        <time>2013-02-22T19:35:58Z</time>
      </trkpt>
      <trkpt lat="45.75778" lon="4.82223">
        <ele>239</ele>
        <time>2013-02-22T19:35:59Z</time>
      </trkpt>
      <trkpt lat="45.75779" lon="4.82226">
        <ele>239</ele>
        <time>2013-02-22T19:36:00Z</time>
      </trkpt>
      <trkpt lat="45.75779" lon="4.82245">
        <ele>238</ele>
        <time>2013-02-22T19:36:05Z</time>
      </trkpt>
      <trkpt lat="45.75776" lon="4.82267">
        <ele>231</ele>
        <time>2013-02-22T19:36:10Z</time>
      </trkpt>
      <trkpt lat="45.75776" lon="4.82271">
        <ele>231</ele>
        <time>2013-02-22T19:36:11Z</time>
      </trkpt>
      <trkpt lat="45.75776" lon="4.82279">
        <ele>230</ele>
        <time>2013-02-22T19:36:13Z</time>
      </trkpt>
      <trkpt lat="45.75774" lon="4.82286">
        <ele>229</ele>
        <time>2013-02-22T19:36:15Z</time>
      </trkpt>
      <trkpt lat="45.7577" lon="4.82297">
        <ele>228</ele>
        <time>2013-02-22T19:36:18Z</time>
      </trkpt>
      <trkpt lat="45.7577" lon="4.82301">
        <ele>227</ele>
        <time>2013-02-22T19:36:19Z</time>
      </trkpt>
      <trkpt lat="45.75769" lon="4.8231">
        <ele>226</ele>
        <time>2013-02-22T19:36:23Z</time>
      </trkpt>
      <trkpt lat="45.7577" lon="4.82311">
        <ele>226</ele>
        <time>2013-02-22T19:36:24Z</time>
      </trkpt>
      <trkpt lat="45.75771" lon="4.82312">
        <ele>226</ele>
        <time>2013-02-22T19:36:25Z</time>
      </trkpt>
      <trkpt lat="45.75769" lon="4.82317">
        <ele>224</ele>
        <time>2013-02-22T19:36:30Z</time>
      </trkpt>
      <trkpt lat="45.75766" lon="4.82322">
        <ele>223</ele>
        <time>2013-02-22T19:36:38Z</time>
      </trkpt>
      <trkpt lat="45.75766" lon="4.82325">
        <ele>223</ele>
        <time>2013-02-22T19:36:44Z</time>
      </trkpt>
      <trkpt lat="45.75766" lon="4.82323">
        <ele>223</ele>
        <time>2013-02-22T19:36:46Z</time>
      </trkpt>
      <trkpt lat="45.7576" lon="4.82328">
        <ele>220</ele>
        <time>2013-02-22T19:36:51Z</time>
      </trkpt>
      <trkpt lat="45.75752" lon="4.82331">
        <ele>216</ele>
        <time>2013-02-22T19:36:56Z</time>
      </trkpt>
      <trkpt lat="45.75749" lon="4.82333">
        <ele>214</ele>
        <time>2013-02-22T19:37:00Z</time>
      </trkpt>
      <trkpt lat="45.75746" lon="4.82335">
        <ele>212</ele>
        <time>2013-02-22T19:37:04Z</time>
      </trkpt>
      <trkpt lat="45.75745" lon="4.82337">
        <ele>212</ele>
        <time>2013-02-22T19:37:10Z</time>
      </trkpt>
      <trkpt lat="45.75738" lon="4.82343">
        <ele>209</ele>
        <time>2013-02-22T19:37:17Z</time>
      </trkpt>
      <trkpt lat="45.75736" lon="4.82346">
        <ele>208</ele>
        <time>2013-02-22T19:37:19Z</time>
      </trkpt>
      <trkpt lat="45.75731" lon="4.8235">
        <ele>207</ele>
        <time>2013-02-22T19:37:22Z</time>
      </trkpt>
      <trkpt lat="45.75728" lon="4.82349">
        <ele>207</ele>
        <time>2013-02-22T19:37:27Z</time>
      </trkpt>
      <trkpt lat="45.75718" lon="4.82358">
        <ele>205</ele>
        <time>2013-02-22T19:37:33Z</time>
      </trkpt>
      <trkpt lat="45.75716" lon="4.82365">
        <ele>204</ele>
        <time>2013-02-22T19:37:38Z</time>
      </trkpt>
      <trkpt lat="45.75718" lon="4.8237">
        <ele>203</ele>
        <time>2013-02-22T19:37:44Z</time>
      </trkpt>
      <trkpt lat="45.7572" lon="4.82371">
        <ele>203</ele>
        <time>2013-02-22T19:37:46Z</time>
      </trkpt>
      <trkpt lat="45.75725" lon="4.82373">
        <ele>203</ele>
        <time>2013-02-22T19:37:49Z</time>
      </trkpt>
      <trkpt lat="45.75729" lon="4.82376">
        <ele>203</ele>
        <time>2013-02-22T19:37:52Z</time>
      </trkpt>
      <trkpt lat="45.75736" lon="4.82385">
        <ele>201</ele>
        <time>2013-02-22T19:37:57Z</time>
      </trkpt>
      <trkpt lat="45.75745" lon="4.82391">
        <ele>200</ele>
        <time>2013-02-22T19:38:01Z</time>
      </trkpt>
      <trkpt lat="45.75752" lon="4.82403">
        <ele>202</ele>
        <time>2013-02-22T19:38:06Z</time>
      </trkpt>
      <trkpt lat="45.75761" lon="4.82409">
        <ele>202</ele>
        <time>2013-02-22T19:38:10Z</time>
      </trkpt>
      <trkpt lat="45.75764" lon="4.8241">
        <ele>203</ele>
        <time>2013-02-22T19:38:11Z</time>
      </trkpt>
      <trkpt lat="45.75779" lon="4.8242">
        <ele>194</ele>
        <time>2013-02-22T19:38:17Z</time>
      </trkpt>
      <trkpt lat="45.75784" lon="4.82424">
        <ele>194</ele>
        <time>2013-02-22T19:38:19Z</time>
      </trkpt>
      <trkpt lat="45.75783" lon="4.82428">
        <ele>194</ele>
        <time>2013-02-22T19:38:20Z</time>
      </trkpt>
      <trkpt lat="45.75782" lon="4.82443">
        <ele>193</ele>
        <time>2013-02-22T19:38:24Z</time>
      </trkpt>
      <trkpt lat="45.75782" lon="4.82449">
        <ele>192</ele>
        <time>2013-02-22T19:38:26Z</time>
      </trkpt>
      <trkpt lat="45.7578" lon="4.82455">
        <ele>191</ele>
        <time>2013-02-22T19:38:28Z</time>
      </trkpt>
      <trkpt lat="45.7578" lon="4.8246">
        <ele>190</ele>
        <time>2013-02-22T19:38:30Z</time>
      </trkpt>
      <trkpt lat="45.75776" lon="4.82472">
        <ele>188</ele>
        <time>2013-02-22T19:38:34Z</time>
      </trkpt>
      <trkpt lat="45.75774" lon="4.82476">
        <ele>188</ele>
        <time>2013-02-22T19:38:35Z</time>
      </trkpt>
      <trkpt lat="45.75766" lon="4.82492">
        <ele>184</ele>
        <time>2013-02-22T19:38:39Z</time>
      </trkpt>
      <trkpt lat="45.75762" lon="4.825">
        <ele>182</ele>
        <time>2013-02-22T19:38:41Z</time>
      </trkpt>
      <trkpt lat="45.75759" lon="4.82505">
        <ele>177</ele>
        <time>2013-02-22T19:38:43Z</time>
      </trkpt>
      <trkpt lat="45.75751" lon="4.82522">
        <ele>176</ele>
        <time>2013-02-22T19:38:56Z</time>
      </trkpt>
      <trkpt lat="45.7575" lon="4.82523">
        <ele>176</ele>
        <time>2013-02-22T19:38:59Z</time>
      </trkpt>
      <trkpt lat="45.75747" lon="4.82523">
        <ele>174</ele>
        <time>2013-02-22T19:39:08Z</time>
      </trkpt>
      <trkpt lat="45.75749" lon="4.82517">
        <ele>175</ele>
        <time>2013-02-22T19:40:00Z</time>
      </trkpt>
      <trkpt lat="45.75751" lon="4.82515">
        <ele>176</ele>
        <time>2013-02-22T19:40:22Z</time>
      </trkpt>
      <trkpt lat="45.7575" lon="4.82515">
        <ele>176</ele>
        <time>2013-02-22T19:40:23Z</time>
      </trkpt>
      <trkpt lat="45.75755" lon="4.82513">
        <ele>177</ele>
        <time>2013-02-22T19:40:27Z</time>
      </trkpt>
      <trkpt lat="45.75771" lon="4.82514">
        <ele>177</ele>
        <time>2013-02-22T19:40:32Z</time>
      </trkpt>
      <trkpt lat="45.75784" lon="4.82513">
        <ele>177</ele>
        <time>2013-02-22T19:40:36Z</time>
      </trkpt>
      <trkpt lat="45.75787" lon="4.82515">
        <ele>177</ele>
        <time>2013-02-22T19:40:39Z</time>
      </trkpt>
      <trkpt lat="45.75791" lon="4.82517">
        <ele>177</ele>
        <time>2013-02-22T19:40:41Z</time>
      </trkpt>
      <trkpt lat="45.75792" lon="4.82518">
        <ele>177</ele>
        <time>2013-02-22T19:40:44Z</time>
      </trkpt>
      <trkpt lat="45.75794" lon="4.82517">
        <ele>178</ele>
        <time>2013-02-22T19:40:48Z</time>
      </trkpt>
      <trkpt lat="45.75797" lon="4.82507">
        <ele>178</ele>
        <time>2013-02-22T19:40:53Z</time>
      </trkpt>
      <trkpt lat="45.75801" lon="4.82497">
        <ele>188</ele>
        <time>2013-02-22T19:40:59Z</time>
      </trkpt>
      <trkpt lat="45.75809" lon="4.82475">
        <ele>190</ele>
        <time>2013-02-22T19:41:15Z</time>
      </trkpt>
      <trkpt lat="45.7581" lon="4.82473">
        <ele>190</ele>
        <time>2013-02-22T19:41:16Z</time>
      </trkpt>
      <trkpt lat="45.75814" lon="4.82462">
        <ele>192</ele>
        <time>2013-02-22T19:41:30Z</time>
      </trkpt>
      <trkpt lat="45.75815" lon="4.8246">
        <ele>193</ele>
        <time>2013-02-22T19:41:36Z</time>
      </trkpt>
      <trkpt lat="45.75817" lon="4.82451">
        <ele>195</ele>
        <time>2013-02-22T19:42:00Z</time>
      </trkpt>
      <trkpt lat="45.75817" lon="4.8245">
        <ele>195</ele>
        <time>2013-02-22T19:42:01Z</time>
      </trkpt>
      <trkpt lat="45.75818" lon="4.82448">
        <ele>195</ele>
        <time>2013-02-22T19:42:08Z</time>
      </trkpt>
      <trkpt lat="45.75821" lon="4.82443">
        <ele>197</ele>
        <time>2013-02-22T19:42:22Z</time>
      </trkpt>
      <trkpt lat="45.75822" lon="4.82444">
        <ele>197</ele>
        <time>2013-02-22T19:42:23Z</time>
      </trkpt>
      <trkpt lat="45.75822" lon="4.82443">
        <ele>197</ele>
        <time>2013-02-22T19:42:29Z</time>
      </trkpt>
      <trkpt lat="45.75828" lon="4.82444">
        <ele>198</ele>
        <time>2013-02-22T19:42:35Z</time>
      </trkpt>
      <trkpt lat="45.75831" lon="4.82443">
        <ele>198</ele>
        <time>2013-02-22T19:42:37Z</time>
      </trkpt>
      <trkpt lat="45.75835" lon="4.82444">
        <ele>205</ele>
        <time>2013-02-22T19:42:39Z</time>
      </trkpt>
      <trkpt lat="45.75844" lon="4.82443">
        <ele>205</ele>
        <time>2013-02-22T19:42:45Z</time>
      </trkpt>
      <trkpt lat="45.75847" lon="4.82436">
        <ele>206</ele>
        <time>2013-02-22T19:43:09Z</time>
      </trkpt>
      <trkpt lat="45.75846" lon="4.82433">
        <ele>207</ele>
        <time>2013-02-22T19:43:12Z</time>
      </trkpt>
      <trkpt lat="45.75848" lon="4.82421">
        <ele>208</ele>
        <time>2013-02-22T19:43:17Z</time>
      </trkpt>
      <trkpt lat="45.75844" lon="4.82411">
        <ele>217</ele>
        <time>2013-02-22T19:43:22Z</time>
      </trkpt>
      <trkpt lat="45.75843" lon="4.82409">
        <ele>218</ele>
        <time>2013-02-22T19:43:23Z</time>
      </trkpt>
      <trkpt lat="45.75841" lon="4.8239">
        <ele>223</ele>
        <time>2013-02-22T19:43:30Z</time>
      </trkpt>
      <trkpt lat="45.75838" lon="4.82385">
        <ele>224</ele>
        <time>2013-02-22T19:43:33Z</time>
      </trkpt>
      <trkpt lat="45.75837" lon="4.82379">
        <ele>225</ele>
        <time>2013-02-22T19:43:35Z</time>
      </trkpt>
      <trkpt lat="45.7583" lon="4.82372">
        <ele>216</ele>
        <time>2013-02-22T19:43:40Z</time>
      </trkpt>
      <trkpt lat="45.75826" lon="4.82369">
        <ele>217</ele>
        <time>2013-02-22T19:43:43Z</time>
      </trkpt>
      <trkpt lat="45.75824" lon="4.82365">
        <ele>218</ele>
        <time>2013-02-22T19:43:45Z</time>
      </trkpt>
      <trkpt lat="45.75822" lon="4.82364">
        <ele>218</ele>
        <time>2013-02-22T19:43:46Z</time>
      </trkpt>
      <trkpt lat="45.75813" lon="4.82359">
        <ele>218</ele>
        <time>2013-02-22T19:43:52Z</time>
      </trkpt>
      <trkpt lat="45.75811" lon="4.82358">
        <ele>218</ele>
        <time>2013-02-22T19:43:53Z</time>
      </trkpt>
      <trkpt lat="45.75807" lon="4.82355">
        <ele>217</ele>
        <time>2013-02-22T19:43:55Z</time>
      </trkpt>
      <trkpt lat="45.75803" lon="4.82352">
        <ele>217</ele>
        <time>2013-02-22T19:43:58Z</time>
      </trkpt>
      <trkpt lat="45.75792" lon="4.82348">
        <ele>216</ele>
        <time>2013-02-22T19:44:04Z</time>
      </trkpt>
      <trkpt lat="45.75789" lon="4.82348">
        <ele>215</ele>
        <time>2013-02-22T19:44:05Z</time>
      </trkpt>
      <trkpt lat="45.75784" lon="4.82343">
        <ele>215</ele>
        <time>2013-02-22T19:44:08Z</time>
      </trkpt>
      <trkpt lat="45.75781" lon="4.8233">
        <ele>226</ele>
        <time>2013-02-22T19:44:12Z</time>
      </trkpt>
      <trkpt lat="45.75779" lon="4.82327">
        <ele>225</ele>
        <time>2013-02-22T19:44:13Z</time>
      </trkpt>
      <trkpt lat="45.7578" lon="4.82323">
        <ele>226</ele>
        <time>2013-02-22T19:44:14Z</time>
      </trkpt>
      <trkpt lat="45.75783" lon="4.82317">
        <ele>227</ele>
        <time>2013-02-22T19:44:16Z</time>
      </trkpt>
      <trkpt lat="45.7578" lon="4.82311">
        <ele>227</ele>
        <time>2013-02-22T19:44:21Z</time>
      </trkpt>
      <trkpt lat="45.75775" lon="4.82306">
        <ele>227</ele>
        <time>2013-02-22T19:44:26Z</time>
      </trkpt>
      <trkpt lat="45.75774" lon="4.823">
        <ele>228</ele>
        <time>2013-02-22T19:44:29Z</time>
      </trkpt>
      <trkpt lat="45.75773" lon="4.82294">
        <ele>228</ele>
        <time>2013-02-22T19:44:32Z</time>
      </trkpt>
      <trkpt lat="45.75772" lon="4.82286">
        <ele>229</ele>
        <time>2013-02-22T19:44:36Z</time>
      </trkpt>
      <trkpt lat="45.75774" lon="4.82281">
        <ele>230</ele>
        <time>2013-02-22T19:44:38Z</time>
      </trkpt>
      <trkpt lat="45.75775" lon="4.82274">
        <ele>231</ele>
        <time>2013-02-22T19:44:41Z</time>
      </trkpt>
      <trkpt lat="45.75776" lon="4.82272">
        <ele>231</ele>
        <time>2013-02-22T19:44:42Z</time>
      </trkpt>
      <trkpt lat="45.75775" lon="4.82262">
        <ele>231</ele>
        <time>2013-02-22T19:44:46Z</time>
      </trkpt>
      <trkpt lat="45.75773" lon="4.82258">
        <ele>232</ele>
        <time>2013-02-22T19:44:48Z</time>
      </trkpt>
      <trkpt lat="45.75774" lon="4.82245">
        <ele>237</ele>
        <time>2013-02-22T19:44:53Z</time>
      </trkpt>
      <trkpt lat="45.75775" lon="4.82243">
        <ele>237</ele>
        <time>2013-02-22T19:44:54Z</time>
      </trkpt>
      <trkpt lat="45.75775" lon="4.82224">
        <ele>238</ele>
        <time>2013-02-22T19:45:00Z</time>
      </trkpt>
      <trkpt lat="45.75775" lon="4.82218">
        <ele>239</ele>
        <time>2013-02-22T19:45:02Z</time>
      </trkpt>
      <trkpt lat="45.75775" lon="4.82211">
        <ele>239</ele>
        <time>2013-02-22T19:45:05Z</time>
      </trkpt>
      <trkpt lat="45.75773" lon="4.82208">
        <ele>239</ele>
        <time>2013-02-22T19:45:06Z</time>
      </trkpt>
      <trkpt lat="45.75772" lon="4.82198">
        <ele>240</ele>
        <time>2013-02-22T19:45:09Z</time>
      </trkpt>
      <trkpt lat="45.7577" lon="4.82195">
        <ele>240</ele>
        <time>2013-02-22T19:45:10Z</time>
      </trkpt>
      <trkpt lat="45.75769" lon="4.82193">
        <ele>240</ele>
        <time>2013-02-22T19:45:11Z</time>
      </trkpt>
      <trkpt lat="45.75766" lon="4.82183">
        <ele>240</ele>
        <time>2013-02-22T19:45:16Z</time>
      </trkpt>
      <trkpt lat="45.75761" lon="4.82171">
        <ele>241</ele>
        <time>2013-02-22T19:45:22Z</time>
      </trkpt>
      <trkpt lat="45.7576" lon="4.82169">
        <ele>241</ele>
        <time>2013-02-22T19:45:23Z</time>
      </trkpt>
      <trkpt lat="45.75755" lon="4.82162">
        <ele>242</ele>
        <time>2013-02-22T19:45:28Z</time>
      </trkpt>
      <trkpt lat="45.75753" lon="4.8216">
        <ele>242</ele>
        <time>2013-02-22T19:45:31Z</time>
      </trkpt>
      <trkpt lat="45.75751" lon="4.82159">
        <ele>242</ele>
        <time>2013-02-22T19:45:33Z</time>
      </trkpt>
      <trkpt lat="45.75753" lon="4.82155">
        <ele>243</ele>
        <time>2013-02-22T19:45:37Z</time>
      </trkpt>
      <trkpt lat="45.75753" lon="4.82154">
        <ele>243</ele>
        <time>2013-02-22T19:45:39Z</time>
      </trkpt>
      <trkpt lat="45.75752" lon="4.82152">
        <ele>243</ele>
        <time>2013-02-22T19:45:41Z</time>
      </trkpt>
      <trkpt lat="45.75751" lon="4.8215">
        <ele>244</ele>
        <time>2013-02-22T19:45:44Z</time>
      </trkpt>
      <trkpt lat="45.75749" lon="4.82147">
        <ele>244</ele>
        <time>2013-02-22T19:45:47Z</time>
      </trkpt>
      <trkpt lat="45.75748" lon="4.82148">
        <ele>243</ele>
        <time>2013-02-22T19:45:50Z</time>
      </trkpt>
      <trkpt lat="45.75748" lon="4.82143">
        <ele>244</ele>
        <time>2013-02-22T19:45:54Z</time>
      </trkpt>
      <trkpt lat="45.75748" lon="4.8214">
        <ele>244</ele>
        <time>2013-02-22T19:45:56Z</time>
      </trkpt>
      <trkpt lat="45.7574" lon="4.82134">
        <ele>245</ele>
        <time>2013-02-22T19:46:00Z</time>
      </trkpt>
      <trkpt lat="45.75737" lon="4.8213">
        <ele>245</ele>
        <time>2013-02-22T19:46:02Z</time>
      </trkpt>
      <trkpt lat="45.7573" lon="4.82121">
        <ele>246</ele>
        <time>2013-02-22T19:46:06Z</time>
      </trkpt>
      <trkpt lat="45.75721" lon="4.82114">
        <ele>246</ele>
        <time>2013-02-22T19:46:10Z</time>
      </trkpt>
      <trkpt lat="45.75718" lon="4.82113">
        <ele>246</ele>
        <time>2013-02-22T19:46:12Z</time>
      </trkpt>
      <trkpt lat="45.75714" lon="4.82111">
        <ele>246</ele>
        <time>2013-02-22T19:46:16Z</time>
      </trkpt>
      <trkpt lat="45.75713" lon="4.82109">
        <ele>246</ele>
        <time>2013-02-22T19:46:18Z</time>
      </trkpt>
      <trkpt lat="45.75712" lon="4.82109">
        <ele>246</ele>
        <time>2013-02-22T19:46:19Z</time>
      </trkpt>
      <trkpt lat="45.75712" lon="4.82108">
        <ele>246</ele>
        <time>2013-02-22T19:46:20Z</time>
      </trkpt>
      <trkpt lat="45.75709" lon="4.82105">
        <ele>246</ele>
        <time>2013-02-22T19:46:26Z</time>
      </trkpt>
      <trkpt lat="45.75705" lon="4.82107">
        <ele>246</ele>
        <time>2013-02-22T19:46:32Z</time>
      </trkpt>
      <trkpt lat="45.75704" lon="4.82107">
        <ele>246</ele>
        <time>2013-02-22T19:46:35Z</time>
      </trkpt>
      <trkpt lat="45.75702" lon="4.82107">
        <ele>246</ele>
        <time>2013-02-22T19:46:37Z</time>
      </trkpt>
      <trkpt lat="45.757" lon="4.82107">
        <ele>246</ele>
        <time>2013-02-22T19:46:44Z</time>
      </trkpt>
      <trkpt lat="45.75698" lon="4.82108">
        <ele>246</ele>
        <time>2013-02-22T19:47:21Z</time>
      </trkpt>
      <trkpt lat="45.75695" lon="4.82105">
        <ele>246</ele>
        <time>2013-02-22T19:47:41Z</time>
      </trkpt>
      <trkpt lat="45.75692" lon="4.82102">
        <ele>246</ele>
        <time>2013-02-22T19:47:45Z</time>
      </trkpt>
      <trkpt lat="45.75691" lon="4.821">
        <ele>246</ele>
        <time>2013-02-22T19:47:47Z</time>
      </trkpt>
      <trkpt lat="45.75691" lon="4.82099">
        <ele>246</ele>
        <time>2013-02-22T19:47:48Z</time>
      </trkpt>
      <trkpt lat="45.7569" lon="4.82098">
        <ele>246</ele>
        <time>2013-02-22T19:47:49Z</time>
      </trkpt>
      <trkpt lat="45.75688" lon="4.82094">
        <ele>247</ele>
        <time>2013-02-22T19:47:54Z</time>
      </trkpt>
      <trkpt lat="45.75688" lon="4.82087">
        <ele>247</ele>
        <time>2013-02-22T19:47:59Z</time>
      </trkpt>
      <trkpt lat="45.75688" lon="4.82085">
        <ele>247</ele>
        <time>2013-02-22T19:48:01Z</time>
      </trkpt>
      <trkpt lat="45.75689" lon="4.82081">
        <ele>250</ele>
        <time>2013-02-22T19:48:04Z</time>
      </trkpt>
      <trkpt lat="45.75687" lon="4.82078">
        <ele>250</ele>
        <time>2013-02-22T19:48:07Z</time>
      </trkpt>
      <trkpt lat="45.75688" lon="4.82075">
        <ele>250</ele>
        <time>2013-02-22T19:48:09Z</time>
      </trkpt>
      <trkpt lat="45.75686" lon="4.82074">
        <ele>250</ele>
        <time>2013-02-22T19:48:10Z</time>
      </trkpt>
      <trkpt lat="45.75685" lon="4.82066">
        <ele>250</ele>
        <time>2013-02-22T19:48:13Z</time>
      </trkpt>
      <trkpt lat="45.75679" lon="4.82052">
        <ele>251</ele>
        <time>2013-02-22T19:48:19Z</time>
      </trkpt>
      <trkpt lat="45.75678" lon="4.82049">
        <ele>251</ele>
        <time>2013-02-22T19:48:20Z</time>
      </trkpt>
      <trkpt lat="45.75677" lon="4.82039">
        <ele>251</ele>
        <time>2013-02-22T19:48:25Z</time>
      </trkpt>
      <trkpt lat="45.75676" lon="4.8203">
        <ele>252</ele>
        <time>2013-02-22T19:48:31Z</time>
      </trkpt>
      <trkpt lat="45.75674" lon="4.82027">
        <ele>252</ele>
        <time>2013-02-22T19:48:36Z</time>
      </trkpt>
      <trkpt lat="45.75673" lon="4.82025">
        <ele>252</ele>
        <time>2013-02-22T19:48:37Z</time>
      </trkpt>
      <trkpt lat="45.75672" lon="4.82023">
        <ele>252</ele>
        <time>2013-02-22T19:48:38Z</time>
      </trkpt>
      <trkpt lat="45.75664" lon="4.82016">
        <ele>253</ele>
        <time>2013-02-22T19:48:42Z</time>
      </trkpt>
      <trkpt lat="45.75657" lon="4.82007">
        <ele>253</ele>
        <time>2013-02-22T19:48:46Z</time>
      </trkpt>
      <trkpt lat="45.75655" lon="4.82005">
        <ele>253</ele>
        <time>2013-02-22T19:48:47Z</time>
      </trkpt>
      <trkpt lat="45.75642" lon="4.81997">
        <ele>256</ele>
        <time>2013-02-22T19:48:52Z</time>
      </trkpt>
      <trkpt lat="45.7564" lon="4.8199">
        <ele>256</ele>
        <time>2013-02-22T19:48:54Z</time>
      </trkpt>
      <trkpt lat="45.75637" lon="4.81981">
        <ele>256</ele>
        <time>2013-02-22T19:48:57Z</time>
      </trkpt>
      <trkpt lat="45.75632" lon="4.81965">
        <ele>257</ele>
        <time>2013-02-22T19:49:02Z</time>
      </trkpt>
      <trkpt lat="45.75627" lon="4.81947">
        <ele>257</ele>
        <time>2013-02-22T19:49:08Z</time>
      </trkpt>
      <trkpt lat="45.75623" lon="4.81942">
        <ele>257</ele>
        <time>2013-02-22T19:49:10Z</time>
      </trkpt>
      <trkpt lat="45.75619" lon="4.81934">
        <ele>257</ele>
        <time>2013-02-22T19:49:13Z</time>
      </trkpt>
      <trkpt lat="45.75616" lon="4.81925">
        <ele>257</ele>
        <time>2013-02-22T19:49:17Z</time>
      </trkpt>
      <trkpt lat="45.75617" lon="4.81922">
        <ele>257</ele>
        <time>2013-02-22T19:49:18Z</time>
      </trkpt>
      <trkpt lat="45.7562" lon="4.81919">
        <ele>258</ele>
        <time>2013-02-22T19:49:20Z</time>
      </trkpt>
      <trkpt lat="45.75624" lon="4.81916">
        <ele>261</ele>
        <time>2013-02-22T19:49:23Z</time>
      </trkpt>
      <trkpt lat="45.75627" lon="4.81914">
        <ele>261</ele>
        <time>2013-02-22T19:49:27Z</time>
      </trkpt>
      <trkpt lat="45.75629" lon="4.81911">
        <ele>261</ele>
        <time>2013-02-22T19:49:29Z</time>
      </trkpt>
      <trkpt lat="45.75634" lon="4.81906">
        <ele>262</ele>
        <time>2013-02-22T19:49:36Z</time>
      </trkpt>
      <trkpt lat="45.75635" lon="4.81905">
        <ele>262</ele>
        <time>2013-02-22T19:49:37Z</time>
      </trkpt>
      <trkpt lat="45.75642" lon="4.81898">
        <ele>262</ele>
        <time>2013-02-22T19:49:44Z</time>
      </trkpt>
      <trkpt lat="45.7565" lon="4.8189">
        <ele>263</ele>
        <time>2013-02-22T19:49:51Z</time>
      </trkpt>
      <trkpt lat="45.75651" lon="4.81889">
        <ele>263</ele>
        <time>2013-02-22T19:49:52Z</time>
      </trkpt>
      <trkpt lat="45.75659" lon="4.8188">
        <ele>263</ele>
        <time>2013-02-22T19:49:59Z</time>
      </trkpt>
      <trkpt lat="45.75665" lon="4.81874">
        <ele>264</ele>
        <time>2013-02-22T19:50:04Z</time>
      </trkpt>
      <trkpt lat="45.75666" lon="4.81873">
        <ele>264</ele>
        <time>2013-02-22T19:50:05Z</time>
      </trkpt>
      <trkpt lat="45.75669" lon="4.81871">
        <ele>270</ele>
        <time>2013-02-22T19:50:08Z</time>
      </trkpt>
      <trkpt lat="45.75672" lon="4.81868">
        <ele>271</ele>
        <time>2013-02-22T19:50:11Z</time>
      </trkpt>
      <trkpt lat="45.75674" lon="4.81864">
        <ele>271</ele>
        <time>2013-02-22T19:50:14Z</time>
      </trkpt>
      <trkpt lat="45.75676" lon="4.8186">
        <ele>271</ele>
        <time>2013-02-22T19:50:18Z</time>
      </trkpt>
      <trkpt lat="45.75679" lon="4.81857">
        <ele>271</ele>
        <time>2013-02-22T19:50:23Z</time>
      </trkpt>
      <trkpt lat="45.75681" lon="4.81856">
        <ele>271</ele>
        <time>2013-02-22T19:50:24Z</time>
      </trkpt>
      <trkpt lat="45.75685" lon="4.81854">
        <ele>271</ele>
        <time>2013-02-22T19:50:27Z</time>
      </trkpt>
      <trkpt lat="45.7569" lon="4.81854">
        <ele>272</ele>
        <time>2013-02-22T19:50:30Z</time>
      </trkpt>
      <trkpt lat="45.75693" lon="4.81852">
        <ele>272</ele>
        <time>2013-02-22T19:50:32Z</time>
      </trkpt>
      <trkpt lat="45.75697" lon="4.81847">
        <ele>272</ele>
        <time>2013-02-22T19:50:35Z</time>
      </trkpt>
      <trkpt lat="45.75699" lon="4.81845">
        <ele>272</ele>
        <time>2013-02-22T19:50:36Z</time>
      </trkpt>
      <trkpt lat="45.75705" lon="4.81836">
        <ele>273</ele>
        <time>2013-02-22T19:50:41Z</time>
      </trkpt>
      <trkpt lat="45.75706" lon="4.81835">
        <ele>273</ele>
        <time>2013-02-22T19:50:42Z</time>
      </trkpt>
      <trkpt lat="45.75712" lon="4.81831">
        <ele>277</ele>
        <time>2013-02-22T19:50:45Z</time>
      </trkpt>
      <trkpt lat="45.75715" lon="4.8183">
        <ele>277</ele>
        <time>2013-02-22T19:50:47Z</time>
      </trkpt>
      <trkpt lat="45.75717" lon="4.81828">
        <ele>278</ele>
        <time>2013-02-22T19:50:48Z</time>
      </trkpt>
      <trkpt lat="45.75728" lon="4.8182">
        <ele>279</ele>
        <time>2013-02-22T19:50:54Z</time>
      </trkpt>
      <trkpt lat="45.75738" lon="4.81809">
        <ele>279</ele>
        <time>2013-02-22T19:51:01Z</time>
      </trkpt>
      <trkpt lat="45.75743" lon="4.81803">
        <ele>279</ele>
        <time>2013-02-22T19:51:04Z</time>
      </trkpt>
      <trkpt lat="45.75749" lon="4.81798">
        <ele>279</ele>
        <time>2013-02-22T19:51:07Z</time>
      </trkpt>
      <trkpt lat="45.75758" lon="4.81789">
        <ele>286</ele>
        <time>2013-02-22T19:51:12Z</time>
      </trkpt>
      <trkpt lat="45.7576" lon="4.81787">
        <ele>286</ele>
        <time>2013-02-22T19:51:13Z</time>
      </trkpt>
      <trkpt lat="45.7577" lon="4.81775">
        <ele>287</ele>
        <time>2013-02-22T19:51:20Z</time>
      </trkpt>
      <trkpt lat="45.75773" lon="4.81772">
        <ele>287</ele>
        <time>2013-02-22T19:51:22Z</time>
      </trkpt>
      <trkpt lat="45.75776" lon="4.81762">
        <ele>287</ele>
        <time>2013-02-22T19:51:27Z</time>
      </trkpt>
      <trkpt lat="45.75783" lon="4.81748">
        <ele>287</ele>
        <time>2013-02-22T19:51:32Z</time>
      </trkpt>
      <trkpt lat="45.75789" lon="4.81732">
        <ele>288</ele>
        <time>2013-02-22T19:51:37Z</time>
      </trkpt>
      <trkpt lat="45.75791" lon="4.81725">
        <ele>288</ele>
        <time>2013-02-22T19:51:39Z</time>
      </trkpt>
      <trkpt lat="45.75793" lon="4.81719">
        <ele>288</ele>
        <time>2013-02-22T19:51:41Z</time>
      </trkpt>
      <trkpt lat="45.75795" lon="4.81708">
        <ele>288</ele>
        <time>2013-02-22T19:51:45Z</time>
      </trkpt>
      <trkpt lat="45.75797" lon="4.81699">
        <ele>288</ele>
        <time>2013-02-22T19:51:48Z</time>
      </trkpt>
      <trkpt lat="45.758" lon="4.81694">
        <ele>288</ele>
        <time>2013-02-22T19:51:50Z</time>
      </trkpt>
      <trkpt lat="45.75808" lon="4.81677">
        <ele>289</ele>
        <time>2013-02-22T19:51:56Z</time>
      </trkpt>
      <trkpt lat="45.75818" lon="4.81658">
        <ele>288</ele>
        <time>2013-02-22T19:52:03Z</time>
      </trkpt>
      <trkpt lat="45.7582" lon="4.81655">
        <ele>288</ele>
        <time>2013-02-22T19:52:04Z</time>
      </trkpt>
      <trkpt lat="45.75826" lon="4.8164">
        <ele>287</ele>
        <time>2013-02-22T19:52:09Z</time>
      </trkpt>
      <trkpt lat="45.75828" lon="4.81631">
        <ele>287</ele>
        <time>2013-02-22T19:52:12Z</time>
      </trkpt>
      <trkpt lat="45.75832" lon="4.81622">
        <ele>287</ele>
        <time>2013-02-22T19:52:15Z</time>
      </trkpt>
      <trkpt lat="45.75837" lon="4.81607">
        <ele>292</ele>
        <time>2013-02-22T19:52:20Z</time>
      </trkpt>
      <trkpt lat="45.7584" lon="4.81602">
        <ele>292</ele>
        <time>2013-02-22T19:52:22Z</time>
      </trkpt>
      <trkpt lat="45.75847" lon="4.81589">
        <ele>292</ele>
        <time>2013-02-22T19:52:28Z</time>
      </trkpt>
      <trkpt lat="45.7585" lon="4.81587">
        <ele>292</ele>
        <time>2013-02-22T19:52:30Z</time>
      </trkpt>
      <trkpt lat="45.75851" lon="4.81586">
        <ele>292</ele>
        <time>2013-02-22T19:52:33Z</time>
      </trkpt>
      <trkpt lat="45.75853" lon="4.81585">
        <ele>292</ele>
        <time>2013-02-22T19:52:41Z</time>
      </trkpt>
      <trkpt lat="45.75854" lon="4.81584">
        <ele>292</ele>
        <time>2013-02-22T19:52:46Z</time>
      </trkpt>
      <trkpt lat="45.75852" lon="4.81585">
        <ele>292</ele>
        <time>2013-02-22T19:52:49Z</time>
      </trkpt>
      <trkpt lat="45.75857" lon="4.81594">
        <ele>293</ele>
        <time>2013-02-22T19:53:00Z</time>
      </trkpt>
      <trkpt lat="45.75862" lon="4.81595">
        <ele>293</ele>
        <time>2013-02-22T19:53:08Z</time>
      </trkpt>
      <trkpt lat="45.75864" lon="4.81595">
        <ele>293</ele>
        <time>2013-02-22T19:53:09Z</time>
      </trkpt>
      <trkpt lat="45.75867" lon="4.81593">
        <ele>293</ele>
        <time>2013-02-22T19:53:14Z</time>
      </trkpt>
      <trkpt lat="45.75862" lon="4.81597">
        <ele>293</ele>
        <time>2013-02-22T19:53:15Z</time>
      </trkpt>
      <trkpt lat="45.75863" lon="4.81595">
        <ele>293</ele>
        <time>2013-02-22T19:53:17Z</time>
      </trkpt>
      <trkpt lat="45.75864" lon="4.81592">
        <ele>293</ele>
        <time>2013-02-22T19:53:19Z</time>
      </trkpt>
      <trkpt lat="45.75865" lon="4.81591">
        <ele>293</ele>
        <time>2013-02-22T19:53:21Z</time>
      </trkpt>
      <trkpt lat="45.75867" lon="4.81589">
        <ele>293</ele>
        <time>2013-02-22T19:53:24Z</time>
      </trkpt>
      <trkpt lat="45.75868" lon="4.81589">
        <ele>293</ele>
        <time>2013-02-22T19:53:25Z</time>
      </trkpt>
      <trkpt lat="45.75868" lon="4.81593">
        <ele>293</ele>
        <time>2013-02-22T19:53:37Z</time>
      </trkpt>
      <trkpt lat="45.75867" lon="4.81594">
        <ele>293</ele>
        <time>2013-02-22T19:53:47Z</time>
      </trkpt>
      <trkpt lat="45.75869" lon="4.8159">
        <ele>293</ele>
        <time>2013-02-22T19:53:55Z</time>
      </trkpt>
      <trkpt lat="45.75872" lon="4.81591">
        <ele>294</ele>
        <time>2013-02-22T19:54:02Z</time>
      </trkpt>
      <trkpt lat="45.75872" lon="4.81595">
        <ele>294</ele>
        <time>2013-02-22T19:54:11Z</time>
      </trkpt>
      <trkpt lat="45.75872" lon="4.81596">
        <ele>294</ele>
        <time>2013-02-22T19:54:15Z</time>
      </trkpt>
      <trkpt lat="45.75872" lon="4.81597">
        <ele>294</ele>
        <time>2013-02-22T19:54:17Z</time>
      </trkpt>
      <trkpt lat="45.7587" lon="4.81598">
        <ele>294</ele>
        <time>2013-02-22T19:54:32Z</time>
      </trkpt>
      <trkpt lat="45.7587" lon="4.81599">
        <ele>294</ele>
        <time>2013-02-22T19:55:53Z</time>
      </trkpt>
      <trkpt lat="45.7587" lon="4.81598">
        <ele>294</ele>
        <time>2013-02-22T19:55:57Z</time>
      </trkpt>
      <trkpt lat="45.75873" lon="4.81599">
        <ele>294</ele>
        <time>2013-02-22T19:56:06Z</time>
      </trkpt>
      <trkpt lat="45.75875" lon="4.816">
        <ele>294</ele>
        <time>2013-02-22T19:56:07Z</time>
      </trkpt>
      <trkpt lat="45.75878" lon="4.81603">
        <ele>294</ele>
        <time>2013-02-22T19:56:09Z</time>
      </trkpt>
      <trkpt lat="45.7588" lon="4.81605">
        <ele>294</ele>
        <time>2013-02-22T19:56:10Z</time>
      </trkpt>
      <trkpt lat="45.75885" lon="4.81608">
        <ele>294</ele>
        <time>2013-02-22T19:56:12Z</time>
      </trkpt>
      <trkpt lat="45.75895" lon="4.81619">
        <ele>295</ele>
        <time>2013-02-22T19:56:17Z</time>
      </trkpt>
      <trkpt lat="45.75897" lon="4.81622">
        <ele>295</ele>
        <time>2013-02-22T19:56:18Z</time>
      </trkpt>
      <trkpt lat="45.75901" lon="4.8163">
        <ele>295</ele>
        <time>2013-02-22T19:56:21Z</time>
      </trkpt>
      <trkpt lat="45.75904" lon="4.81633">
        <ele>295</ele>
        <time>2013-02-22T19:56:23Z</time>
      </trkpt>
      <trkpt lat="45.75908" lon="4.81639">
        <ele>295</ele>
        <time>2013-02-22T19:56:26Z</time>
      </trkpt>
      <trkpt lat="45.75914" lon="4.81642">
        <ele>295</ele>
        <time>2013-02-22T19:56:29Z</time>
      </trkpt>
      <trkpt lat="45.75926" lon="4.81641">
        <ele>297</ele>
        <time>2013-02-22T19:56:34Z</time>
      </trkpt>
      <trkpt lat="45.7593" lon="4.8164">
        <ele>297</ele>
        <time>2013-02-22T19:56:36Z</time>
      </trkpt>
      <trkpt lat="45.75942" lon="4.81634">
        <ele>297</ele>
        <time>2013-02-22T19:56:42Z</time>
      </trkpt>
      <trkpt lat="45.75944" lon="4.81633">
        <ele>297</ele>
        <time>2013-02-22T19:56:43Z</time>
      </trkpt>
      <trkpt lat="45.75953" lon="4.81625">
        <ele>297</ele>
        <time>2013-02-22T19:56:47Z</time>
      </trkpt>
      <trkpt lat="45.75961" lon="4.81617">
        <ele>297</ele>
        <time>2013-02-22T19:56:50Z</time>
      </trkpt>
      <trkpt lat="45.75964" lon="4.81614">
        <ele>297</ele>
        <time>2013-02-22T19:56:52Z</time>
      </trkpt>
      <trkpt lat="45.75963" lon="4.81603">
        <ele>297</ele>
        <time>2013-02-22T19:56:56Z</time>
      </trkpt>
      <trkpt lat="45.75961" lon="4.81596">
        <ele>297</ele>
        <time>2013-02-22T19:56:58Z</time>
      </trkpt>
      <trkpt lat="45.7596" lon="4.81593">
        <ele>297</ele>
        <time>2013-02-22T19:56:59Z</time>
      </trkpt>
      <trkpt lat="45.75958" lon="4.81586">
        <ele>297</ele>
        <time>2013-02-22T19:57:01Z</time>
      </trkpt>
      <trkpt lat="45.75954" lon="4.81567">
        <ele>296</ele>
        <time>2013-02-22T19:57:06Z</time>
      </trkpt>
      <trkpt lat="45.75953" lon="4.81556">
        <ele>296</ele>
        <time>2013-02-22T19:57:09Z</time>
      </trkpt>
      <trkpt lat="45.75956" lon="4.81547">
        <ele>296</ele>
        <time>2013-02-22T19:57:11Z</time>
      </trkpt>
      <trkpt lat="45.75957" lon="4.8154">
        <ele>296</ele>
        <time>2013-02-22T19:57:13Z</time>
      </trkpt>
      <trkpt lat="45.75958" lon="4.81528">
        <ele>296</ele>
        <time>2013-02-22T19:57:16Z</time>
      </trkpt>
      <trkpt lat="45.75958" lon="4.81512">
        <ele>296</ele>
        <time>2013-02-22T19:57:20Z</time>
      </trkpt>
      <trkpt lat="45.75956" lon="4.81505">
        <ele>296</ele>
        <time>2013-02-22T19:57:22Z</time>
      </trkpt>
      <trkpt lat="45.75952" lon="4.81487">
        <ele>295</ele>
        <time>2013-02-22T19:57:27Z</time>
      </trkpt>
      <trkpt lat="45.75947" lon="4.81464">
        <ele>294</ele>
        <time>2013-02-22T19:57:33Z</time>
      </trkpt>
      <trkpt lat="45.75946" lon="4.8146">
        <ele>294</ele>
        <time>2013-02-22T19:57:34Z</time>
      </trkpt>
      <trkpt lat="45.75943" lon="4.81451">
        <ele>294</ele>
        <time>2013-02-22T19:57:37Z</time>
      </trkpt>
      <trkpt lat="45.75941" lon="4.8145">
        <ele>294</ele>
        <time>2013-02-22T19:57:38Z</time>
      </trkpt>
      <trkpt lat="45.75931" lon="4.81445">
        <ele>294</ele>
        <time>2013-02-22T19:57:42Z</time>
      </trkpt>
      <trkpt lat="45.7593" lon="4.81441">
        <ele>294</ele>
        <time>2013-02-22T19:57:44Z</time>
      </trkpt>
      <trkpt lat="45.75922" lon="4.81436">
        <ele>293</ele>
        <time>2013-02-22T19:57:49Z</time>
      </trkpt>
      <trkpt lat="45.75916" lon="4.81438">
        <ele>288</ele>
        <time>2013-02-22T19:57:52Z</time>
      </trkpt>
      <trkpt lat="45.75913" lon="4.81441">
        <ele>288</ele>
        <time>2013-02-22T19:57:54Z</time>
      </trkpt>
      <trkpt lat="45.75907" lon="4.81455">
        <ele>287</ele>
        <time>2013-02-22T19:58:00Z</time>
      </trkpt>
      <trkpt lat="45.75905" lon="4.8146">
        <ele>287</ele>
        <time>2013-02-22T19:58:02Z</time>
      </trkpt>
      <trkpt lat="45.75901" lon="4.81469">
        <ele>287</ele>
        <time>2013-02-22T19:58:05Z</time>
      </trkpt>
      <trkpt lat="45.75894" lon="4.81484">
        <ele>288</ele>
        <time>2013-02-22T19:58:10Z</time>
      </trkpt>
      <trkpt lat="45.75892" lon="4.8149">
        <ele>287</ele>
        <time>2013-02-22T19:58:12Z</time>
      </trkpt>
      <trkpt lat="45.75886" lon="4.81502">
        <ele>290</ele>
        <time>2013-02-22T19:58:17Z</time>
      </trkpt>
      <trkpt lat="45.75884" lon="4.81504">
        <ele>290</ele>
        <time>2013-02-22T19:58:18Z</time>
      </trkpt>
      <trkpt lat="45.75874" lon="4.81512">
        <ele>289</ele>
        <time>2013-02-22T19:58:23Z</time>
      </trkpt>
      <trkpt lat="45.75867" lon="4.81512">
        <ele>288</ele>
        <time>2013-02-22T19:58:26Z</time>
      </trkpt>
      <trkpt lat="45.75863" lon="4.8151">
        <ele>287</ele>
        <time>2013-02-22T19:58:28Z</time>
      </trkpt>
      <trkpt lat="45.75854" lon="4.81505">
        <ele>285</ele>
        <time>2013-02-22T19:58:34Z</time>
      </trkpt>
      <trkpt lat="45.75848" lon="4.81509">
        <ele>285</ele>
        <time>2013-02-22T19:58:37Z</time>
      </trkpt>
      <trkpt lat="45.75845" lon="4.81513">
        <ele>285</ele>
        <time>2013-02-22T19:58:39Z</time>
      </trkpt>
      <trkpt lat="45.75835" lon="4.81524">
        <ele>286</ele>
        <time>2013-02-22T19:58:45Z</time>
      </trkpt>
      <trkpt lat="45.75833" lon="4.81526">
        <ele>279</ele>
        <time>2013-02-22T19:58:46Z</time>
      </trkpt>
      <trkpt lat="45.75824" lon="4.81538">
        <ele>280</ele>
        <time>2013-02-22T19:58:50Z</time>
      </trkpt>
      <trkpt lat="45.75819" lon="4.81545">
        <ele>280</ele>
        <time>2013-02-22T19:58:53Z</time>
      </trkpt>
      <trkpt lat="45.75814" lon="4.81553">
        <ele>281</ele>
        <time>2013-02-22T19:58:56Z</time>
      </trkpt>
      <trkpt lat="45.75804" lon="4.81564">
        <ele>280</ele>
        <time>2013-02-22T19:59:01Z</time>
      </trkpt>
      <trkpt lat="45.75802" lon="4.81566">
        <ele>280</ele>
        <time>2013-02-22T19:59:02Z</time>
      </trkpt>
      <trkpt lat="45.7579" lon="4.81564">
        <ele>279</ele>
        <time>2013-02-22T19:59:07Z</time>
      </trkpt>
      <trkpt lat="45.75788" lon="4.81564">
        <ele>278</ele>
        <time>2013-02-22T19:59:08Z</time>
      </trkpt>
      <trkpt lat="45.75786" lon="4.81566">
        <ele>278</ele>
        <time>2013-02-22T19:59:09Z</time>
      </trkpt>
      <trkpt lat="45.75783" lon="4.8157">
        <ele>278</ele>
        <time>2013-02-22T19:59:11Z</time>
      </trkpt>
      <trkpt lat="45.75778" lon="4.8158">
        <ele>277</ele>
        <time>2013-02-22T19:59:16Z</time>
      </trkpt>
      <trkpt lat="45.75775" lon="4.81588">
        <ele>280</ele>
        <time>2013-02-22T19:59:19Z</time>
      </trkpt>
      <trkpt lat="45.75772" lon="4.81596">
        <ele>280</ele>
        <time>2013-02-22T19:59:22Z</time>
      </trkpt>
      <trkpt lat="45.75767" lon="4.81605">
        <ele>280</ele>
        <time>2013-02-22T19:59:26Z</time>
      </trkpt>
      <trkpt lat="45.75765" lon="4.81604">
        <ele>280</ele>
        <time>2013-02-22T19:59:27Z</time>
      </trkpt>
      <trkpt lat="45.75764" lon="4.81601">
        <ele>279</ele>
        <time>2013-02-22T19:59:28Z</time>
      </trkpt>
      <trkpt lat="45.75764" lon="4.81591">
        <ele>278</ele>
        <time>2013-02-22T19:59:31Z</time>
      </trkpt>
      <trkpt lat="45.75764" lon="4.81584">
        <ele>277</ele>
        <time>2013-02-22T19:59:33Z</time>
      </trkpt>
      <trkpt lat="45.75766" lon="4.81574">
        <ele>276</ele>
        <time>2013-02-22T19:59:36Z</time>
      </trkpt>
      <trkpt lat="45.75775" lon="4.81557">
        <ele>277</ele>
        <time>2013-02-22T19:59:42Z</time>
      </trkpt>
      <trkpt lat="45.75779" lon="4.81552">
        <ele>277</ele>
        <time>2013-02-22T19:59:44Z</time>
      </trkpt>
      <trkpt lat="45.75783" lon="4.81545">
        <ele>277</ele>
        <time>2013-02-22T19:59:47Z</time>
      </trkpt>
      <trkpt lat="45.75787" lon="4.8154">
        <ele>278</ele>
        <time>2013-02-22T19:59:52Z</time>
      </trkpt>
      <trkpt lat="45.75789" lon="4.81536">
        <ele>278</ele>
        <time>2013-02-22T19:59:59Z</time>
      </trkpt>
      <trkpt lat="45.75789" lon="4.81531">
        <ele>277</ele>
        <time>2013-02-22T20:00:04Z</time>
      </trkpt>
      <trkpt lat="45.75789" lon="4.81528">
        <ele>277</ele>
        <time>2013-02-22T20:00:06Z</time>
      </trkpt>
      <trkpt lat="45.75788" lon="4.81527">
        <ele>277</ele>
        <time>2013-02-22T20:00:07Z</time>
      </trkpt>
      <trkpt lat="45.75785" lon="4.81531">
        <ele>277</ele>
        <time>2013-02-22T20:00:10Z</time>
      </trkpt>
      <trkpt lat="45.75777" lon="4.81542">
        <ele>277</ele>
        <time>2013-02-22T20:00:15Z</time>
      </trkpt>
      <trkpt lat="45.75774" lon="4.81547">
        <ele>277</ele>
        <time>2013-02-22T20:00:17Z</time>
      </trkpt>
      <trkpt lat="45.75764" lon="4.81564">
        <ele>276</ele>
        <time>2013-02-22T20:00:23Z</time>
      </trkpt>
      <trkpt lat="45.75762" lon="4.81566">
        <ele>276</ele>
        <time>2013-02-22T20:00:24Z</time>
      </trkpt>
      <trkpt lat="45.75756" lon="4.81576">
        <ele>274</ele>
        <time>2013-02-22T20:00:29Z</time>
      </trkpt>
      <trkpt lat="45.75748" lon="4.8158">
        <ele>272</ele>
        <time>2013-02-22T20:00:41Z</time>
      </trkpt>
      <trkpt lat="45.75747" lon="4.81581">
        <ele>272</ele>
        <time>2013-02-22T20:00:42Z</time>
      </trkpt>
      <trkpt lat="45.75743" lon="4.81583">
        <ele>272</ele>
        <time>2013-02-22T20:00:46Z</time>
      </trkpt>
      <trkpt lat="45.7574" lon="4.81584">
        <ele>272</ele>
        <time>2013-02-22T20:00:53Z</time>
      </trkpt>
      <trkpt lat="45.75736" lon="4.81583">
        <ele>271</ele>
        <time>2013-02-22T20:01:45Z</time>
      </trkpt>
      <trkpt lat="45.75736" lon="4.81579">
        <ele>271</ele>
        <time>2013-02-22T20:02:27Z</time>
      </trkpt>
      <trkpt lat="45.7574" lon="4.81582">
        <ele>271</ele>
        <time>2013-02-22T20:02:35Z</time>
      </trkpt>
      <trkpt lat="45.75737" lon="4.81585">
        <ele>272</ele>
        <time>2013-02-22T20:03:09Z</time>
      </trkpt>
      <trkpt lat="45.75735" lon="4.81586">
        <ele>272</ele>
        <time>2013-02-22T20:03:10Z</time>
      </trkpt>
      <trkpt lat="45.75725" lon="4.8159">
        <ele>272</ele>
        <time>2013-02-22T20:03:15Z</time>
      </trkpt>
      <trkpt lat="45.7572" lon="4.81588">
        <ele>272</ele>
        <time>2013-02-22T20:03:18Z</time>
      </trkpt>
      <trkpt lat="45.75716" lon="4.81587">
        <ele>272</ele>
        <time>2013-02-22T20:03:20Z</time>
      </trkpt>
      <trkpt lat="45.75713" lon="4.81588">
        <ele>272</ele>
        <time>2013-02-22T20:03:22Z</time>
      </trkpt>
      <trkpt lat="45.7571" lon="4.81591">
        <ele>272</ele>
        <time>2013-02-22T20:03:24Z</time>
      </trkpt>
      <trkpt lat="45.75705" lon="4.81592">
        <ele>272</ele>
        <time>2013-02-22T20:03:26Z</time>
      </trkpt>
      <trkpt lat="45.75699" lon="4.81595">
        <ele>272</ele>
        <time>2013-02-22T20:03:29Z</time>
      </trkpt>
      <trkpt lat="45.75698" lon="4.81598">
        <ele>272</ele>
        <time>2013-02-22T20:03:30Z</time>
      </trkpt>
      <trkpt lat="45.75695" lon="4.81601">
        <ele>271</ele>
        <time>2013-02-22T20:03:32Z</time>
      </trkpt>
      <trkpt lat="45.75692" lon="4.81611">
        <ele>272</ele>
        <time>2013-02-22T20:03:35Z</time>
      </trkpt>
      <trkpt lat="45.75688" lon="4.81623">
        <ele>272</ele>
        <time>2013-02-22T20:03:38Z</time>
      </trkpt>
      <trkpt lat="45.75684" lon="4.81632">
        <ele>272</ele>
        <time>2013-02-22T20:03:41Z</time>
      </trkpt>
      <trkpt lat="45.75681" lon="4.81646">
        <ele>271</ele>
        <time>2013-02-22T20:03:45Z</time>
      </trkpt>
      <trkpt lat="45.7568" lon="4.81649">
        <ele>271</ele>
        <time>2013-02-22T20:03:46Z</time>
      </trkpt>
      <trkpt lat="45.75669" lon="4.81666">
        <ele>269</ele>
        <time>2013-02-22T20:03:52Z</time>
      </trkpt>
      <trkpt lat="45.75662" lon="4.81682">
        <ele>267</ele>
        <time>2013-02-22T20:03:57Z</time>
      </trkpt>
      <trkpt lat="45.75658" lon="4.81688">
        <ele>267</ele>
        <time>2013-02-22T20:04:00Z</time>
      </trkpt>
      <trkpt lat="45.75657" lon="4.81692">
        <ele>266</ele>
        <time>2013-02-22T20:04:02Z</time>
      </trkpt>
      <trkpt lat="45.75648" lon="4.81711">
        <ele>266</ele>
        <time>2013-02-22T20:04:09Z</time>
      </trkpt>
      <trkpt lat="45.7564" lon="4.81724">
        <ele>266</ele>
        <time>2013-02-22T20:04:14Z</time>
      </trkpt>
      <trkpt lat="45.75636" lon="4.81731">
        <ele>266</ele>
        <time>2013-02-22T20:04:16Z</time>
      </trkpt>
      <trkpt lat="45.75634" lon="4.81735">
        <ele>265</ele>
        <time>2013-02-22T20:04:18Z</time>
      </trkpt>
      <trkpt lat="45.75633" lon="4.81739">
        <ele>265</ele>
        <time>2013-02-22T20:04:19Z</time>
      </trkpt>
      <trkpt lat="45.7563" lon="4.81751">
        <ele>265</ele>
        <time>2013-02-22T20:04:22Z</time>
      </trkpt>
      <trkpt lat="45.75629" lon="4.81754">
        <ele>265</ele>
        <time>2013-02-22T20:04:23Z</time>
      </trkpt>
      <trkpt lat="45.75628" lon="4.81758">
        <ele>265</ele>
        <time>2013-02-22T20:04:24Z</time>
      </trkpt>
      <trkpt lat="45.75621" lon="4.81774">
        <ele>264</ele>
        <time>2013-02-22T20:04:29Z</time>
      </trkpt>
      <trkpt lat="45.75618" lon="4.81778">
        <ele>264</ele>
        <time>2013-02-22T20:04:30Z</time>
      </trkpt>
      <trkpt lat="45.7561" lon="4.81798">
        <ele>263</ele>
        <time>2013-02-22T20:04:35Z</time>
      </trkpt>
      <trkpt lat="45.75609" lon="4.81801">
        <ele>263</ele>
        <time>2013-02-22T20:04:36Z</time>
      </trkpt>
      <trkpt lat="45.75605" lon="4.81814">
        <ele>262</ele>
        <time>2013-02-22T20:04:40Z</time>
      </trkpt>
      <trkpt lat="45.75604" lon="4.81828">
        <ele>261</ele>
        <time>2013-02-22T20:04:44Z</time>
      </trkpt>
      <trkpt lat="45.75604" lon="4.81835">
        <ele>260</ele>
        <time>2013-02-22T20:04:46Z</time>
      </trkpt>
      <trkpt lat="45.75603" lon="4.81849">
        <ele>260</ele>
        <time>2013-02-22T20:04:51Z</time>
      </trkpt>
      <trkpt lat="45.75602" lon="4.81851">
        <ele>260</ele>
        <time>2013-02-22T20:04:53Z</time>
      </trkpt>
      <trkpt lat="45.75601" lon="4.81852">
        <ele>260</ele>
        <time>2013-02-22T20:04:55Z</time>
      </trkpt>
      <trkpt lat="45.756" lon="4.81854">
        <ele>260</ele>
        <time>2013-02-22T20:04:58Z</time>
      </trkpt>
      <trkpt lat="45.75597" lon="4.81854">
        <ele>259</ele>
        <time>2013-02-22T20:05:00Z</time>
      </trkpt>
      <trkpt lat="45.75586" lon="4.81848">
        <ele>258</ele>
        <time>2013-02-22T20:05:06Z</time>
      </trkpt>
      <trkpt lat="45.75584" lon="4.81846">
        <ele>258</ele>
        <time>2013-02-22T20:05:07Z</time>
      </trkpt>
      <trkpt lat="45.75575" lon="4.81839">
        <ele>253</ele>
        <time>2013-02-22T20:05:12Z</time>
      </trkpt>
      <trkpt lat="45.75566" lon="4.81832">
        <ele>253</ele>
        <time>2013-02-22T20:05:16Z</time>
      </trkpt>
      <trkpt lat="45.75564" lon="4.8183">
        <ele>253</ele>
        <time>2013-02-22T20:05:17Z</time>
      </trkpt>
      <trkpt lat="45.75553" lon="4.81819">
        <ele>251</ele>
        <time>2013-02-22T20:05:23Z</time>
      </trkpt>
      <trkpt lat="45.75551" lon="4.81817">
        <ele>251</ele>
        <time>2013-02-22T20:05:24Z</time>
      </trkpt>
      <trkpt lat="45.75537" lon="4.81807">
        <ele>250</ele>
        <time>2013-02-22T20:05:30Z</time>
      </trkpt>
      <trkpt lat="45.75535" lon="4.81805">
        <ele>250</ele>
        <time>2013-02-22T20:05:31Z</time>
      </trkpt>
      <trkpt lat="45.75523" lon="4.81797">
        <ele>249</ele>
        <time>2013-02-22T20:05:36Z</time>
      </trkpt>
      <trkpt lat="45.75518" lon="4.81794">
        <ele>249</ele>
        <time>2013-02-22T20:05:38Z</time>
      </trkpt>
      <trkpt lat="45.75509" lon="4.81785">
        <ele>249</ele>
        <time>2013-02-22T20:05:42Z</time>
      </trkpt>
      <trkpt lat="45.75504" lon="4.81776">
        <ele>249</ele>
        <time>2013-02-22T20:05:45Z</time>
      </trkpt>
      <trkpt lat="45.75501" lon="4.81774">
        <ele>249</ele>
        <time>2013-02-22T20:05:46Z</time>
      </trkpt>
      <trkpt lat="45.75496" lon="4.81772">
        <ele>240</ele>
        <time>2013-02-22T20:05:48Z</time>
      </trkpt>
      <trkpt lat="45.75493" lon="4.81775">
        <ele>239</ele>
        <time>2013-02-22T20:05:50Z</time>
      </trkpt>
      <trkpt lat="45.7549" lon="4.81783">
        <ele>238</ele>
        <time>2013-02-22T20:05:52Z</time>
      </trkpt>
      <trkpt lat="45.75486" lon="4.81792">
        <ele>237</ele>
        <time>2013-02-22T20:05:54Z</time>
      </trkpt>
      <trkpt lat="45.75485" lon="4.81797">
        <ele>236</ele>
        <time>2013-02-22T20:05:55Z</time>
      </trkpt>
      <trkpt lat="45.75481" lon="4.81807">
        <ele>236</ele>
        <time>2013-02-22T20:05:57Z</time>
      </trkpt>
      <trkpt lat="45.75478" lon="4.81816">
        <ele>235</ele>
        <time>2013-02-22T20:05:59Z</time>
      </trkpt>
      <trkpt lat="45.75471" lon="4.81833">
        <ele>231</ele>
        <time>2013-02-22T20:06:03Z</time>
      </trkpt>
      <trkpt lat="45.75469" lon="4.8184">
        <ele>231</ele>
        <time>2013-02-22T20:06:05Z</time>
      </trkpt>
      <trkpt lat="45.75466" lon="4.81845">
        <ele>230</ele>
        <time>2013-02-22T20:06:07Z</time>
      </trkpt>
      <trkpt lat="45.75464" lon="4.8185">
        <ele>230</ele>
        <time>2013-02-22T20:06:09Z</time>
      </trkpt>
      <trkpt lat="45.75462" lon="4.81857">
        <ele>229</ele>
        <time>2013-02-22T20:06:12Z</time>
      </trkpt>
      <trkpt lat="45.7546" lon="4.81863">
        <ele>229</ele>
        <time>2013-02-22T20:06:15Z</time>
      </trkpt>
      <trkpt lat="45.7546" lon="4.81864">
        <ele>229</ele>
        <time>2013-02-22T20:06:16Z</time>
      </trkpt>
      <trkpt lat="45.75457" lon="4.81875">
        <ele>229</ele>
        <time>2013-02-22T20:06:20Z</time>
      </trkpt>
      <trkpt lat="45.75456" lon="4.81877">
        <ele>228</ele>
        <time>2013-02-22T20:06:21Z</time>
      </trkpt>
      <trkpt lat="45.75454" lon="4.81875">
        <ele>228</ele>
        <time>2013-02-22T20:06:24Z</time>
      </trkpt>
      <trkpt lat="45.75457" lon="4.81865">
        <ele>229</ele>
        <time>2013-02-22T20:06:27Z</time>
      </trkpt>
      <trkpt lat="45.75458" lon="4.81862">
        <ele>229</ele>
        <time>2013-02-22T20:06:28Z</time>
      </trkpt>
      <trkpt lat="45.75461" lon="4.81851">
        <ele>229</ele>
        <time>2013-02-22T20:06:32Z</time>
      </trkpt>
      <trkpt lat="45.75461" lon="4.81848">
        <ele>229</ele>
        <time>2013-02-22T20:06:33Z</time>
      </trkpt>
      <trkpt lat="45.75462" lon="4.81828">
        <ele>233</ele>
        <time>2013-02-22T20:06:39Z</time>
      </trkpt>
      <trkpt lat="45.75461" lon="4.81822">
        <ele>232</ele>
        <time>2013-02-22T20:06:41Z</time>
      </trkpt>
      <trkpt lat="45.75459" lon="4.81814">
        <ele>232</ele>
        <time>2013-02-22T20:06:44Z</time>
      </trkpt>
      <trkpt lat="45.75456" lon="4.81812">
        <ele>232</ele>
        <time>2013-02-22T20:06:47Z</time>
      </trkpt>
      <trkpt lat="45.75455" lon="4.81812">
        <ele>232</ele>
        <time>2013-02-22T20:06:48Z</time>
      </trkpt>
      <trkpt lat="45.75453" lon="4.81814">
        <ele>231</ele>
        <time>2013-02-22T20:06:55Z</time>
      </trkpt>
      <trkpt lat="45.75452" lon="4.81812">
        <ele>231</ele>
        <time>2013-02-22T20:07:02Z</time>
      </trkpt>
      <trkpt lat="45.75451" lon="4.8181">
        <ele>231</ele>
        <time>2013-02-22T20:07:09Z</time>
      </trkpt>
      <trkpt lat="45.7545" lon="4.81808">
        <ele>231</ele>
        <time>2013-02-22T20:07:17Z</time>
      </trkpt>
      <trkpt lat="45.75449" lon="4.81806">
        <ele>231</ele>
        <time>2013-02-22T20:07:24Z</time>
      </trkpt>
      <trkpt lat="45.75453" lon="4.81804">
        <ele>232</ele>
        <time>2013-02-22T20:08:27Z</time>
      </trkpt>
      <trkpt lat="45.75452" lon="4.8181">
        <ele>231</ele>
        <time>2013-02-22T20:08:36Z</time>
      </trkpt>
      <trkpt lat="45.75452" lon="4.81813">
        <ele>231</ele>
        <time>2013-02-22T20:08:40Z</time>
      </trkpt>
      <trkpt lat="45.75452" lon="4.81822">
        <ele>231</ele>
        <time>2013-02-22T20:08:45Z</time>
      </trkpt>
      <trkpt lat="45.75451" lon="4.81828">
        <ele>230</ele>
        <time>2013-02-22T20:08:47Z</time>
      </trkpt>
      <trkpt lat="45.7545" lon="4.81841">
        <ele>227</ele>
        <time>2013-02-22T20:08:52Z</time>
      </trkpt>
      <trkpt lat="45.75449" lon="4.81849">
        <ele>227</ele>
        <time>2013-02-22T20:08:56Z</time>
      </trkpt>
      <trkpt lat="45.75448" lon="4.81857">
        <ele>227</ele>
        <time>2013-02-22T20:09:00Z</time>
      </trkpt>
      <trkpt lat="45.75441" lon="4.81871">
        <ele>226</ele>
        <time>2013-02-22T20:09:06Z</time>
      </trkpt>
      <trkpt lat="45.75437" lon="4.81876">
        <ele>226</ele>
        <time>2013-02-22T20:09:10Z</time>
      </trkpt>
      <trkpt lat="45.75434" lon="4.81877">
        <ele>226</ele>
        <time>2013-02-22T20:09:11Z</time>
      </trkpt>
      <trkpt lat="45.75429" lon="4.81881">
        <ele>225</ele>
        <time>2013-02-22T20:09:14Z</time>
      </trkpt>
      <trkpt lat="45.75426" lon="4.81885">
        <ele>225</ele>
        <time>2013-02-22T20:09:17Z</time>
      </trkpt>
      <trkpt lat="45.75413" lon="4.81894">
        <ele>214</ele>
        <time>2013-02-22T20:09:25Z</time>
      </trkpt>
      <trkpt lat="45.75409" lon="4.81897">
        <ele>214</ele>
        <time>2013-02-22T20:09:27Z</time>
      </trkpt>
      <trkpt lat="45.75401" lon="4.81904">
        <ele>214</ele>
        <time>2013-02-22T20:09:32Z</time>
      </trkpt>
      <trkpt lat="45.75395" lon="4.81911">
        <ele>214</ele>
        <time>2013-02-22T20:09:36Z</time>
      </trkpt>
      <trkpt lat="45.75393" lon="4.81913">
        <ele>214</ele>
        <time>2013-02-22T20:09:37Z</time>
      </trkpt>
      <trkpt lat="45.75386" lon="4.81916">
        <ele>213</ele>
        <time>2013-02-22T20:09:41Z</time>
      </trkpt>
      <trkpt lat="45.75375" lon="4.81919">
        <ele>213</ele>
        <time>2013-02-22T20:09:46Z</time>
      </trkpt>
      <trkpt lat="45.75372" lon="4.8192">
        <ele>212</ele>
        <time>2013-02-22T20:09:47Z</time>
      </trkpt>
      <trkpt lat="45.75361" lon="4.81923">
        <ele>211</ele>
        <time>2013-02-22T20:09:52Z</time>
      </trkpt>
      <trkpt lat="45.75356" lon="4.81922">
        <ele>210</ele>
        <time>2013-02-22T20:09:54Z</time>
      </trkpt>
      <trkpt lat="45.75348" lon="4.81922">
        <ele>208</ele>
        <time>2013-02-22T20:09:58Z</time>
      </trkpt>
      <trkpt lat="45.75339" lon="4.81924">
        <ele>207</ele>
        <time>2013-02-22T20:10:02Z</time>
      </trkpt>
      <trkpt lat="45.75337" lon="4.81925">
        <ele>207</ele>
        <time>2013-02-22T20:10:03Z</time>
      </trkpt>
      <trkpt lat="45.75329" lon="4.8193">
        <ele>202</ele>
        <time>2013-02-22T20:10:07Z</time>
      </trkpt>
      <trkpt lat="45.7532" lon="4.81937">
        <ele>201</ele>
        <time>2013-02-22T20:10:12Z</time>
      </trkpt>
      <trkpt lat="45.75307" lon="4.81939">
        <ele>201</ele>
        <time>2013-02-22T20:10:18Z</time>
      </trkpt>
      <trkpt lat="45.75302" lon="4.81937">
        <ele>200</ele>
        <time>2013-02-22T20:10:20Z</time>
      </trkpt>
      <trkpt lat="45.75292" lon="4.8193">
        <ele>200</ele>
        <time>2013-02-22T20:10:24Z</time>
      </trkpt>
      <trkpt lat="45.75285" lon="4.81927">
        <ele>200</ele>
        <time>2013-02-22T20:10:27Z</time>
      </trkpt>
      <trkpt lat="45.75275" lon="4.81926">
        <ele>200</ele>
        <time>2013-02-22T20:10:31Z</time>
      </trkpt>
      <trkpt lat="45.75264" lon="4.81927">
        <ele>199</ele>
        <time>2013-02-22T20:10:35Z</time>
      </trkpt>
      <trkpt lat="45.75261" lon="4.81926">
        <ele>199</ele>
        <time>2013-02-22T20:10:36Z</time>
      </trkpt>
      <trkpt lat="45.7525" lon="4.81923">
        <ele>198</ele>
        <time>2013-02-22T20:10:41Z</time>
      </trkpt>
      <trkpt lat="45.75245" lon="4.81922">
        <ele>198</ele>
        <time>2013-02-22T20:10:43Z</time>
      </trkpt>
      <trkpt lat="45.75234" lon="4.8192">
        <ele>196</ele>
        <time>2013-02-22T20:10:48Z</time>
      </trkpt>
      <trkpt lat="45.75226" lon="4.81921">
        <ele>195</ele>
        <time>2013-02-22T20:10:52Z</time>
      </trkpt>
      <trkpt lat="45.75225" lon="4.81922">
        <ele>195</ele>
        <time>2013-02-22T20:10:53Z</time>
      </trkpt>
      <trkpt lat="45.75225" lon="4.81931">
        <ele>194</ele>
        <time>2013-02-22T20:10:57Z</time>
      </trkpt>
      <trkpt lat="45.75224" lon="4.81937">
        <ele>194</ele>
        <time>2013-02-22T20:10:59Z</time>
      </trkpt>
      <trkpt lat="45.7522" lon="4.81943">
        <ele>193</ele>
        <time>2013-02-22T20:11:02Z</time>
      </trkpt>
      <trkpt lat="45.75212" lon="4.81949">
        <ele>192</ele>
        <time>2013-02-22T20:11:08Z</time>
      </trkpt>
      <trkpt lat="45.75211" lon="4.8195">
        <ele>192</ele>
        <time>2013-02-22T20:11:09Z</time>
      </trkpt>
      <trkpt lat="45.75209" lon="4.81952">
        <ele>192</ele>
        <time>2013-02-22T20:11:14Z</time>
      </trkpt>
      <trkpt lat="45.75205" lon="4.81951">
        <ele>192</ele>
        <time>2013-02-22T20:11:21Z</time>
      </trkpt>
      <trkpt lat="45.75205" lon="4.81954">
        <ele>192</ele>
        <time>2013-02-22T20:11:26Z</time>
      </trkpt>
      <trkpt lat="45.75205" lon="4.81955">
        <ele>191</ele>
        <time>2013-02-22T20:11:27Z</time>
      </trkpt>
      <trkpt lat="45.75202" lon="4.81957">
        <ele>191</ele>
        <time>2013-02-22T20:11:30Z</time>
      </trkpt>
      <trkpt lat="45.75197" lon="4.81959">
        <ele>191</ele>
        <time>2013-02-22T20:11:34Z</time>
      </trkpt>
      <trkpt lat="45.75203" lon="4.81961">
        <ele>191</ele>
        <time>2013-02-22T20:11:39Z</time>
      </trkpt>
      <trkpt lat="45.75205" lon="4.81961">
        <ele>191</ele>
        <time>2013-02-22T20:11:40Z</time>
      </trkpt>
      <trkpt lat="45.75207" lon="4.81962">
        <ele>191</ele>
        <time>2013-02-22T20:11:42Z</time>
      </trkpt>
      <trkpt lat="45.75207" lon="4.81963">
        <ele>191</ele>
        <time>2013-02-22T20:11:46Z</time>
      </trkpt>
      <trkpt lat="45.75207" lon="4.81961">
        <ele>191</ele>
        <time>2013-02-22T20:11:56Z</time>
      </trkpt>
      <trkpt lat="45.75203" lon="4.81962">
        <ele>191</ele>
        <time>2013-02-22T20:12:04Z</time>
      </trkpt>
      <trkpt lat="45.75202" lon="4.81958">
        <ele>191</ele>
        <time>2013-02-22T20:12:09Z</time>
      </trkpt>
      <trkpt lat="45.75201" lon="4.81955">
        <ele>191</ele>
        <time>2013-02-22T20:12:10Z</time>
      </trkpt>
      <trkpt lat="45.752" lon="4.81951">
        <ele>192</ele>
        <time>2013-02-22T20:12:12Z</time>
      </trkpt>
      <trkpt lat="45.75197" lon="4.81947">
        <ele>192</ele>
        <time>2013-02-22T20:12:14Z</time>
      </trkpt>
      <trkpt lat="45.75195" lon="4.81943">
        <ele>192</ele>
        <time>2013-02-22T20:12:17Z</time>
      </trkpt>
      <trkpt lat="45.75197" lon="4.81939">
        <ele>193</ele>
        <time>2013-02-22T20:12:19Z</time>
      </trkpt>
      <trkpt lat="45.752" lon="4.81936">
        <ele>193</ele>
        <time>2013-02-22T20:12:21Z</time>
      </trkpt>
      <trkpt lat="45.75203" lon="4.8193">
        <ele>193</ele>
        <time>2013-02-22T20:12:24Z</time>
      </trkpt>
      <trkpt lat="45.75213" lon="4.81916">
        <ele>202</ele>
        <time>2013-02-22T20:12:32Z</time>
      </trkpt>
      <trkpt lat="45.7522" lon="4.81903">
        <ele>202</ele>
        <time>2013-02-22T20:12:38Z</time>
      </trkpt>
      <trkpt lat="45.75224" lon="4.81895">
        <ele>203</ele>
        <time>2013-02-22T20:12:42Z</time>
      </trkpt>
      <trkpt lat="45.75226" lon="4.8189">
        <ele>203</ele>
        <time>2013-02-22T20:12:44Z</time>
      </trkpt>
      <trkpt lat="45.75233" lon="4.81882">
        <ele>204</ele>
        <time>2013-02-22T20:12:50Z</time>
      </trkpt>
      <trkpt lat="45.75238" lon="4.81876">
        <ele>204</ele>
        <time>2013-02-22T20:12:56Z</time>
      </trkpt>
      <trkpt lat="45.75239" lon="4.81875">
        <ele>204</ele>
        <time>2013-02-22T20:12:57Z</time>
      </trkpt>
      <trkpt lat="45.75242" lon="4.81869">
        <ele>205</ele>
        <time>2013-02-22T20:13:01Z</time>
      </trkpt>
      <trkpt lat="45.75244" lon="4.81864">
        <ele>205</ele>
        <time>2013-02-22T20:13:04Z</time>
      </trkpt>
      <trkpt lat="45.75248" lon="4.81852">
        <ele>207</ele>
        <time>2013-02-22T20:13:11Z</time>
      </trkpt>
      <trkpt lat="45.75248" lon="4.8185">
        <ele>207</ele>
        <time>2013-02-22T20:13:12Z</time>
      </trkpt>
      <trkpt lat="45.75248" lon="4.81848">
        <ele>207</ele>
        <time>2013-02-22T20:13:13Z</time>
      </trkpt>
      <trkpt lat="45.75247" lon="4.8184">
        <ele>209</ele>
        <time>2013-02-22T20:13:17Z</time>
      </trkpt>
      <trkpt lat="45.75248" lon="4.81837">
        <ele>209</ele>
        <time>2013-02-22T20:13:19Z</time>
      </trkpt>
      <trkpt lat="45.7525" lon="4.81831">
        <ele>211</ele>
        <time>2013-02-22T20:13:22Z</time>
      </trkpt>
      <trkpt lat="45.75251" lon="4.81826">
        <ele>212</ele>
        <time>2013-02-22T20:13:25Z</time>
      </trkpt>
      <trkpt lat="45.75252" lon="4.81821">
        <ele>213</ele>
        <time>2013-02-22T20:13:28Z</time>
      </trkpt>
      <trkpt lat="45.75253" lon="4.81818">
        <ele>214</ele>
        <time>2013-02-22T20:13:30Z</time>
      </trkpt>
      <trkpt lat="45.75253" lon="4.8181">
        <ele>215</ele>
        <time>2013-02-22T20:13:35Z</time>
      </trkpt>
      <trkpt lat="45.75254" lon="4.818">
        <ele>216</ele>
        <time>2013-02-22T20:13:41Z</time>
      </trkpt>
      <trkpt lat="45.75254" lon="4.81799">
        <ele>216</ele>
        <time>2013-02-22T20:13:42Z</time>
      </trkpt>
      <trkpt lat="45.75257" lon="4.81794">
        <ele>217</ele>
        <time>2013-02-22T20:13:45Z</time>
      </trkpt>
      <trkpt lat="45.75261" lon="4.81792">
        <ele>217</ele>
        <time>2013-02-22T20:13:48Z</time>
      </trkpt>
      <trkpt lat="45.7527" lon="4.81784">
        <ele>218</ele>
        <time>2013-02-22T20:13:54Z</time>
      </trkpt>
      <trkpt lat="45.75272" lon="4.81784">
        <ele>218</ele>
        <time>2013-02-22T20:13:55Z</time>
      </trkpt>
      <trkpt lat="45.75278" lon="4.81775">
        <ele>219</ele>
        <time>2013-02-22T20:14:01Z</time>
      </trkpt>
      <trkpt lat="45.75278" lon="4.81768">
        <ele>219</ele>
        <time>2013-02-22T20:14:04Z</time>
      </trkpt>
      <trkpt lat="45.75278" lon="4.81762">
        <ele>220</ele>
        <time>2013-02-22T20:14:07Z</time>
      </trkpt>
      <trkpt lat="45.75278" lon="4.81757">
        <ele>220</ele>
        <time>2013-02-22T20:14:10Z</time>
      </trkpt>
      <trkpt lat="45.7528" lon="4.8175">
        <ele>220</ele>
        <time>2013-02-22T20:14:15Z</time>
      </trkpt>
      <trkpt lat="45.75281" lon="4.81749">
        <ele>228</ele>
        <time>2013-02-22T20:14:16Z</time>
      </trkpt>
      <trkpt lat="45.75282" lon="4.81748">
        <ele>228</ele>
        <time>2013-02-22T20:14:18Z</time>
      </trkpt>
      <trkpt lat="45.75284" lon="4.81748">
        <ele>228</ele>
        <time>2013-02-22T20:14:20Z</time>
      </trkpt>
      <trkpt lat="45.75285" lon="4.81746">
        <ele>228</ele>
        <time>2013-02-22T20:14:23Z</time>
      </trkpt>
      <trkpt lat="45.75288" lon="4.81746">
        <ele>227</ele>
        <time>2013-02-22T20:14:25Z</time>
      </trkpt>
      <trkpt lat="45.75291" lon="4.81746">
        <ele>227</ele>
        <time>2013-02-22T20:14:28Z</time>
      </trkpt>
      <trkpt lat="45.75294" lon="4.81747">
        <ele>227</ele>
        <time>2013-02-22T20:14:31Z</time>
      </trkpt>
      <trkpt lat="45.75291" lon="4.81743">
        <ele>227</ele>
        <time>2013-02-22T20:14:42Z</time>
      </trkpt>
      <trkpt lat="45.75286" lon="4.81741">
        <ele>228</ele>
        <time>2013-02-22T20:15:04Z</time>
      </trkpt>
      <trkpt lat="45.75284" lon="4.81735">
        <ele>228</ele>
        <time>2013-02-22T20:15:27Z</time>
      </trkpt>
      <trkpt lat="45.75284" lon="4.81732">
        <ele>228</ele>
        <time>2013-02-22T20:15:28Z</time>
      </trkpt>
      <trkpt lat="45.75282" lon="4.81722">
        <ele>229</ele>
        <time>2013-02-22T20:15:31Z</time>
      </trkpt>
      <trkpt lat="45.75282" lon="4.81717">
        <ele>229</ele>
        <time>2013-02-22T20:15:33Z</time>
      </trkpt>
      <trkpt lat="45.75285" lon="4.81715">
        <ele>229</ele>
        <time>2013-02-22T20:15:34Z</time>
      </trkpt>
      <trkpt lat="45.75287" lon="4.81714">
        <ele>229</ele>
        <time>2013-02-22T20:15:35Z</time>
      </trkpt>
      <trkpt lat="45.75296" lon="4.81711">
        <ele>229</ele>
        <time>2013-02-22T20:15:38Z</time>
      </trkpt>
      <trkpt lat="45.75301" lon="4.81702">
        <ele>230</ele>
        <time>2013-02-22T20:15:42Z</time>
      </trkpt>
      <trkpt lat="45.75304" lon="4.81699">
        <ele>230</ele>
        <time>2013-02-22T20:15:43Z</time>
      </trkpt>
      <trkpt lat="45.75304" lon="4.81696">
        <ele>230</ele>
        <time>2013-02-22T20:15:44Z</time>
      </trkpt>
      <trkpt lat="45.75304" lon="4.8169">
        <ele>230</ele>
        <time>2013-02-22T20:15:46Z</time>
      </trkpt>
      <trkpt lat="45.75304" lon="4.81683">
        <ele>231</ele>
        <time>2013-02-22T20:15:48Z</time>
      </trkpt>
      <trkpt lat="45.75306" lon="4.81673">
        <ele>231</ele>
        <time>2013-02-22T20:15:52Z</time>
      </trkpt>
      <trkpt lat="45.75306" lon="4.81671">
        <ele>231</ele>
        <time>2013-02-22T20:15:53Z</time>
      </trkpt>
      <trkpt lat="45.75309" lon="4.81662">
        <ele>238</ele>
        <time>2013-02-22T20:15:57Z</time>
      </trkpt>
      <trkpt lat="45.75316" lon="4.81651">
        <ele>238</ele>
        <time>2013-02-22T20:16:03Z</time>
      </trkpt>
      <trkpt lat="45.75316" lon="4.81648">
        <ele>239</ele>
        <time>2013-02-22T20:16:04Z</time>
      </trkpt>
      <trkpt lat="45.75317" lon="4.81639">
        <ele>239</ele>
        <time>2013-02-22T20:16:08Z</time>
      </trkpt>
      <trkpt lat="45.75322" lon="4.81631">
        <ele>240</ele>
        <time>2013-02-22T20:16:14Z</time>
      </trkpt>
      <trkpt lat="45.75323" lon="4.81624">
        <ele>241</ele>
        <time>2013-02-22T20:16:18Z</time>
      </trkpt>
      <trkpt lat="45.75324" lon="4.81622">
        <ele>241</ele>
        <time>2013-02-22T20:16:20Z</time>
      </trkpt>
      <trkpt lat="45.75325" lon="4.8162">
        <ele>241</ele>
        <time>2013-02-22T20:16:23Z</time>
      </trkpt>
      <trkpt lat="45.75325" lon="4.81618">
        <ele>241</ele>
        <time>2013-02-22T20:16:24Z</time>
      </trkpt>
      <trkpt lat="45.75324" lon="4.81617">
        <ele>241</ele>
        <time>2013-02-22T20:16:25Z</time>
      </trkpt>
      <trkpt lat="45.75323" lon="4.81613">
        <ele>242</ele>
        <time>2013-02-22T20:16:29Z</time>
      </trkpt>
      <trkpt lat="45.75323" lon="4.81612">
        <ele>242</ele>
        <time>2013-02-22T20:16:30Z</time>
      </trkpt>
      <trkpt lat="45.75323" lon="4.81611">
        <ele>242</ele>
        <time>2013-02-22T20:16:31Z</time>
      </trkpt>
      <trkpt lat="45.75324" lon="4.81606">
        <ele>242</ele>
        <time>2013-02-22T20:16:41Z</time>
      </trkpt>
      <trkpt lat="45.75326" lon="4.816">
        <ele>243</ele>
        <time>2013-02-22T20:16:58Z</time>
      </trkpt>
      <trkpt lat="45.75326" lon="4.81597">
        <ele>243</ele>
        <time>2013-02-22T20:17:01Z</time>
      </trkpt>
      <trkpt lat="45.75327" lon="4.81589">
        <ele>243</ele>
        <time>2013-02-22T20:17:07Z</time>
      </trkpt>
      <trkpt lat="45.75327" lon="4.81585">
        <ele>244</ele>
        <time>2013-02-22T20:17:10Z</time>
      </trkpt>
      <trkpt lat="45.75329" lon="4.81582">
        <ele>246</ele>
        <time>2013-02-22T20:17:12Z</time>
      </trkpt>
      <trkpt lat="45.7533" lon="4.81579">
        <ele>246</ele>
        <time>2013-02-22T20:17:14Z</time>
      </trkpt>
      <trkpt lat="45.75331" lon="4.81575">
        <ele>246</ele>
        <time>2013-02-22T20:17:16Z</time>
      </trkpt>
      <trkpt lat="45.75332" lon="4.81573">
        <ele>247</ele>
        <time>2013-02-22T20:17:17Z</time>
      </trkpt>
      <trkpt lat="45.75334" lon="4.81568">
        <ele>247</ele>
        <time>2013-02-22T20:17:19Z</time>
      </trkpt>
      <trkpt lat="45.75338" lon="4.81559">
        <ele>248</ele>
        <time>2013-02-22T20:17:22Z</time>
      </trkpt>
      <trkpt lat="45.7534" lon="4.81552">
        <ele>248</ele>
        <time>2013-02-22T20:17:25Z</time>
      </trkpt>
      <trkpt lat="45.75341" lon="4.81547">
        <ele>249</ele>
        <time>2013-02-22T20:17:27Z</time>
      </trkpt>
      <trkpt lat="45.75345" lon="4.81534">
        <ele>250</ele>
        <time>2013-02-22T20:17:32Z</time>
      </trkpt>
      <trkpt lat="45.75347" lon="4.81527">
        <ele>251</ele>
        <time>2013-02-22T20:17:35Z</time>
      </trkpt>
      <trkpt lat="45.75348" lon="4.81522">
        <ele>251</ele>
        <time>2013-02-22T20:17:37Z</time>
      </trkpt>
      <trkpt lat="45.7535" lon="4.81513">
        <ele>252</ele>
        <time>2013-02-22T20:17:40Z</time>
      </trkpt>
      <trkpt lat="45.75353" lon="4.81505">
        <ele>252</ele>
        <time>2013-02-22T20:17:43Z</time>
      </trkpt>
      <trkpt lat="45.75354" lon="4.81502">
        <ele>252</ele>
        <time>2013-02-22T20:17:44Z</time>
      </trkpt>
      <trkpt lat="45.75357" lon="4.81493">
        <ele>259</ele>
        <time>2013-02-22T20:17:47Z</time>
      </trkpt>
      <trkpt lat="45.7536" lon="4.81483">
        <ele>260</ele>
        <time>2013-02-22T20:17:51Z</time>
      </trkpt>
      <trkpt lat="45.75362" lon="4.81479">
        <ele>261</ele>
        <time>2013-02-22T20:17:53Z</time>
      </trkpt>
      <trkpt lat="45.75366" lon="4.81466">
        <ele>262</ele>
        <time>2013-02-22T20:17:59Z</time>
      </trkpt>
      <trkpt lat="45.75369" lon="4.81455">
        <ele>263</ele>
        <time>2013-02-22T20:18:03Z</time>
      </trkpt>
      <trkpt lat="45.75369" lon="4.81452">
        <ele>263</ele>
        <time>2013-02-22T20:18:04Z</time>
      </trkpt>
      <trkpt lat="45.75377" lon="4.81445">
        <ele>263</ele>
        <time>2013-02-22T20:18:10Z</time>
      </trkpt>
      <trkpt lat="45.75384" lon="4.81436">
        <ele>264</ele>
        <time>2013-02-22T20:18:16Z</time>
      </trkpt>
      <trkpt lat="45.7539" lon="4.81426">
        <ele>264</ele>
        <time>2013-02-22T20:18:21Z</time>
      </trkpt>
      <trkpt lat="45.75391" lon="4.81423">
        <ele>265</ele>
        <time>2013-02-22T20:18:22Z</time>
      </trkpt>
      <trkpt lat="45.75395" lon="4.81413">
        <ele>271</ele>
        <time>2013-02-22T20:18:26Z</time>
      </trkpt>
      <trkpt lat="45.75399" lon="4.81397">
        <ele>272</ele>
        <time>2013-02-22T20:18:34Z</time>
      </trkpt>
      <trkpt lat="45.754" lon="4.81395">
        <ele>272</ele>
        <time>2013-02-22T20:18:35Z</time>
      </trkpt>
      <trkpt lat="45.75402" lon="4.81391">
        <ele>272</ele>
        <time>2013-02-22T20:18:39Z</time>
      </trkpt>
      <trkpt lat="45.75402" lon="4.81387">
        <ele>272</ele>
        <time>2013-02-22T20:18:41Z</time>
      </trkpt>
      <trkpt lat="45.75403" lon="4.81381">
        <ele>273</ele>
        <time>2013-02-22T20:18:44Z</time>
      </trkpt>
      <trkpt lat="45.75406" lon="4.81374">
        <ele>273</ele>
        <time>2013-02-22T20:18:50Z</time>
      </trkpt>
      <trkpt lat="45.75407" lon="4.8137">
        <ele>274</ele>
        <time>2013-02-22T20:18:54Z</time>
      </trkpt>
      <trkpt lat="45.75407" lon="4.81368">
        <ele>274</ele>
        <time>2013-02-22T20:18:56Z</time>
      </trkpt>
      <trkpt lat="45.7541" lon="4.81362">
        <ele>274</ele>
        <time>2013-02-22T20:19:00Z</time>
      </trkpt>
      <trkpt lat="45.75414" lon="4.81354">
        <ele>275</ele>
        <time>2013-02-22T20:19:05Z</time>
      </trkpt>
      <trkpt lat="45.75419" lon="4.81342">
        <ele>276</ele>
        <time>2013-02-22T20:19:12Z</time>
      </trkpt>
      <trkpt lat="45.7542" lon="4.81339">
        <ele>277</ele>
        <time>2013-02-22T20:19:13Z</time>
      </trkpt>
      <trkpt lat="45.75425" lon="4.81329">
        <ele>278</ele>
        <time>2013-02-22T20:19:20Z</time>
      </trkpt>
      <trkpt lat="45.75427" lon="4.81327">
        <ele>278</ele>
        <time>2013-02-22T20:19:22Z</time>
      </trkpt>
      <trkpt lat="45.75433" lon="4.81325">
        <ele>279</ele>
        <time>2013-02-22T20:19:26Z</time>
      </trkpt>
      <trkpt lat="45.75434" lon="4.81324">
        <ele>279</ele>
        <time>2013-02-22T20:19:27Z</time>
      </trkpt>
      <trkpt lat="45.75435" lon="4.81322">
        <ele>279</ele>
        <time>2013-02-22T20:19:28Z</time>
      </trkpt>
      <trkpt lat="45.75437" lon="4.81318">
        <ele>279</ele>
        <time>2013-02-22T20:19:30Z</time>
      </trkpt>
      <trkpt lat="45.75439" lon="4.81316">
        <ele>280</ele>
        <time>2013-02-22T20:19:31Z</time>
      </trkpt>
      <trkpt lat="45.75445" lon="4.81306">
        <ele>280</ele>
        <time>2013-02-22T20:19:35Z</time>
      </trkpt>
      <trkpt lat="45.75448" lon="4.81302">
        <ele>280</ele>
        <time>2013-02-22T20:19:37Z</time>
      </trkpt>
      <trkpt lat="45.75454" lon="4.81292">
        <ele>281</ele>
        <time>2013-02-22T20:19:41Z</time>
      </trkpt>
      <trkpt lat="45.75461" lon="4.81279">
        <ele>281</ele>
        <time>2013-02-22T20:19:46Z</time>
      </trkpt>
      <trkpt lat="45.75473" lon="4.81262">
        <ele>280</ele>
        <time>2013-02-22T20:19:53Z</time>
      </trkpt>
      <trkpt lat="45.75475" lon="4.81261">
        <ele>280</ele>
        <time>2013-02-22T20:19:54Z</time>
      </trkpt>
      <trkpt lat="45.75478" lon="4.81259">
        <ele>280</ele>
        <time>2013-02-22T20:19:57Z</time>
      </trkpt>
      <trkpt lat="45.7548" lon="4.81257">
        <ele>280</ele>
        <time>2013-02-22T20:20:01Z</time>
      </trkpt>
      <trkpt lat="45.75481" lon="4.81257">
        <ele>280</ele>
        <time>2013-02-22T20:20:04Z</time>
      </trkpt>
      <trkpt lat="45.75482" lon="4.81253">
        <ele>280</ele>
        <time>2013-02-22T20:20:10Z</time>
      </trkpt>
      <trkpt lat="45.75484" lon="4.81255">
        <ele>280</ele>
        <time>2013-02-22T20:20:15Z</time>
      </trkpt>
      <trkpt lat="45.75486" lon="4.8126">
        <ele>280</ele>
        <time>2013-02-22T20:20:21Z</time>
      </trkpt>
      <trkpt lat="45.75487" lon="4.81261">
        <ele>280</ele>
        <time>2013-02-22T20:20:30Z</time>
      </trkpt>
      <trkpt lat="45.75488" lon="4.81262">
        <ele>280</ele>
        <time>2013-02-22T20:20:32Z</time>
      </trkpt>
      <trkpt lat="45.7549" lon="4.81263">
        <ele>280</ele>
        <time>2013-02-22T20:20:35Z</time>
      </trkpt>
      <trkpt lat="45.75495" lon="4.81265">
        <ele>280</ele>
        <time>2013-02-22T20:20:42Z</time>
      </trkpt>
      <trkpt lat="45.75497" lon="4.81267">
        <ele>280</ele>
        <time>2013-02-22T20:20:48Z</time>
      </trkpt>
      <trkpt lat="45.75496" lon="4.81266">
        <ele>280</ele>
        <time>2013-02-22T20:20:58Z</time>
      </trkpt>
      <trkpt lat="45.75501" lon="4.81265">
        <ele>278</ele>
        <time>2013-02-22T20:21:06Z</time>
      </trkpt>
      <trkpt lat="45.75496" lon="4.81267">
        <ele>280</ele>
        <time>2013-02-22T20:21:19Z</time>
      </trkpt>
      <trkpt lat="45.75498" lon="4.81268">
        <ele>280</ele>
        <time>2013-02-22T20:21:26Z</time>
      </trkpt>
      <trkpt lat="45.75499" lon="4.81268">
        <ele>280</ele>
        <time>2013-02-22T20:21:27Z</time>
      </trkpt>
      <trkpt lat="45.75505" lon="4.81271">
        <ele>278</ele>
        <time>2013-02-22T20:21:31Z</time>
      </trkpt>
      <trkpt lat="45.75516" lon="4.81277">
        <ele>277</ele>
        <time>2013-02-22T20:21:37Z</time>
      </trkpt>
      <trkpt lat="45.75525" lon="4.81288">
        <ele>277</ele>
        <time>2013-02-22T20:21:42Z</time>
      </trkpt>
      <trkpt lat="45.75529" lon="4.81296">
        <ele>277</ele>
        <time>2013-02-22T20:21:47Z</time>
      </trkpt>
      <trkpt lat="45.75539" lon="4.81308">
        <ele>277</ele>
        <time>2013-02-22T20:21:54Z</time>
      </trkpt>
      <trkpt lat="45.75542" lon="4.81314">
        <ele>276</ele>
        <time>2013-02-22T20:21:57Z</time>
      </trkpt>
      <trkpt lat="45.75545" lon="4.81323">
        <ele>276</ele>
        <time>2013-02-22T20:22:01Z</time>
      </trkpt>
      <trkpt lat="45.75547" lon="4.8134">
        <ele>276</ele>
        <time>2013-02-22T20:22:07Z</time>
      </trkpt>
      <trkpt lat="45.75544" lon="4.81357">
        <ele>276</ele>
        <time>2013-02-22T20:22:13Z</time>
      </trkpt>
      <trkpt lat="45.75543" lon="4.8136">
        <ele>276</ele>
        <time>2013-02-22T20:22:14Z</time>
      </trkpt>
      <trkpt lat="45.7554" lon="4.81365">
        <ele>276</ele>
        <time>2013-02-22T20:22:16Z</time>
      </trkpt>
      <trkpt lat="45.7554" lon="4.81368">
        <ele>276</ele>
        <time>2013-02-22T20:22:17Z</time>
      </trkpt>
      <trkpt lat="45.75541" lon="4.81373">
        <ele>276</ele>
        <time>2013-02-22T20:22:22Z</time>
      </trkpt>
      <trkpt lat="45.75547" lon="4.81379">
        <ele>276</ele>
        <time>2013-02-22T20:22:25Z</time>
      </trkpt>
      <trkpt lat="45.7555" lon="4.81381">
        <ele>275</ele>
        <time>2013-02-22T20:22:26Z</time>
      </trkpt>
      <trkpt lat="45.75552" lon="4.81382">
        <ele>275</ele>
        <time>2013-02-22T20:22:27Z</time>
      </trkpt>
      <trkpt lat="45.75564" lon="4.81389">
        <ele>275</ele>
        <time>2013-02-22T20:22:32Z</time>
      </trkpt>
      <trkpt lat="45.75568" lon="4.81392">
        <ele>275</ele>
        <time>2013-02-22T20:22:34Z</time>
      </trkpt>
      <trkpt lat="45.7557" lon="4.81399">
        <ele>274</ele>
        <time>2013-02-22T20:22:36Z</time>
      </trkpt>
      <trkpt lat="45.75569" lon="4.81414">
        <ele>274</ele>
        <time>2013-02-22T20:22:41Z</time>
      </trkpt>
      <trkpt lat="45.75572" lon="4.81417">
        <ele>272</ele>
        <time>2013-02-22T20:22:43Z</time>
      </trkpt>
      <trkpt lat="45.75571" lon="4.81426">
        <ele>272</ele>
        <time>2013-02-22T20:22:46Z</time>
      </trkpt>
      <trkpt lat="45.75565" lon="4.81444">
        <ele>271</ele>
        <time>2013-02-22T20:22:51Z</time>
      </trkpt>
      <trkpt lat="45.75564" lon="4.81446">
        <ele>271</ele>
        <time>2013-02-22T20:22:52Z</time>
      </trkpt>
      <trkpt lat="45.75558" lon="4.81463">
        <ele>270</ele>
        <time>2013-02-22T20:22:58Z</time>
      </trkpt>
      <trkpt lat="45.75556" lon="4.81469">
        <ele>269</ele>
        <time>2013-02-22T20:23:00Z</time>
      </trkpt>
      <trkpt lat="45.75551" lon="4.81476">
        <ele>269</ele>
        <time>2013-02-22T20:23:03Z</time>
      </trkpt>
      <trkpt lat="45.75549" lon="4.81486">
        <ele>269</ele>
        <time>2013-02-22T20:23:07Z</time>
      </trkpt>
      <trkpt lat="45.75549" lon="4.8149">
        <ele>269</ele>
        <time>2013-02-22T20:23:08Z</time>
      </trkpt>
      <trkpt lat="45.75553" lon="4.81497">
        <ele>268</ele>
        <time>2013-02-22T20:23:10Z</time>
      </trkpt>
      <trkpt lat="45.75556" lon="4.815">
        <ele>268</ele>
        <time>2013-02-22T20:23:11Z</time>
      </trkpt>
      <trkpt lat="45.75565" lon="4.81507">
        <ele>264</ele>
        <time>2013-02-22T20:23:15Z</time>
      </trkpt>
      <trkpt lat="45.75577" lon="4.81524">
        <ele>264</ele>
        <time>2013-02-22T20:23:20Z</time>
      </trkpt>
      <trkpt lat="45.75578" lon="4.81527">
        <ele>264</ele>
        <time>2013-02-22T20:23:21Z</time>
      </trkpt>
      <trkpt lat="45.75577" lon="4.81528">
        <ele>264</ele>
        <time>2013-02-22T20:23:23Z</time>
      </trkpt>
      <trkpt lat="45.75576" lon="4.81529">
        <ele>264</ele>
        <time>2013-02-22T20:23:24Z</time>
      </trkpt>
      <trkpt lat="45.75579" lon="4.81527">
        <ele>264</ele>
        <time>2013-02-22T20:23:27Z</time>
      </trkpt>
      <trkpt lat="45.75591" lon="4.8152">
        <ele>266</ele>
        <time>2013-02-22T20:23:32Z</time>
      </trkpt>
      <trkpt lat="45.75594" lon="4.81521">
        <ele>266</ele>
        <time>2013-02-22T20:23:33Z</time>
      </trkpt>
      <trkpt lat="45.75605" lon="4.81525">
        <ele>266</ele>
        <time>2013-02-22T20:23:37Z</time>
      </trkpt>
      <trkpt lat="45.75606" lon="4.81526">
        <ele>266</ele>
        <time>2013-02-22T20:23:38Z</time>
      </trkpt>
      <trkpt lat="45.75607" lon="4.81527">
        <ele>266</ele>
        <time>2013-02-22T20:23:39Z</time>
      </trkpt>
      <trkpt lat="45.75609" lon="4.8153">
        <ele>266</ele>
        <time>2013-02-22T20:23:41Z</time>
      </trkpt>
      <trkpt lat="45.75612" lon="4.8153">
        <ele>266</ele>
        <time>2013-02-22T20:23:43Z</time>
      </trkpt>
      <trkpt lat="45.75619" lon="4.81525">
        <ele>266</ele>
        <time>2013-02-22T20:23:47Z</time>
      </trkpt>
      <trkpt lat="45.75626" lon="4.8152">
        <ele>266</ele>
        <time>2013-02-22T20:23:52Z</time>
      </trkpt>
      <trkpt lat="45.75627" lon="4.81519">
        <ele>266</ele>
        <time>2013-02-22T20:23:53Z</time>
      </trkpt>
      <trkpt lat="45.75637" lon="4.81513">
        <ele>267</ele>
        <time>2013-02-22T20:23:58Z</time>
      </trkpt>
      <trkpt lat="45.75641" lon="4.81507">
        <ele>267</ele>
        <time>2013-02-22T20:24:00Z</time>
      </trkpt>
      <trkpt lat="45.75643" lon="4.81505">
        <ele>267</ele>
        <time>2013-02-22T20:24:01Z</time>
      </trkpt>
      <trkpt lat="45.75653" lon="4.81496">
        <ele>268</ele>
        <time>2013-02-22T20:24:05Z</time>
      </trkpt>
      <trkpt lat="45.75657" lon="4.81493">
        <ele>268</ele>
        <time>2013-02-22T20:24:07Z</time>
      </trkpt>
      <trkpt lat="45.75665" lon="4.81489">
        <ele>268</ele>
        <time>2013-02-22T20:24:10Z</time>
      </trkpt>
      <trkpt lat="45.75673" lon="4.81482">
        <ele>268</ele>
        <time>2013-02-22T20:24:14Z</time>
      </trkpt>
      <trkpt lat="45.75677" lon="4.81479">
        <ele>269</ele>
        <time>2013-02-22T20:24:16Z</time>
      </trkpt>
      <trkpt lat="45.75689" lon="4.81466">
        <ele>269</ele>
        <time>2013-02-22T20:24:23Z</time>
      </trkpt>
      <trkpt lat="45.75698" lon="4.81452">
        <ele>269</ele>
        <time>2013-02-22T20:24:29Z</time>
      </trkpt>
      <trkpt lat="45.75702" lon="4.81448">
        <ele>269</ele>
        <time>2013-02-22T20:24:32Z</time>
      </trkpt>
      <trkpt lat="45.75707" lon="4.81446">
        <ele>270</ele>
        <time>2013-02-22T20:24:35Z</time>
      </trkpt>
      <trkpt lat="45.75715" lon="4.81437">
        <ele>270</ele>
        <time>2013-02-22T20:24:40Z</time>
      </trkpt>
      <trkpt lat="45.75718" lon="4.81433">
        <ele>270</ele>
        <time>2013-02-22T20:24:42Z</time>
      </trkpt>
      <trkpt lat="45.75724" lon="4.81429">
        <ele>270</ele>
        <time>2013-02-22T20:24:45Z</time>
      </trkpt>
      <trkpt lat="45.75731" lon="4.81414">
        <ele>270</ele>
        <time>2013-02-22T20:24:50Z</time>
      </trkpt>
      <trkpt lat="45.75733" lon="4.81413">
        <ele>270</ele>
        <time>2013-02-22T20:24:51Z</time>
      </trkpt>
      <trkpt lat="45.75741" lon="4.81404">
        <ele>270</ele>
        <time>2013-02-22T20:24:56Z</time>
      </trkpt>
      <trkpt lat="45.75748" lon="4.81397">
        <ele>270</ele>
        <time>2013-02-22T20:25:00Z</time>
      </trkpt>
      <trkpt lat="45.75752" lon="4.81394">
        <ele>271</ele>
        <time>2013-02-22T20:25:02Z</time>
      </trkpt>
      <trkpt lat="45.75756" lon="4.81393">
        <ele>271</ele>
        <time>2013-02-22T20:25:05Z</time>
      </trkpt>
      <trkpt lat="45.7576" lon="4.81396">
        <ele>271</ele>
        <time>2013-02-22T20:25:07Z</time>
      </trkpt>
      <trkpt lat="45.75764" lon="4.81402">
        <ele>271</ele>
        <time>2013-02-22T20:25:10Z</time>
      </trkpt>
      <trkpt lat="45.75769" lon="4.81409">
        <ele>271</ele>
        <time>2013-02-22T20:25:14Z</time>
      </trkpt>
      <trkpt lat="45.75774" lon="4.81411">
        <ele>272</ele>
        <time>2013-02-22T20:25:19Z</time>
      </trkpt>
      <trkpt lat="45.75774" lon="4.81412">
        <ele>272</ele>
        <time>2013-02-22T20:25:20Z</time>
      </trkpt>
      <trkpt lat="45.75778" lon="4.81416">
        <ele>272</ele>
        <time>2013-02-22T20:25:25Z</time>
      </trkpt>
      <trkpt lat="45.75778" lon="4.81417">
        <ele>273</ele>
        <time>2013-02-22T20:25:26Z</time>
      </trkpt>
      <trkpt lat="45.75779" lon="4.81419">
        <ele>273</ele>
        <time>2013-02-22T20:25:30Z</time>
      </trkpt>
      <trkpt lat="45.75782" lon="4.81417">
        <ele>273</ele>
        <time>2013-02-22T20:25:44Z</time>
      </trkpt>
      <trkpt lat="45.75791" lon="4.81418">
        <ele>273</ele>
        <time>2013-02-22T20:25:48Z</time>
      </trkpt>
      <trkpt lat="45.75801" lon="4.81412">
        <ele>272</ele>
        <time>2013-02-22T20:25:53Z</time>
      </trkpt>
      <trkpt lat="45.75801" lon="4.81408">
        <ele>272</ele>
        <time>2013-02-22T20:25:54Z</time>
      </trkpt>
      <trkpt lat="45.75803" lon="4.81402">
        <ele>272</ele>
        <time>2013-02-22T20:25:56Z</time>
      </trkpt>
      <trkpt lat="45.75809" lon="4.81392">
        <ele>272</ele>
        <time>2013-02-22T20:25:59Z</time>
      </trkpt>
      <trkpt lat="45.75812" lon="4.81389">
        <ele>272</ele>
        <time>2013-02-22T20:26:01Z</time>
      </trkpt>
      <trkpt lat="45.75819" lon="4.81389">
        <ele>272</ele>
        <time>2013-02-22T20:26:04Z</time>
      </trkpt>
      <trkpt lat="45.75821" lon="4.81391">
        <ele>272</ele>
        <time>2013-02-22T20:26:06Z</time>
      </trkpt>
      <trkpt lat="45.75825" lon="4.81395">
        <ele>272</ele>
        <time>2013-02-22T20:26:08Z</time>
      </trkpt>
      <trkpt lat="45.75828" lon="4.81399">
        <ele>272</ele>
        <time>2013-02-22T20:26:10Z</time>
      </trkpt>
      <trkpt lat="45.75832" lon="4.81405">
        <ele>273</ele>
        <time>2013-02-22T20:26:13Z</time>
      </trkpt>
      <trkpt lat="45.7584" lon="4.81419">
        <ele>276</ele>
        <time>2013-02-22T20:26:19Z</time>
      </trkpt>
      <trkpt lat="45.75841" lon="4.81421">
        <ele>276</ele>
        <time>2013-02-22T20:26:20Z</time>
      </trkpt>
      <trkpt lat="45.75845" lon="4.81427">
        <ele>278</ele>
        <time>2013-02-22T20:26:24Z</time>
      </trkpt>
      <trkpt lat="45.75854" lon="4.81436">
        <ele>281</ele>
        <time>2013-02-22T20:26:31Z</time>
      </trkpt>
      <trkpt lat="45.75855" lon="4.81438">
        <ele>281</ele>
        <time>2013-02-22T20:26:33Z</time>
      </trkpt>
      <trkpt lat="45.75857" lon="4.81442">
        <ele>282</ele>
        <time>2013-02-22T20:26:36Z</time>
      </trkpt>
      <trkpt lat="45.75858" lon="4.81443">
        <ele>282</ele>
        <time>2013-02-22T20:26:37Z</time>
      </trkpt>
      <trkpt lat="45.75861" lon="4.81447">
        <ele>283</ele>
        <time>2013-02-22T20:26:43Z</time>
      </trkpt>
      <trkpt lat="45.75862" lon="4.8145">
        <ele>283</ele>
        <time>2013-02-22T20:26:45Z</time>
      </trkpt>
      <trkpt lat="45.75865" lon="4.81455">
        <ele>283</ele>
        <time>2013-02-22T20:26:49Z</time>
      </trkpt>
      <trkpt lat="45.75867" lon="4.81458">
        <ele>284</ele>
        <time>2013-02-22T20:26:51Z</time>
      </trkpt>
      <trkpt lat="45.75871" lon="4.81462">
        <ele>284</ele>
        <time>2013-02-22T20:26:55Z</time>
      </trkpt>
      <trkpt lat="45.75872" lon="4.81463">
        <ele>284</ele>
        <time>2013-02-22T20:26:57Z</time>
      </trkpt>
      <trkpt lat="45.75875" lon="4.81466">
        <ele>285</ele>
        <time>2013-02-22T20:27:01Z</time>
      </trkpt>
      <trkpt lat="45.75882" lon="4.81472">
        <ele>286</ele>
        <time>2013-02-22T20:27:06Z</time>
      </trkpt>
      <trkpt lat="45.75883" lon="4.81472">
        <ele>286</ele>
        <time>2013-02-22T20:27:07Z</time>
      </trkpt>
      <trkpt lat="45.75885" lon="4.81474">
        <ele>286</ele>
        <time>2013-02-22T20:27:10Z</time>
      </trkpt>
      <trkpt lat="45.75887" lon="4.81475">
        <ele>286</ele>
        <time>2013-02-22T20:27:15Z</time>
      </trkpt>
      <trkpt lat="45.75889" lon="4.81473">
        <ele>286</ele>
        <time>2013-02-22T20:27:21Z</time>
      </trkpt>
      <trkpt lat="45.75888" lon="4.81471">
        <ele>286</ele>
        <time>2013-02-22T20:30:14Z</time>
      </trkpt>
      <trkpt lat="45.75887" lon="4.81471">
        <ele>286</ele>
        <time>2013-02-22T20:31:12Z</time>
      </trkpt>
      <trkpt lat="45.75887" lon="4.81471">
        <ele>286</ele>
        <time>2013-02-22T20:31:17Z</time>
      </trkpt>
      <trkpt lat="45.75897" lon="4.81463">
        <ele>287</ele>
        <time>2013-02-22T20:32:05Z</time>
      </trkpt>
      <trkpt lat="45.75902" lon="4.81453">
        <ele>287</ele>
        <time>2013-02-22T20:32:09Z</time>
      </trkpt>
      <trkpt lat="45.75903" lon="4.81451">
        <ele>287</ele>
        <time>2013-02-22T20:32:10Z</time>
      </trkpt>
      <trkpt lat="45.7591" lon="4.81437">
        <ele>288</ele>
        <time>2013-02-22T20:32:15Z</time>
      </trkpt>
      <trkpt lat="45.75914" lon="4.81433">
        <ele>289</ele>
        <time>2013-02-22T20:32:17Z</time>
      </trkpt>
      <trkpt lat="45.75923" lon="4.81427">
        <ele>293</ele>
        <time>2013-02-22T20:32:22Z</time>
      </trkpt>
      <trkpt lat="45.75932" lon="4.81421">
        <ele>293</ele>
        <time>2013-02-22T20:32:26Z</time>
      </trkpt>
      <trkpt lat="45.75934" lon="4.81419">
        <ele>293</ele>
        <time>2013-02-22T20:32:27Z</time>
      </trkpt>
      <trkpt lat="45.75945" lon="4.81406">
        <ele>292</ele>
        <time>2013-02-22T20:32:33Z</time>
      </trkpt>
      <trkpt lat="45.75947" lon="4.81402">
        <ele>292</ele>
        <time>2013-02-22T20:32:35Z</time>
      </trkpt>
      <trkpt lat="45.7595" lon="4.81391">
        <ele>292</ele>
        <time>2013-02-22T20:32:39Z</time>
      </trkpt>
      <trkpt lat="45.75955" lon="4.81376">
        <ele>291</ele>
        <time>2013-02-22T20:32:44Z</time>
      </trkpt>
      <trkpt lat="45.75957" lon="4.81373">
        <ele>291</ele>
        <time>2013-02-22T20:32:45Z</time>
      </trkpt>
      <trkpt lat="45.75963" lon="4.81359">
        <ele>291</ele>
        <time>2013-02-22T20:32:50Z</time>
      </trkpt>
      <trkpt lat="45.75966" lon="4.81355">
        <ele>291</ele>
        <time>2013-02-22T20:32:52Z</time>
      </trkpt>
      <trkpt lat="45.75972" lon="4.81346">
        <ele>291</ele>
        <time>2013-02-22T20:32:56Z</time>
      </trkpt>
      <trkpt lat="45.75977" lon="4.81334">
        <ele>291</ele>
        <time>2013-02-22T20:33:00Z</time>
      </trkpt>
      <trkpt lat="45.75979" lon="4.81327">
        <ele>287</ele>
        <time>2013-02-22T20:33:02Z</time>
      </trkpt>
      <trkpt lat="45.75982" lon="4.81318">
        <ele>287</ele>
        <time>2013-02-22T20:33:05Z</time>
      </trkpt>
      <trkpt lat="45.75985" lon="4.81313">
        <ele>287</ele>
        <time>2013-02-22T20:33:07Z</time>
      </trkpt>
      <trkpt lat="45.75986" lon="4.81309">
        <ele>287</ele>
        <time>2013-02-22T20:33:09Z</time>
      </trkpt>
      <trkpt lat="45.75992" lon="4.81305">
        <ele>287</ele>
        <time>2013-02-22T20:33:12Z</time>
      </trkpt>
      <trkpt lat="45.75996" lon="4.81303">
        <ele>287</ele>
        <time>2013-02-22T20:33:14Z</time>
      </trkpt>
      <trkpt lat="45.75998" lon="4.81303">
        <ele>287</ele>
        <time>2013-02-22T20:33:15Z</time>
      </trkpt>
      <trkpt lat="45.76" lon="4.81299">
        <ele>289</ele>
        <time>2013-02-22T20:33:17Z</time>
      </trkpt>
      <trkpt lat="45.76003" lon="4.81298">
        <ele>289</ele>
        <time>2013-02-22T20:33:18Z</time>
      </trkpt>
      <trkpt lat="45.7601" lon="4.81293">
        <ele>289</ele>
        <time>2013-02-22T20:33:21Z</time>
      </trkpt>
      <trkpt lat="45.76021" lon="4.81285">
        <ele>288</ele>
        <time>2013-02-22T20:33:25Z</time>
      </trkpt>
      <trkpt lat="45.76027" lon="4.81282">
        <ele>288</ele>
        <time>2013-02-22T20:33:27Z</time>
      </trkpt>
      <trkpt lat="45.7603" lon="4.81281">
        <ele>288</ele>
        <time>2013-02-22T20:33:28Z</time>
      </trkpt>
      <trkpt lat="45.7604" lon="4.81275">
        <ele>288</ele>
        <time>2013-02-22T20:33:32Z</time>
      </trkpt>
      <trkpt lat="45.76053" lon="4.81265">
        <ele>288</ele>
        <time>2013-02-22T20:33:38Z</time>
      </trkpt>
      <trkpt lat="45.76058" lon="4.81262">
        <ele>288</ele>
        <time>2013-02-22T20:33:40Z</time>
      </trkpt>
      <trkpt lat="45.76069" lon="4.81256">
        <ele>288</ele>
        <time>2013-02-22T20:33:45Z</time>
      </trkpt>
      <trkpt lat="45.76077" lon="4.81252">
        <ele>287</ele>
        <time>2013-02-22T20:33:48Z</time>
      </trkpt>
      <trkpt lat="45.76087" lon="4.81246">
        <ele>286</ele>
        <time>2013-02-22T20:33:52Z</time>
      </trkpt>
      <trkpt lat="45.76094" lon="4.81242">
        <ele>285</ele>
        <time>2013-02-22T20:33:55Z</time>
      </trkpt>
      <trkpt lat="45.76104" lon="4.81237">
        <ele>284</ele>
        <time>2013-02-22T20:33:59Z</time>
      </trkpt>
      <trkpt lat="45.76111" lon="4.81233">
        <ele>284</ele>
        <time>2013-02-22T20:34:02Z</time>
      </trkpt>
      <trkpt lat="45.76121" lon="4.81227">
        <ele>284</ele>
        <time>2013-02-22T20:34:06Z</time>
      </trkpt>
      <trkpt lat="45.76128" lon="4.81225">
        <ele>284</ele>
        <time>2013-02-22T20:34:09Z</time>
      </trkpt>
      <trkpt lat="45.76133" lon="4.81226">
        <ele>284</ele>
        <time>2013-02-22T20:34:11Z</time>
      </trkpt>
      <trkpt lat="45.76147" lon="4.81234">
        <ele>285</ele>
        <time>2013-02-22T20:34:17Z</time>
      </trkpt>
      <trkpt lat="45.76155" lon="4.81248">
        <ele>287</ele>
        <time>2013-02-22T20:34:22Z</time>
      </trkpt>
      <trkpt lat="45.76158" lon="4.81258">
        <ele>290</ele>
        <time>2013-02-22T20:34:25Z</time>
      </trkpt>
      <trkpt lat="45.7616" lon="4.81265">
        <ele>291</ele>
        <time>2013-02-22T20:34:27Z</time>
      </trkpt>
      <trkpt lat="45.76164" lon="4.81282">
        <ele>291</ele>
        <time>2013-02-22T20:34:32Z</time>
      </trkpt>
      <trkpt lat="45.76165" lon="4.81285">
        <ele>291</ele>
        <time>2013-02-22T20:34:33Z</time>
      </trkpt>
      <trkpt lat="45.76166" lon="4.81291">
        <ele>292</ele>
        <time>2013-02-22T20:34:35Z</time>
      </trkpt>
      <trkpt lat="45.76169" lon="4.81294">
        <ele>291</ele>
        <time>2013-02-22T20:34:37Z</time>
      </trkpt>
      <trkpt lat="45.7618" lon="4.81294">
        <ele>291</ele>
        <time>2013-02-22T20:34:42Z</time>
      </trkpt>
      <trkpt lat="45.76198" lon="4.81292">
        <ele>290</ele>
        <time>2013-02-22T20:34:48Z</time>
      </trkpt>
      <trkpt lat="45.76204" lon="4.81291">
        <ele>290</ele>
        <time>2013-02-22T20:34:50Z</time>
      </trkpt>
      <trkpt lat="45.76218" lon="4.81289">
        <ele>290</ele>
        <time>2013-02-22T20:34:55Z</time>
      </trkpt>
      <trkpt lat="45.76223" lon="4.81289">
        <ele>289</ele>
        <time>2013-02-22T20:34:57Z</time>
      </trkpt>
      <trkpt lat="45.76236" lon="4.81287">
        <ele>289</ele>
        <time>2013-02-22T20:35:02Z</time>
      </trkpt>
      <trkpt lat="45.76241" lon="4.81286">
        <ele>289</ele>
        <time>2013-02-22T20:35:04Z</time>
      </trkpt>
      <trkpt lat="45.76255" lon="4.81285">
        <ele>286</ele>
        <time>2013-02-22T20:35:10Z</time>
      </trkpt>
      <trkpt lat="45.76257" lon="4.81286">
        <ele>286</ele>
        <time>2013-02-22T20:35:11Z</time>
      </trkpt>
      <trkpt lat="45.76267" lon="4.81288">
        <ele>286</ele>
        <time>2013-02-22T20:35:17Z</time>
      </trkpt>
      <trkpt lat="45.76274" lon="4.81292">
        <ele>286</ele>
        <time>2013-02-22T20:35:23Z</time>
      </trkpt>
      <trkpt lat="45.76275" lon="4.81294">
        <ele>286</ele>
        <time>2013-02-22T20:35:24Z</time>
      </trkpt>
      <trkpt lat="45.76279" lon="4.81306">
        <ele>286</ele>
        <time>2013-02-22T20:35:30Z</time>
      </trkpt>
      <trkpt lat="45.7628" lon="4.81315">
        <ele>286</ele>
        <time>2013-02-22T20:35:33Z</time>
      </trkpt>
      <trkpt lat="45.76281" lon="4.81321">
        <ele>286</ele>
        <time>2013-02-22T20:35:35Z</time>
      </trkpt>
      <trkpt lat="45.76283" lon="4.81339">
        <ele>288</ele>
        <time>2013-02-22T20:35:41Z</time>
      </trkpt>
      <trkpt lat="45.76284" lon="4.81343">
        <ele>288</ele>
        <time>2013-02-22T20:35:42Z</time>
      </trkpt>
      <trkpt lat="45.76286" lon="4.81361">
        <ele>288</ele>
        <time>2013-02-22T20:35:47Z</time>
      </trkpt>
      <trkpt lat="45.76287" lon="4.81368">
        <ele>288</ele>
        <time>2013-02-22T20:35:49Z</time>
      </trkpt>
      <trkpt lat="45.76289" lon="4.81378">
        <ele>288</ele>
        <time>2013-02-22T20:35:52Z</time>
      </trkpt>
      <trkpt lat="45.76291" lon="4.81395">
        <ele>288</ele>
        <time>2013-02-22T20:35:57Z</time>
      </trkpt>
      <trkpt lat="45.76293" lon="4.81418">
        <ele>289</ele>
        <time>2013-02-22T20:36:03Z</time>
      </trkpt>
      <trkpt lat="45.76292" lon="4.81421">
        <ele>289</ele>
        <time>2013-02-22T20:36:04Z</time>
      </trkpt>
      <trkpt lat="45.76293" lon="4.81435">
        <ele>289</ele>
        <time>2013-02-22T20:36:08Z</time>
      </trkpt>
      <trkpt lat="45.76294" lon="4.81448">
        <ele>289</ele>
        <time>2013-02-22T20:36:12Z</time>
      </trkpt>
      <trkpt lat="45.76294" lon="4.81452">
        <ele>289</ele>
        <time>2013-02-22T20:36:13Z</time>
      </trkpt>
      <trkpt lat="45.76298" lon="4.81465">
        <ele>289</ele>
        <time>2013-02-22T20:36:17Z</time>
      </trkpt>
      <trkpt lat="45.763" lon="4.81476">
        <ele>289</ele>
        <time>2013-02-22T20:36:20Z</time>
      </trkpt>
      <trkpt lat="45.76302" lon="4.81483">
        <ele>289</ele>
        <time>2013-02-22T20:36:22Z</time>
      </trkpt>
      <trkpt lat="45.76307" lon="4.81501">
        <ele>288</ele>
        <time>2013-02-22T20:36:27Z</time>
      </trkpt>
      <trkpt lat="45.7631" lon="4.81523">
        <ele>287</ele>
        <time>2013-02-22T20:36:33Z</time>
      </trkpt>
      <trkpt lat="45.76311" lon="4.81526">
        <ele>287</ele>
        <time>2013-02-22T20:36:34Z</time>
      </trkpt>
      <trkpt lat="45.76314" lon="4.81543">
        <ele>287</ele>
        <time>2013-02-22T20:36:39Z</time>
      </trkpt>
      <trkpt lat="45.76315" lon="4.81553">
        <ele>286</ele>
        <time>2013-02-22T20:36:42Z</time>
      </trkpt>
      <trkpt lat="45.76316" lon="4.81559">
        <ele>286</ele>
        <time>2013-02-22T20:36:44Z</time>
      </trkpt>
      <trkpt lat="45.76318" lon="4.81577">
        <ele>285</ele>
        <time>2013-02-22T20:36:49Z</time>
      </trkpt>
      <trkpt lat="45.76318" lon="4.81581">
        <ele>285</ele>
        <time>2013-02-22T20:36:50Z</time>
      </trkpt>
      <trkpt lat="45.76322" lon="4.81603">
        <ele>284</ele>
        <time>2013-02-22T20:36:56Z</time>
      </trkpt>
      <trkpt lat="45.76322" lon="4.81607">
        <ele>284</ele>
        <time>2013-02-22T20:36:57Z</time>
      </trkpt>
      <trkpt lat="45.76325" lon="4.81624">
        <ele>284</ele>
        <time>2013-02-22T20:37:02Z</time>
      </trkpt>
      <trkpt lat="45.76326" lon="4.81635">
        <ele>283</ele>
        <time>2013-02-22T20:37:05Z</time>
      </trkpt>
      <trkpt lat="45.76328" lon="4.81643">
        <ele>283</ele>
        <time>2013-02-22T20:37:07Z</time>
      </trkpt>
      <trkpt lat="45.7633" lon="4.81658">
        <ele>282</ele>
        <time>2013-02-22T20:37:12Z</time>
      </trkpt>
      <trkpt lat="45.7633" lon="4.81661">
        <ele>281</ele>
        <time>2013-02-22T20:37:13Z</time>
      </trkpt>
      <trkpt lat="45.76331" lon="4.8167">
        <ele>281</ele>
        <time>2013-02-22T20:37:18Z</time>
      </trkpt>
      <trkpt lat="45.76331" lon="4.81671">
        <ele>281</ele>
        <time>2013-02-22T20:37:19Z</time>
      </trkpt>
      <trkpt lat="45.76333" lon="4.81673">
        <ele>281</ele>
        <time>2013-02-22T20:37:25Z</time>
      </trkpt>
      <trkpt lat="45.76331" lon="4.81669">
        <ele>281</ele>
        <time>2013-02-22T20:37:31Z</time>
      </trkpt>
      <trkpt lat="45.76333" lon="4.81665">
        <ele>280</ele>
        <time>2013-02-22T20:37:37Z</time>
      </trkpt>
      <trkpt lat="45.76335" lon="4.81662">
        <ele>278</ele>
        <time>2013-02-22T20:37:41Z</time>
      </trkpt>
      <trkpt lat="45.76337" lon="4.81662">
        <ele>277</ele>
        <time>2013-02-22T20:37:43Z</time>
      </trkpt>
      <trkpt lat="45.76343" lon="4.81659">
        <ele>276</ele>
        <time>2013-02-22T20:37:48Z</time>
      </trkpt>
      <trkpt lat="45.76345" lon="4.81659">
        <ele>275</ele>
        <time>2013-02-22T20:37:50Z</time>
      </trkpt>
      <trkpt lat="45.76348" lon="4.81658">
        <ele>274</ele>
        <time>2013-02-22T20:37:53Z</time>
      </trkpt>
      <trkpt lat="45.76353" lon="4.81652">
        <ele>273</ele>
        <time>2013-02-22T20:37:57Z</time>
      </trkpt>
      <trkpt lat="45.76354" lon="4.81651">
        <ele>272</ele>
        <time>2013-02-22T20:37:58Z</time>
      </trkpt>
      <trkpt lat="45.76356" lon="4.81647">
        <ele>272</ele>
        <time>2013-02-22T20:38:01Z</time>
      </trkpt>
      <trkpt lat="45.76357" lon="4.81646">
        <ele>272</ele>
        <time>2013-02-22T20:38:02Z</time>
      </trkpt>
      <trkpt lat="45.76358" lon="4.81644">
        <ele>271</ele>
        <time>2013-02-22T20:38:04Z</time>
      </trkpt>
      <trkpt lat="45.7636" lon="4.81643">
        <ele>271</ele>
        <time>2013-02-22T20:38:06Z</time>
      </trkpt>
      <trkpt lat="45.76365" lon="4.81639">
        <ele>270</ele>
        <time>2013-02-22T20:38:10Z</time>
      </trkpt>
      <trkpt lat="45.76367" lon="4.81636">
        <ele>270</ele>
        <time>2013-02-22T20:38:12Z</time>
      </trkpt>
      <trkpt lat="45.76368" lon="4.81635">
        <ele>270</ele>
        <time>2013-02-22T20:38:13Z</time>
      </trkpt>
      <trkpt lat="45.76371" lon="4.81631">
        <ele>269</ele>
        <time>2013-02-22T20:38:16Z</time>
      </trkpt>
      <trkpt lat="45.76372" lon="4.81631">
        <ele>269</ele>
        <time>2013-02-22T20:38:17Z</time>
      </trkpt>
      <trkpt lat="45.76377" lon="4.81633">
        <ele>268</ele>
        <time>2013-02-22T20:38:23Z</time>
      </trkpt>
      <trkpt lat="45.76378" lon="4.81633">
        <ele>268</ele>
        <time>2013-02-22T20:38:24Z</time>
      </trkpt>
      <trkpt lat="45.76383" lon="4.8163">
        <ele>267</ele>
        <time>2013-02-22T20:38:28Z</time>
      </trkpt>
      <trkpt lat="45.76383" lon="4.8163">
        <ele>267</ele>
        <time>2013-02-22T20:38:29Z</time>
      </trkpt>
      <trkpt lat="45.76384" lon="4.81628">
        <ele>267</ele>
        <time>2013-02-22T20:38:31Z</time>
      </trkpt>
      <trkpt lat="45.76385" lon="4.81627">
        <ele>267</ele>
        <time>2013-02-22T20:38:32Z</time>
      </trkpt>
      <trkpt lat="45.76385" lon="4.81626">
        <ele>267</ele>
        <time>2013-02-22T20:38:33Z</time>
      </trkpt>
      <trkpt lat="45.76386" lon="4.81624">
        <ele>267</ele>
        <time>2013-02-22T20:38:36Z</time>
      </trkpt>
      <trkpt lat="45.76386" lon="4.81619">
        <ele>267</ele>
        <time>2013-02-22T20:38:39Z</time>
      </trkpt>
      <trkpt lat="45.76387" lon="4.81618">
        <ele>267</ele>
        <time>2013-02-22T20:38:40Z</time>
      </trkpt>
      <trkpt lat="45.76392" lon="4.81613">
        <ele>267</ele>
        <time>2013-02-22T20:38:44Z</time>
      </trkpt>
      <trkpt lat="45.76396" lon="4.8161">
        <ele>266</ele>
        <time>2013-02-22T20:38:46Z</time>
      </trkpt>
      <trkpt lat="45.76403" lon="4.81608">
        <ele>265</ele>
        <time>2013-02-22T20:38:49Z</time>
      </trkpt>
      <trkpt lat="45.76411" lon="4.81606">
        <ele>264</ele>
        <time>2013-02-22T20:38:53Z</time>
      </trkpt>
      <trkpt lat="45.76416" lon="4.81607">
        <ele>264</ele>
        <time>2013-02-22T20:38:55Z</time>
      </trkpt>
      <trkpt lat="45.76418" lon="4.81607">
        <ele>252</ele>
        <time>2013-02-22T20:38:56Z</time>
      </trkpt>
      <trkpt lat="45.76423" lon="4.81611">
        <ele>251</ele>
        <time>2013-02-22T20:38:58Z</time>
      </trkpt>
      <trkpt lat="45.76434" lon="4.8162">
        <ele>249</ele>
        <time>2013-02-22T20:39:02Z</time>
      </trkpt>
      <trkpt lat="45.76446" lon="4.81629">
        <ele>247</ele>
        <time>2013-02-22T20:39:07Z</time>
      </trkpt>
      <trkpt lat="45.76452" lon="4.81632">
        <ele>246</ele>
        <time>2013-02-22T20:39:10Z</time>
      </trkpt>
      <trkpt lat="45.76456" lon="4.81636">
        <ele>245</ele>
        <time>2013-02-22T20:39:13Z</time>
      </trkpt>
      <trkpt lat="45.7646" lon="4.81643">
        <ele>244</ele>
        <time>2013-02-22T20:39:17Z</time>
      </trkpt>
      <trkpt lat="45.7646" lon="4.81645">
        <ele>244</ele>
        <time>2013-02-22T20:39:18Z</time>
      </trkpt>
      <trkpt lat="45.76462" lon="4.8165">
        <ele>243</ele>
        <time>2013-02-22T20:39:24Z</time>
      </trkpt>
      <trkpt lat="45.76463" lon="4.81652">
        <ele>243</ele>
        <time>2013-02-22T20:39:25Z</time>
      </trkpt>
      <trkpt lat="45.76465" lon="4.81654">
        <ele>242</ele>
        <time>2013-02-22T20:39:26Z</time>
      </trkpt>
      <trkpt lat="45.76468" lon="4.81659">
        <ele>241</ele>
        <time>2013-02-22T20:39:28Z</time>
      </trkpt>
      <trkpt lat="45.76479" lon="4.81667">
        <ele>234</ele>
        <time>2013-02-22T20:39:32Z</time>
      </trkpt>
      <trkpt lat="45.76498" lon="4.8168">
        <ele>232</ele>
        <time>2013-02-22T20:39:38Z</time>
      </trkpt>
      <trkpt lat="45.76514" lon="4.8169">
        <ele>220</ele>
        <time>2013-02-22T20:39:43Z</time>
      </trkpt>
      <trkpt lat="45.76528" lon="4.81699">
        <ele>217</ele>
        <time>2013-02-22T20:39:48Z</time>
      </trkpt>
      <trkpt lat="45.76528" lon="4.81701">
        <ele>217</ele>
        <time>2013-02-22T20:39:52Z</time>
      </trkpt>
      <trkpt lat="45.76526" lon="4.81702">
        <ele>217</ele>
        <time>2013-02-22T20:39:59Z</time>
      </trkpt>
      <trkpt lat="45.76525" lon="4.81703">
        <ele>217</ele>
        <time>2013-02-22T20:40:03Z</time>
      </trkpt>
      <trkpt lat="45.76524" lon="4.81704">
        <ele>217</ele>
        <time>2013-02-22T20:40:06Z</time>
      </trkpt>
      <trkpt lat="45.76524" lon="4.81705">
        <ele>217</ele>
        <time>2013-02-22T20:40:09Z</time>
      </trkpt>
      <trkpt lat="45.76525" lon="4.81706">
        <ele>217</ele>
        <time>2013-02-22T20:40:12Z</time>
      </trkpt>
      <trkpt lat="45.7653" lon="4.81711">
        <ele>216</ele>
        <time>2013-02-22T20:40:19Z</time>
      </trkpt>
      <trkpt lat="45.76528" lon="4.81711">
        <ele>217</ele>
        <time>2013-02-22T20:40:28Z</time>
      </trkpt>
      <trkpt lat="45.76531" lon="4.81708">
        <ele>216</ele>
        <time>2013-02-22T20:41:30Z</time>
      </trkpt>
      <trkpt lat="45.76531" lon="4.81705">
        <ele>216</ele>
        <time>2013-02-22T20:41:39Z</time>
      </trkpt>
      <trkpt lat="45.7653" lon="4.81701">
        <ele>217</ele>
        <time>2013-02-22T20:41:45Z</time>
      </trkpt>
      <trkpt lat="45.76529" lon="4.81699">
        <ele>217</ele>
        <time>2013-02-22T20:41:53Z</time>
      </trkpt>
      <trkpt lat="45.76525" lon="4.81701">
        <ele>217</ele>
        <time>2013-02-22T20:42:01Z</time>
      </trkpt>
      <trkpt lat="45.76524" lon="4.81699">
        <ele>218</ele>
        <time>2013-02-22T20:42:51Z</time>
      </trkpt>
      <trkpt lat="45.76522" lon="4.81701">
        <ele>218</ele>
        <time>2013-02-22T20:43:12Z</time>
      </trkpt>
      <trkpt lat="45.76522" lon="4.81705">
        <ele>218</ele>
        <time>2013-02-22T20:43:49Z</time>
      </trkpt>
      <trkpt lat="45.76522" lon="4.81707">
        <ele>217</ele>
        <time>2013-02-22T20:43:50Z</time>
      </trkpt>
      <trkpt lat="45.76518" lon="4.81713">
        <ele>218</ele>
        <time>2013-02-22T20:43:53Z</time>
      </trkpt>
      <trkpt lat="45.76517" lon="4.81714">
        <ele>218</ele>
        <time>2013-02-22T20:43:54Z</time>
      </trkpt>
      <trkpt lat="45.76516" lon="4.81716">
        <ele>218</ele>
        <time>2013-02-22T20:43:55Z</time>
      </trkpt>
      <trkpt lat="45.76514" lon="4.81723">
        <ele>218</ele>
        <time>2013-02-22T20:43:58Z</time>
      </trkpt>
      <trkpt lat="45.76515" lon="4.81724">
        <ele>218</ele>
        <time>2013-02-22T20:43:59Z</time>
      </trkpt>
      <trkpt lat="45.76514" lon="4.81722">
        <ele>218</ele>
        <time>2013-02-22T20:44:24Z</time>
      </trkpt>
      <trkpt lat="45.76514" lon="4.81719">
        <ele>218</ele>
        <time>2013-02-22T20:44:25Z</time>
      </trkpt>
      <trkpt lat="45.76514" lon="4.8171">
        <ele>218</ele>
        <time>2013-02-22T20:44:29Z</time>
      </trkpt>
      <trkpt lat="45.76514" lon="4.81704">
        <ele>218</ele>
        <time>2013-02-22T20:44:32Z</time>
      </trkpt>
      <trkpt lat="45.76511" lon="4.81693">
        <ele>220</ele>
        <time>2013-02-22T20:44:37Z</time>
      </trkpt>
      <trkpt lat="45.76507" lon="4.81686">
        <ele>221</ele>
        <time>2013-02-22T20:44:40Z</time>
      </trkpt>
      <trkpt lat="45.76506" lon="4.81683">
        <ele>222</ele>
        <time>2013-02-22T20:44:42Z</time>
      </trkpt>
      <trkpt lat="45.76501" lon="4.81677">
        <ele>224</ele>
        <time>2013-02-22T20:44:48Z</time>
      </trkpt>
      <trkpt lat="45.76501" lon="4.81676">
        <ele>224</ele>
        <time>2013-02-22T20:44:49Z</time>
      </trkpt>
      <trkpt lat="45.76498" lon="4.81672">
        <ele>230</ele>
        <time>2013-02-22T20:44:53Z</time>
      </trkpt>
      <trkpt lat="45.76497" lon="4.81672">
        <ele>230</ele>
        <time>2013-02-22T20:44:54Z</time>
      </trkpt>
      <trkpt lat="45.76494" lon="4.81669">
        <ele>230</ele>
        <time>2013-02-22T20:44:57Z</time>
      </trkpt>
      <trkpt lat="45.76489" lon="4.81665">
        <ele>234</ele>
        <time>2013-02-22T20:45:03Z</time>
      </trkpt>
      <trkpt lat="45.76488" lon="4.81664">
        <ele>235</ele>
        <time>2013-02-22T20:45:04Z</time>
      </trkpt>
      <trkpt lat="45.76483" lon="4.81658">
        <ele>237</ele>
        <time>2013-02-22T20:45:10Z</time>
      </trkpt>
      <trkpt lat="45.76479" lon="4.81653">
        <ele>239</ele>
        <time>2013-02-22T20:45:14Z</time>
      </trkpt>
      <trkpt lat="45.76476" lon="4.81651">
        <ele>240</ele>
        <time>2013-02-22T20:45:17Z</time>
      </trkpt>
      <trkpt lat="45.76471" lon="4.81646">
        <ele>242</ele>
        <time>2013-02-22T20:45:23Z</time>
      </trkpt>
      <trkpt lat="45.76465" lon="4.81637">
        <ele>244</ele>
        <time>2013-02-22T20:45:31Z</time>
      </trkpt>
      <trkpt lat="45.76464" lon="4.81636">
        <ele>244</ele>
        <time>2013-02-22T20:45:32Z</time>
      </trkpt>
      <trkpt lat="45.76457" lon="4.81629">
        <ele>245</ele>
        <time>2013-02-22T20:45:41Z</time>
      </trkpt>
      <trkpt lat="45.76451" lon="4.81624">
        <ele>246</ele>
        <time>2013-02-22T20:45:49Z</time>
      </trkpt>
      <trkpt lat="45.7645" lon="4.81623">
        <ele>247</ele>
        <time>2013-02-22T20:45:51Z</time>
      </trkpt>
      <trkpt lat="45.76448" lon="4.81621">
        <ele>247</ele>
        <time>2013-02-22T20:45:53Z</time>
      </trkpt>
      <trkpt lat="45.76446" lon="4.81619">
        <ele>247</ele>
        <time>2013-02-22T20:45:56Z</time>
      </trkpt>
      <trkpt lat="45.76446" lon="4.81619">
        <ele>247</ele>
        <time>2013-02-22T20:45:57Z</time>
      </trkpt>
      <trkpt lat="45.76442" lon="4.81615">
        <ele>248</ele>
        <time>2013-02-22T20:46:02Z</time>
      </trkpt>
      <trkpt lat="45.76441" lon="4.81615">
        <ele>248</ele>
        <time>2013-02-22T20:46:03Z</time>
      </trkpt>
      <trkpt lat="45.76436" lon="4.8161">
        <ele>249</ele>
        <time>2013-02-22T20:46:11Z</time>
      </trkpt>
      <trkpt lat="45.76435" lon="4.81609">
        <ele>250</ele>
        <time>2013-02-22T20:46:12Z</time>
      </trkpt>
      <trkpt lat="45.76428" lon="4.81603">
        <ele>252</ele>
        <time>2013-02-22T20:46:20Z</time>
      </trkpt>
      <trkpt lat="45.76423" lon="4.81598">
        <ele>253</ele>
        <time>2013-02-22T20:46:27Z</time>
      </trkpt>
      <trkpt lat="45.7642" lon="4.81594">
        <ele>255</ele>
        <time>2013-02-22T20:46:32Z</time>
      </trkpt>
      <trkpt lat="45.76418" lon="4.81593">
        <ele>255</ele>
        <time>2013-02-22T20:46:34Z</time>
      </trkpt>
      <trkpt lat="45.76417" lon="4.81593">
        <ele>256</ele>
        <time>2013-02-22T20:46:35Z</time>
      </trkpt>
      <trkpt lat="45.76413" lon="4.81591">
        <ele>262</ele>
        <time>2013-02-22T20:46:41Z</time>
      </trkpt>
      <trkpt lat="45.76406" lon="4.81589">
        <ele>263</ele>
        <time>2013-02-22T20:46:49Z</time>
      </trkpt>
      <trkpt lat="45.76402" lon="4.81589">
        <ele>264</ele>
        <time>2013-02-22T20:46:53Z</time>
      </trkpt>
      <trkpt lat="45.76401" lon="4.81589">
        <ele>264</ele>
        <time>2013-02-22T20:46:54Z</time>
      </trkpt>
      <trkpt lat="45.76398" lon="4.81586">
        <ele>265</ele>
        <time>2013-02-22T20:46:58Z</time>
      </trkpt>
      <trkpt lat="45.76395" lon="4.81583">
        <ele>269</ele>
        <time>2013-02-22T20:47:01Z</time>
      </trkpt>
      <trkpt lat="45.7639" lon="4.81576">
        <ele>271</ele>
        <time>2013-02-22T20:47:07Z</time>
      </trkpt>
      <trkpt lat="45.76389" lon="4.81575">
        <ele>271</ele>
        <time>2013-02-22T20:47:09Z</time>
      </trkpt>
      <trkpt lat="45.76388" lon="4.81572">
        <ele>272</ele>
        <time>2013-02-22T20:47:11Z</time>
      </trkpt>
      <trkpt lat="45.76386" lon="4.81569">
        <ele>272</ele>
        <time>2013-02-22T20:47:13Z</time>
      </trkpt>
      <trkpt lat="45.76384" lon="4.81565">
        <ele>273</ele>
        <time>2013-02-22T20:47:16Z</time>
      </trkpt>
      <trkpt lat="45.76381" lon="4.81556">
        <ele>274</ele>
        <time>2013-02-22T20:47:23Z</time>
      </trkpt>
      <trkpt lat="45.7638" lon="4.81551">
        <ele>274</ele>
        <time>2013-02-22T20:47:27Z</time>
      </trkpt>
      <trkpt lat="45.7638" lon="4.81549">
        <ele>275</ele>
        <time>2013-02-22T20:47:28Z</time>
      </trkpt>
      <trkpt lat="45.76379" lon="4.81545">
        <ele>275</ele>
        <time>2013-02-22T20:47:31Z</time>
      </trkpt>
      <trkpt lat="45.76376" lon="4.81538">
        <ele>276</ele>
        <time>2013-02-22T20:47:37Z</time>
      </trkpt>
      <trkpt lat="45.76376" lon="4.81536">
        <ele>276</ele>
        <time>2013-02-22T20:47:39Z</time>
      </trkpt>
      <trkpt lat="45.76373" lon="4.81527">
        <ele>276</ele>
        <time>2013-02-22T20:47:46Z</time>
      </trkpt>
      <trkpt lat="45.76373" lon="4.81526">
        <ele>277</ele>
        <time>2013-02-22T20:47:47Z</time>
      </trkpt>
      <trkpt lat="45.76373" lon="4.81525">
        <ele>277</ele>
        <time>2013-02-22T20:47:48Z</time>
      </trkpt>
      <trkpt lat="45.76373" lon="4.81524">
        <ele>277</ele>
        <time>2013-02-22T20:47:49Z</time>
      </trkpt>
      <trkpt lat="45.76374" lon="4.81518">
        <ele>277</ele>
        <time>2013-02-22T20:47:53Z</time>
      </trkpt>
      <trkpt lat="45.76373" lon="4.81509">
        <ele>277</ele>
        <time>2013-02-22T20:48:00Z</time>
      </trkpt>
      <trkpt lat="45.76373" lon="4.81508">
        <ele>277</ele>
        <time>2013-02-22T20:48:01Z</time>
      </trkpt>
      <trkpt lat="45.76371" lon="4.81505">
        <ele>278</ele>
        <time>2013-02-22T20:48:06Z</time>
      </trkpt>
      <trkpt lat="45.76368" lon="4.81506">
        <ele>278</ele>
        <time>2013-02-22T20:48:10Z</time>
      </trkpt>
      <trkpt lat="45.76366" lon="4.81508">
        <ele>278</ele>
        <time>2013-02-22T20:48:12Z</time>
      </trkpt>
      <trkpt lat="45.76366" lon="4.81508">
        <ele>278</ele>
        <time>2013-02-22T20:48:18Z</time>
      </trkpt>
      <trkpt lat="45.76365" lon="4.81508">
        <ele>278</ele>
        <time>2013-02-22T20:48:29Z</time>
      </trkpt>
      <trkpt lat="45.76362" lon="4.81504">
        <ele>279</ele>
        <time>2013-02-22T20:48:54Z</time>
      </trkpt>
      <trkpt lat="45.76357" lon="4.81507">
        <ele>279</ele>
        <time>2013-02-22T20:49:18Z</time>
      </trkpt>
      <trkpt lat="45.76353" lon="4.81508">
        <ele>280</ele>
        <time>2013-02-22T20:49:22Z</time>
      </trkpt>
      <trkpt lat="45.76349" lon="4.81509">
        <ele>281</ele>
        <time>2013-02-22T20:49:24Z</time>
      </trkpt>
      <trkpt lat="45.76339" lon="4.81517">
        <ele>281</ele>
        <time>2013-02-22T20:49:30Z</time>
      </trkpt>
      <trkpt lat="45.76339" lon="4.81519">
        <ele>281</ele>
        <time>2013-02-22T20:49:31Z</time>
      </trkpt>
      <trkpt lat="45.76338" lon="4.8152">
        <ele>281</ele>
        <time>2013-02-22T20:49:32Z</time>
      </trkpt>
      <trkpt lat="45.76337" lon="4.81526">
        <ele>280</ele>
        <time>2013-02-22T20:49:34Z</time>
      </trkpt>
      <trkpt lat="45.7634" lon="4.81535">
        <ele>279</ele>
        <time>2013-02-22T20:49:38Z</time>
      </trkpt>
      <trkpt lat="45.76341" lon="4.81538">
        <ele>279</ele>
        <time>2013-02-22T20:49:39Z</time>
      </trkpt>
      <trkpt lat="45.76342" lon="4.81546">
        <ele>278</ele>
        <time>2013-02-22T20:49:42Z</time>
      </trkpt>
      <trkpt lat="45.76344" lon="4.81552">
        <ele>278</ele>
        <time>2013-02-22T20:49:45Z</time>
      </trkpt>
      <trkpt lat="45.76344" lon="4.81558">
        <ele>278</ele>
        <time>2013-02-22T20:49:51Z</time>
      </trkpt>
      <trkpt lat="45.76346" lon="4.81564">
        <ele>278</ele>
        <time>2013-02-22T20:49:56Z</time>
      </trkpt>
      <trkpt lat="45.76347" lon="4.81566">
        <ele>278</ele>
        <time>2013-02-22T20:49:57Z</time>
      </trkpt>
      <trkpt lat="45.7635" lon="4.81571">
        <ele>278</ele>
        <time>2013-02-22T20:49:59Z</time>
      </trkpt>
      <trkpt lat="45.76351" lon="4.81575">
        <ele>278</ele>
        <time>2013-02-22T20:50:00Z</time>
      </trkpt>
      <trkpt lat="45.76351" lon="4.81588">
        <ele>275</ele>
        <time>2013-02-22T20:50:04Z</time>
      </trkpt>
      <trkpt lat="45.7635" lon="4.81593">
        <ele>275</ele>
        <time>2013-02-22T20:50:06Z</time>
      </trkpt>
      <trkpt lat="45.7635" lon="4.81599">
        <ele>274</ele>
        <time>2013-02-22T20:50:08Z</time>
      </trkpt>
      <trkpt lat="45.7635" lon="4.81603">
        <ele>274</ele>
        <time>2013-02-22T20:50:09Z</time>
      </trkpt>
      <trkpt lat="45.7635" lon="4.81625">
        <ele>272</ele>
        <time>2013-02-22T20:50:15Z</time>
      </trkpt>
      <trkpt lat="45.76349" lon="4.81635">
        <ele>272</ele>
        <time>2013-02-22T20:50:19Z</time>
      </trkpt>
      <trkpt lat="45.76347" lon="4.81641">
        <ele>273</ele>
        <time>2013-02-22T20:50:23Z</time>
      </trkpt>
      <trkpt lat="45.76345" lon="4.8165">
        <ele>274</ele>
        <time>2013-02-22T20:50:29Z</time>
      </trkpt>
      <trkpt lat="45.76345" lon="4.81653">
        <ele>274</ele>
        <time>2013-02-22T20:50:33Z</time>
      </trkpt>
      <trkpt lat="45.76345" lon="4.81654">
        <ele>274</ele>
        <time>2013-02-22T20:50:34Z</time>
      </trkpt>
      <trkpt lat="45.76343" lon="4.81666">
        <ele>276</ele>
        <time>2013-02-22T20:50:42Z</time>
      </trkpt>
      <trkpt lat="45.76342" lon="4.81666">
        <ele>277</ele>
        <time>2013-02-22T20:50:43Z</time>
      </trkpt>
      <trkpt lat="45.76341" lon="4.81672">
        <ele>276</ele>
        <time>2013-02-22T20:50:47Z</time>
      </trkpt>
      <trkpt lat="45.76339" lon="4.81675">
        <ele>275</ele>
        <time>2013-02-22T20:50:49Z</time>
      </trkpt>
      <trkpt lat="45.76338" lon="4.81677">
        <ele>275</ele>
        <time>2013-02-22T20:50:52Z</time>
      </trkpt>
      <trkpt lat="45.76338" lon="4.81685">
        <ele>273</ele>
        <time>2013-02-22T20:50:57Z</time>
      </trkpt>
      <trkpt lat="45.76339" lon="4.81703">
        <ele>271</ele>
        <time>2013-02-22T20:51:01Z</time>
      </trkpt>
      <trkpt lat="45.76339" lon="4.8171">
        <ele>271</ele>
        <time>2013-02-22T20:51:03Z</time>
      </trkpt>
      <trkpt lat="45.76339" lon="4.8172">
        <ele>272</ele>
        <time>2013-02-22T20:51:06Z</time>
      </trkpt>
      <trkpt lat="45.7634" lon="4.81729">
        <ele>274</ele>
        <time>2013-02-22T20:51:09Z</time>
      </trkpt>
      <trkpt lat="45.7634" lon="4.81742">
        <ele>277</ele>
        <time>2013-02-22T20:51:12Z</time>
      </trkpt>
      <trkpt lat="45.76339" lon="4.81757">
        <ele>277</ele>
        <time>2013-02-22T20:51:16Z</time>
      </trkpt>
      <trkpt lat="45.76339" lon="4.81765">
        <ele>274</ele>
        <time>2013-02-22T20:51:18Z</time>
      </trkpt>
      <trkpt lat="45.7634" lon="4.81783">
        <ele>270</ele>
        <time>2013-02-22T20:51:23Z</time>
      </trkpt>
      <trkpt lat="45.7634" lon="4.81786">
        <ele>269</ele>
        <time>2013-02-22T20:51:24Z</time>
      </trkpt>
      <trkpt lat="45.76341" lon="4.81801">
        <ele>269</ele>
        <time>2013-02-22T20:51:28Z</time>
      </trkpt>
      <trkpt lat="45.7634" lon="4.81812">
        <ele>270</ele>
        <time>2013-02-22T20:51:31Z</time>
      </trkpt>
      <trkpt lat="45.76339" lon="4.81819">
        <ele>271</ele>
        <time>2013-02-22T20:51:33Z</time>
      </trkpt>
      <trkpt lat="45.76337" lon="4.81839">
        <ele>273</ele>
        <time>2013-02-22T20:51:38Z</time>
      </trkpt>
      <trkpt lat="45.76337" lon="4.81842">
        <ele>271</ele>
        <time>2013-02-22T20:51:39Z</time>
      </trkpt>
      <trkpt lat="45.76335" lon="4.81865">
        <ele>263</ele>
        <time>2013-02-22T20:51:45Z</time>
      </trkpt>
      <trkpt lat="45.76333" lon="4.81884">
        <ele>262</ele>
        <time>2013-02-22T20:51:51Z</time>
      </trkpt>
      <trkpt lat="45.76332" lon="4.81891">
        <ele>273</ele>
        <time>2013-02-22T20:51:54Z</time>
      </trkpt>
      <trkpt lat="45.7633" lon="4.819">
        <ele>272</ele>
        <time>2013-02-22T20:51:58Z</time>
      </trkpt>
      <trkpt lat="45.76326" lon="4.81916">
        <ele>270</ele>
        <time>2013-02-22T20:52:06Z</time>
      </trkpt>
      <trkpt lat="45.76325" lon="4.81919">
        <ele>269</ele>
        <time>2013-02-22T20:52:07Z</time>
      </trkpt>
      <trkpt lat="45.76324" lon="4.81926">
        <ele>270</ele>
        <time>2013-02-22T20:52:11Z</time>
      </trkpt>
      <trkpt lat="45.76324" lon="4.81928">
        <ele>270</ele>
        <time>2013-02-22T20:52:17Z</time>
      </trkpt>
      <trkpt lat="45.76321" lon="4.81935">
        <ele>271</ele>
        <time>2013-02-22T20:52:34Z</time>
      </trkpt>
      <trkpt lat="45.76319" lon="4.81942">
        <ele>271</ele>
        <time>2013-02-22T20:52:36Z</time>
      </trkpt>
      <trkpt lat="45.76315" lon="4.81954">
        <ele>272</ele>
        <time>2013-02-22T20:52:39Z</time>
      </trkpt>
      <trkpt lat="45.76311" lon="4.81967">
        <ele>272</ele>
        <time>2013-02-22T20:52:42Z</time>
      </trkpt>
      <trkpt lat="45.7631" lon="4.81975">
        <ele>272</ele>
        <time>2013-02-22T20:52:44Z</time>
      </trkpt>
      <trkpt lat="45.76305" lon="4.81995">
        <ele>272</ele>
        <time>2013-02-22T20:52:49Z</time>
      </trkpt>
      <trkpt lat="45.76302" lon="4.8201">
        <ele>275</ele>
        <time>2013-02-22T20:52:54Z</time>
      </trkpt>
      <trkpt lat="45.76301" lon="4.82021">
        <ele>275</ele>
        <time>2013-02-22T20:52:58Z</time>
      </trkpt>
      <trkpt lat="45.76302" lon="4.82023">
        <ele>275</ele>
        <time>2013-02-22T20:52:59Z</time>
      </trkpt>
      <trkpt lat="45.76302" lon="4.82026">
        <ele>275</ele>
        <time>2013-02-22T20:53:00Z</time>
      </trkpt>
      <trkpt lat="45.76303" lon="4.82031">
        <ele>276</ele>
        <time>2013-02-22T20:53:02Z</time>
      </trkpt>
      <trkpt lat="45.76305" lon="4.82043">
        <ele>276</ele>
        <time>2013-02-22T20:53:06Z</time>
      </trkpt>
      <trkpt lat="45.76306" lon="4.82046">
        <ele>276</ele>
        <time>2013-02-22T20:53:07Z</time>
      </trkpt>
      <trkpt lat="45.76307" lon="4.82049">
        <ele>276</ele>
        <time>2013-02-22T20:53:08Z</time>
      </trkpt>
      <trkpt lat="45.76308" lon="4.82054">
        <ele>276</ele>
        <time>2013-02-22T20:53:10Z</time>
      </trkpt>
      <trkpt lat="45.7631" lon="4.82062">
        <ele>276</ele>
        <time>2013-02-22T20:53:13Z</time>
      </trkpt>
      <trkpt lat="45.76311" lon="4.82069">
        <ele>276</ele>
        <time>2013-02-22T20:53:15Z</time>
      </trkpt>
      <trkpt lat="45.76313" lon="4.82075">
        <ele>276</ele>
        <time>2013-02-22T20:53:17Z</time>
      </trkpt>
      <trkpt lat="45.76316" lon="4.82086">
        <ele>281</ele>
        <time>2013-02-22T20:53:21Z</time>
      </trkpt>
      <trkpt lat="45.76318" lon="4.82093">
        <ele>281</ele>
        <time>2013-02-22T20:53:23Z</time>
      </trkpt>
      <trkpt lat="45.7632" lon="4.82099">
        <ele>282</ele>
        <time>2013-02-22T20:53:25Z</time>
      </trkpt>
      <trkpt lat="45.76327" lon="4.8212">
        <ele>286</ele>
        <time>2013-02-22T20:53:33Z</time>
      </trkpt>
      <trkpt lat="45.76328" lon="4.8212">
        <ele>286</ele>
        <time>2013-02-22T20:53:34Z</time>
      </trkpt>
      <trkpt lat="45.76328" lon="4.82122">
        <ele>286</ele>
        <time>2013-02-22T20:53:38Z</time>
      </trkpt>
      <trkpt lat="45.76329" lon="4.82124">
        <ele>286</ele>
        <time>2013-02-22T20:53:39Z</time>
      </trkpt>
      <trkpt lat="45.76332" lon="4.82136">
        <ele>289</ele>
        <time>2013-02-22T20:53:43Z</time>
      </trkpt>
      <trkpt lat="45.76338" lon="4.82148">
        <ele>284</ele>
        <time>2013-02-22T20:53:47Z</time>
      </trkpt>
      <trkpt lat="45.76341" lon="4.8215">
        <ele>284</ele>
        <time>2013-02-22T20:53:48Z</time>
      </trkpt>
      <trkpt lat="45.76347" lon="4.82156">
        <ele>284</ele>
        <time>2013-02-22T20:53:51Z</time>
      </trkpt>
      <trkpt lat="45.7635" lon="4.82161">
        <ele>284</ele>
        <time>2013-02-22T20:53:53Z</time>
      </trkpt>
      <trkpt lat="45.76352" lon="4.82164">
        <ele>284</ele>
        <time>2013-02-22T20:53:54Z</time>
      </trkpt>
      <trkpt lat="45.76354" lon="4.82167">
        <ele>290</ele>
        <time>2013-02-22T20:53:55Z</time>
      </trkpt>
      <trkpt lat="45.76357" lon="4.82176">
        <ele>289</ele>
        <time>2013-02-22T20:53:58Z</time>
      </trkpt>
      <trkpt lat="45.76361" lon="4.82186">
        <ele>288</ele>
        <time>2013-02-22T20:54:01Z</time>
      </trkpt>
      <trkpt lat="45.76362" lon="4.82193">
        <ele>288</ele>
        <time>2013-02-22T20:54:03Z</time>
      </trkpt>
      <trkpt lat="45.76361" lon="4.82209">
        <ele>289</ele>
        <time>2013-02-22T20:54:08Z</time>
      </trkpt>
      <trkpt lat="45.76359" lon="4.82214">
        <ele>289</ele>
        <time>2013-02-22T20:54:10Z</time>
      </trkpt>
      <trkpt lat="45.76358" lon="4.8222">
        <ele>289</ele>
        <time>2013-02-22T20:54:13Z</time>
      </trkpt>
      <trkpt lat="45.76357" lon="4.82222">
        <ele>289</ele>
        <time>2013-02-22T20:54:14Z</time>
      </trkpt>
      <trkpt lat="45.76362" lon="4.82226">
        <ele>289</ele>
        <time>2013-02-22T20:54:19Z</time>
      </trkpt>
      <trkpt lat="45.76364" lon="4.82227">
        <ele>289</ele>
        <time>2013-02-22T20:54:20Z</time>
      </trkpt>
      <trkpt lat="45.76369" lon="4.82234">
        <ele>289</ele>
        <time>2013-02-22T20:54:23Z</time>
      </trkpt>
      <trkpt lat="45.7637" lon="4.82237">
        <ele>289</ele>
        <time>2013-02-22T20:54:24Z</time>
      </trkpt>
      <trkpt lat="45.76372" lon="4.82251">
        <ele>286</ele>
        <time>2013-02-22T20:54:28Z</time>
      </trkpt>
      <trkpt lat="45.76377" lon="4.82264">
        <ele>285</ele>
        <time>2013-02-22T20:54:32Z</time>
      </trkpt>
      <trkpt lat="45.76381" lon="4.82269">
        <ele>285</ele>
        <time>2013-02-22T20:54:34Z</time>
      </trkpt>
      <trkpt lat="45.76385" lon="4.8227">
        <ele>284</ele>
        <time>2013-02-22T20:54:36Z</time>
      </trkpt>
      <trkpt lat="45.76389" lon="4.82269">
        <ele>284</ele>
        <time>2013-02-22T20:54:38Z</time>
      </trkpt>
      <trkpt lat="45.7639" lon="4.82269">
        <ele>284</ele>
        <time>2013-02-22T20:54:39Z</time>
      </trkpt>
      <trkpt lat="45.76396" lon="4.82268">
        <ele>284</ele>
        <time>2013-02-22T20:54:42Z</time>
      </trkpt>
      <trkpt lat="45.76403" lon="4.82265">
        <ele>284</ele>
        <time>2013-02-22T20:54:46Z</time>
      </trkpt>
      <trkpt lat="45.76414" lon="4.8227">
        <ele>283</ele>
        <time>2013-02-22T20:54:50Z</time>
      </trkpt>
      <trkpt lat="45.76417" lon="4.82271">
        <ele>276</ele>
        <time>2013-02-22T20:54:51Z</time>
      </trkpt>
      <trkpt lat="45.76424" lon="4.8227">
        <ele>276</ele>
        <time>2013-02-22T20:54:55Z</time>
      </trkpt>
      <trkpt lat="45.76427" lon="4.8227">
        <ele>276</ele>
        <time>2013-02-22T20:54:58Z</time>
      </trkpt>
      <trkpt lat="45.76429" lon="4.82271">
        <ele>275</ele>
        <time>2013-02-22T20:55:00Z</time>
      </trkpt>
      <trkpt lat="45.76433" lon="4.82273">
        <ele>274</ele>
        <time>2013-02-22T20:55:03Z</time>
      </trkpt>
      <trkpt lat="45.76435" lon="4.82276">
        <ele>274</ele>
        <time>2013-02-22T20:55:06Z</time>
      </trkpt>
      <trkpt lat="45.76437" lon="4.82277">
        <ele>273</ele>
        <time>2013-02-22T20:55:07Z</time>
      </trkpt>
      <trkpt lat="45.76441" lon="4.82279">
        <ele>273</ele>
        <time>2013-02-22T20:55:10Z</time>
      </trkpt>
      <trkpt lat="45.76443" lon="4.82279">
        <ele>272</ele>
        <time>2013-02-22T20:55:13Z</time>
      </trkpt>
      <trkpt lat="45.76445" lon="4.82278">
        <ele>272</ele>
        <time>2013-02-22T20:55:15Z</time>
      </trkpt>
      <trkpt lat="45.76451" lon="4.8228">
        <ele>271</ele>
        <time>2013-02-22T20:55:20Z</time>
      </trkpt>
      <trkpt lat="45.76458" lon="4.82284">
        <ele>270</ele>
        <time>2013-02-22T20:55:25Z</time>
      </trkpt>
      <trkpt lat="45.76459" lon="4.82285">
        <ele>270</ele>
        <time>2013-02-22T20:55:26Z</time>
      </trkpt>
      <trkpt lat="45.76461" lon="4.82286">
        <ele>270</ele>
        <time>2013-02-22T20:55:27Z</time>
      </trkpt>
      <trkpt lat="45.76465" lon="4.82291">
        <ele>269</ele>
        <time>2013-02-22T20:55:32Z</time>
      </trkpt>
      <trkpt lat="45.76466" lon="4.82293">
        <ele>269</ele>
        <time>2013-02-22T20:55:33Z</time>
      </trkpt>
      <trkpt lat="45.76468" lon="4.82296">
        <ele>269</ele>
        <time>2013-02-22T20:55:35Z</time>
      </trkpt>
      <trkpt lat="45.76471" lon="4.82299">
        <ele>269</ele>
        <time>2013-02-22T20:55:38Z</time>
      </trkpt>
      <trkpt lat="45.76479" lon="4.82304">
        <ele>267</ele>
        <time>2013-02-22T20:55:44Z</time>
      </trkpt>
      <trkpt lat="45.7648" lon="4.82306">
        <ele>267</ele>
        <time>2013-02-22T20:55:45Z</time>
      </trkpt>
      <trkpt lat="45.76481" lon="4.82307">
        <ele>267</ele>
        <time>2013-02-22T20:55:46Z</time>
      </trkpt>
      <trkpt lat="45.76485" lon="4.82311">
        <ele>267</ele>
        <time>2013-02-22T20:55:50Z</time>
      </trkpt>
      <trkpt lat="45.76488" lon="4.82315">
        <ele>266</ele>
        <time>2013-02-22T20:55:53Z</time>
      </trkpt>
      <trkpt lat="45.7649" lon="4.82319">
        <ele>265</ele>
        <time>2013-02-22T20:55:56Z</time>
      </trkpt>
      <trkpt lat="45.76494" lon="4.82323">
        <ele>264</ele>
        <time>2013-02-22T20:55:59Z</time>
      </trkpt>
      <trkpt lat="45.76498" lon="4.82328">
        <ele>263</ele>
        <time>2013-02-22T20:56:02Z</time>
      </trkpt>
      <trkpt lat="45.76499" lon="4.8233">
        <ele>262</ele>
        <time>2013-02-22T20:56:03Z</time>
      </trkpt>
      <trkpt lat="45.76504" lon="4.82336">
        <ele>258</ele>
        <time>2013-02-22T20:56:07Z</time>
      </trkpt>
      <trkpt lat="45.76508" lon="4.82342">
        <ele>254</ele>
        <time>2013-02-22T20:56:10Z</time>
      </trkpt>
      <trkpt lat="45.7651" lon="4.82344">
        <ele>253</ele>
        <time>2013-02-22T20:56:12Z</time>
      </trkpt>
      <trkpt lat="45.76515" lon="4.82349">
        <ele>250</ele>
        <time>2013-02-22T20:56:19Z</time>
      </trkpt>
      <trkpt lat="45.76517" lon="4.8235">
        <ele>250</ele>
        <time>2013-02-22T20:56:20Z</time>
      </trkpt>
      <trkpt lat="45.76522" lon="4.82356">
        <ele>247</ele>
        <time>2013-02-22T20:56:26Z</time>
      </trkpt>
      <trkpt lat="45.76523" lon="4.82358">
        <ele>247</ele>
        <time>2013-02-22T20:56:27Z</time>
      </trkpt>
      <trkpt lat="45.76527" lon="4.82361">
        <ele>246</ele>
        <time>2013-02-22T20:56:31Z</time>
      </trkpt>
      <trkpt lat="45.76528" lon="4.82362">
        <ele>246</ele>
        <time>2013-02-22T20:56:32Z</time>
      </trkpt>
      <trkpt lat="45.76535" lon="4.82371">
        <ele>244</ele>
        <time>2013-02-22T20:56:38Z</time>
      </trkpt>
      <trkpt lat="45.76537" lon="4.82374">
        <ele>243</ele>
        <time>2013-02-22T20:56:40Z</time>
      </trkpt>
      <trkpt lat="45.76545" lon="4.82382">
        <ele>242</ele>
        <time>2013-02-22T20:56:45Z</time>
      </trkpt>
      <trkpt lat="45.76552" lon="4.82387">
        <ele>241</ele>
        <time>2013-02-22T20:56:53Z</time>
      </trkpt>
      <trkpt lat="45.76554" lon="4.82388">
        <ele>240</ele>
        <time>2013-02-22T20:56:54Z</time>
      </trkpt>
      <trkpt lat="45.76559" lon="4.82395">
        <ele>239</ele>
        <time>2013-02-22T20:56:58Z</time>
      </trkpt>
      <trkpt lat="45.76561" lon="4.82399">
        <ele>238</ele>
        <time>2013-02-22T20:57:01Z</time>
      </trkpt>
      <trkpt lat="45.76564" lon="4.82398">
        <ele>238</ele>
        <time>2013-02-22T20:57:07Z</time>
      </trkpt>
      <trkpt lat="45.76564" lon="4.82399">
        <ele>237</ele>
        <time>2013-02-22T20:57:09Z</time>
      </trkpt>
      <trkpt lat="45.76566" lon="4.824">
        <ele>237</ele>
        <time>2013-02-22T20:57:14Z</time>
      </trkpt>
      <trkpt lat="45.76569" lon="4.824">
        <ele>236</ele>
        <time>2013-02-22T20:57:17Z</time>
      </trkpt>
      <trkpt lat="45.76573" lon="4.82401">
        <ele>235</ele>
        <time>2013-02-22T20:57:20Z</time>
      </trkpt>
      <trkpt lat="45.7658" lon="4.82412">
        <ele>231</ele>
        <time>2013-02-22T20:57:28Z</time>
      </trkpt>
      <trkpt lat="45.76582" lon="4.82418">
        <ele>228</ele>
        <time>2013-02-22T20:57:31Z</time>
      </trkpt>
      <trkpt lat="45.76586" lon="4.82426">
        <ele>222</ele>
        <time>2013-02-22T20:57:37Z</time>
      </trkpt>
      <trkpt lat="45.7659" lon="4.82429">
        <ele>219</ele>
        <time>2013-02-22T20:57:41Z</time>
      </trkpt>
      <trkpt lat="45.76594" lon="4.82431">
        <ele>218</ele>
        <time>2013-02-22T20:57:43Z</time>
      </trkpt>
      <trkpt lat="45.76597" lon="4.82432">
        <ele>217</ele>
        <time>2013-02-22T20:57:44Z</time>
      </trkpt>
      <trkpt lat="45.766" lon="4.82433">
        <ele>216</ele>
        <time>2013-02-22T20:57:45Z</time>
      </trkpt>
      <trkpt lat="45.76607" lon="4.82439">
        <ele>213</ele>
        <time>2013-02-22T20:57:51Z</time>
      </trkpt>
      <trkpt lat="45.76607" lon="4.8244">
        <ele>213</ele>
        <time>2013-02-22T20:57:52Z</time>
      </trkpt>
      <trkpt lat="45.76606" lon="4.82443">
        <ele>213</ele>
        <time>2013-02-22T20:57:53Z</time>
      </trkpt>
      <trkpt lat="45.76605" lon="4.82445">
        <ele>213</ele>
        <time>2013-02-22T20:57:55Z</time>
      </trkpt>
      <trkpt lat="45.76607" lon="4.82449">
        <ele>212</ele>
        <time>2013-02-22T20:57:59Z</time>
      </trkpt>
      <trkpt lat="45.76609" lon="4.82451">
        <ele>211</ele>
        <time>2013-02-22T20:58:01Z</time>
      </trkpt>
      <trkpt lat="45.7661" lon="4.82451">
        <ele>211</ele>
        <time>2013-02-22T20:58:02Z</time>
      </trkpt>
      <trkpt lat="45.76611" lon="4.8245">
        <ele>211</ele>
        <time>2013-02-22T20:58:05Z</time>
      </trkpt>
      <trkpt lat="45.76612" lon="4.8245">
        <ele>211</ele>
        <time>2013-02-22T20:58:06Z</time>
      </trkpt>
      <trkpt lat="45.76625" lon="4.82459">
        <ele>208</ele>
        <time>2013-02-22T20:58:27Z</time>
      </trkpt>
      <trkpt lat="45.76623" lon="4.82459">
        <ele>208</ele>
        <time>2013-02-22T20:58:35Z</time>
      </trkpt>
      <trkpt lat="45.76623" lon="4.8246">
        <ele>208</ele>
        <time>2013-02-22T20:58:39Z</time>
      </trkpt>
      <trkpt lat="45.76622" lon="4.82459">
        <ele>208</ele>
        <time>2013-02-22T20:58:45Z</time>
      </trkpt>
      <trkpt lat="45.76621" lon="4.82457">
        <ele>209</ele>
        <time>2013-02-22T20:58:50Z</time>
      </trkpt>
      <trkpt lat="45.76618" lon="4.82455">
        <ele>209</ele>
        <time>2013-02-22T20:58:55Z</time>
      </trkpt>
      <trkpt lat="45.76621" lon="4.82456">
        <ele>209</ele>
        <time>2013-02-22T20:59:02Z</time>
      </trkpt>
      <trkpt lat="45.76624" lon="4.82456">
        <ele>208</ele>
        <time>2013-02-22T20:59:50Z</time>
      </trkpt>
      <trkpt lat="45.76621" lon="4.82456">
        <ele>209</ele>
        <time>2013-02-22T20:59:57Z</time>
      </trkpt>
      <trkpt lat="45.76624" lon="4.82457">
        <ele>208</ele>
        <time>2013-02-22T21:00:01Z</time>
      </trkpt>
      <trkpt lat="45.76625" lon="4.82457">
        <ele>208</ele>
        <time>2013-02-22T21:00:05Z</time>
      </trkpt>
      <trkpt lat="45.76624" lon="4.82455">
        <ele>208</ele>
        <time>2013-02-22T21:01:12Z</time>
      </trkpt>
      <trkpt lat="45.76624" lon="4.82442">
        <ele>208</ele>
        <time>2013-02-22T21:01:29Z</time>
      </trkpt>
      <trkpt lat="45.76627" lon="4.82429">
        <ele>208</ele>
        <time>2013-02-22T21:01:35Z</time>
      </trkpt>
      <trkpt lat="45.76628" lon="4.82427">
        <ele>208</ele>
        <time>2013-02-22T21:01:36Z</time>
      </trkpt>
      <trkpt lat="45.76629" lon="4.82413">
        <ele>211</ele>
        <time>2013-02-22T21:01:41Z</time>
      </trkpt>
      <trkpt lat="45.76627" lon="4.82401">
        <ele>212</ele>
        <time>2013-02-22T21:01:46Z</time>
      </trkpt>
      <trkpt lat="45.76623" lon="4.82385">
        <ele>214</ele>
        <time>2013-02-22T21:01:52Z</time>
      </trkpt>
      <trkpt lat="45.76621" lon="4.82375">
        <ele>215</ele>
        <time>2013-02-22T21:01:55Z</time>
      </trkpt>
      <trkpt lat="45.76621" lon="4.82372">
        <ele>215</ele>
        <time>2013-02-22T21:01:56Z</time>
      </trkpt>
      <trkpt lat="45.76622" lon="4.82366">
        <ele>215</ele>
        <time>2013-02-22T21:01:58Z</time>
      </trkpt>
      <trkpt lat="45.76623" lon="4.82349">
        <ele>216</ele>
        <time>2013-02-22T21:02:03Z</time>
      </trkpt>
      <trkpt lat="45.76624" lon="4.82347">
        <ele>216</ele>
        <time>2013-02-22T21:02:04Z</time>
      </trkpt>
      <trkpt lat="45.76629" lon="4.8233">
        <ele>218</ele>
        <time>2013-02-22T21:02:10Z</time>
      </trkpt>
      <trkpt lat="45.76631" lon="4.82327">
        <ele>217</ele>
        <time>2013-02-22T21:02:11Z</time>
      </trkpt>
      <trkpt lat="45.76636" lon="4.82311">
        <ele>216</ele>
        <time>2013-02-22T21:02:16Z</time>
      </trkpt>
      <trkpt lat="45.76639" lon="4.82302">
        <ele>216</ele>
        <time>2013-02-22T21:02:19Z</time>
      </trkpt>
      <trkpt lat="45.76638" lon="4.82295">
        <ele>217</ele>
        <time>2013-02-22T21:02:21Z</time>
      </trkpt>
      <trkpt lat="45.76634" lon="4.82278">
        <ele>217</ele>
        <time>2013-02-22T21:02:26Z</time>
      </trkpt>
      <trkpt lat="45.76634" lon="4.82275">
        <ele>217</ele>
        <time>2013-02-22T21:02:27Z</time>
      </trkpt>
      <trkpt lat="45.76635" lon="4.82259">
        <ele>217</ele>
        <time>2013-02-22T21:02:32Z</time>
      </trkpt>
      <trkpt lat="45.76635" lon="4.82247">
        <ele>215</ele>
        <time>2013-02-22T21:02:36Z</time>
      </trkpt>
      <trkpt lat="45.76636" lon="4.8224">
        <ele>215</ele>
        <time>2013-02-22T21:02:38Z</time>
      </trkpt>
      <trkpt lat="45.76635" lon="4.82226">
        <ele>215</ele>
        <time>2013-02-22T21:02:42Z</time>
      </trkpt>
      <trkpt lat="45.76635" lon="4.82223">
        <ele>215</ele>
        <time>2013-02-22T21:02:43Z</time>
      </trkpt>
      <trkpt lat="45.76636" lon="4.82217">
        <ele>214</ele>
        <time>2013-02-22T21:02:45Z</time>
      </trkpt>
      <trkpt lat="45.76639" lon="4.82207">
        <ele>213</ele>
        <time>2013-02-22T21:02:48Z</time>
      </trkpt>
      <trkpt lat="45.76639" lon="4.82201">
        <ele>213</ele>
        <time>2013-02-22T21:02:50Z</time>
      </trkpt>
      <trkpt lat="45.7664" lon="4.82198">
        <ele>213</ele>
        <time>2013-02-22T21:02:51Z</time>
      </trkpt>
      <trkpt lat="45.76641" lon="4.82192">
        <ele>212</ele>
        <time>2013-02-22T21:02:53Z</time>
      </trkpt>
      <trkpt lat="45.76642" lon="4.8219">
        <ele>211</ele>
        <time>2013-02-22T21:02:54Z</time>
      </trkpt>
      <trkpt lat="45.76642" lon="4.82173">
        <ele>209</ele>
        <time>2013-02-22T21:02:59Z</time>
      </trkpt>
      <trkpt lat="45.76641" lon="4.82166">
        <ele>200</ele>
        <time>2013-02-22T21:03:01Z</time>
      </trkpt>
      <trkpt lat="45.76638" lon="4.82156">
        <ele>201</ele>
        <time>2013-02-22T21:03:04Z</time>
      </trkpt>
      <trkpt lat="45.76633" lon="4.82148">
        <ele>201</ele>
        <time>2013-02-22T21:03:08Z</time>
      </trkpt>
      <trkpt lat="45.76632" lon="4.82146">
        <ele>201</ele>
        <time>2013-02-22T21:03:09Z</time>
      </trkpt>
      <trkpt lat="45.7663" lon="4.82144">
        <ele>201</ele>
        <time>2013-02-22T21:03:11Z</time>
      </trkpt>
      <trkpt lat="45.76628" lon="4.82141">
        <ele>202</ele>
        <time>2013-02-22T21:03:13Z</time>
      </trkpt>
      <trkpt lat="45.76627" lon="4.8214">
        <ele>202</ele>
        <time>2013-02-22T21:03:14Z</time>
      </trkpt>
      <trkpt lat="45.76613" lon="4.82133">
        <ele>204</ele>
        <time>2013-02-22T21:03:20Z</time>
      </trkpt>
      <trkpt lat="45.76606" lon="4.82129">
        <ele>205</ele>
        <time>2013-02-22T21:03:23Z</time>
      </trkpt>
      <trkpt lat="45.76596" lon="4.82128">
        <ele>207</ele>
        <time>2013-02-22T21:03:27Z</time>
      </trkpt>
      <trkpt lat="45.76588" lon="4.82126">
        <ele>207</ele>
        <time>2013-02-22T21:03:30Z</time>
      </trkpt>
      <trkpt lat="45.76577" lon="4.82122">
        <ele>224</ele>
        <time>2013-02-22T21:03:35Z</time>
      </trkpt>
      <trkpt lat="45.76564" lon="4.82111">
        <ele>224</ele>
        <time>2013-02-22T21:03:41Z</time>
      </trkpt>
      <trkpt lat="45.76561" lon="4.82108">
        <ele>223</ele>
        <time>2013-02-22T21:03:43Z</time>
      </trkpt>
      <trkpt lat="45.76558" lon="4.82099">
        <ele>223</ele>
        <time>2013-02-22T21:03:46Z</time>
      </trkpt>
      <trkpt lat="45.76552" lon="4.82085">
        <ele>223</ele>
        <time>2013-02-22T21:03:51Z</time>
      </trkpt>
      <trkpt lat="45.76544" lon="4.82075">
        <ele>213</ele>
        <time>2013-02-22T21:03:56Z</time>
      </trkpt>
      <trkpt lat="45.7654" lon="4.82067">
        <ele>213</ele>
        <time>2013-02-22T21:03:58Z</time>
      </trkpt>
      <trkpt lat="45.76537" lon="4.8206">
        <ele>212</ele>
        <time>2013-02-22T21:04:00Z</time>
      </trkpt>
      <trkpt lat="45.7653" lon="4.82048">
        <ele>212</ele>
        <time>2013-02-22T21:04:05Z</time>
      </trkpt>
      <trkpt lat="45.76528" lon="4.82045">
        <ele>212</ele>
        <time>2013-02-22T21:04:06Z</time>
      </trkpt>
      <trkpt lat="45.76521" lon="4.82034">
        <ele>212</ele>
        <time>2013-02-22T21:04:10Z</time>
      </trkpt>
      <trkpt lat="45.76516" lon="4.82024">
        <ele>212</ele>
        <time>2013-02-22T21:04:13Z</time>
      </trkpt>
      <trkpt lat="45.76512" lon="4.82017">
        <ele>213</ele>
        <time>2013-02-22T21:04:15Z</time>
      </trkpt>
      <trkpt lat="45.76511" lon="4.8201">
        <ele>213</ele>
        <time>2013-02-22T21:04:17Z</time>
      </trkpt>
      <trkpt lat="45.7651" lon="4.82">
        <ele>214</ele>
        <time>2013-02-22T21:04:19Z</time>
      </trkpt>
      <trkpt lat="45.76509" lon="4.81996">
        <ele>211</ele>
        <time>2013-02-22T21:04:20Z</time>
      </trkpt>
      <trkpt lat="45.76509" lon="4.81991">
        <ele>210</ele>
        <time>2013-02-22T21:04:21Z</time>
      </trkpt>
      <trkpt lat="45.76511" lon="4.81989">
        <ele>209</ele>
        <time>2013-02-22T21:04:23Z</time>
      </trkpt>
      <trkpt lat="45.76515" lon="4.8199">
        <ele>208</ele>
        <time>2013-02-22T21:04:26Z</time>
      </trkpt>
      <trkpt lat="45.7652" lon="4.81988">
        <ele>206</ele>
        <time>2013-02-22T21:04:30Z</time>
      </trkpt>
      <trkpt lat="45.76527" lon="4.81986">
        <ele>204</ele>
        <time>2013-02-22T21:04:35Z</time>
      </trkpt>
      <trkpt lat="45.76529" lon="4.81985">
        <ele>203</ele>
        <time>2013-02-22T21:04:36Z</time>
      </trkpt>
      <trkpt lat="45.76541" lon="4.81982">
        <ele>201</ele>
        <time>2013-02-22T21:04:41Z</time>
      </trkpt>
      <trkpt lat="45.76544" lon="4.81983">
        <ele>200</ele>
        <time>2013-02-22T21:04:42Z</time>
      </trkpt>
      <trkpt lat="45.76554" lon="4.81986">
        <ele>198</ele>
        <time>2013-02-22T21:04:46Z</time>
      </trkpt>
      <trkpt lat="45.76561" lon="4.81992">
        <ele>196</ele>
        <time>2013-02-22T21:04:49Z</time>
      </trkpt>
      <trkpt lat="45.76565" lon="4.81996">
        <ele>194</ele>
        <time>2013-02-22T21:04:51Z</time>
      </trkpt>
      <trkpt lat="45.76574" lon="4.81999">
        <ele>191</ele>
        <time>2013-02-22T21:04:56Z</time>
      </trkpt>
      <trkpt lat="45.76576" lon="4.81998">
        <ele>190</ele>
        <time>2013-02-22T21:04:59Z</time>
      </trkpt>
      <trkpt lat="45.76578" lon="4.81999">
        <ele>190</ele>
        <time>2013-02-22T21:05:01Z</time>
      </trkpt>
      <trkpt lat="45.76582" lon="4.81998">
        <ele>188</ele>
        <time>2013-02-22T21:05:05Z</time>
      </trkpt>
      <trkpt lat="45.76585" lon="4.81998">
        <ele>186</ele>
        <time>2013-02-22T21:05:06Z</time>
      </trkpt>
      <trkpt lat="45.76591" lon="4.81996">
        <ele>183</ele>
        <time>2013-02-22T21:05:09Z</time>
      </trkpt>
      <trkpt lat="45.76597" lon="4.81992">
        <ele>181</ele>
        <time>2013-02-22T21:05:14Z</time>
      </trkpt>
      <trkpt lat="45.76599" lon="4.81991">
        <ele>181</ele>
        <time>2013-02-22T21:05:15Z</time>
      </trkpt>
      <trkpt lat="45.76602" lon="4.8199">
        <ele>180</ele>
        <time>2013-02-22T21:05:17Z</time>
      </trkpt>
      <trkpt lat="45.76605" lon="4.81988">
        <ele>179</ele>
        <time>2013-02-22T21:05:18Z</time>
      </trkpt>
      <trkpt lat="45.76613" lon="4.81985">
        <ele>177</ele>
        <time>2013-02-22T21:05:22Z</time>
      </trkpt>
      <trkpt lat="45.76619" lon="4.81982">
        <ele>176</ele>
        <time>2013-02-22T21:05:26Z</time>
      </trkpt>
      <trkpt lat="45.7662" lon="4.81983">
        <ele>176</ele>
        <time>2013-02-22T21:05:27Z</time>
      </trkpt>
      <trkpt lat="45.76628" lon="4.81986">
        <ele>175</ele>
        <time>2013-02-22T21:05:32Z</time>
      </trkpt>
      <trkpt lat="45.76636" lon="4.81988">
        <ele>173</ele>
        <time>2013-02-22T21:05:35Z</time>
      </trkpt>
      <trkpt lat="45.76644" lon="4.8199">
        <ele>172</ele>
        <time>2013-02-22T21:05:37Z</time>
      </trkpt>
      <trkpt lat="45.76651" lon="4.81978">
        <ele>171</ele>
        <time>2013-02-22T21:05:42Z</time>
      </trkpt>
      <trkpt lat="45.76654" lon="4.81971">
        <ele>172</ele>
        <time>2013-02-22T21:05:47Z</time>
      </trkpt>
      <trkpt lat="45.76655" lon="4.81977">
        <ele>171</ele>
        <time>2013-02-22T21:06:15Z</time>
      </trkpt>
      <trkpt lat="45.76657" lon="4.81978">
        <ele>171</ele>
        <time>2013-02-22T21:06:18Z</time>
      </trkpt>
      <trkpt lat="45.76658" lon="4.81975">
        <ele>171</ele>
        <time>2013-02-22T21:06:24Z</time>
      </trkpt>
      <trkpt lat="45.76656" lon="4.81973">
        <ele>171</ele>
        <time>2013-02-22T21:07:04Z</time>
      </trkpt>
      <trkpt lat="45.76647" lon="4.81971">
        <ele>172</ele>
        <time>2013-02-22T21:07:18Z</time>
      </trkpt>
      <trkpt lat="45.76648" lon="4.81964">
        <ele>172</ele>
        <time>2013-02-22T21:07:22Z</time>
      </trkpt>
      <trkpt lat="45.76645" lon="4.81958">
        <ele>173</ele>
        <time>2013-02-22T21:07:25Z</time>
      </trkpt>
      <trkpt lat="45.76639" lon="4.81945">
        <ele>173</ele>
        <time>2013-02-22T21:07:29Z</time>
      </trkpt>
      <trkpt lat="45.76639" lon="4.81943">
        <ele>173</ele>
        <time>2013-02-22T21:07:30Z</time>
      </trkpt>
      <trkpt lat="45.76642" lon="4.81933">
        <ele>172</ele>
        <time>2013-02-22T21:07:35Z</time>
      </trkpt>
      <trkpt lat="45.76644" lon="4.81933">
        <ele>172</ele>
        <time>2013-02-22T21:07:36Z</time>
      </trkpt>
      <trkpt lat="45.76646" lon="4.81926">
        <ele>171</ele>
        <time>2013-02-22T21:07:39Z</time>
      </trkpt>
      <trkpt lat="45.76641" lon="4.81917">
        <ele>172</ele>
        <time>2013-02-22T21:07:42Z</time>
      </trkpt>
      <trkpt lat="45.76641" lon="4.81914">
        <ele>172</ele>
        <time>2013-02-22T21:07:43Z</time>
      </trkpt>
      <trkpt lat="45.76641" lon="4.81911">
        <ele>172</ele>
        <time>2013-02-22T21:07:44Z</time>
      </trkpt>
      <trkpt lat="45.76641" lon="4.81898">
        <ele>172</ele>
        <time>2013-02-22T21:07:48Z</time>
      </trkpt>
      <trkpt lat="45.76641" lon="4.81888">
        <ele>173</ele>
        <time>2013-02-22T21:07:51Z</time>
      </trkpt>
      <trkpt lat="45.76641" lon="4.81885">
        <ele>173</ele>
        <time>2013-02-22T21:07:52Z</time>
      </trkpt>
      <trkpt lat="45.76642" lon="4.81866">
        <ele>173</ele>
        <time>2013-02-22T21:07:57Z</time>
      </trkpt>
      <trkpt lat="45.76642" lon="4.81863">
        <ele>173</ele>
        <time>2013-02-22T21:07:58Z</time>
      </trkpt>
      <trkpt lat="45.76642" lon="4.81859">
        <ele>173</ele>
        <time>2013-02-22T21:07:59Z</time>
      </trkpt>
      <trkpt lat="45.7664" lon="4.81851">
        <ele>173</ele>
        <time>2013-02-22T21:08:02Z</time>
      </trkpt>
      <trkpt lat="45.7664" lon="4.81848">
        <ele>172</ele>
        <time>2013-02-22T21:08:03Z</time>
      </trkpt>
      <trkpt lat="45.76643" lon="4.81835">
        <ele>172</ele>
        <time>2013-02-22T21:08:09Z</time>
      </trkpt>
      <trkpt lat="45.76645" lon="4.81833">
        <ele>173</ele>
        <time>2013-02-22T21:08:10Z</time>
      </trkpt>
      <trkpt lat="45.76646" lon="4.81827">
        <ele>173</ele>
        <time>2013-02-22T21:08:12Z</time>
      </trkpt>
      <trkpt lat="45.76644" lon="4.81825">
        <ele>173</ele>
        <time>2013-02-22T21:08:13Z</time>
      </trkpt>
      <trkpt lat="45.76644" lon="4.81816">
        <ele>174</ele>
        <time>2013-02-22T21:08:17Z</time>
      </trkpt>
      <trkpt lat="45.76642" lon="4.81809">
        <ele>175</ele>
        <time>2013-02-22T21:08:19Z</time>
      </trkpt>
      <trkpt lat="45.76648" lon="4.81787">
        <ele>175</ele>
        <time>2013-02-22T21:08:25Z</time>
      </trkpt>
      <trkpt lat="45.76653" lon="4.81783">
        <ele>174</ele>
        <time>2013-02-22T21:08:26Z</time>
      </trkpt>
      <trkpt lat="45.76657" lon="4.81769">
        <ele>172</ele>
        <time>2013-02-22T21:08:30Z</time>
      </trkpt>
      <trkpt lat="45.76655" lon="4.81758">
        <ele>171</ele>
        <time>2013-02-22T21:08:33Z</time>
      </trkpt>
      <trkpt lat="45.76656" lon="4.81751">
        <ele>170</ele>
        <time>2013-02-22T21:08:35Z</time>
      </trkpt>
      <trkpt lat="45.76657" lon="4.81739">
        <ele>175</ele>
        <time>2013-02-22T21:08:39Z</time>
      </trkpt>
      <trkpt lat="45.7666" lon="4.81731">
        <ele>178</ele>
        <time>2013-02-22T21:08:42Z</time>
      </trkpt>
      <trkpt lat="45.76659" lon="4.81728">
        <ele>179</ele>
        <time>2013-02-22T21:08:43Z</time>
      </trkpt>
      <trkpt lat="45.76656" lon="4.81725">
        <ele>180</ele>
        <time>2013-02-22T21:08:44Z</time>
      </trkpt>
      <trkpt lat="45.76655" lon="4.81709">
        <ele>184</ele>
        <time>2013-02-22T21:08:49Z</time>
      </trkpt>
      <trkpt lat="45.76662" lon="4.81701">
        <ele>184</ele>
        <time>2013-02-22T21:08:53Z</time>
      </trkpt>
      <trkpt lat="45.76665" lon="4.81695">
        <ele>185</ele>
        <time>2013-02-22T21:08:55Z</time>
      </trkpt>
      <trkpt lat="45.76667" lon="4.8169">
        <ele>175</ele>
        <time>2013-02-22T21:08:57Z</time>
      </trkpt>
      <trkpt lat="45.76667" lon="4.81687">
        <ele>176</ele>
        <time>2013-02-22T21:08:58Z</time>
      </trkpt>
      <trkpt lat="45.76667" lon="4.81684">
        <ele>177</ele>
        <time>2013-02-22T21:08:59Z</time>
      </trkpt>
      <trkpt lat="45.7667" lon="4.81668">
        <ele>181</ele>
        <time>2013-02-22T21:09:04Z</time>
      </trkpt>
      <trkpt lat="45.7667" lon="4.81664">
        <ele>182</ele>
        <time>2013-02-22T21:09:05Z</time>
      </trkpt>
      <trkpt lat="45.76674" lon="4.81649">
        <ele>179</ele>
        <time>2013-02-22T21:09:09Z</time>
      </trkpt>
      <trkpt lat="45.76681" lon="4.81642">
        <ele>178</ele>
        <time>2013-02-22T21:09:11Z</time>
      </trkpt>
      <trkpt lat="45.76685" lon="4.8163">
        <ele>177</ele>
        <time>2013-02-22T21:09:14Z</time>
      </trkpt>
      <trkpt lat="45.76693" lon="4.81617">
        <ele>177</ele>
        <time>2013-02-22T21:09:17Z</time>
      </trkpt>
      <trkpt lat="45.76697" lon="4.81613">
        <ele>176</ele>
        <time>2013-02-22T21:09:18Z</time>
      </trkpt>
      <trkpt lat="45.76701" lon="4.81598">
        <ele>176</ele>
        <time>2013-02-22T21:09:22Z</time>
      </trkpt>
      <trkpt lat="45.76706" lon="4.81595">
        <ele>175</ele>
        <time>2013-02-22T21:09:23Z</time>
      </trkpt>
      <trkpt lat="45.76698" lon="4.81583">
        <ele>178</ele>
        <time>2013-02-22T21:09:30Z</time>
      </trkpt>
      <trkpt lat="45.76692" lon="4.81579">
        <ele>179</ele>
        <time>2013-02-22T21:09:33Z</time>
      </trkpt>
      <trkpt lat="45.76694" lon="4.81575">
        <ele>178</ele>
        <time>2013-02-22T21:09:36Z</time>
      </trkpt>
      <trkpt lat="45.76689" lon="4.81569">
        <ele>179</ele>
        <time>2013-02-22T21:09:41Z</time>
      </trkpt>
      <trkpt lat="45.76687" lon="4.81568">
        <ele>179</ele>
        <time>2013-02-22T21:09:42Z</time>
      </trkpt>
      <trkpt lat="45.76683" lon="4.81566">
        <ele>180</ele>
        <time>2013-02-22T21:09:47Z</time>
      </trkpt>
      <trkpt lat="45.76671" lon="4.81565">
        <ele>181</ele>
        <time>2013-02-22T21:09:54Z</time>
      </trkpt>
      <trkpt lat="45.76668" lon="4.81565">
        <ele>181</ele>
        <time>2013-02-22T21:09:55Z</time>
      </trkpt>
      <trkpt lat="45.76664" lon="4.81564">
        <ele>194</ele>
        <time>2013-02-22T21:09:59Z</time>
      </trkpt>
      <trkpt lat="45.76661" lon="4.81565">
        <ele>194</ele>
        <time>2013-02-22T21:10:04Z</time>
      </trkpt>
      <trkpt lat="45.76662" lon="4.81567">
        <ele>193</ele>
        <time>2013-02-22T21:10:09Z</time>
      </trkpt>
      <trkpt lat="45.76658" lon="4.81561">
        <ele>195</ele>
        <time>2013-02-22T21:10:20Z</time>
      </trkpt>
      <trkpt lat="45.7666" lon="4.81561">
        <ele>195</ele>
        <time>2013-02-22T21:10:23Z</time>
      </trkpt>
      <trkpt lat="45.76657" lon="4.81558">
        <ele>196</ele>
        <time>2013-02-22T21:10:29Z</time>
      </trkpt>
      <trkpt lat="45.76654" lon="4.81559">
        <ele>196</ele>
        <time>2013-02-22T21:10:36Z</time>
      </trkpt>
      <trkpt lat="45.76653" lon="4.81559">
        <ele>196</ele>
        <time>2013-02-22T21:10:37Z</time>
      </trkpt>
      <trkpt lat="45.76656" lon="4.8156">
        <ele>196</ele>
        <time>2013-02-22T21:10:40Z</time>
      </trkpt>
      <trkpt lat="45.76654" lon="4.81557">
        <ele>196</ele>
        <time>2013-02-22T21:10:43Z</time>
      </trkpt>
      <trkpt lat="45.76658" lon="4.81556">
        <ele>196</ele>
        <time>2013-02-22T21:10:48Z</time>
      </trkpt>
      <trkpt lat="45.76654" lon="4.81553">
        <ele>197</ele>
        <time>2013-02-22T21:10:51Z</time>
      </trkpt>
      <trkpt lat="45.76653" lon="4.81552">
        <ele>197</ele>
        <time>2013-02-22T21:10:52Z</time>
      </trkpt>
      <trkpt lat="45.76652" lon="4.81552">
        <ele>197</ele>
        <time>2013-02-22T21:10:55Z</time>
      </trkpt>
      <trkpt lat="45.76651" lon="4.81552">
        <ele>197</ele>
        <time>2013-02-22T21:10:58Z</time>
      </trkpt>
      <trkpt lat="45.76648" lon="4.81552">
        <ele>198</ele>
        <time>2013-02-22T21:11:03Z</time>
      </trkpt>
      <trkpt lat="45.76635" lon="4.81546">
        <ele>200</ele>
        <time>2013-02-22T21:11:25Z</time>
      </trkpt>
      <trkpt lat="45.76634" lon="4.81547">
        <ele>200</ele>
        <time>2013-02-22T21:11:26Z</time>
      </trkpt>
      <trkpt lat="45.76618" lon="4.81528">
        <ele>204</ele>
        <time>2013-02-22T21:12:03Z</time>
      </trkpt>
      <trkpt lat="45.76617" lon="4.81528">
        <ele>204</ele>
        <time>2013-02-22T21:12:05Z</time>
      </trkpt>
      <trkpt lat="45.76607" lon="4.81524">
        <ele>207</ele>
        <time>2013-02-22T21:12:10Z</time>
      </trkpt>
      <trkpt lat="45.76603" lon="4.81525">
        <ele>207</ele>
        <time>2013-02-22T21:12:13Z</time>
      </trkpt>
      <trkpt lat="45.766" lon="4.81528">
        <ele>208</ele>
        <time>2013-02-22T21:12:15Z</time>
      </trkpt>
      <trkpt lat="45.76599" lon="4.8153">
        <ele>207</ele>
        <time>2013-02-22T21:12:16Z</time>
      </trkpt>
      <trkpt lat="45.76602" lon="4.81545">
        <ele>206</ele>
        <time>2013-02-22T21:12:23Z</time>
      </trkpt>
      <trkpt lat="45.76602" lon="4.81547">
        <ele>206</ele>
        <time>2013-02-22T21:12:24Z</time>
      </trkpt>
      <trkpt lat="45.766" lon="4.81547">
        <ele>207</ele>
        <time>2013-02-22T21:12:25Z</time>
      </trkpt>
      <trkpt lat="45.76599" lon="4.8155">
        <ele>207</ele>
        <time>2013-02-22T21:12:27Z</time>
      </trkpt>
      <trkpt lat="45.76597" lon="4.81549">
        <ele>207</ele>
        <time>2013-02-22T21:12:29Z</time>
      </trkpt>
      <trkpt lat="45.76595" lon="4.81548">
        <ele>207</ele>
        <time>2013-02-22T21:12:31Z</time>
      </trkpt>
      <trkpt lat="45.76595" lon="4.81545">
        <ele>207</ele>
        <time>2013-02-22T21:12:33Z</time>
      </trkpt>
      <trkpt lat="45.76594" lon="4.81541">
        <ele>207</ele>
        <time>2013-02-22T21:12:36Z</time>
      </trkpt>
      <trkpt lat="45.76593" lon="4.81537">
        <ele>208</ele>
        <time>2013-02-22T21:12:39Z</time>
      </trkpt>
      <trkpt lat="45.76593" lon="4.81536">
        <ele>208</ele>
        <time>2013-02-22T21:12:40Z</time>
      </trkpt>
      <trkpt lat="45.76594" lon="4.81532">
        <ele>208</ele>
        <time>2013-02-22T21:12:44Z</time>
      </trkpt>
      <trkpt lat="45.76597" lon="4.81532">
        <ele>208</ele>
        <time>2013-02-22T21:13:05Z</time>
      </trkpt>
      <trkpt lat="45.76596" lon="4.81534">
        <ele>208</ele>
        <time>2013-02-22T21:13:34Z</time>
      </trkpt>
      <trkpt lat="45.76595" lon="4.81536">
        <ele>208</ele>
        <time>2013-02-22T21:13:39Z</time>
      </trkpt>
      <trkpt lat="45.76595" lon="4.81538">
        <ele>207</ele>
        <time>2013-02-22T21:13:42Z</time>
      </trkpt>
      <trkpt lat="45.76597" lon="4.81541">
        <ele>207</ele>
        <time>2013-02-22T21:13:49Z</time>
      </trkpt>
      <trkpt lat="45.76598" lon="4.81529">
        <ele>208</ele>
        <time>2013-02-22T21:14:33Z</time>
      </trkpt>
      <trkpt lat="45.76598" lon="4.81527">
        <ele>208</ele>
        <time>2013-02-22T21:14:34Z</time>
      </trkpt>
      <trkpt lat="45.76595" lon="4.8152">
        <ele>210</ele>
        <time>2013-02-22T21:14:37Z</time>
      </trkpt>
      <trkpt lat="45.76594" lon="4.81517">
        <ele>210</ele>
        <time>2013-02-22T21:14:38Z</time>
      </trkpt>
      <trkpt lat="45.76589" lon="4.81508">
        <ele>214</ele>
        <time>2013-02-22T21:14:42Z</time>
      </trkpt>
      <trkpt lat="45.76588" lon="4.81506">
        <ele>215</ele>
        <time>2013-02-22T21:14:43Z</time>
      </trkpt>
      <trkpt lat="45.76583" lon="4.81499">
        <ele>221</ele>
        <time>2013-02-22T21:14:47Z</time>
      </trkpt>
      <trkpt lat="45.76577" lon="4.81494">
        <ele>224</ele>
        <time>2013-02-22T21:14:52Z</time>
      </trkpt>
      <trkpt lat="45.76576" lon="4.81494">
        <ele>225</ele>
        <time>2013-02-22T21:14:53Z</time>
      </trkpt>
      <trkpt lat="45.76573" lon="4.81494">
        <ele>226</ele>
        <time>2013-02-22T21:14:58Z</time>
      </trkpt>
      <trkpt lat="45.76571" lon="4.81497">
        <ele>226</ele>
        <time>2013-02-22T21:15:05Z</time>
      </trkpt>
      <trkpt lat="45.76567" lon="4.81501">
        <ele>227</ele>
        <time>2013-02-22T21:15:14Z</time>
      </trkpt>
      <trkpt lat="45.76563" lon="4.81505">
        <ele>228</ele>
        <time>2013-02-22T21:15:22Z</time>
      </trkpt>
      <trkpt lat="45.76558" lon="4.81517">
        <ele>230</ele>
        <time>2013-02-22T21:15:37Z</time>
      </trkpt>
      <trkpt lat="45.76556" lon="4.81516">
        <ele>231</ele>
        <time>2013-02-22T21:15:39Z</time>
      </trkpt>
      <trkpt lat="45.76553" lon="4.81515">
        <ele>232</ele>
        <time>2013-02-22T21:15:44Z</time>
      </trkpt>
      <trkpt lat="45.76544" lon="4.8151">
        <ele>234</ele>
        <time>2013-02-22T21:15:59Z</time>
      </trkpt>
      <trkpt lat="45.76542" lon="4.81509">
        <ele>235</ele>
        <time>2013-02-22T21:16:03Z</time>
      </trkpt>
      <trkpt lat="45.76537" lon="4.81517">
        <ele>236</ele>
        <time>2013-02-22T21:16:17Z</time>
      </trkpt>
      <trkpt lat="45.76536" lon="4.81518">
        <ele>236</ele>
        <time>2013-02-22T21:16:18Z</time>
      </trkpt>
      <trkpt lat="45.76525" lon="4.81518">
        <ele>239</ele>
        <time>2013-02-22T21:16:33Z</time>
      </trkpt>
      <trkpt lat="45.76519" lon="4.81515">
        <ele>241</ele>
        <time>2013-02-22T21:16:48Z</time>
      </trkpt>
      <trkpt lat="45.76514" lon="4.81519">
        <ele>242</ele>
        <time>2013-02-22T21:16:57Z</time>
      </trkpt>
      <trkpt lat="45.76509" lon="4.81516">
        <ele>244</ele>
        <time>2013-02-22T21:17:03Z</time>
      </trkpt>
      <trkpt lat="45.76505" lon="4.81518">
        <ele>244</ele>
        <time>2013-02-22T21:17:08Z</time>
      </trkpt>
      <trkpt lat="45.76502" lon="4.81517">
        <ele>245</ele>
        <time>2013-02-22T21:17:14Z</time>
      </trkpt>
      <trkpt lat="45.76501" lon="4.81519">
        <ele>244</ele>
        <time>2013-02-22T21:17:16Z</time>
      </trkpt>
      <trkpt lat="45.76498" lon="4.81518">
        <ele>256</ele>
        <time>2013-02-22T21:17:19Z</time>
      </trkpt>
      <trkpt lat="45.76493" lon="4.81514">
        <ele>256</ele>
        <time>2013-02-22T21:17:25Z</time>
      </trkpt>
      <trkpt lat="45.76489" lon="4.81512">
        <ele>257</ele>
        <time>2013-02-22T21:17:30Z</time>
      </trkpt>
      <trkpt lat="45.76488" lon="4.81512">
        <ele>257</ele>
        <time>2013-02-22T21:17:31Z</time>
      </trkpt>
      <trkpt lat="45.76487" lon="4.81516">
        <ele>257</ele>
        <time>2013-02-22T21:17:35Z</time>
      </trkpt>
      <trkpt lat="45.76486" lon="4.81516">
        <ele>257</ele>
        <time>2013-02-22T21:17:36Z</time>
      </trkpt>
      <trkpt lat="45.76484" lon="4.81514">
        <ele>257</ele>
        <time>2013-02-22T21:17:38Z</time>
      </trkpt>
      <trkpt lat="45.76481" lon="4.8151">
        <ele>257</ele>
        <time>2013-02-22T21:17:42Z</time>
      </trkpt>
      <trkpt lat="45.76477" lon="4.8151">
        <ele>258</ele>
        <time>2013-02-22T21:17:47Z</time>
      </trkpt>
      <trkpt lat="45.76474" lon="4.81511">
        <ele>258</ele>
        <time>2013-02-22T21:17:53Z</time>
      </trkpt>
      <trkpt lat="45.76472" lon="4.81511">
        <ele>258</ele>
        <time>2013-02-22T21:17:55Z</time>
      </trkpt>
      <trkpt lat="45.76468" lon="4.8151">
        <ele>259</ele>
        <time>2013-02-22T21:18:01Z</time>
      </trkpt>
      <trkpt lat="45.76466" lon="4.81509">
        <ele>259</ele>
        <time>2013-02-22T21:18:04Z</time>
      </trkpt>
      <trkpt lat="45.76463" lon="4.81509">
        <ele>259</ele>
        <time>2013-02-22T21:18:07Z</time>
      </trkpt>
      <trkpt lat="45.76461" lon="4.81511">
        <ele>259</ele>
        <time>2013-02-22T21:18:10Z</time>
      </trkpt>
      <trkpt lat="45.76455" lon="4.81507">
        <ele>261</ele>
        <time>2013-02-22T21:18:19Z</time>
      </trkpt>
      <trkpt lat="45.7645" lon="4.81506">
        <ele>262</ele>
        <time>2013-02-22T21:18:25Z</time>
      </trkpt>
      <trkpt lat="45.76448" lon="4.81506">
        <ele>262</ele>
        <time>2013-02-22T21:18:30Z</time>
      </trkpt>
      <trkpt lat="45.76443" lon="4.81503">
        <ele>263</ele>
        <time>2013-02-22T21:18:38Z</time>
      </trkpt>
      <trkpt lat="45.76441" lon="4.81501">
        <ele>264</ele>
        <time>2013-02-22T21:18:40Z</time>
      </trkpt>
      <trkpt lat="45.76437" lon="4.81499">
        <ele>269</ele>
        <time>2013-02-22T21:18:43Z</time>
      </trkpt>
      <trkpt lat="45.76432" lon="4.81498">
        <ele>270</ele>
        <time>2013-02-22T21:18:45Z</time>
      </trkpt>
      <trkpt lat="45.76429" lon="4.81496">
        <ele>271</ele>
        <time>2013-02-22T21:18:46Z</time>
      </trkpt>
      <trkpt lat="45.76425" lon="4.81491">
        <ele>271</ele>
        <time>2013-02-22T21:18:48Z</time>
      </trkpt>
      <trkpt lat="45.76422" lon="4.81486">
        <ele>271</ele>
        <time>2013-02-22T21:18:50Z</time>
      </trkpt>
      <trkpt lat="45.76419" lon="4.81478">
        <ele>270</ele>
        <time>2013-02-22T21:18:53Z</time>
      </trkpt>
      <trkpt lat="45.76414" lon="4.8146">
        <ele>280</ele>
        <time>2013-02-22T21:18:58Z</time>
      </trkpt>
      <trkpt lat="45.76413" lon="4.81451">
        <ele>281</ele>
        <time>2013-02-22T21:19:01Z</time>
      </trkpt>
      <trkpt lat="45.76406" lon="4.81441">
        <ele>282</ele>
        <time>2013-02-22T21:19:03Z</time>
      </trkpt>
      <trkpt lat="45.76406" lon="4.81427">
        <ele>282</ele>
        <time>2013-02-22T21:19:08Z</time>
      </trkpt>
      <trkpt lat="45.76406" lon="4.81414">
        <ele>282</ele>
        <time>2013-02-22T21:19:13Z</time>
      </trkpt>
      <trkpt lat="45.76406" lon="4.8141">
        <ele>282</ele>
        <time>2013-02-22T21:19:14Z</time>
      </trkpt>
      <trkpt lat="45.76405" lon="4.81401">
        <ele>282</ele>
        <time>2013-02-22T21:19:17Z</time>
      </trkpt>
      <trkpt lat="45.76404" lon="4.81392">
        <ele>282</ele>
        <time>2013-02-22T21:19:20Z</time>
      </trkpt>
      <trkpt lat="45.76403" lon="4.81374">
        <ele>281</ele>
        <time>2013-02-22T21:19:26Z</time>
      </trkpt>
      <trkpt lat="45.76401" lon="4.81363">
        <ele>281</ele>
        <time>2013-02-22T21:19:32Z</time>
      </trkpt>
      <trkpt lat="45.76401" lon="4.81358">
        <ele>281</ele>
        <time>2013-02-22T21:19:36Z</time>
      </trkpt>
      <trkpt lat="45.76401" lon="4.81357">
        <ele>281</ele>
        <time>2013-02-22T21:19:37Z</time>
      </trkpt>
      <trkpt lat="45.76407" lon="4.81353">
        <ele>280</ele>
        <time>2013-02-22T21:19:45Z</time>
      </trkpt>
      <trkpt lat="45.76409" lon="4.8135">
        <ele>280</ele>
        <time>2013-02-22T21:19:57Z</time>
      </trkpt>
      <trkpt lat="45.76407" lon="4.81351">
        <ele>280</ele>
        <time>2013-02-22T21:20:15Z</time>
      </trkpt>
      <trkpt lat="45.76403" lon="4.81345">
        <ele>280</ele>
        <time>2013-02-22T21:20:50Z</time>
      </trkpt>
      <trkpt lat="45.76391" lon="4.81336">
        <ele>281</ele>
        <time>2013-02-22T21:21:00Z</time>
      </trkpt>
      <trkpt lat="45.76393" lon="4.81336">
        <ele>280</ele>
        <time>2013-02-22T21:21:06Z</time>
      </trkpt>
      <trkpt lat="45.76394" lon="4.81333">
        <ele>280</ele>
        <time>2013-02-22T21:21:40Z</time>
      </trkpt>
      <trkpt lat="45.76389" lon="4.81328">
        <ele>279</ele>
        <time>2013-02-22T21:21:47Z</time>
      </trkpt>
      <trkpt lat="45.76388" lon="4.81326">
        <ele>279</ele>
        <time>2013-02-22T21:21:54Z</time>
      </trkpt>
      <trkpt lat="45.76386" lon="4.81324">
        <ele>279</ele>
        <time>2013-02-22T21:21:57Z</time>
      </trkpt>
      <trkpt lat="45.76385" lon="4.81324">
        <ele>279</ele>
        <time>2013-02-22T21:21:59Z</time>
      </trkpt>
      <trkpt lat="45.76377" lon="4.81315">
        <ele>280</ele>
        <time>2013-02-22T21:22:03Z</time>
      </trkpt>
      <trkpt lat="45.76381" lon="4.81304">
        <ele>279</ele>
        <time>2013-02-22T21:22:11Z</time>
      </trkpt>
      <trkpt lat="45.76382" lon="4.81302">
        <ele>279</ele>
        <time>2013-02-22T21:22:12Z</time>
      </trkpt>
      <trkpt lat="45.76387" lon="4.81297">
        <ele>279</ele>
        <time>2013-02-22T21:22:16Z</time>
      </trkpt>
      <trkpt lat="45.76391" lon="4.81294">
        <ele>279</ele>
        <time>2013-02-22T21:22:19Z</time>
      </trkpt>
      <trkpt lat="45.764" lon="4.81291">
        <ele>279</ele>
        <time>2013-02-22T21:22:24Z</time>
      </trkpt>
      <trkpt lat="45.76402" lon="4.81291">
        <ele>279</ele>
        <time>2013-02-22T21:22:25Z</time>
      </trkpt>
      <trkpt lat="45.76414" lon="4.81283">
        <ele>278</ele>
        <time>2013-02-22T21:22:30Z</time>
      </trkpt>
      <trkpt lat="45.76416" lon="4.81281">
        <ele>278</ele>
        <time>2013-02-22T21:22:31Z</time>
      </trkpt>
      <trkpt lat="45.76419" lon="4.81279">
        <ele>269</ele>
        <time>2013-02-22T21:22:32Z</time>
      </trkpt>
      <trkpt lat="45.76423" lon="4.81276">
        <ele>270</ele>
        <time>2013-02-22T21:22:34Z</time>
      </trkpt>
      <trkpt lat="45.76432" lon="4.81265">
        <ele>270</ele>
        <time>2013-02-22T21:22:39Z</time>
      </trkpt>
      <trkpt lat="45.76434" lon="4.81262">
        <ele>270</ele>
        <time>2013-02-22T21:22:40Z</time>
      </trkpt>
      <trkpt lat="45.7644" lon="4.81252">
        <ele>269</ele>
        <time>2013-02-22T21:22:44Z</time>
      </trkpt>
      <trkpt lat="45.76446" lon="4.81243">
        <ele>271</ele>
        <time>2013-02-22T21:22:48Z</time>
      </trkpt>
      <trkpt lat="45.76447" lon="4.81241">
        <ele>271</ele>
        <time>2013-02-22T21:22:49Z</time>
      </trkpt>
      <trkpt lat="45.76454" lon="4.81224">
        <ele>270</ele>
        <time>2013-02-22T21:22:54Z</time>
      </trkpt>
      <trkpt lat="45.76455" lon="4.81221">
        <ele>270</ele>
        <time>2013-02-22T21:22:55Z</time>
      </trkpt>
      <trkpt lat="45.76466" lon="4.81204">
        <ele>270</ele>
        <time>2013-02-22T21:22:59Z</time>
      </trkpt>
      <trkpt lat="45.76477" lon="4.81187">
        <ele>270</ele>
        <time>2013-02-22T21:23:03Z</time>
      </trkpt>
      <trkpt lat="45.76478" lon="4.81183">
        <ele>270</ele>
        <time>2013-02-22T21:23:04Z</time>
      </trkpt>
      <trkpt lat="45.76481" lon="4.81172">
        <ele>270</ele>
        <time>2013-02-22T21:23:07Z</time>
      </trkpt>
      <trkpt lat="45.76483" lon="4.81158">
        <ele>272</ele>
        <time>2013-02-22T21:23:11Z</time>
      </trkpt>
      <trkpt lat="45.76484" lon="4.81151">
        <ele>273</ele>
        <time>2013-02-22T21:23:13Z</time>
      </trkpt>
      <trkpt lat="45.76488" lon="4.81137">
        <ele>274</ele>
        <time>2013-02-22T21:23:17Z</time>
      </trkpt>
      <trkpt lat="45.7649" lon="4.81133">
        <ele>274</ele>
        <time>2013-02-22T21:23:18Z</time>
      </trkpt>
      <trkpt lat="45.76496" lon="4.81117">
        <ele>274</ele>
        <time>2013-02-22T21:23:23Z</time>
      </trkpt>
      <trkpt lat="45.76501" lon="4.81109">
        <ele>267</ele>
        <time>2013-02-22T21:23:26Z</time>
      </trkpt>
      <trkpt lat="45.76504" lon="4.81101">
        <ele>268</ele>
        <time>2013-02-22T21:23:28Z</time>
      </trkpt>
      <trkpt lat="45.76512" lon="4.81085">
        <ele>270</ele>
        <time>2013-02-22T21:23:33Z</time>
      </trkpt>
      <trkpt lat="45.7652" lon="4.81065">
        <ele>271</ele>
        <time>2013-02-22T21:23:39Z</time>
      </trkpt>
      <trkpt lat="45.76522" lon="4.81063">
        <ele>271</ele>
        <time>2013-02-22T21:23:40Z</time>
      </trkpt>
      <trkpt lat="45.76533" lon="4.81052">
        <ele>270</ele>
        <time>2013-02-22T21:23:45Z</time>
      </trkpt>
      <trkpt lat="45.76539" lon="4.81048">
        <ele>270</ele>
        <time>2013-02-22T21:23:48Z</time>
      </trkpt>
      <trkpt lat="45.76542" lon="4.81048">
        <ele>270</ele>
        <time>2013-02-22T21:23:50Z</time>
      </trkpt>
      <trkpt lat="45.7655" lon="4.8104">
        <ele>269</ele>
        <time>2013-02-22T21:23:56Z</time>
      </trkpt>
      <trkpt lat="45.76552" lon="4.81036">
        <ele>269</ele>
        <time>2013-02-22T21:23:59Z</time>
      </trkpt>
      <trkpt lat="45.76554" lon="4.81033">
        <ele>269</ele>
        <time>2013-02-22T21:24:01Z</time>
      </trkpt>
      <trkpt lat="45.76555" lon="4.81032">
        <ele>269</ele>
        <time>2013-02-22T21:24:02Z</time>
      </trkpt>
      <trkpt lat="45.76563" lon="4.81029">
        <ele>269</ele>
        <time>2013-02-22T21:24:06Z</time>
      </trkpt>
      <trkpt lat="45.76568" lon="4.81023">
        <ele>269</ele>
        <time>2013-02-22T21:24:08Z</time>
      </trkpt>
      <trkpt lat="45.76575" lon="4.81013">
        <ele>268</ele>
        <time>2013-02-22T21:24:11Z</time>
      </trkpt>
      <trkpt lat="45.76583" lon="4.81007">
        <ele>268</ele>
        <time>2013-02-22T21:24:14Z</time>
      </trkpt>
      <trkpt lat="45.76587" lon="4.81004">
        <ele>264</ele>
        <time>2013-02-22T21:24:16Z</time>
      </trkpt>
      <trkpt lat="45.76599" lon="4.80992">
        <ele>263</ele>
        <time>2013-02-22T21:24:22Z</time>
      </trkpt>
      <trkpt lat="45.76611" lon="4.80987">
        <ele>261</ele>
        <time>2013-02-22T21:24:28Z</time>
      </trkpt>
      <trkpt lat="45.76618" lon="4.8098">
        <ele>260</ele>
        <time>2013-02-22T21:24:31Z</time>
      </trkpt>
      <trkpt lat="45.76626" lon="4.80976">
        <ele>259</ele>
        <time>2013-02-22T21:24:35Z</time>
      </trkpt>
      <trkpt lat="45.76634" lon="4.80967">
        <ele>258</ele>
        <time>2013-02-22T21:24:39Z</time>
      </trkpt>
      <trkpt lat="45.76637" lon="4.80966">
        <ele>258</ele>
        <time>2013-02-22T21:24:40Z</time>
      </trkpt>
      <trkpt lat="45.76644" lon="4.80961">
        <ele>258</ele>
        <time>2013-02-22T21:24:44Z</time>
      </trkpt>
      <trkpt lat="45.76651" lon="4.80957">
        <ele>258</ele>
        <time>2013-02-22T21:24:47Z</time>
      </trkpt>
      <trkpt lat="45.76656" lon="4.80954">
        <ele>257</ele>
        <time>2013-02-22T21:24:49Z</time>
      </trkpt>
      <trkpt lat="45.76669" lon="4.80944">
        <ele>251</ele>
        <time>2013-02-22T21:24:55Z</time>
      </trkpt>
      <trkpt lat="45.76679" lon="4.80937">
        <ele>251</ele>
        <time>2013-02-22T21:25:00Z</time>
      </trkpt>
      <trkpt lat="45.76686" lon="4.80933">
        <ele>251</ele>
        <time>2013-02-22T21:25:04Z</time>
      </trkpt>
      <trkpt lat="45.7669" lon="4.80933">
        <ele>250</ele>
        <time>2013-02-22T21:25:06Z</time>
      </trkpt>
      <trkpt lat="45.76693" lon="4.80932">
        <ele>250</ele>
        <time>2013-02-22T21:25:10Z</time>
      </trkpt>
      <trkpt lat="45.76697" lon="4.80932">
        <ele>250</ele>
        <time>2013-02-22T21:25:18Z</time>
      </trkpt>
      <trkpt lat="45.76704" lon="4.80933">
        <ele>249</ele>
        <time>2013-02-22T21:25:21Z</time>
      </trkpt>
      <trkpt lat="45.76706" lon="4.80934">
        <ele>248</ele>
        <time>2013-02-22T21:25:22Z</time>
      </trkpt>
      <trkpt lat="45.76711" lon="4.80935">
        <ele>248</ele>
        <time>2013-02-22T21:25:25Z</time>
      </trkpt>
      <trkpt lat="45.76716" lon="4.80937">
        <ele>247</ele>
        <time>2013-02-22T21:25:27Z</time>
      </trkpt>
      <trkpt lat="45.76724" lon="4.80939">
        <ele>247</ele>
        <time>2013-02-22T21:25:30Z</time>
      </trkpt>
      <trkpt lat="45.76729" lon="4.8094">
        <ele>246</ele>
        <time>2013-02-22T21:25:32Z</time>
      </trkpt>
      <trkpt lat="45.76742" lon="4.80941">
        <ele>246</ele>
        <time>2013-02-22T21:25:36Z</time>
      </trkpt>
      <trkpt lat="45.76746" lon="4.80941">
        <ele>246</ele>
        <time>2013-02-22T21:25:37Z</time>
      </trkpt>
      <trkpt lat="45.7676" lon="4.80943">
        <ele>240</ele>
        <time>2013-02-22T21:25:43Z</time>
      </trkpt>
      <trkpt lat="45.76762" lon="4.80944">
        <ele>240</ele>
        <time>2013-02-22T21:25:44Z</time>
      </trkpt>
      <trkpt lat="45.76771" lon="4.80946">
        <ele>239</ele>
        <time>2013-02-22T21:25:47Z</time>
      </trkpt>
      <trkpt lat="45.76781" lon="4.80947">
        <ele>239</ele>
        <time>2013-02-22T21:25:52Z</time>
      </trkpt>
      <trkpt lat="45.76785" lon="4.80944">
        <ele>239</ele>
        <time>2013-02-22T21:25:54Z</time>
      </trkpt>
      <trkpt lat="45.76799" lon="4.80947">
        <ele>238</ele>
        <time>2013-02-22T21:26:00Z</time>
      </trkpt>
      <trkpt lat="45.76801" lon="4.80947">
        <ele>238</ele>
        <time>2013-02-22T21:26:01Z</time>
      </trkpt>
      <trkpt lat="45.76815" lon="4.8095">
        <ele>237</ele>
        <time>2013-02-22T21:26:06Z</time>
      </trkpt>
      <trkpt lat="45.76817" lon="4.80951">
        <ele>237</ele>
        <time>2013-02-22T21:26:07Z</time>
      </trkpt>
      <trkpt lat="45.76826" lon="4.80953">
        <ele>237</ele>
        <time>2013-02-22T21:26:11Z</time>
      </trkpt>
      <trkpt lat="45.76828" lon="4.80955">
        <ele>237</ele>
        <time>2013-02-22T21:26:12Z</time>
      </trkpt>
      <trkpt lat="45.76837" lon="4.80956">
        <ele>232</ele>
        <time>2013-02-22T21:26:15Z</time>
      </trkpt>
      <trkpt lat="45.76847" lon="4.80959">
        <ele>232</ele>
        <time>2013-02-22T21:26:20Z</time>
      </trkpt>
      <trkpt lat="45.7685" lon="4.80959">
        <ele>231</ele>
        <time>2013-02-22T21:26:24Z</time>
      </trkpt>
      <trkpt lat="45.76853" lon="4.80958">
        <ele>231</ele>
        <time>2013-02-22T21:26:31Z</time>
      </trkpt>
      <trkpt lat="45.76856" lon="4.80957">
        <ele>231</ele>
        <time>2013-02-22T21:26:36Z</time>
      </trkpt>
      <trkpt lat="45.76857" lon="4.80957">
        <ele>231</ele>
        <time>2013-02-22T21:26:37Z</time>
      </trkpt>
      <trkpt lat="45.76859" lon="4.80957">
        <ele>231</ele>
        <time>2013-02-22T21:26:43Z</time>
      </trkpt>
      <trkpt lat="45.76854" lon="4.80956">
        <ele>231</ele>
        <time>2013-02-22T21:27:36Z</time>
      </trkpt>
      <trkpt lat="45.76853" lon="4.80956">
        <ele>231</ele>
        <time>2013-02-22T21:27:41Z</time>
      </trkpt>
      <trkpt lat="45.76856" lon="4.80954">
        <ele>231</ele>
        <time>2013-02-22T21:27:51Z</time>
      </trkpt>
      <trkpt lat="45.76856" lon="4.80953">
        <ele>231</ele>
        <time>2013-02-22T21:27:52Z</time>
      </trkpt>
      <trkpt lat="45.76857" lon="4.80945">
        <ele>231</ele>
        <time>2013-02-22T21:27:57Z</time>
      </trkpt>
      <trkpt lat="45.76858" lon="4.8094">
        <ele>231</ele>
        <time>2013-02-22T21:28:00Z</time>
      </trkpt>
      <trkpt lat="45.76857" lon="4.80931">
        <ele>232</ele>
        <time>2013-02-22T21:28:03Z</time>
      </trkpt>
      <trkpt lat="45.76857" lon="4.80927">
        <ele>232</ele>
        <time>2013-02-22T21:28:04Z</time>
      </trkpt>
      <trkpt lat="45.76861" lon="4.80915">
        <ele>225</ele>
        <time>2013-02-22T21:28:08Z</time>
      </trkpt>
      <trkpt lat="45.76864" lon="4.80912">
        <ele>225</ele>
        <time>2013-02-22T21:28:09Z</time>
      </trkpt>
      <trkpt lat="45.7687" lon="4.80911">
        <ele>224</ele>
        <time>2013-02-22T21:28:11Z</time>
      </trkpt>
      <trkpt lat="45.76872" lon="4.80911">
        <ele>224</ele>
        <time>2013-02-22T21:28:12Z</time>
      </trkpt>
      <trkpt lat="45.76887" lon="4.80913">
        <ele>223</ele>
        <time>2013-02-22T21:28:18Z</time>
      </trkpt>
      <trkpt lat="45.7689" lon="4.80913">
        <ele>223</ele>
        <time>2013-02-22T21:28:19Z</time>
      </trkpt>
      <trkpt lat="45.769" lon="4.80916">
        <ele>223</ele>
        <time>2013-02-22T21:28:23Z</time>
      </trkpt>
      <trkpt lat="45.76909" lon="4.80918">
        <ele>227</ele>
        <time>2013-02-22T21:28:26Z</time>
      </trkpt>
      <trkpt lat="45.76917" lon="4.8092">
        <ele>225</ele>
        <time>2013-02-22T21:28:29Z</time>
      </trkpt>
      <trkpt lat="45.76927" lon="4.80922">
        <ele>224</ele>
        <time>2013-02-22T21:28:33Z</time>
      </trkpt>
      <trkpt lat="45.76931" lon="4.80922">
        <ele>224</ele>
        <time>2013-02-22T21:28:34Z</time>
      </trkpt>
      <trkpt lat="45.76936" lon="4.80919">
        <ele>223</ele>
        <time>2013-02-22T21:28:38Z</time>
      </trkpt>
      <trkpt lat="45.76941" lon="4.80919">
        <ele>223</ele>
        <time>2013-02-22T21:28:43Z</time>
      </trkpt>
      <trkpt lat="45.76942" lon="4.8092">
        <ele>222</ele>
        <time>2013-02-22T21:28:45Z</time>
      </trkpt>
      <trkpt lat="45.76947" lon="4.80919">
        <ele>222</ele>
        <time>2013-02-22T21:28:54Z</time>
      </trkpt>
      <trkpt lat="45.76952" lon="4.80915">
        <ele>214</ele>
        <time>2013-02-22T21:29:24Z</time>
      </trkpt>
      <trkpt lat="45.76953" lon="4.80913">
        <ele>214</ele>
        <time>2013-02-22T21:29:25Z</time>
      </trkpt>
      <trkpt lat="45.76959" lon="4.80911">
        <ele>213</ele>
        <time>2013-02-22T21:29:29Z</time>
      </trkpt>
      <trkpt lat="45.76962" lon="4.80912">
        <ele>213</ele>
        <time>2013-02-22T21:29:30Z</time>
      </trkpt>
      <trkpt lat="45.76964" lon="4.80913">
        <ele>213</ele>
        <time>2013-02-22T21:29:31Z</time>
      </trkpt>
      <trkpt lat="45.76967" lon="4.80918">
        <ele>220</ele>
        <time>2013-02-22T21:29:33Z</time>
      </trkpt>
      <trkpt lat="45.76971" lon="4.80915">
        <ele>213</ele>
        <time>2013-02-22T21:29:37Z</time>
      </trkpt>
      <trkpt lat="45.76973" lon="4.80913">
        <ele>213</ele>
        <time>2013-02-22T21:29:38Z</time>
      </trkpt>
      <trkpt lat="45.7698" lon="4.80911">
        <ele>213</ele>
        <time>2013-02-22T21:29:41Z</time>
      </trkpt>
      <trkpt lat="45.76982" lon="4.80912">
        <ele>213</ele>
        <time>2013-02-22T21:29:42Z</time>
      </trkpt>
      <trkpt lat="45.76989" lon="4.80911">
        <ele>213</ele>
        <time>2013-02-22T21:29:47Z</time>
      </trkpt>
      <trkpt lat="45.76991" lon="4.80909">
        <ele>213</ele>
        <time>2013-02-22T21:29:49Z</time>
      </trkpt>
      <trkpt lat="45.76999" lon="4.80907">
        <ele>213</ele>
        <time>2013-02-22T21:29:54Z</time>
      </trkpt>
      <trkpt lat="45.77" lon="4.80907">
        <ele>210</ele>
        <time>2013-02-22T21:29:55Z</time>
      </trkpt>
      <trkpt lat="45.77004" lon="4.80908">
        <ele>209</ele>
        <time>2013-02-22T21:29:58Z</time>
      </trkpt>
      <trkpt lat="45.77006" lon="4.80908">
        <ele>209</ele>
        <time>2013-02-22T21:29:59Z</time>
      </trkpt>
      <trkpt lat="45.77012" lon="4.80909">
        <ele>208</ele>
        <time>2013-02-22T21:30:01Z</time>
      </trkpt>
      <trkpt lat="45.77014" lon="4.8091">
        <ele>207</ele>
        <time>2013-02-22T21:30:02Z</time>
      </trkpt>
      <trkpt lat="45.77017" lon="4.80909">
        <ele>206</ele>
        <time>2013-02-22T21:30:03Z</time>
      </trkpt>
      <trkpt lat="45.77024" lon="4.80905">
        <ele>204</ele>
        <time>2013-02-22T21:30:06Z</time>
      </trkpt>
      <trkpt lat="45.77026" lon="4.80905">
        <ele>204</ele>
        <time>2013-02-22T21:30:07Z</time>
      </trkpt>
      <trkpt lat="45.77029" lon="4.80903">
        <ele>203</ele>
        <time>2013-02-22T21:30:08Z</time>
      </trkpt>
      <trkpt lat="45.77035" lon="4.809">
        <ele>202</ele>
        <time>2013-02-22T21:30:10Z</time>
      </trkpt>
      <trkpt lat="45.77037" lon="4.80898">
        <ele>201</ele>
        <time>2013-02-22T21:30:11Z</time>
      </trkpt>
      <trkpt lat="45.77039" lon="4.80897">
        <ele>201</ele>
        <time>2013-02-22T21:30:12Z</time>
      </trkpt>
      <trkpt lat="45.77047" lon="4.80896">
        <ele>200</ele>
        <time>2013-02-22T21:30:15Z</time>
      </trkpt>
      <trkpt lat="45.7705" lon="4.80895">
        <ele>200</ele>
        <time>2013-02-22T21:30:16Z</time>
      </trkpt>
      <trkpt lat="45.7706" lon="4.80894">
        <ele>199</ele>
        <time>2013-02-22T21:30:20Z</time>
      </trkpt>
      <trkpt lat="45.77063" lon="4.80893">
        <ele>199</ele>
        <time>2013-02-22T21:30:21Z</time>
      </trkpt>
      <trkpt lat="45.77068" lon="4.80893">
        <ele>198</ele>
        <time>2013-02-22T21:30:23Z</time>
      </trkpt>
      <trkpt lat="45.7708" lon="4.80892">
        <ele>198</ele>
        <time>2013-02-22T21:30:27Z</time>
      </trkpt>
      <trkpt lat="45.77087" lon="4.8089">
        <ele>193</ele>
        <time>2013-02-22T21:30:29Z</time>
      </trkpt>
      <trkpt lat="45.77098" lon="4.80886">
        <ele>192</ele>
        <time>2013-02-22T21:30:33Z</time>
      </trkpt>
      <trkpt lat="45.77105" lon="4.80882">
        <ele>191</ele>
        <time>2013-02-22T21:30:36Z</time>
      </trkpt>
      <trkpt lat="45.77111" lon="4.8088">
        <ele>191</ele>
        <time>2013-02-22T21:30:38Z</time>
      </trkpt>
      <trkpt lat="45.77119" lon="4.80881">
        <ele>191</ele>
        <time>2013-02-22T21:30:42Z</time>
      </trkpt>
      <trkpt lat="45.77122" lon="4.80882">
        <ele>191</ele>
        <time>2013-02-22T21:30:43Z</time>
      </trkpt>
      <trkpt lat="45.77133" lon="4.80882">
        <ele>191</ele>
        <time>2013-02-22T21:30:48Z</time>
      </trkpt>
      <trkpt lat="45.77142" lon="4.80879">
        <ele>190</ele>
        <time>2013-02-22T21:30:53Z</time>
      </trkpt>
      <trkpt lat="45.77143" lon="4.80878">
        <ele>190</ele>
        <time>2013-02-22T21:30:54Z</time>
      </trkpt>
      <trkpt lat="45.77149" lon="4.80874">
        <ele>190</ele>
        <time>2013-02-22T21:30:58Z</time>
      </trkpt>
      <trkpt lat="45.7716" lon="4.8087">
        <ele>189</ele>
        <time>2013-02-22T21:31:03Z</time>
      </trkpt>
      <trkpt lat="45.77164" lon="4.80868">
        <ele>189</ele>
        <time>2013-02-22T21:31:05Z</time>
      </trkpt>
      <trkpt lat="45.77179" lon="4.80863">
        <ele>187</ele>
        <time>2013-02-22T21:31:12Z</time>
      </trkpt>
      <trkpt lat="45.77181" lon="4.80863">
        <ele>187</ele>
        <time>2013-02-22T21:31:13Z</time>
      </trkpt>
      <trkpt lat="45.77186" lon="4.80861">
        <ele>187</ele>
        <time>2013-02-22T21:31:17Z</time>
      </trkpt>
      <trkpt lat="45.77191" lon="4.80859">
        <ele>187</ele>
        <time>2013-02-22T21:31:22Z</time>
      </trkpt>
      <trkpt lat="45.77192" lon="4.80858">
        <ele>186</ele>
        <time>2013-02-22T21:31:28Z</time>
      </trkpt>
      <trkpt lat="45.77191" lon="4.80859">
        <ele>187</ele>
        <time>2013-02-22T21:31:30Z</time>
      </trkpt>
      <trkpt lat="45.77191" lon="4.80861">
        <ele>187</ele>
        <time>2013-02-22T21:31:31Z</time>
      </trkpt>
      <trkpt lat="45.77189" lon="4.80865">
        <ele>187</ele>
        <time>2013-02-22T21:31:34Z</time>
      </trkpt>
      <trkpt lat="45.77186" lon="4.80868">
        <ele>187</ele>
        <time>2013-02-22T21:31:37Z</time>
      </trkpt>
      <trkpt lat="45.77181" lon="4.80876">
        <ele>188</ele>
        <time>2013-02-22T21:31:43Z</time>
      </trkpt>
      <trkpt lat="45.77181" lon="4.80878">
        <ele>188</ele>
        <time>2013-02-22T21:31:45Z</time>
      </trkpt>
      <trkpt lat="45.77181" lon="4.80883">
        <ele>189</ele>
        <time>2013-02-22T21:31:50Z</time>
      </trkpt>
      <trkpt lat="45.77179" lon="4.80885">
        <ele>189</ele>
        <time>2013-02-22T21:31:53Z</time>
      </trkpt>
      <trkpt lat="45.77179" lon="4.80887">
        <ele>189</ele>
        <time>2013-02-22T21:31:55Z</time>
      </trkpt>
      <trkpt lat="45.77174" lon="4.80894">
        <ele>190</ele>
        <time>2013-02-22T21:32:01Z</time>
      </trkpt>
      <trkpt lat="45.77173" lon="4.80895">
        <ele>191</ele>
        <time>2013-02-22T21:32:03Z</time>
      </trkpt>
      <trkpt lat="45.77173" lon="4.809">
        <ele>191</ele>
        <time>2013-02-22T21:32:08Z</time>
      </trkpt>
      <trkpt lat="45.77174" lon="4.80904">
        <ele>192</ele>
        <time>2013-02-22T21:32:11Z</time>
      </trkpt>
      <trkpt lat="45.77176" lon="4.80906">
        <ele>192</ele>
        <time>2013-02-22T21:32:14Z</time>
      </trkpt>
      <trkpt lat="45.77177" lon="4.80907">
        <ele>192</ele>
        <time>2013-02-22T21:32:15Z</time>
      </trkpt>
      <trkpt lat="45.77178" lon="4.80908">
        <ele>192</ele>
        <time>2013-02-22T21:32:16Z</time>
      </trkpt>
      <trkpt lat="45.77181" lon="4.80911">
        <ele>192</ele>
        <time>2013-02-22T21:32:19Z</time>
      </trkpt>
      <trkpt lat="45.77181" lon="4.80912">
        <ele>192</ele>
        <time>2013-02-22T21:32:21Z</time>
      </trkpt>
      <trkpt lat="45.7719" lon="4.8092">
        <ele>194</ele>
        <time>2013-02-22T21:32:29Z</time>
      </trkpt>
      <trkpt lat="45.77192" lon="4.80923">
        <ele>194</ele>
        <time>2013-02-22T21:32:32Z</time>
      </trkpt>
      <trkpt lat="45.77192" lon="4.80924">
        <ele>194</ele>
        <time>2013-02-22T21:32:33Z</time>
      </trkpt>
      <trkpt lat="45.77193" lon="4.80924">
        <ele>194</ele>
        <time>2013-02-22T21:32:34Z</time>
      </trkpt>
      <trkpt lat="45.77196" lon="4.80925">
        <ele>194</ele>
        <time>2013-02-22T21:32:37Z</time>
      </trkpt>
      <trkpt lat="45.772" lon="4.80925">
        <ele>194</ele>
        <time>2013-02-22T21:32:40Z</time>
      </trkpt>
      <trkpt lat="45.77209" lon="4.80928">
        <ele>193</ele>
        <time>2013-02-22T21:32:45Z</time>
      </trkpt>
      <trkpt lat="45.7721" lon="4.80929">
        <ele>193</ele>
        <time>2013-02-22T21:32:46Z</time>
      </trkpt>
      <trkpt lat="45.77217" lon="4.80934">
        <ele>193</ele>
        <time>2013-02-22T21:32:51Z</time>
      </trkpt>
      <trkpt lat="45.77218" lon="4.80935">
        <ele>193</ele>
        <time>2013-02-22T21:32:52Z</time>
      </trkpt>
      <trkpt lat="45.77221" lon="4.80939">
        <ele>193</ele>
        <time>2013-02-22T21:32:55Z</time>
      </trkpt>
      <trkpt lat="45.77221" lon="4.80947">
        <ele>193</ele>
        <time>2013-02-22T21:33:01Z</time>
      </trkpt>
      <trkpt lat="45.77219" lon="4.80952">
        <ele>193</ele>
        <time>2013-02-22T21:33:04Z</time>
      </trkpt>
      <trkpt lat="45.77215" lon="4.80958">
        <ele>193</ele>
        <time>2013-02-22T21:33:09Z</time>
      </trkpt>
      <trkpt lat="45.77208" lon="4.80959">
        <ele>193</ele>
        <time>2013-02-22T21:33:15Z</time>
      </trkpt>
      <trkpt lat="45.77207" lon="4.8096">
        <ele>193</ele>
        <time>2013-02-22T21:33:16Z</time>
      </trkpt>
      <trkpt lat="45.772" lon="4.80959">
        <ele>193</ele>
        <time>2013-02-22T21:33:20Z</time>
      </trkpt>
      <trkpt lat="45.77198" lon="4.80959">
        <ele>193</ele>
        <time>2013-02-22T21:33:21Z</time>
      </trkpt>
      <trkpt lat="45.77189" lon="4.80957">
        <ele>194</ele>
        <time>2013-02-22T21:33:25Z</time>
      </trkpt>
      <trkpt lat="45.77187" lon="4.80956">
        <ele>194</ele>
        <time>2013-02-22T21:33:26Z</time>
      </trkpt>
      <trkpt lat="45.77174" lon="4.80955">
        <ele>194</ele>
        <time>2013-02-22T21:33:32Z</time>
      </trkpt>
      <trkpt lat="45.7717" lon="4.80954">
        <ele>194</ele>
        <time>2013-02-22T21:33:34Z</time>
      </trkpt>
      <trkpt lat="45.7716" lon="4.80953">
        <ele>198</ele>
        <time>2013-02-22T21:33:39Z</time>
      </trkpt>
      <trkpt lat="45.77151" lon="4.80951">
        <ele>198</ele>
        <time>2013-02-22T21:33:43Z</time>
      </trkpt>
      <trkpt lat="45.77147" lon="4.80951">
        <ele>198</ele>
        <time>2013-02-22T21:33:45Z</time>
      </trkpt>
      <trkpt lat="45.77133" lon="4.80948">
        <ele>199</ele>
        <time>2013-02-22T21:33:51Z</time>
      </trkpt>
      <trkpt lat="45.7712" lon="4.80946">
        <ele>199</ele>
        <time>2013-02-22T21:33:57Z</time>
      </trkpt>
      <trkpt lat="45.77114" lon="4.80946">
        <ele>199</ele>
        <time>2013-02-22T21:34:00Z</time>
      </trkpt>
      <trkpt lat="45.77103" lon="4.80944">
        <ele>199</ele>
        <time>2013-02-22T21:34:05Z</time>
      </trkpt>
      <trkpt lat="45.77095" lon="4.80943">
        <ele>200</ele>
        <time>2013-02-22T21:34:09Z</time>
      </trkpt>
      <trkpt lat="45.77087" lon="4.80942">
        <ele>200</ele>
        <time>2013-02-22T21:34:12Z</time>
      </trkpt>
      <trkpt lat="45.77078" lon="4.80938">
        <ele>205</ele>
        <time>2013-02-22T21:34:16Z</time>
      </trkpt>
      <trkpt lat="45.77075" lon="4.80937">
        <ele>205</ele>
        <time>2013-02-22T21:34:17Z</time>
      </trkpt>
      <trkpt lat="45.77059" lon="4.80934">
        <ele>207</ele>
        <time>2013-02-22T21:34:24Z</time>
      </trkpt>
      <trkpt lat="45.77047" lon="4.80937">
        <ele>208</ele>
        <time>2013-02-22T21:34:29Z</time>
      </trkpt>
      <trkpt lat="45.7704" lon="4.80937">
        <ele>209</ele>
        <time>2013-02-22T21:34:32Z</time>
      </trkpt>
      <trkpt lat="45.77032" lon="4.80937">
        <ele>210</ele>
        <time>2013-02-22T21:34:36Z</time>
      </trkpt>
      <trkpt lat="45.77022" lon="4.80945">
        <ele>211</ele>
        <time>2013-02-22T21:34:42Z</time>
      </trkpt>
      <trkpt lat="45.77014" lon="4.80955">
        <ele>211</ele>
        <time>2013-02-22T21:34:49Z</time>
      </trkpt>
      <trkpt lat="45.77015" lon="4.80967">
        <ele>212</ele>
        <time>2013-02-22T21:34:57Z</time>
      </trkpt>
      <trkpt lat="45.77015" lon="4.80969">
        <ele>212</ele>
        <time>2013-02-22T21:34:58Z</time>
      </trkpt>
      <trkpt lat="45.77017" lon="4.80982">
        <ele>212</ele>
        <time>2013-02-22T21:35:04Z</time>
      </trkpt>
      <trkpt lat="45.77015" lon="4.8099">
        <ele>213</ele>
        <time>2013-02-22T21:35:08Z</time>
      </trkpt>
      <trkpt lat="45.77013" lon="4.80993">
        <ele>214</ele>
        <time>2013-02-22T21:35:09Z</time>
      </trkpt>
      <trkpt lat="45.77004" lon="4.81006">
        <ele>213</ele>
        <time>2013-02-22T21:35:17Z</time>
      </trkpt>
      <trkpt lat="45.77001" lon="4.81007">
        <ele>213</ele>
        <time>2013-02-22T21:35:19Z</time>
      </trkpt>
      <trkpt lat="45.76995" lon="4.81008">
        <ele>214</ele>
        <time>2013-02-22T21:35:22Z</time>
      </trkpt>
      <trkpt lat="45.76983" lon="4.81009">
        <ele>213</ele>
        <time>2013-02-22T21:35:28Z</time>
      </trkpt>
      <trkpt lat="45.7698" lon="4.8101">
        <ele>213</ele>
        <time>2013-02-22T21:35:29Z</time>
      </trkpt>
      <trkpt lat="45.76971" lon="4.81013">
        <ele>212</ele>
        <time>2013-02-22T21:35:36Z</time>
      </trkpt>
      <trkpt lat="45.76964" lon="4.81014">
        <ele>213</ele>
        <time>2013-02-22T21:35:42Z</time>
      </trkpt>
      <trkpt lat="45.76962" lon="4.81014">
        <ele>213</ele>
        <time>2013-02-22T21:35:43Z</time>
      </trkpt>
      <trkpt lat="45.76957" lon="4.81016">
        <ele>213</ele>
        <time>2013-02-22T21:35:47Z</time>
      </trkpt>
      <trkpt lat="45.76953" lon="4.81017">
        <ele>213</ele>
        <time>2013-02-22T21:35:50Z</time>
      </trkpt>
      <trkpt lat="45.76948" lon="4.81017">
        <ele>214</ele>
        <time>2013-02-22T21:35:56Z</time>
      </trkpt>
      <trkpt lat="45.76944" lon="4.81015">
        <ele>214</ele>
        <time>2013-02-22T21:36:22Z</time>
      </trkpt>
      <trkpt lat="45.7694" lon="4.81017">
        <ele>215</ele>
        <time>2013-02-22T21:37:25Z</time>
      </trkpt>
      <trkpt lat="45.76933" lon="4.81019">
        <ele>215</ele>
        <time>2013-02-22T21:37:31Z</time>
      </trkpt>
      <trkpt lat="45.7693" lon="4.8102">
        <ele>216</ele>
        <time>2013-02-22T21:37:33Z</time>
      </trkpt>
      <trkpt lat="45.7692" lon="4.81026">
        <ele>215</ele>
        <time>2013-02-22T21:37:38Z</time>
      </trkpt>
      <trkpt lat="45.76913" lon="4.8103">
        <ele>220</ele>
        <time>2013-02-22T21:37:41Z</time>
      </trkpt>
      <trkpt lat="45.76906" lon="4.81032">
        <ele>219</ele>
        <time>2013-02-22T21:37:44Z</time>
      </trkpt>
      <trkpt lat="45.76897" lon="4.81031">
        <ele>220</ele>
        <time>2013-02-22T21:37:47Z</time>
      </trkpt>
      <trkpt lat="45.76895" lon="4.81029">
        <ele>220</ele>
        <time>2013-02-22T21:37:48Z</time>
      </trkpt>
      <trkpt lat="45.76877" lon="4.81019">
        <ele>222</ele>
        <time>2013-02-22T21:37:54Z</time>
      </trkpt>
      <trkpt lat="45.76877" lon="4.81019">
        <ele>222</ele>
        <time>2013-02-22T21:37:55Z</time>
      </trkpt>
      <trkpt lat="45.76857" lon="4.81013">
        <ele>224</ele>
        <time>2013-02-22T21:38:02Z</time>
      </trkpt>
      <trkpt lat="45.76851" lon="4.81012">
        <ele>225</ele>
        <time>2013-02-22T21:38:03Z</time>
      </trkpt>
      <trkpt lat="45.7684" lon="4.81012">
        <ele>228</ele>
        <time>2013-02-22T21:38:08Z</time>
      </trkpt>
      <trkpt lat="45.76834" lon="4.81014">
        <ele>227</ele>
        <time>2013-02-22T21:38:09Z</time>
      </trkpt>
      <trkpt lat="45.76823" lon="4.81018">
        <ele>229</ele>
        <time>2013-02-22T21:38:14Z</time>
      </trkpt>
      <trkpt lat="45.76815" lon="4.81023">
        <ele>227</ele>
        <time>2013-02-22T21:38:16Z</time>
      </trkpt>
      <trkpt lat="45.76809" lon="4.81027">
        <ele>227</ele>
        <time>2013-02-22T21:38:20Z</time>
      </trkpt>
      <trkpt lat="45.76798" lon="4.8103">
        <ele>226</ele>
        <time>2013-02-22T21:38:23Z</time>
      </trkpt>
      <trkpt lat="45.76792" lon="4.8103">
        <ele>226</ele>
        <time>2013-02-22T21:38:25Z</time>
      </trkpt>
      <trkpt lat="45.76785" lon="4.81037">
        <ele>226</ele>
        <time>2013-02-22T21:38:31Z</time>
      </trkpt>
      <trkpt lat="45.76781" lon="4.8104">
        <ele>225</ele>
        <time>2013-02-22T21:38:34Z</time>
      </trkpt>
      <trkpt lat="45.76775" lon="4.81043">
        <ele>225</ele>
        <time>2013-02-22T21:38:37Z</time>
      </trkpt>
      <trkpt lat="45.76765" lon="4.8105">
        <ele>224</ele>
        <time>2013-02-22T21:38:43Z</time>
      </trkpt>
      <trkpt lat="45.76745" lon="4.81058">
        <ele>227</ele>
        <time>2013-02-22T21:38:52Z</time>
      </trkpt>
      <trkpt lat="45.76733" lon="4.81064">
        <ele>227</ele>
        <time>2013-02-22T21:38:58Z</time>
      </trkpt>
      <trkpt lat="45.76727" lon="4.81068">
        <ele>228</ele>
        <time>2013-02-22T21:39:01Z</time>
      </trkpt>
      <trkpt lat="45.76722" lon="4.81073">
        <ele>228</ele>
        <time>2013-02-22T21:39:04Z</time>
      </trkpt>
      <trkpt lat="45.76711" lon="4.81082">
        <ele>229</ele>
        <time>2013-02-22T21:39:10Z</time>
      </trkpt>
      <trkpt lat="45.76709" lon="4.81084">
        <ele>220</ele>
        <time>2013-02-22T21:39:11Z</time>
      </trkpt>
      <trkpt lat="45.76701" lon="4.8109">
        <ele>221</ele>
        <time>2013-02-22T21:39:16Z</time>
      </trkpt>
      <trkpt lat="45.76695" lon="4.81097">
        <ele>222</ele>
        <time>2013-02-22T21:39:20Z</time>
      </trkpt>
      <trkpt lat="45.7669" lon="4.811">
        <ele>222</ele>
        <time>2013-02-22T21:39:22Z</time>
      </trkpt>
      <trkpt lat="45.76679" lon="4.81111">
        <ele>223</ele>
        <time>2013-02-22T21:39:28Z</time>
      </trkpt>
      <trkpt lat="45.76677" lon="4.81113">
        <ele>223</ele>
        <time>2013-02-22T21:39:29Z</time>
      </trkpt>
      <trkpt lat="45.76666" lon="4.81126">
        <ele>236</ele>
        <time>2013-02-22T21:39:36Z</time>
      </trkpt>
      <trkpt lat="45.76665" lon="4.81128">
        <ele>235</ele>
        <time>2013-02-22T21:39:37Z</time>
      </trkpt>
      <trkpt lat="45.76658" lon="4.81137">
        <ele>235</ele>
        <time>2013-02-22T21:39:41Z</time>
      </trkpt>
      <trkpt lat="45.76651" lon="4.81147">
        <ele>234</ele>
        <time>2013-02-22T21:39:46Z</time>
      </trkpt>
      <trkpt lat="45.76646" lon="4.81162">
        <ele>233</ele>
        <time>2013-02-22T21:39:51Z</time>
      </trkpt>
      <trkpt lat="45.76643" lon="4.81172">
        <ele>227</ele>
        <time>2013-02-22T21:39:55Z</time>
      </trkpt>
      <trkpt lat="45.76642" lon="4.81175">
        <ele>227</ele>
        <time>2013-02-22T21:39:56Z</time>
      </trkpt>
      <trkpt lat="45.76638" lon="4.81196">
        <ele>227</ele>
        <time>2013-02-22T21:40:02Z</time>
      </trkpt>
      <trkpt lat="45.76637" lon="4.81199">
        <ele>227</ele>
        <time>2013-02-22T21:40:03Z</time>
      </trkpt>
      <trkpt lat="45.76636" lon="4.81213">
        <ele>226</ele>
        <time>2013-02-22T21:40:07Z</time>
      </trkpt>
      <trkpt lat="45.76633" lon="4.81226">
        <ele>225</ele>
        <time>2013-02-22T21:40:11Z</time>
      </trkpt>
      <trkpt lat="45.76623" lon="4.81237">
        <ele>225</ele>
        <time>2013-02-22T21:40:16Z</time>
      </trkpt>
      <trkpt lat="45.76617" lon="4.81242">
        <ele>226</ele>
        <time>2013-02-22T21:40:19Z</time>
      </trkpt>
      <trkpt lat="45.76613" lon="4.81246">
        <ele>227</ele>
        <time>2013-02-22T21:40:21Z</time>
      </trkpt>
      <trkpt lat="45.76602" lon="4.81253">
        <ele>221</ele>
        <time>2013-02-22T21:40:26Z</time>
      </trkpt>
      <trkpt lat="45.766" lon="4.81255">
        <ele>221</ele>
        <time>2013-02-22T21:40:27Z</time>
      </trkpt>
      <trkpt lat="45.76595" lon="4.81266">
        <ele>221</ele>
        <time>2013-02-22T21:40:31Z</time>
      </trkpt>
      <trkpt lat="45.76589" lon="4.81277">
        <ele>219</ele>
        <time>2013-02-22T21:40:35Z</time>
      </trkpt>
      <trkpt lat="45.76586" lon="4.81283">
        <ele>218</ele>
        <time>2013-02-22T21:40:37Z</time>
      </trkpt>
      <trkpt lat="45.76578" lon="4.81299">
        <ele>232</ele>
        <time>2013-02-22T21:40:43Z</time>
      </trkpt>
      <trkpt lat="45.76577" lon="4.81302">
        <ele>231</ele>
        <time>2013-02-22T21:40:44Z</time>
      </trkpt>
      <trkpt lat="45.76567" lon="4.8132">
        <ele>229</ele>
        <time>2013-02-22T21:40:51Z</time>
      </trkpt>
      <trkpt lat="45.76555" lon="4.81332">
        <ele>232</ele>
        <time>2013-02-22T21:40:57Z</time>
      </trkpt>
      <trkpt lat="45.76551" lon="4.81337">
        <ele>229</ele>
        <time>2013-02-22T21:40:59Z</time>
      </trkpt>
      <trkpt lat="45.76547" lon="4.81347">
        <ele>230</ele>
        <time>2013-02-22T21:41:02Z</time>
      </trkpt>
      <trkpt lat="45.7654" lon="4.81359">
        <ele>232</ele>
        <time>2013-02-22T21:41:06Z</time>
      </trkpt>
      <trkpt lat="45.76536" lon="4.81365">
        <ele>232</ele>
        <time>2013-02-22T21:41:08Z</time>
      </trkpt>
      <trkpt lat="45.76531" lon="4.81378">
        <ele>233</ele>
        <time>2013-02-22T21:41:13Z</time>
      </trkpt>
      <trkpt lat="45.76531" lon="4.81382">
        <ele>233</ele>
        <time>2013-02-22T21:41:14Z</time>
      </trkpt>
      <trkpt lat="45.76533" lon="4.81391">
        <ele>233</ele>
        <time>2013-02-22T21:41:17Z</time>
      </trkpt>
      <trkpt lat="45.76535" lon="4.814">
        <ele>233</ele>
        <time>2013-02-22T21:41:20Z</time>
      </trkpt>
      <trkpt lat="45.76535" lon="4.81405">
        <ele>233</ele>
        <time>2013-02-22T21:41:23Z</time>
      </trkpt>
      <trkpt lat="45.76537" lon="4.81407">
        <ele>233</ele>
        <time>2013-02-22T21:41:25Z</time>
      </trkpt>
      <trkpt lat="45.76541" lon="4.81411">
        <ele>231</ele>
        <time>2013-02-22T21:41:31Z</time>
      </trkpt>
      <trkpt lat="45.76543" lon="4.81412">
        <ele>231</ele>
        <time>2013-02-22T21:41:37Z</time>
      </trkpt>
      <trkpt lat="45.76548" lon="4.81414">
        <ele>229</ele>
        <time>2013-02-22T21:41:44Z</time>
      </trkpt>
      <trkpt lat="45.76554" lon="4.81416">
        <ele>227</ele>
        <time>2013-02-22T21:41:51Z</time>
      </trkpt>
      <trkpt lat="45.76563" lon="4.81416">
        <ele>224</ele>
        <time>2013-02-22T21:41:58Z</time>
      </trkpt>
      <trkpt lat="45.76573" lon="4.81419">
        <ele>221</ele>
        <time>2013-02-22T21:42:05Z</time>
      </trkpt>
      <trkpt lat="45.76574" lon="4.81419">
        <ele>220</ele>
        <time>2013-02-22T21:42:06Z</time>
      </trkpt>
      <trkpt lat="45.76581" lon="4.81421">
        <ele>217</ele>
        <time>2013-02-22T21:42:11Z</time>
      </trkpt>
      <trkpt lat="45.76586" lon="4.81423">
        <ele>210</ele>
        <time>2013-02-22T21:42:15Z</time>
      </trkpt>
      <trkpt lat="45.7659" lon="4.81423">
        <ele>209</ele>
        <time>2013-02-22T21:42:17Z</time>
      </trkpt>
      <trkpt lat="45.76592" lon="4.81423">
        <ele>209</ele>
        <time>2013-02-22T21:42:18Z</time>
      </trkpt>
      <trkpt lat="45.76596" lon="4.81422">
        <ele>208</ele>
        <time>2013-02-22T21:42:21Z</time>
      </trkpt>
      <trkpt lat="45.76598" lon="4.81424">
        <ele>207</ele>
        <time>2013-02-22T21:42:23Z</time>
      </trkpt>
      <trkpt lat="45.76603" lon="4.81426">
        <ele>205</ele>
        <time>2013-02-22T21:42:28Z</time>
      </trkpt>
      <trkpt lat="45.76604" lon="4.81429">
        <ele>205</ele>
        <time>2013-02-22T21:42:30Z</time>
      </trkpt>
      <trkpt lat="45.76607" lon="4.8143">
        <ele>204</ele>
        <time>2013-02-22T21:42:32Z</time>
      </trkpt>
      <trkpt lat="45.76609" lon="4.81431">
        <ele>204</ele>
        <time>2013-02-22T21:42:33Z</time>
      </trkpt>
      <trkpt lat="45.7661" lon="4.81432">
        <ele>203</ele>
        <time>2013-02-22T21:42:34Z</time>
      </trkpt>
      <trkpt lat="45.76614" lon="4.81435">
        <ele>202</ele>
        <time>2013-02-22T21:42:37Z</time>
      </trkpt>
      <trkpt lat="45.7662" lon="4.81437">
        <ele>201</ele>
        <time>2013-02-22T21:42:42Z</time>
      </trkpt>
      <trkpt lat="45.76621" lon="4.81437">
        <ele>201</ele>
        <time>2013-02-22T21:42:43Z</time>
      </trkpt>
      <trkpt lat="45.76625" lon="4.8144">
        <ele>200</ele>
        <time>2013-02-22T21:42:49Z</time>
      </trkpt>
      <trkpt lat="45.76628" lon="4.81442">
        <ele>199</ele>
        <time>2013-02-22T21:42:52Z</time>
      </trkpt>
      <trkpt lat="45.76629" lon="4.81443">
        <ele>199</ele>
        <time>2013-02-22T21:42:53Z</time>
      </trkpt>
      <trkpt lat="45.7663" lon="4.81443">
        <ele>199</ele>
        <time>2013-02-22T21:42:54Z</time>
      </trkpt>
      <trkpt lat="45.76631" lon="4.81443">
        <ele>199</ele>
        <time>2013-02-22T21:42:55Z</time>
      </trkpt>
      <trkpt lat="45.76637" lon="4.81445">
        <ele>198</ele>
        <time>2013-02-22T21:42:59Z</time>
      </trkpt>
      <trkpt lat="45.76639" lon="4.81446">
        <ele>197</ele>
        <time>2013-02-22T21:43:01Z</time>
      </trkpt>
      <trkpt lat="45.76642" lon="4.81448">
        <ele>197</ele>
        <time>2013-02-22T21:43:04Z</time>
      </trkpt>
      <trkpt lat="45.76645" lon="4.8145">
        <ele>196</ele>
        <time>2013-02-22T21:43:07Z</time>
      </trkpt>
      <trkpt lat="45.76647" lon="4.81452">
        <ele>196</ele>
        <time>2013-02-22T21:43:09Z</time>
      </trkpt>
      <trkpt lat="45.76655" lon="4.81455">
        <ele>195</ele>
        <time>2013-02-22T21:43:16Z</time>
      </trkpt>
      <trkpt lat="45.76663" lon="4.81457">
        <ele>195</ele>
        <time>2013-02-22T21:43:22Z</time>
      </trkpt>
      <trkpt lat="45.76674" lon="4.81459">
        <ele>178</ele>
        <time>2013-02-22T21:43:30Z</time>
      </trkpt>
      <trkpt lat="45.76677" lon="4.81458">
        <ele>178</ele>
        <time>2013-02-22T21:43:32Z</time>
      </trkpt>
      <trkpt lat="45.76681" lon="4.81456">
        <ele>178</ele>
        <time>2013-02-22T21:43:34Z</time>
      </trkpt>
      <trkpt lat="45.76683" lon="4.81457">
        <ele>177</ele>
        <time>2013-02-22T21:43:35Z</time>
      </trkpt>
      <trkpt lat="45.76685" lon="4.8146">
        <ele>177</ele>
        <time>2013-02-22T21:43:37Z</time>
      </trkpt>
      <trkpt lat="45.7669" lon="4.81464">
        <ele>177</ele>
        <time>2013-02-22T21:43:40Z</time>
      </trkpt>
      <trkpt lat="45.76691" lon="4.81467">
        <ele>177</ele>
        <time>2013-02-22T21:43:41Z</time>
      </trkpt>
      <trkpt lat="45.76692" lon="4.81466">
        <ele>177</ele>
        <time>2013-02-22T21:43:42Z</time>
      </trkpt>
      <trkpt lat="45.76695" lon="4.81464">
        <ele>176</ele>
        <time>2013-02-22T21:43:45Z</time>
      </trkpt>
      <trkpt lat="45.76697" lon="4.81462">
        <ele>176</ele>
        <time>2013-02-22T21:43:47Z</time>
      </trkpt>
      <trkpt lat="45.76702" lon="4.81463">
        <ele>176</ele>
        <time>2013-02-22T21:43:51Z</time>
      </trkpt>
      <trkpt lat="45.76708" lon="4.81462">
        <ele>175</ele>
        <time>2013-02-22T21:43:55Z</time>
      </trkpt>
      <trkpt lat="45.76711" lon="4.81461">
        <ele>174</ele>
        <time>2013-02-22T21:43:57Z</time>
      </trkpt>
      <trkpt lat="45.76712" lon="4.81463">
        <ele>174</ele>
        <time>2013-02-22T21:43:58Z</time>
      </trkpt>
      <trkpt lat="45.76714" lon="4.81466">
        <ele>174</ele>
        <time>2013-02-22T21:44:00Z</time>
      </trkpt>
      <trkpt lat="45.76715" lon="4.81467">
        <ele>174</ele>
        <time>2013-02-22T21:44:03Z</time>
      </trkpt>
      <trkpt lat="45.76717" lon="4.81468">
        <ele>174</ele>
        <time>2013-02-22T21:44:06Z</time>
      </trkpt>
      <trkpt lat="45.7672" lon="4.81466">
        <ele>173</ele>
        <time>2013-02-22T21:44:10Z</time>
      </trkpt>
      <trkpt lat="45.76714" lon="4.8147">
        <ele>174</ele>
        <time>2013-02-22T21:44:20Z</time>
      </trkpt>
      <trkpt lat="45.76714" lon="4.8147">
        <ele>174</ele>
        <time>2013-02-22T21:44:21Z</time>
      </trkpt>
      <trkpt lat="45.76715" lon="4.81473">
        <ele>174</ele>
        <time>2013-02-22T21:44:26Z</time>
      </trkpt>
      <trkpt lat="45.76718" lon="4.81469">
        <ele>174</ele>
        <time>2013-02-22T21:44:30Z</time>
      </trkpt>
      <trkpt lat="45.76714" lon="4.81463">
        <ele>174</ele>
        <time>2013-02-22T21:44:35Z</time>
      </trkpt>
      <trkpt lat="45.76716" lon="4.81464">
        <ele>174</ele>
        <time>2013-02-22T21:44:37Z</time>
      </trkpt>
      <trkpt lat="45.76722" lon="4.81468">
        <ele>173</ele>
        <time>2013-02-22T21:44:41Z</time>
      </trkpt>
      <trkpt lat="45.76724" lon="4.81469">
        <ele>173</ele>
        <time>2013-02-22T21:44:42Z</time>
      </trkpt>
      <trkpt lat="45.76728" lon="4.81472">
        <ele>172</ele>
        <time>2013-02-22T21:44:46Z</time>
      </trkpt>
      <trkpt lat="45.76729" lon="4.81472">
        <ele>172</ele>
        <time>2013-02-22T21:44:47Z</time>
      </trkpt>
      <trkpt lat="45.76729" lon="4.81472">
        <ele>172</ele>
        <time>2013-02-22T21:44:48Z</time>
      </trkpt>
      <trkpt lat="45.7673" lon="4.81471">
        <ele>172</ele>
        <time>2013-02-22T21:44:55Z</time>
      </trkpt>
      <trkpt lat="45.76734" lon="4.81468">
        <ele>172</ele>
        <time>2013-02-22T21:45:07Z</time>
      </trkpt>
      <trkpt lat="45.76737" lon="4.81462">
        <ele>172</ele>
        <time>2013-02-22T21:45:10Z</time>
      </trkpt>
      <trkpt lat="45.76739" lon="4.81459">
        <ele>172</ele>
        <time>2013-02-22T21:45:12Z</time>
      </trkpt>
      <trkpt lat="45.76744" lon="4.81446">
        <ele>171</ele>
        <time>2013-02-22T21:45:17Z</time>
      </trkpt>
      <trkpt lat="45.76745" lon="4.8144">
        <ele>170</ele>
        <time>2013-02-22T21:45:19Z</time>
      </trkpt>
      <trkpt lat="45.76746" lon="4.81436">
        <ele>170</ele>
        <time>2013-02-22T21:45:20Z</time>
      </trkpt>
      <trkpt lat="45.76747" lon="4.81433">
        <ele>169</ele>
        <time>2013-02-22T21:45:21Z</time>
      </trkpt>
      <trkpt lat="45.76751" lon="4.81415">
        <ele>165</ele>
        <time>2013-02-22T21:45:27Z</time>
      </trkpt>
      <trkpt lat="45.76759" lon="4.81398">
        <ele>167</ele>
        <time>2013-02-22T21:45:32Z</time>
      </trkpt>
      <trkpt lat="45.76762" lon="4.81391">
        <ele>167</ele>
        <time>2013-02-22T21:45:34Z</time>
      </trkpt>
      <trkpt lat="45.76768" lon="4.81382">
        <ele>168</ele>
        <time>2013-02-22T21:45:37Z</time>
      </trkpt>
      <trkpt lat="45.76776" lon="4.81371">
        <ele>168</ele>
        <time>2013-02-22T21:45:41Z</time>
      </trkpt>
      <trkpt lat="45.76779" lon="4.81368">
        <ele>168</ele>
        <time>2013-02-22T21:45:42Z</time>
      </trkpt>
      <trkpt lat="45.76789" lon="4.81356">
        <ele>168</ele>
        <time>2013-02-22T21:45:46Z</time>
      </trkpt>
      <trkpt lat="45.76791" lon="4.81354">
        <ele>168</ele>
        <time>2013-02-22T21:45:47Z</time>
      </trkpt>
      <trkpt lat="45.76799" lon="4.81343">
        <ele>168</ele>
        <time>2013-02-22T21:45:51Z</time>
      </trkpt>
      <trkpt lat="45.76806" lon="4.81334">
        <ele>167</ele>
        <time>2013-02-22T21:45:54Z</time>
      </trkpt>
      <trkpt lat="45.7681" lon="4.81329">
        <ele>170</ele>
        <time>2013-02-22T21:45:56Z</time>
      </trkpt>
      <trkpt lat="45.76822" lon="4.81319">
        <ele>169</ele>
        <time>2013-02-22T21:46:01Z</time>
      </trkpt>
      <trkpt lat="45.76835" lon="4.81311">
        <ele>166</ele>
        <time>2013-02-22T21:46:06Z</time>
      </trkpt>
      <trkpt lat="45.7684" lon="4.81307">
        <ele>166</ele>
        <time>2013-02-22T21:46:08Z</time>
      </trkpt>
      <trkpt lat="45.76843" lon="4.81306">
        <ele>166</ele>
        <time>2013-02-22T21:46:10Z</time>
      </trkpt>
      <trkpt lat="45.76854" lon="4.813">
        <ele>167</ele>
        <time>2013-02-22T21:46:15Z</time>
      </trkpt>
      <trkpt lat="45.76859" lon="4.81298">
        <ele>167</ele>
        <time>2013-02-22T21:46:17Z</time>
      </trkpt>
      <trkpt lat="45.7687" lon="4.81295">
        <ele>167</ele>
        <time>2013-02-22T21:46:21Z</time>
      </trkpt>
      <trkpt lat="45.76878" lon="4.81293">
        <ele>166</ele>
        <time>2013-02-22T21:46:24Z</time>
      </trkpt>
      <trkpt lat="45.76888" lon="4.81291">
        <ele>166</ele>
        <time>2013-02-22T21:46:28Z</time>
      </trkpt>
      <trkpt lat="45.76897" lon="4.81289">
        <ele>166</ele>
        <time>2013-02-22T21:46:31Z</time>
      </trkpt>
      <trkpt lat="45.76905" lon="4.81288">
        <ele>166</ele>
        <time>2013-02-22T21:46:34Z</time>
      </trkpt>
      <trkpt lat="45.76916" lon="4.81285">
        <ele>166</ele>
        <time>2013-02-22T21:46:40Z</time>
      </trkpt>
      <trkpt lat="45.76918" lon="4.81284">
        <ele>165</ele>
        <time>2013-02-22T21:46:41Z</time>
      </trkpt>
      <trkpt lat="45.76936" lon="4.8128">
        <ele>165</ele>
        <time>2013-02-22T21:46:49Z</time>
      </trkpt>
      <trkpt lat="45.76951" lon="4.81278">
        <ele>165</ele>
        <time>2013-02-22T21:46:55Z</time>
      </trkpt>
      <trkpt lat="45.76955" lon="4.81278">
        <ele>165</ele>
        <time>2013-02-22T21:46:57Z</time>
      </trkpt>
      <trkpt lat="45.76961" lon="4.81277">
        <ele>165</ele>
        <time>2013-02-22T21:47:01Z</time>
      </trkpt>
      <trkpt lat="45.76965" lon="4.81276">
        <ele>165</ele>
        <time>2013-02-22T21:47:06Z</time>
      </trkpt>
      <trkpt lat="45.76966" lon="4.81275">
        <ele>165</ele>
        <time>2013-02-22T21:47:13Z</time>
      </trkpt>
      <trkpt lat="45.7697" lon="4.81275">
        <ele>165</ele>
        <time>2013-02-22T21:47:20Z</time>
      </trkpt>
      <trkpt lat="45.76973" lon="4.81274">
        <ele>165</ele>
        <time>2013-02-22T21:47:22Z</time>
      </trkpt>
      <trkpt lat="45.76981" lon="4.81272">
        <ele>165</ele>
        <time>2013-02-22T21:47:28Z</time>
      </trkpt>
      <trkpt lat="45.76987" lon="4.81272">
        <ele>165</ele>
        <time>2013-02-22T21:47:32Z</time>
      </trkpt>
      <trkpt lat="45.76989" lon="4.81272">
        <ele>165</ele>
        <time>2013-02-22T21:47:33Z</time>
      </trkpt>
      <trkpt lat="45.76991" lon="4.81274">
        <ele>165</ele>
        <time>2013-02-22T21:47:35Z</time>
      </trkpt>
      <trkpt lat="45.76995" lon="4.81281">
        <ele>165</ele>
        <time>2013-02-22T21:47:39Z</time>
      </trkpt>
      <trkpt lat="45.76999" lon="4.81291">
        <ele>165</ele>
        <time>2013-02-22T21:47:45Z</time>
      </trkpt>
      <trkpt lat="45.77001" lon="4.81298">
        <ele>165</ele>
        <time>2013-02-22T21:47:49Z</time>
      </trkpt>
      <trkpt lat="45.77001" lon="4.81303">
        <ele>165</ele>
        <time>2013-02-22T21:47:52Z</time>
      </trkpt>
      <trkpt lat="45.77004" lon="4.81315">
        <ele>165</ele>
        <time>2013-02-22T21:48:01Z</time>
      </trkpt>
      <trkpt lat="45.77005" lon="4.81323">
        <ele>165</ele>
        <time>2013-02-22T21:48:06Z</time>
      </trkpt>
      <trkpt lat="45.77006" lon="4.81331">
        <ele>165</ele>
        <time>2013-02-22T21:48:11Z</time>
      </trkpt>
      <trkpt lat="45.77008" lon="4.81341">
        <ele>167</ele>
        <time>2013-02-22T21:48:17Z</time>
      </trkpt>
      <trkpt lat="45.77008" lon="4.81345">
        <ele>168</ele>
        <time>2013-02-22T21:48:19Z</time>
      </trkpt>
      <trkpt lat="45.77009" lon="4.81351">
        <ele>168</ele>
        <time>2013-02-22T21:48:21Z</time>
      </trkpt>
      <trkpt lat="45.77009" lon="4.81355">
        <ele>169</ele>
        <time>2013-02-22T21:48:22Z</time>
      </trkpt>
      <trkpt lat="45.77012" lon="4.81376">
        <ele>171</ele>
        <time>2013-02-22T21:48:27Z</time>
      </trkpt>
      <trkpt lat="45.77014" lon="4.8138">
        <ele>171</ele>
        <time>2013-02-22T21:48:28Z</time>
      </trkpt>
      <trkpt lat="45.77016" lon="4.81392">
        <ele>172</ele>
        <time>2013-02-22T21:48:31Z</time>
      </trkpt>
      <trkpt lat="45.77021" lon="4.81406">
        <ele>172</ele>
        <time>2013-02-22T21:48:36Z</time>
      </trkpt>
      <trkpt lat="45.77028" lon="4.81417">
        <ele>181</ele>
        <time>2013-02-22T21:48:40Z</time>
      </trkpt>
      <trkpt lat="45.77035" lon="4.81424">
        <ele>183</ele>
        <time>2013-02-22T21:48:43Z</time>
      </trkpt>
      <trkpt lat="45.7704" lon="4.81425">
        <ele>183</ele>
        <time>2013-02-22T21:48:45Z</time>
      </trkpt>
      <trkpt lat="45.77054" lon="4.81424">
        <ele>185</ele>
        <time>2013-02-22T21:48:51Z</time>
      </trkpt>
      <trkpt lat="45.77067" lon="4.8142">
        <ele>185</ele>
        <time>2013-02-22T21:48:56Z</time>
      </trkpt>
      <trkpt lat="45.77073" lon="4.81419">
        <ele>185</ele>
        <time>2013-02-22T21:48:59Z</time>
      </trkpt>
      <trkpt lat="45.77081" lon="4.81419">
        <ele>184</ele>
        <time>2013-02-22T21:49:02Z</time>
      </trkpt>
      <trkpt lat="45.77092" lon="4.81416">
        <ele>181</ele>
        <time>2013-02-22T21:49:07Z</time>
      </trkpt>
      <trkpt lat="45.77094" lon="4.81415">
        <ele>181</ele>
        <time>2013-02-22T21:49:08Z</time>
      </trkpt>
      <trkpt lat="45.77107" lon="4.81412">
        <ele>179</ele>
        <time>2013-02-22T21:49:13Z</time>
      </trkpt>
      <trkpt lat="45.77109" lon="4.8141">
        <ele>179</ele>
        <time>2013-02-22T21:49:14Z</time>
      </trkpt>
      <trkpt lat="45.77112" lon="4.81409">
        <ele>179</ele>
        <time>2013-02-22T21:49:15Z</time>
      </trkpt>
      <trkpt lat="45.77122" lon="4.81406">
        <ele>178</ele>
        <time>2013-02-22T21:49:19Z</time>
      </trkpt>
      <trkpt lat="45.77124" lon="4.81404">
        <ele>178</ele>
        <time>2013-02-22T21:49:20Z</time>
      </trkpt>
      <trkpt lat="45.77131" lon="4.81401">
        <ele>178</ele>
        <time>2013-02-22T21:49:24Z</time>
      </trkpt>
      <trkpt lat="45.77133" lon="4.81403">
        <ele>178</ele>
        <time>2013-02-22T21:49:25Z</time>
      </trkpt>
      <trkpt lat="45.7714" lon="4.81408">
        <ele>179</ele>
        <time>2013-02-22T21:49:29Z</time>
      </trkpt>
      <trkpt lat="45.7714" lon="4.81411">
        <ele>179</ele>
        <time>2013-02-22T21:49:31Z</time>
      </trkpt>
      <trkpt lat="45.77139" lon="4.81414">
        <ele>179</ele>
        <time>2013-02-22T21:49:33Z</time>
      </trkpt>
      <trkpt lat="45.77137" lon="4.81417">
        <ele>190</ele>
        <time>2013-02-22T21:49:36Z</time>
      </trkpt>
      <trkpt lat="45.77137" lon="4.81419">
        <ele>190</ele>
        <time>2013-02-22T21:49:37Z</time>
      </trkpt>
      <trkpt lat="45.77135" lon="4.8142">
        <ele>190</ele>
        <time>2013-02-22T21:49:38Z</time>
      </trkpt>
      <trkpt lat="45.77134" lon="4.81421">
        <ele>190</ele>
        <time>2013-02-22T21:49:43Z</time>
      </trkpt>
      <trkpt lat="45.77132" lon="4.81421">
        <ele>190</ele>
        <time>2013-02-22T21:49:47Z</time>
      </trkpt>
      <trkpt lat="45.77131" lon="4.81425">
        <ele>190</ele>
        <time>2013-02-22T21:49:50Z</time>
      </trkpt>
      <trkpt lat="45.77132" lon="4.81427">
        <ele>190</ele>
        <time>2013-02-22T21:49:51Z</time>
      </trkpt>
      <trkpt lat="45.77132" lon="4.81429">
        <ele>190</ele>
        <time>2013-02-22T21:49:52Z</time>
      </trkpt>
      <trkpt lat="45.77133" lon="4.81432">
        <ele>191</ele>
        <time>2013-02-22T21:49:55Z</time>
      </trkpt>
      <trkpt lat="45.77133" lon="4.81433">
        <ele>191</ele>
        <time>2013-02-22T21:49:56Z</time>
      </trkpt>
      <trkpt lat="45.77134" lon="4.81435">
        <ele>191</ele>
        <time>2013-02-22T21:49:59Z</time>
      </trkpt>
      <trkpt lat="45.77134" lon="4.81437">
        <ele>191</ele>
        <time>2013-02-22T21:50:02Z</time>
      </trkpt>
      <trkpt lat="45.77135" lon="4.81439">
        <ele>191</ele>
        <time>2013-02-22T21:50:03Z</time>
      </trkpt>
      <trkpt lat="45.77135" lon="4.81442">
        <ele>192</ele>
        <time>2013-02-22T21:50:05Z</time>
      </trkpt>
      <trkpt lat="45.77134" lon="4.81445">
        <ele>192</ele>
        <time>2013-02-22T21:50:07Z</time>
      </trkpt>
      <trkpt lat="45.77135" lon="4.81454">
        <ele>193</ele>
        <time>2013-02-22T21:50:14Z</time>
      </trkpt>
      <trkpt lat="45.77136" lon="4.81459">
        <ele>194</ele>
        <time>2013-02-22T21:50:21Z</time>
      </trkpt>
      <trkpt lat="45.77136" lon="4.8146">
        <ele>194</ele>
        <time>2013-02-22T21:50:22Z</time>
      </trkpt>
      <trkpt lat="45.7714" lon="4.8146">
        <ele>194</ele>
        <time>2013-02-22T21:50:25Z</time>
      </trkpt>
      <trkpt lat="45.77141" lon="4.8146">
        <ele>194</ele>
        <time>2013-02-22T21:50:26Z</time>
      </trkpt>
      <trkpt lat="45.77142" lon="4.8146">
        <ele>194</ele>
        <time>2013-02-22T21:50:27Z</time>
      </trkpt>
      <trkpt lat="45.77142" lon="4.8146">
        <ele>194</ele>
        <time>2013-02-22T21:50:28Z</time>
      </trkpt>
      <trkpt lat="45.77146" lon="4.81462">
        <ele>194</ele>
        <time>2013-02-22T21:50:32Z</time>
      </trkpt>
      <trkpt lat="45.77146" lon="4.81464">
        <ele>194</ele>
        <time>2013-02-22T21:50:33Z</time>
      </trkpt>
      <trkpt lat="45.77147" lon="4.81465">
        <ele>194</ele>
        <time>2013-02-22T21:50:34Z</time>
      </trkpt>
      <trkpt lat="45.77147" lon="4.81468">
        <ele>195</ele>
        <time>2013-02-22T21:50:36Z</time>
      </trkpt>
      <trkpt lat="45.7715" lon="4.81473">
        <ele>195</ele>
        <time>2013-02-22T21:50:40Z</time>
      </trkpt>
      <trkpt lat="45.77151" lon="4.81475">
        <ele>196</ele>
        <time>2013-02-22T21:50:42Z</time>
      </trkpt>
      <trkpt lat="45.77152" lon="4.81477">
        <ele>196</ele>
        <time>2013-02-22T21:50:45Z</time>
      </trkpt>
      <trkpt lat="45.77153" lon="4.81478">
        <ele>196</ele>
        <time>2013-02-22T21:50:46Z</time>
      </trkpt>
      <trkpt lat="45.77156" lon="4.81482">
        <ele>197</ele>
        <time>2013-02-22T21:50:50Z</time>
      </trkpt>
      <trkpt lat="45.77158" lon="4.81486">
        <ele>198</ele>
        <time>2013-02-22T21:50:53Z</time>
      </trkpt>
      <trkpt lat="45.77162" lon="4.81491">
        <ele>199</ele>
        <time>2013-02-22T21:50:58Z</time>
      </trkpt>
      <trkpt lat="45.7716" lon="4.81494">
        <ele>199</ele>
        <time>2013-02-22T21:51:00Z</time>
      </trkpt>
      <trkpt lat="45.77158" lon="4.81496">
        <ele>199</ele>
        <time>2013-02-22T21:51:02Z</time>
      </trkpt>
      <trkpt lat="45.77156" lon="4.81497">
        <ele>199</ele>
        <time>2013-02-22T21:51:04Z</time>
      </trkpt>
      <trkpt lat="45.77153" lon="4.81497">
        <ele>199</ele>
        <time>2013-02-22T21:51:07Z</time>
      </trkpt>
      <trkpt lat="45.77146" lon="4.81499">
        <ele>198</ele>
        <time>2013-02-22T21:51:14Z</time>
      </trkpt>
      <trkpt lat="45.77144" lon="4.81502">
        <ele>207</ele>
        <time>2013-02-22T21:51:19Z</time>
      </trkpt>
      <trkpt lat="45.77143" lon="4.81507">
        <ele>207</ele>
        <time>2013-02-22T21:51:22Z</time>
      </trkpt>
      <trkpt lat="45.77143" lon="4.81508">
        <ele>207</ele>
        <time>2013-02-22T21:51:23Z</time>
      </trkpt>
      <trkpt lat="45.77143" lon="4.81514">
        <ele>208</ele>
        <time>2013-02-22T21:51:27Z</time>
      </trkpt>
      <trkpt lat="45.77142" lon="4.81525">
        <ele>209</ele>
        <time>2013-02-22T21:51:35Z</time>
      </trkpt>
      <trkpt lat="45.77142" lon="4.81528">
        <ele>209</ele>
        <time>2013-02-22T21:51:37Z</time>
      </trkpt>
      <trkpt lat="45.77144" lon="4.81534">
        <ele>210</ele>
        <time>2013-02-22T21:51:41Z</time>
      </trkpt>
      <trkpt lat="45.77145" lon="4.81536">
        <ele>210</ele>
        <time>2013-02-22T21:51:43Z</time>
      </trkpt>
      <trkpt lat="45.77148" lon="4.8154">
        <ele>211</ele>
        <time>2013-02-22T21:51:47Z</time>
      </trkpt>
      <trkpt lat="45.77154" lon="4.81545">
        <ele>211</ele>
        <time>2013-02-22T21:51:51Z</time>
      </trkpt>
      <trkpt lat="45.77157" lon="4.81552">
        <ele>212</ele>
        <time>2013-02-22T21:51:55Z</time>
      </trkpt>
      <trkpt lat="45.77157" lon="4.81557">
        <ele>213</ele>
        <time>2013-02-22T21:51:58Z</time>
      </trkpt>
      <trkpt lat="45.77156" lon="4.81561">
        <ele>214</ele>
        <time>2013-02-22T21:52:00Z</time>
      </trkpt>
      <trkpt lat="45.77153" lon="4.81565">
        <ele>214</ele>
        <time>2013-02-22T21:52:03Z</time>
      </trkpt>
      <trkpt lat="45.77147" lon="4.81575">
        <ele>215</ele>
        <time>2013-02-22T21:52:09Z</time>
      </trkpt>
      <trkpt lat="45.77146" lon="4.81577">
        <ele>215</ele>
        <time>2013-02-22T21:52:10Z</time>
      </trkpt>
      <trkpt lat="45.77143" lon="4.81586">
        <ele>221</ele>
        <time>2013-02-22T21:52:17Z</time>
      </trkpt>
      <trkpt lat="45.77142" lon="4.81596">
        <ele>222</ele>
        <time>2013-02-22T21:52:25Z</time>
      </trkpt>
      <trkpt lat="45.77142" lon="4.81599">
        <ele>222</ele>
        <time>2013-02-22T21:52:27Z</time>
      </trkpt>
      <trkpt lat="45.77142" lon="4.816">
        <ele>222</ele>
        <time>2013-02-22T21:52:28Z</time>
      </trkpt>
      <trkpt lat="45.7714" lon="4.81603">
        <ele>222</ele>
        <time>2013-02-22T21:52:31Z</time>
      </trkpt>
      <trkpt lat="45.7714" lon="4.81604">
        <ele>222</ele>
        <time>2013-02-22T21:52:32Z</time>
      </trkpt>
      <trkpt lat="45.7714" lon="4.81605">
        <ele>222</ele>
        <time>2013-02-22T21:52:33Z</time>
      </trkpt>
      <trkpt lat="45.77141" lon="4.8161">
        <ele>223</ele>
        <time>2013-02-22T21:52:38Z</time>
      </trkpt>
      <trkpt lat="45.7714" lon="4.81611">
        <ele>223</ele>
        <time>2013-02-22T21:52:46Z</time>
      </trkpt>
      <trkpt lat="45.77139" lon="4.81614">
        <ele>223</ele>
        <time>2013-02-22T21:53:14Z</time>
      </trkpt>
      <trkpt lat="45.77136" lon="4.81615">
        <ele>223</ele>
        <time>2013-02-22T21:53:24Z</time>
      </trkpt>
      <trkpt lat="45.77133" lon="4.81611">
        <ele>222</ele>
        <time>2013-02-22T21:53:27Z</time>
      </trkpt>
      <trkpt lat="45.77122" lon="4.81604">
        <ele>222</ele>
        <time>2013-02-22T21:53:34Z</time>
      </trkpt>
      <trkpt lat="45.77119" lon="4.81604">
        <ele>222</ele>
        <time>2013-02-22T21:53:35Z</time>
      </trkpt>
      <trkpt lat="45.77108" lon="4.81601">
        <ele>221</ele>
        <time>2013-02-22T21:53:39Z</time>
      </trkpt>
      <trkpt lat="45.771" lon="4.81599">
        <ele>220</ele>
        <time>2013-02-22T21:53:42Z</time>
      </trkpt>
      <trkpt lat="45.77087" lon="4.816">
        <ele>220</ele>
        <time>2013-02-22T21:53:46Z</time>
      </trkpt>
      <trkpt lat="45.77082" lon="4.81598">
        <ele>216</ele>
        <time>2013-02-22T21:53:48Z</time>
      </trkpt>
      <trkpt lat="45.77072" lon="4.81595">
        <ele>216</ele>
        <time>2013-02-22T21:53:53Z</time>
      </trkpt>
      <trkpt lat="45.77064" lon="4.81593">
        <ele>216</ele>
        <time>2013-02-22T21:53:56Z</time>
      </trkpt>
      <trkpt lat="45.77055" lon="4.81594">
        <ele>215</ele>
        <time>2013-02-22T21:53:59Z</time>
      </trkpt>
      <trkpt lat="45.77044" lon="4.81597">
        <ele>214</ele>
        <time>2013-02-22T21:54:03Z</time>
      </trkpt>
      <trkpt lat="45.77042" lon="4.81597">
        <ele>214</ele>
        <time>2013-02-22T21:54:04Z</time>
      </trkpt>
      <trkpt lat="45.77029" lon="4.81601">
        <ele>213</ele>
        <time>2013-02-22T21:54:10Z</time>
      </trkpt>
      <trkpt lat="45.77026" lon="4.81601">
        <ele>212</ele>
        <time>2013-02-22T21:54:11Z</time>
      </trkpt>
      <trkpt lat="45.77015" lon="4.81603">
        <ele>211</ele>
        <time>2013-02-22T21:54:16Z</time>
      </trkpt>
      <trkpt lat="45.7701" lon="4.81602">
        <ele>211</ele>
        <time>2013-02-22T21:54:18Z</time>
      </trkpt>
      <trkpt lat="45.77009" lon="4.81599">
        <ele>210</ele>
        <time>2013-02-22T21:54:19Z</time>
      </trkpt>
      <trkpt lat="45.77008" lon="4.81596">
        <ele>209</ele>
        <time>2013-02-22T21:54:20Z</time>
      </trkpt>
      <trkpt lat="45.77003" lon="4.81576">
        <ele>204</ele>
        <time>2013-02-22T21:54:26Z</time>
      </trkpt>
      <trkpt lat="45.77002" lon="4.81573">
        <ele>203</ele>
        <time>2013-02-22T21:54:27Z</time>
      </trkpt>
      <trkpt lat="45.76998" lon="4.81559">
        <ele>195</ele>
        <time>2013-02-22T21:54:33Z</time>
      </trkpt>
      <trkpt lat="45.76997" lon="4.81554">
        <ele>194</ele>
        <time>2013-02-22T21:54:38Z</time>
      </trkpt>
      <trkpt lat="45.76997" lon="4.81552">
        <ele>193</ele>
        <time>2013-02-22T21:54:40Z</time>
      </trkpt>
      <trkpt lat="45.76996" lon="4.8155">
        <ele>193</ele>
        <time>2013-02-22T21:54:42Z</time>
      </trkpt>
      <trkpt lat="45.76995" lon="4.81548">
        <ele>193</ele>
        <time>2013-02-22T21:54:44Z</time>
      </trkpt>
      <trkpt lat="45.76992" lon="4.81546">
        <ele>192</ele>
        <time>2013-02-22T21:54:46Z</time>
      </trkpt>
      <trkpt lat="45.76987" lon="4.81538">
        <ele>191</ele>
        <time>2013-02-22T21:54:52Z</time>
      </trkpt>
      <trkpt lat="45.76985" lon="4.81536">
        <ele>191</ele>
        <time>2013-02-22T21:54:55Z</time>
      </trkpt>
      <trkpt lat="45.76983" lon="4.81538">
        <ele>191</ele>
        <time>2013-02-22T21:54:57Z</time>
      </trkpt>
      <trkpt lat="45.76982" lon="4.81541">
        <ele>191</ele>
        <time>2013-02-22T21:54:59Z</time>
      </trkpt>
      <trkpt lat="45.76981" lon="4.81542">
        <ele>191</ele>
        <time>2013-02-22T21:55:00Z</time>
      </trkpt>
      <trkpt lat="45.76978" lon="4.81545">
        <ele>191</ele>
        <time>2013-02-22T21:55:05Z</time>
      </trkpt>
      <trkpt lat="45.7697" lon="4.81551">
        <ele>191</ele>
        <time>2013-02-22T21:55:11Z</time>
      </trkpt>
      <trkpt lat="45.76963" lon="4.81553">
        <ele>191</ele>
        <time>2013-02-22T21:55:17Z</time>
      </trkpt>
      <trkpt lat="45.76961" lon="4.81556">
        <ele>191</ele>
        <time>2013-02-22T21:55:18Z</time>
      </trkpt>
      <trkpt lat="45.76956" lon="4.81559">
        <ele>191</ele>
        <time>2013-02-22T21:55:21Z</time>
      </trkpt>
      <trkpt lat="45.76954" lon="4.81559">
        <ele>191</ele>
        <time>2013-02-22T21:55:23Z</time>
      </trkpt>
      <trkpt lat="45.76951" lon="4.81555">
        <ele>190</ele>
        <time>2013-02-22T21:55:27Z</time>
      </trkpt>
      <trkpt lat="45.76948" lon="4.81554">
        <ele>190</ele>
        <time>2013-02-22T21:55:29Z</time>
      </trkpt>
      <trkpt lat="45.76947" lon="4.81552">
        <ele>190</ele>
        <time>2013-02-22T21:55:30Z</time>
      </trkpt>
      <trkpt lat="45.76939" lon="4.81547">
        <ele>189</ele>
        <time>2013-02-22T21:55:35Z</time>
      </trkpt>
      <trkpt lat="45.76929" lon="4.81552">
        <ele>189</ele>
        <time>2013-02-22T21:55:40Z</time>
      </trkpt>
      <trkpt lat="45.76927" lon="4.81553">
        <ele>189</ele>
        <time>2013-02-22T21:55:41Z</time>
      </trkpt>
      <trkpt lat="45.76921" lon="4.81558">
        <ele>189</ele>
        <time>2013-02-22T21:55:44Z</time>
      </trkpt>
      <trkpt lat="45.76919" lon="4.8156">
        <ele>189</ele>
        <time>2013-02-22T21:55:45Z</time>
      </trkpt>
      <trkpt lat="45.76914" lon="4.8157">
        <ele>184</ele>
        <time>2013-02-22T21:55:48Z</time>
      </trkpt>
      <trkpt lat="45.7691" lon="4.8158">
        <ele>185</ele>
        <time>2013-02-22T21:55:51Z</time>
      </trkpt>
      <trkpt lat="45.76904" lon="4.81593">
        <ele>186</ele>
        <time>2013-02-22T21:55:55Z</time>
      </trkpt>
      <trkpt lat="45.76903" lon="4.81596">
        <ele>186</ele>
        <time>2013-02-22T21:55:56Z</time>
      </trkpt>
      <trkpt lat="45.76897" lon="4.81608">
        <ele>185</ele>
        <time>2013-02-22T21:56:00Z</time>
      </trkpt>
      <trkpt lat="45.76893" lon="4.81615">
        <ele>185</ele>
        <time>2013-02-22T21:56:02Z</time>
      </trkpt>
      <trkpt lat="45.76888" lon="4.81623">
        <ele>185</ele>
        <time>2013-02-22T21:56:05Z</time>
      </trkpt>
      <trkpt lat="45.76881" lon="4.81637">
        <ele>185</ele>
        <time>2013-02-22T21:56:09Z</time>
      </trkpt>
      <trkpt lat="45.76879" lon="4.8164">
        <ele>185</ele>
        <time>2013-02-22T21:56:10Z</time>
      </trkpt>
      <trkpt lat="45.76873" lon="4.81642">
        <ele>184</ele>
        <time>2013-02-22T21:56:12Z</time>
      </trkpt>
      <trkpt lat="45.76868" lon="4.8164">
        <ele>183</ele>
        <time>2013-02-22T21:56:14Z</time>
      </trkpt>
      <trkpt lat="45.76865" lon="4.81636">
        <ele>183</ele>
        <time>2013-02-22T21:56:15Z</time>
      </trkpt>
      <trkpt lat="45.76862" lon="4.81624">
        <ele>182</ele>
        <time>2013-02-22T21:56:18Z</time>
      </trkpt>
      <trkpt lat="45.76865" lon="4.81611">
        <ele>182</ele>
        <time>2013-02-22T21:56:22Z</time>
      </trkpt>
      <trkpt lat="45.76864" lon="4.81604">
        <ele>181</ele>
        <time>2013-02-22T21:56:24Z</time>
      </trkpt>
      <trkpt lat="45.76863" lon="4.81592">
        <ele>181</ele>
        <time>2013-02-22T21:56:27Z</time>
      </trkpt>
      <trkpt lat="45.76862" lon="4.81582">
        <ele>177</ele>
        <time>2013-02-22T21:56:30Z</time>
      </trkpt>
      <trkpt lat="45.76863" lon="4.81579">
        <ele>177</ele>
        <time>2013-02-22T21:56:31Z</time>
      </trkpt>
      <trkpt lat="45.76863" lon="4.81577">
        <ele>177</ele>
        <time>2013-02-22T21:56:32Z</time>
      </trkpt>
      <trkpt lat="45.76865" lon="4.81572">
        <ele>178</ele>
        <time>2013-02-22T21:56:35Z</time>
      </trkpt>
      <trkpt lat="45.76866" lon="4.81566">
        <ele>178</ele>
        <time>2013-02-22T21:56:40Z</time>
      </trkpt>
      <trkpt lat="45.76866" lon="4.81564">
        <ele>178</ele>
        <time>2013-02-22T21:56:41Z</time>
      </trkpt>
      <trkpt lat="45.76865" lon="4.81562">
        <ele>178</ele>
        <time>2013-02-22T21:56:44Z</time>
      </trkpt>
      <trkpt lat="45.76866" lon="4.81563">
        <ele>178</ele>
        <time>2013-02-22T21:56:46Z</time>
      </trkpt>
      <trkpt lat="45.76864" lon="4.81562">
        <ele>178</ele>
        <time>2013-02-22T21:56:57Z</time>
      </trkpt>
      <trkpt lat="45.76864" lon="4.8156">
        <ele>178</ele>
        <time>2013-02-22T21:57:02Z</time>
      </trkpt>
      <trkpt lat="45.76865" lon="4.8156">
        <ele>178</ele>
        <time>2013-02-22T21:57:11Z</time>
      </trkpt>
      <trkpt lat="45.76867" lon="4.81561">
        <ele>178</ele>
        <time>2013-02-22T21:57:21Z</time>
      </trkpt>
      <trkpt lat="45.76864" lon="4.81558">
        <ele>178</ele>
        <time>2013-02-22T21:57:41Z</time>
      </trkpt>
      <trkpt lat="45.7687" lon="4.8155">
        <ele>178</ele>
        <time>2013-02-22T21:58:27Z</time>
      </trkpt>
      <trkpt lat="45.76871" lon="4.81546">
        <ele>178</ele>
        <time>2013-02-22T21:58:32Z</time>
      </trkpt>
      <trkpt lat="45.76874" lon="4.81543">
        <ele>178</ele>
        <time>2013-02-22T21:58:48Z</time>
      </trkpt>
      <trkpt lat="45.76871" lon="4.81542">
        <ele>178</ele>
        <time>2013-02-22T21:59:14Z</time>
      </trkpt>
      <trkpt lat="45.76868" lon="4.81547">
        <ele>178</ele>
        <time>2013-02-22T21:59:18Z</time>
      </trkpt>
      <trkpt lat="45.76868" lon="4.81554">
        <ele>178</ele>
        <time>2013-02-22T21:59:22Z</time>
      </trkpt>
      <trkpt lat="45.76869" lon="4.81556">
        <ele>178</ele>
        <time>2013-02-22T21:59:25Z</time>
      </trkpt>
      <trkpt lat="45.76869" lon="4.81557">
        <ele>178</ele>
        <time>2013-02-22T21:59:26Z</time>
      </trkpt>
      <trkpt lat="45.76869" lon="4.81559">
        <ele>178</ele>
        <time>2013-02-22T21:59:28Z</time>
      </trkpt>
      <trkpt lat="45.76869" lon="4.81559">
        <ele>178</ele>
        <time>2013-02-22T21:59:29Z</time>
      </trkpt>
      <trkpt lat="45.76872" lon="4.81561">
        <ele>179</ele>
        <time>2013-02-22T21:59:37Z</time>
      </trkpt>
      <trkpt lat="45.76871" lon="4.81565">
        <ele>178</ele>
        <time>2013-02-22T21:59:47Z</time>
      </trkpt>
      <trkpt lat="45.76869" lon="4.81566">
        <ele>178</ele>
        <time>2013-02-22T21:59:49Z</time>
      </trkpt>
      <trkpt lat="45.76868" lon="4.81565">
        <ele>178</ele>
        <time>2013-02-22T21:59:50Z</time>
      </trkpt>
      <trkpt lat="45.76865" lon="4.81565">
        <ele>178</ele>
        <time>2013-02-22T21:59:53Z</time>
      </trkpt>
      <trkpt lat="45.76862" lon="4.81567">
        <ele>177</ele>
        <time>2013-02-22T21:59:56Z</time>
      </trkpt>
      <trkpt lat="45.76856" lon="4.81568">
        <ele>177</ele>
        <time>2013-02-22T22:00:01Z</time>
      </trkpt>
      <trkpt lat="45.76851" lon="4.81567">
        <ele>176</ele>
        <time>2013-02-22T22:00:04Z</time>
      </trkpt>
      <trkpt lat="45.76847" lon="4.81566">
        <ele>176</ele>
        <time>2013-02-22T22:00:08Z</time>
      </trkpt>
      <trkpt lat="45.76841" lon="4.81561">
        <ele>176</ele>
        <time>2013-02-22T22:00:14Z</time>
      </trkpt>
      <trkpt lat="45.76836" lon="4.81566">
        <ele>175</ele>
        <time>2013-02-22T22:00:19Z</time>
      </trkpt>
      <trkpt lat="45.76835" lon="4.81568">
        <ele>175</ele>
        <time>2013-02-22T22:00:20Z</time>
      </trkpt>
      <trkpt lat="45.7683" lon="4.81577">
        <ele>171</ele>
        <time>2013-02-22T22:00:24Z</time>
      </trkpt>
      <trkpt lat="45.76823" lon="4.81588">
        <ele>171</ele>
        <time>2013-02-22T22:00:28Z</time>
      </trkpt>
      <trkpt lat="45.76821" lon="4.81591">
        <ele>171</ele>
        <time>2013-02-22T22:00:29Z</time>
      </trkpt>
      <trkpt lat="45.76814" lon="4.81608">
        <ele>171</ele>
        <time>2013-02-22T22:00:35Z</time>
      </trkpt>
      <trkpt lat="45.76812" lon="4.81612">
        <ele>171</ele>
        <time>2013-02-22T22:00:36Z</time>
      </trkpt>
      <trkpt lat="45.76804" lon="4.81631">
        <ele>171</ele>
        <time>2013-02-22T22:00:42Z</time>
      </trkpt>
      <trkpt lat="45.76803" lon="4.81636">
        <ele>171</ele>
        <time>2013-02-22T22:00:44Z</time>
      </trkpt>
      <trkpt lat="45.76801" lon="4.81644">
        <ele>171</ele>
        <time>2013-02-22T22:00:47Z</time>
      </trkpt>
      <trkpt lat="45.76795" lon="4.81661">
        <ele>171</ele>
        <time>2013-02-22T22:00:53Z</time>
      </trkpt>
      <trkpt lat="45.76788" lon="4.81681">
        <ele>172</ele>
        <time>2013-02-22T22:00:59Z</time>
      </trkpt>
      <trkpt lat="45.76787" lon="4.81684">
        <ele>171</ele>
        <time>2013-02-22T22:01:00Z</time>
      </trkpt>
      <trkpt lat="45.76784" lon="4.81702">
        <ele>171</ele>
        <time>2013-02-22T22:01:05Z</time>
      </trkpt>
      <trkpt lat="45.76783" lon="4.81713">
        <ele>172</ele>
        <time>2013-02-22T22:01:08Z</time>
      </trkpt>
      <trkpt lat="45.76781" lon="4.81723">
        <ele>171</ele>
        <time>2013-02-22T22:01:11Z</time>
      </trkpt>
      <trkpt lat="45.76778" lon="4.8174">
        <ele>171</ele>
        <time>2013-02-22T22:01:16Z</time>
      </trkpt>
      <trkpt lat="45.76775" lon="4.8176">
        <ele>172</ele>
        <time>2013-02-22T22:01:22Z</time>
      </trkpt>
      <trkpt lat="45.76774" lon="4.81767">
        <ele>172</ele>
        <time>2013-02-22T22:01:24Z</time>
      </trkpt>
      <trkpt lat="45.76773" lon="4.81782">
        <ele>172</ele>
        <time>2013-02-22T22:01:28Z</time>
      </trkpt>
      <trkpt lat="45.76771" lon="4.81793">
        <ele>173</ele>
        <time>2013-02-22T22:01:31Z</time>
      </trkpt>
      <trkpt lat="45.76769" lon="4.81803">
        <ele>173</ele>
        <time>2013-02-22T22:01:34Z</time>
      </trkpt>
      <trkpt lat="45.76767" lon="4.8182">
        <ele>172</ele>
        <time>2013-02-22T22:01:39Z</time>
      </trkpt>
      <trkpt lat="45.76766" lon="4.81824">
        <ele>172</ele>
        <time>2013-02-22T22:01:40Z</time>
      </trkpt>
      <trkpt lat="45.76765" lon="4.81846">
        <ele>174</ele>
        <time>2013-02-22T22:01:46Z</time>
      </trkpt>
      <trkpt lat="45.76768" lon="4.81866">
        <ele>176</ele>
        <time>2013-02-22T22:01:51Z</time>
      </trkpt>
      <trkpt lat="45.76769" lon="4.81873">
        <ele>176</ele>
        <time>2013-02-22T22:01:53Z</time>
      </trkpt>
      <trkpt lat="45.76771" lon="4.81888">
        <ele>177</ele>
        <time>2013-02-22T22:01:57Z</time>
      </trkpt>
      <trkpt lat="45.76773" lon="4.81899">
        <ele>177</ele>
        <time>2013-02-22T22:02:00Z</time>
      </trkpt>
      <trkpt lat="45.76775" lon="4.81902">
        <ele>177</ele>
        <time>2013-02-22T22:02:02Z</time>
      </trkpt>
      <trkpt lat="45.76777" lon="4.81902">
        <ele>177</ele>
        <time>2013-02-22T22:02:03Z</time>
      </trkpt>
      <trkpt lat="45.76784" lon="4.81903">
        <ele>178</ele>
        <time>2013-02-22T22:02:06Z</time>
      </trkpt>
      <trkpt lat="45.76791" lon="4.81901">
        <ele>178</ele>
        <time>2013-02-22T22:02:09Z</time>
      </trkpt>
      <trkpt lat="45.76797" lon="4.81902">
        <ele>179</ele>
        <time>2013-02-22T22:02:11Z</time>
      </trkpt>
      <trkpt lat="45.76809" lon="4.81902">
        <ele>180</ele>
        <time>2013-02-22T22:02:17Z</time>
      </trkpt>
      <trkpt lat="45.76816" lon="4.819">
        <ele>180</ele>
        <time>2013-02-22T22:02:22Z</time>
      </trkpt>
      <trkpt lat="45.76818" lon="4.819">
        <ele>181</ele>
        <time>2013-02-22T22:02:23Z</time>
      </trkpt>
      <trkpt lat="45.76818" lon="4.81899">
        <ele>181</ele>
        <time>2013-02-22T22:02:26Z</time>
      </trkpt>
      <trkpt lat="45.76823" lon="4.81896">
        <ele>181</ele>
        <time>2013-02-22T22:02:33Z</time>
      </trkpt>
      <trkpt lat="45.76826" lon="4.81897">
        <ele>181</ele>
        <time>2013-02-22T22:02:36Z</time>
      </trkpt>
      <trkpt lat="45.76826" lon="4.81897">
        <ele>181</ele>
        <time>2013-02-22T22:02:38Z</time>
      </trkpt>
      <trkpt lat="45.76828" lon="4.81899">
        <ele>181</ele>
        <time>2013-02-22T22:02:42Z</time>
      </trkpt>
      <trkpt lat="45.76828" lon="4.81898">
        <ele>181</ele>
        <time>2013-02-22T22:02:45Z</time>
      </trkpt>
      <trkpt lat="45.76828" lon="4.819">
        <ele>181</ele>
        <time>2013-02-22T22:02:49Z</time>
      </trkpt>
      <trkpt lat="45.76827" lon="4.81901">
        <ele>181</ele>
        <time>2013-02-22T22:02:52Z</time>
      </trkpt>
      <trkpt lat="45.76835" lon="4.81898">
        <ele>191</ele>
        <time>2013-02-22T22:03:03Z</time>
      </trkpt>
      <trkpt lat="45.76838" lon="4.81897">
        <ele>192</ele>
        <time>2013-02-22T22:03:06Z</time>
      </trkpt>
      <trkpt lat="45.76842" lon="4.81901">
        <ele>191</ele>
        <time>2013-02-22T22:03:12Z</time>
      </trkpt>
      <trkpt lat="45.76843" lon="4.81903">
        <ele>191</ele>
        <time>2013-02-22T22:03:14Z</time>
      </trkpt>
      <trkpt lat="45.76843" lon="4.81901">
        <ele>192</ele>
        <time>2013-02-22T22:03:17Z</time>
      </trkpt>
      <trkpt lat="45.76845" lon="4.81902">
        <ele>192</ele>
        <time>2013-02-22T22:03:18Z</time>
      </trkpt>
      <trkpt lat="45.7685" lon="4.81902">
        <ele>193</ele>
        <time>2013-02-22T22:03:31Z</time>
      </trkpt>
      <trkpt lat="45.7685" lon="4.81907">
        <ele>192</ele>
        <time>2013-02-22T22:03:34Z</time>
      </trkpt>
      <trkpt lat="45.76848" lon="4.81916">
        <ele>191</ele>
        <time>2013-02-22T22:03:39Z</time>
      </trkpt>
      <trkpt lat="45.76848" lon="4.81917">
        <ele>193</ele>
        <time>2013-02-22T22:03:40Z</time>
      </trkpt>
      <trkpt lat="45.76849" lon="4.81921">
        <ele>193</ele>
        <time>2013-02-22T22:03:43Z</time>
      </trkpt>
      <trkpt lat="45.7685" lon="4.81923">
        <ele>194</ele>
        <time>2013-02-22T22:03:44Z</time>
      </trkpt>
      <trkpt lat="45.7685" lon="4.81927">
        <ele>194</ele>
        <time>2013-02-22T22:03:46Z</time>
      </trkpt>
      <trkpt lat="45.76849" lon="4.81929">
        <ele>194</ele>
        <time>2013-02-22T22:03:47Z</time>
      </trkpt>
      <trkpt lat="45.76849" lon="4.81931">
        <ele>194</ele>
        <time>2013-02-22T22:03:48Z</time>
      </trkpt>
      <trkpt lat="45.7685" lon="4.81936">
        <ele>195</ele>
        <time>2013-02-22T22:03:54Z</time>
      </trkpt>
      <trkpt lat="45.7685" lon="4.81941">
        <ele>196</ele>
        <time>2013-02-22T22:04:00Z</time>
      </trkpt>
      <trkpt lat="45.76847" lon="4.81945">
        <ele>196</ele>
        <time>2013-02-22T22:04:04Z</time>
      </trkpt>
      <trkpt lat="45.76847" lon="4.81947">
        <ele>196</ele>
        <time>2013-02-22T22:04:06Z</time>
      </trkpt>
      <trkpt lat="45.76846" lon="4.81953">
        <ele>196</ele>
        <time>2013-02-22T22:04:10Z</time>
      </trkpt>
      <trkpt lat="45.76848" lon="4.81956">
        <ele>197</ele>
        <time>2013-02-22T22:04:13Z</time>
      </trkpt>
      <trkpt lat="45.76848" lon="4.81957">
        <ele>197</ele>
        <time>2013-02-22T22:04:15Z</time>
      </trkpt>
      <trkpt lat="45.76847" lon="4.81957">
        <ele>197</ele>
        <time>2013-02-22T22:04:17Z</time>
      </trkpt>
      <trkpt lat="45.76848" lon="4.81957">
        <ele>197</ele>
        <time>2013-02-22T22:04:18Z</time>
      </trkpt>
      <trkpt lat="45.76848" lon="4.81957">
        <ele>197</ele>
        <time>2013-02-22T22:04:19Z</time>
      </trkpt>
      <trkpt lat="45.76849" lon="4.81956">
        <ele>197</ele>
        <time>2013-02-22T22:04:20Z</time>
      </trkpt>
      <trkpt lat="45.7685" lon="4.81952">
        <ele>197</ele>
        <time>2013-02-22T22:04:25Z</time>
      </trkpt>
      <trkpt lat="45.76851" lon="4.81946">
        <ele>197</ele>
        <time>2013-02-22T22:04:29Z</time>
      </trkpt>
      <trkpt lat="45.76852" lon="4.81941">
        <ele>196</ele>
        <time>2013-02-22T22:04:39Z</time>
      </trkpt>
      <trkpt lat="45.76859" lon="4.81938">
        <ele>197</ele>
        <time>2013-02-22T22:04:50Z</time>
      </trkpt>
      <trkpt lat="45.7686" lon="4.81937">
        <ele>198</ele>
        <time>2013-02-22T22:04:52Z</time>
      </trkpt>
      <trkpt lat="45.76862" lon="4.81936">
        <ele>198</ele>
        <time>2013-02-22T22:04:55Z</time>
      </trkpt>
      <trkpt lat="45.76864" lon="4.81936">
        <ele>199</ele>
        <time>2013-02-22T22:04:58Z</time>
      </trkpt>
      <trkpt lat="45.76865" lon="4.81934">
        <ele>199</ele>
        <time>2013-02-22T22:05:02Z</time>
      </trkpt>
      <trkpt lat="45.7687" lon="4.81928">
        <ele>200</ele>
        <time>2013-02-22T22:05:09Z</time>
      </trkpt>
      <trkpt lat="45.76872" lon="4.81927">
        <ele>200</ele>
        <time>2013-02-22T22:05:11Z</time>
      </trkpt>
      <trkpt lat="45.76876" lon="4.81934">
        <ele>202</ele>
        <time>2013-02-22T22:05:17Z</time>
      </trkpt>
      <trkpt lat="45.76877" lon="4.81934">
        <ele>202</ele>
        <time>2013-02-22T22:05:18Z</time>
      </trkpt>
      <trkpt lat="45.7688" lon="4.81945">
        <ele>202</ele>
        <time>2013-02-22T22:06:39Z</time>
      </trkpt>
      <trkpt lat="45.76879" lon="4.81944">
        <ele>202</ele>
        <time>2013-02-22T22:06:41Z</time>
      </trkpt>
      <trkpt lat="45.76874" lon="4.81948">
        <ele>201</ele>
        <time>2013-02-22T22:06:45Z</time>
      </trkpt>
      <trkpt lat="45.76865" lon="4.81957">
        <ele>199</ele>
        <time>2013-02-22T22:06:50Z</time>
      </trkpt>
      <trkpt lat="45.76863" lon="4.81959">
        <ele>199</ele>
        <time>2013-02-22T22:06:51Z</time>
      </trkpt>
      <trkpt lat="45.76858" lon="4.81974">
        <ele>198</ele>
        <time>2013-02-22T22:06:55Z</time>
      </trkpt>
      <trkpt lat="45.76857" lon="4.81986">
        <ele>197</ele>
        <time>2013-02-22T22:06:58Z</time>
      </trkpt>
      <trkpt lat="45.76857" lon="4.8199">
        <ele>196</ele>
        <time>2013-02-22T22:06:59Z</time>
      </trkpt>
      <trkpt lat="45.76859" lon="4.82014">
        <ele>197</ele>
        <time>2013-02-22T22:07:05Z</time>
      </trkpt>
      <trkpt lat="45.76865" lon="4.8203">
        <ele>198</ele>
        <time>2013-02-22T22:07:09Z</time>
      </trkpt>
      <trkpt lat="45.7687" lon="4.82037">
        <ele>199</ele>
        <time>2013-02-22T22:07:12Z</time>
      </trkpt>
      <trkpt lat="45.76871" lon="4.82043">
        <ele>200</ele>
        <time>2013-02-22T22:07:14Z</time>
      </trkpt>
      <trkpt lat="45.76872" lon="4.82056">
        <ele>200</ele>
        <time>2013-02-22T22:07:19Z</time>
      </trkpt>
      <trkpt lat="45.76869" lon="4.82064">
        <ele>199</ele>
        <time>2013-02-22T22:07:23Z</time>
      </trkpt>
      <trkpt lat="45.76862" lon="4.82075">
        <ele>197</ele>
        <time>2013-02-22T22:07:27Z</time>
      </trkpt>
      <trkpt lat="45.76862" lon="4.82086">
        <ele>195</ele>
        <time>2013-02-22T22:07:30Z</time>
      </trkpt>
      <trkpt lat="45.76862" lon="4.82089">
        <ele>195</ele>
        <time>2013-02-22T22:07:31Z</time>
      </trkpt>
      <trkpt lat="45.76862" lon="4.82099">
        <ele>196</ele>
        <time>2013-02-22T22:07:34Z</time>
      </trkpt>
      <trkpt lat="45.76863" lon="4.82105">
        <ele>196</ele>
        <time>2013-02-22T22:07:36Z</time>
      </trkpt>
      <trkpt lat="45.76864" lon="4.82107">
        <ele>196</ele>
        <time>2013-02-22T22:07:37Z</time>
      </trkpt>
      <trkpt lat="45.76867" lon="4.82112">
        <ele>197</ele>
        <time>2013-02-22T22:07:39Z</time>
      </trkpt>
      <trkpt lat="45.76875" lon="4.8212">
        <ele>198</ele>
        <time>2013-02-22T22:07:43Z</time>
      </trkpt>
      <trkpt lat="45.76883" lon="4.82127">
        <ele>200</ele>
        <time>2013-02-22T22:07:47Z</time>
      </trkpt>
      <trkpt lat="45.76887" lon="4.82131">
        <ele>200</ele>
        <time>2013-02-22T22:07:49Z</time>
      </trkpt>
      <trkpt lat="45.76892" lon="4.82147">
        <ele>202</ele>
        <time>2013-02-22T22:07:54Z</time>
      </trkpt>
      <trkpt lat="45.76893" lon="4.82149">
        <ele>202</ele>
        <time>2013-02-22T22:07:55Z</time>
      </trkpt>
      <trkpt lat="45.76896" lon="4.82158">
        <ele>203</ele>
        <time>2013-02-22T22:07:58Z</time>
      </trkpt>
      <trkpt lat="45.76903" lon="4.82175">
        <ele>204</ele>
        <time>2013-02-22T22:08:04Z</time>
      </trkpt>
      <trkpt lat="45.76911" lon="4.82193">
        <ele>202</ele>
        <time>2013-02-22T22:08:10Z</time>
      </trkpt>
      <trkpt lat="45.76914" lon="4.82199">
        <ele>201</ele>
        <time>2013-02-22T22:08:12Z</time>
      </trkpt>
      <trkpt lat="45.76916" lon="4.82212">
        <ele>201</ele>
        <time>2013-02-22T22:08:16Z</time>
      </trkpt>
      <trkpt lat="45.76917" lon="4.82226">
        <ele>215</ele>
        <time>2013-02-22T22:08:20Z</time>
      </trkpt>
      <trkpt lat="45.76918" lon="4.82233">
        <ele>214</ele>
        <time>2013-02-22T22:08:22Z</time>
      </trkpt>
      <trkpt lat="45.76921" lon="4.82254">
        <ele>209</ele>
        <time>2013-02-22T22:08:28Z</time>
      </trkpt>
      <trkpt lat="45.76926" lon="4.82279">
        <ele>214</ele>
        <time>2013-02-22T22:08:35Z</time>
      </trkpt>
      <trkpt lat="45.76928" lon="4.82299">
        <ele>215</ele>
        <time>2013-02-22T22:08:40Z</time>
      </trkpt>
      <trkpt lat="45.76927" lon="4.82307">
        <ele>214</ele>
        <time>2013-02-22T22:08:42Z</time>
      </trkpt>
      <trkpt lat="45.76924" lon="4.82317">
        <ele>212</ele>
        <time>2013-02-22T22:08:45Z</time>
      </trkpt>
      <trkpt lat="45.7692" lon="4.82333">
        <ele>207</ele>
        <time>2013-02-22T22:08:50Z</time>
      </trkpt>
      <trkpt lat="45.76919" lon="4.82335">
        <ele>207</ele>
        <time>2013-02-22T22:08:51Z</time>
      </trkpt>
      <trkpt lat="45.7691" lon="4.82348">
        <ele>198</ele>
        <time>2013-02-22T22:08:56Z</time>
      </trkpt>
      <trkpt lat="45.76907" lon="4.82351">
        <ele>197</ele>
        <time>2013-02-22T22:08:57Z</time>
      </trkpt>
      <trkpt lat="45.76899" lon="4.82361">
        <ele>194</ele>
        <time>2013-02-22T22:09:01Z</time>
      </trkpt>
      <trkpt lat="45.76894" lon="4.8237">
        <ele>192</ele>
        <time>2013-02-22T22:09:04Z</time>
      </trkpt>
      <trkpt lat="45.76894" lon="4.82373">
        <ele>192</ele>
        <time>2013-02-22T22:09:05Z</time>
      </trkpt>
      <trkpt lat="45.76892" lon="4.8239">
        <ele>191</ele>
        <time>2013-02-22T22:09:10Z</time>
      </trkpt>
      <trkpt lat="45.76889" lon="4.82394">
        <ele>191</ele>
        <time>2013-02-22T22:09:12Z</time>
      </trkpt>
      <trkpt lat="45.76884" lon="4.82395">
        <ele>190</ele>
        <time>2013-02-22T22:09:14Z</time>
      </trkpt>
      <trkpt lat="45.76879" lon="4.82405">
        <ele>189</ele>
        <time>2013-02-22T22:09:18Z</time>
      </trkpt>
      <trkpt lat="45.76883" lon="4.8241">
        <ele>190</ele>
        <time>2013-02-22T22:09:21Z</time>
      </trkpt>
      <trkpt lat="45.76885" lon="4.82411">
        <ele>190</ele>
        <time>2013-02-22T22:09:22Z</time>
      </trkpt>
      <trkpt lat="45.76896" lon="4.82419">
        <ele>189</ele>
        <time>2013-02-22T22:09:27Z</time>
      </trkpt>
      <trkpt lat="45.76901" lon="4.82423">
        <ele>190</ele>
        <time>2013-02-22T22:09:29Z</time>
      </trkpt>
      <trkpt lat="45.76908" lon="4.82427">
        <ele>191</ele>
        <time>2013-02-22T22:09:32Z</time>
      </trkpt>
      <trkpt lat="45.76919" lon="4.82436">
        <ele>202</ele>
        <time>2013-02-22T22:09:36Z</time>
      </trkpt>
      <trkpt lat="45.76927" lon="4.82451">
        <ele>202</ele>
        <time>2013-02-22T22:09:41Z</time>
      </trkpt>
      <trkpt lat="45.76928" lon="4.82456">
        <ele>202</ele>
        <time>2013-02-22T22:09:43Z</time>
      </trkpt>
      <trkpt lat="45.76928" lon="4.82459">
        <ele>202</ele>
        <time>2013-02-22T22:09:44Z</time>
      </trkpt>
      <trkpt lat="45.76927" lon="4.82462">
        <ele>201</ele>
        <time>2013-02-22T22:09:45Z</time>
      </trkpt>
      <trkpt lat="45.7692" lon="4.82463">
        <ele>201</ele>
        <time>2013-02-22T22:09:49Z</time>
      </trkpt>
      <trkpt lat="45.76918" lon="4.82453">
        <ele>201</ele>
        <time>2013-02-22T22:09:52Z</time>
      </trkpt>
      <trkpt lat="45.76918" lon="4.8245">
        <ele>202</ele>
        <time>2013-02-22T22:09:53Z</time>
      </trkpt>
      <trkpt lat="45.7691" lon="4.82443">
        <ele>188</ele>
        <time>2013-02-22T22:09:57Z</time>
      </trkpt>
      <trkpt lat="45.76907" lon="4.82451">
        <ele>186</ele>
        <time>2013-02-22T22:10:01Z</time>
      </trkpt>
      <trkpt lat="45.76904" lon="4.82466">
        <ele>185</ele>
        <time>2013-02-22T22:10:06Z</time>
      </trkpt>
      <trkpt lat="45.76898" lon="4.82464">
        <ele>185</ele>
        <time>2013-02-22T22:10:10Z</time>
      </trkpt>
      <trkpt lat="45.76896" lon="4.82463">
        <ele>185</ele>
        <time>2013-02-22T22:10:11Z</time>
      </trkpt>
      <trkpt lat="45.76884" lon="4.82464">
        <ele>183</ele>
        <time>2013-02-22T22:10:15Z</time>
      </trkpt>
      <trkpt lat="45.76878" lon="4.82467">
        <ele>182</ele>
        <time>2013-02-22T22:10:18Z</time>
      </trkpt>
      <trkpt lat="45.76871" lon="4.82468">
        <ele>182</ele>
        <time>2013-02-22T22:10:21Z</time>
      </trkpt>
      <trkpt lat="45.76867" lon="4.82469">
        <ele>181</ele>
        <time>2013-02-22T22:10:23Z</time>
      </trkpt>
      <trkpt lat="45.76858" lon="4.82468">
        <ele>180</ele>
        <time>2013-02-22T22:10:26Z</time>
      </trkpt>
      <trkpt lat="45.76843" lon="4.82473">
        <ele>178</ele>
        <time>2013-02-22T22:10:31Z</time>
      </trkpt>
      <trkpt lat="45.76841" lon="4.82474">
        <ele>178</ele>
        <time>2013-02-22T22:10:32Z</time>
      </trkpt>
      <trkpt lat="45.7684" lon="4.82478">
        <ele>177</ele>
        <time>2013-02-22T22:10:33Z</time>
      </trkpt>
      <trkpt lat="45.7684" lon="4.82486">
        <ele>175</ele>
        <time>2013-02-22T22:10:35Z</time>
      </trkpt>
      <trkpt lat="45.76841" lon="4.82494">
        <ele>174</ele>
        <time>2013-02-22T22:10:37Z</time>
      </trkpt>
      <trkpt lat="45.76843" lon="4.82502">
        <ele>173</ele>
        <time>2013-02-22T22:10:39Z</time>
      </trkpt>
      <trkpt lat="45.76844" lon="4.82506">
        <ele>173</ele>
        <time>2013-02-22T22:10:40Z</time>
      </trkpt>
      <trkpt lat="45.76848" lon="4.82527">
        <ele>175</ele>
        <time>2013-02-22T22:10:45Z</time>
      </trkpt>
      <trkpt lat="45.76851" lon="4.82544">
        <ele>176</ele>
        <time>2013-02-22T22:10:50Z</time>
      </trkpt>
      <trkpt lat="45.76852" lon="4.82555">
        <ele>175</ele>
        <time>2013-02-22T22:10:53Z</time>
      </trkpt>
      <trkpt lat="45.76852" lon="4.82561">
        <ele>175</ele>
        <time>2013-02-22T22:10:55Z</time>
      </trkpt>
      <trkpt lat="45.76852" lon="4.82576">
        <ele>174</ele>
        <time>2013-02-22T22:10:59Z</time>
      </trkpt>
      <trkpt lat="45.7685" lon="4.82579">
        <ele>173</ele>
        <time>2013-02-22T22:11:00Z</time>
      </trkpt>
      <trkpt lat="45.76849" lon="4.82584">
        <ele>173</ele>
        <time>2013-02-22T22:11:01Z</time>
      </trkpt>
      <trkpt lat="45.76848" lon="4.82592">
        <ele>173</ele>
        <time>2013-02-22T22:11:03Z</time>
      </trkpt>
      <trkpt lat="45.7685" lon="4.82598">
        <ele>175</ele>
        <time>2013-02-22T22:11:05Z</time>
      </trkpt>
      <trkpt lat="45.76849" lon="4.82604">
        <ele>175</ele>
        <time>2013-02-22T22:11:07Z</time>
      </trkpt>
      <trkpt lat="45.76846" lon="4.82607">
        <ele>175</ele>
        <time>2013-02-22T22:11:09Z</time>
      </trkpt>
      <trkpt lat="45.76845" lon="4.82612">
        <ele>175</ele>
        <time>2013-02-22T22:11:12Z</time>
      </trkpt>
      <trkpt lat="45.76845" lon="4.82628">
        <ele>176</ele>
        <time>2013-02-22T22:11:17Z</time>
      </trkpt>
      <trkpt lat="45.76846" lon="4.82636">
        <ele>176</ele>
        <time>2013-02-22T22:11:19Z</time>
      </trkpt>
      <trkpt lat="45.76846" lon="4.82643">
        <ele>176</ele>
        <time>2013-02-22T22:11:21Z</time>
      </trkpt>
      <trkpt lat="45.76842" lon="4.82659">
        <ele>174</ele>
        <time>2013-02-22T22:11:27Z</time>
      </trkpt>
      <trkpt lat="45.76841" lon="4.82661">
        <ele>173</ele>
        <time>2013-02-22T22:11:28Z</time>
      </trkpt>
      <trkpt lat="45.76837" lon="4.8266">
        <ele>172</ele>
        <time>2013-02-22T22:11:32Z</time>
      </trkpt>
      <trkpt lat="45.76835" lon="4.82661">
        <ele>172</ele>
        <time>2013-02-22T22:11:35Z</time>
      </trkpt>
      <trkpt lat="45.76834" lon="4.82661">
        <ele>172</ele>
        <time>2013-02-22T22:11:36Z</time>
      </trkpt>
      <trkpt lat="45.76844" lon="4.82667">
        <ele>174</ele>
        <time>2013-02-22T22:11:46Z</time>
      </trkpt>
      <trkpt lat="45.76859" lon="4.82681">
        <ele>179</ele>
        <time>2013-02-22T22:11:48Z</time>
      </trkpt>
      <trkpt lat="45.7686" lon="4.82687">
        <ele>179</ele>
        <time>2013-02-22T22:11:49Z</time>
      </trkpt>
      <trkpt lat="45.76863" lon="4.82692">
        <ele>180</ele>
        <time>2013-02-22T22:11:51Z</time>
      </trkpt>
      <trkpt lat="45.76864" lon="4.82694">
        <ele>180</ele>
        <time>2013-02-22T22:11:52Z</time>
      </trkpt>
      <trkpt lat="45.76866" lon="4.82695">
        <ele>180</ele>
        <time>2013-02-22T22:11:54Z</time>
      </trkpt>
      <trkpt lat="45.76869" lon="4.82693">
        <ele>180</ele>
        <time>2013-02-22T22:11:56Z</time>
      </trkpt>
      <trkpt lat="45.76874" lon="4.82692">
        <ele>181</ele>
        <time>2013-02-22T22:11:59Z</time>
      </trkpt>
      <trkpt lat="45.76877" lon="4.82694">
        <ele>181</ele>
        <time>2013-02-22T22:12:01Z</time>
      </trkpt>
      <trkpt lat="45.76878" lon="4.82701">
        <ele>182</ele>
        <time>2013-02-22T22:12:05Z</time>
      </trkpt>
      <trkpt lat="45.76888" lon="4.82713">
        <ele>182</ele>
        <time>2013-02-22T22:12:09Z</time>
      </trkpt>
      <trkpt lat="45.76895" lon="4.82728">
        <ele>183</ele>
        <time>2013-02-22T22:12:14Z</time>
      </trkpt>
      <trkpt lat="45.76898" lon="4.82738">
        <ele>183</ele>
        <time>2013-02-22T22:12:17Z</time>
      </trkpt>
      <trkpt lat="45.76897" lon="4.82742">
        <ele>183</ele>
        <time>2013-02-22T22:12:18Z</time>
      </trkpt>
      <trkpt lat="45.76901" lon="4.82758">
        <ele>184</ele>
        <time>2013-02-22T22:12:23Z</time>
      </trkpt>
      <trkpt lat="45.769" lon="4.82766">
        <ele>183</ele>
        <time>2013-02-22T22:12:25Z</time>
      </trkpt>
      <trkpt lat="45.76901" lon="4.82774">
        <ele>183</ele>
        <time>2013-02-22T22:12:27Z</time>
      </trkpt>
      <trkpt lat="45.76909" lon="4.82791">
        <ele>183</ele>
        <time>2013-02-22T22:12:32Z</time>
      </trkpt>
      <trkpt lat="45.76914" lon="4.82809">
        <ele>183</ele>
        <time>2013-02-22T22:12:36Z</time>
      </trkpt>
      <trkpt lat="45.76911" lon="4.82821">
        <ele>183</ele>
        <time>2013-02-22T22:12:38Z</time>
      </trkpt>
      <trkpt lat="45.76908" lon="4.82831">
        <ele>183</ele>
        <time>2013-02-22T22:12:40Z</time>
      </trkpt>
      <trkpt lat="45.76908" lon="4.82838">
        <ele>183</ele>
        <time>2013-02-22T22:12:44Z</time>
      </trkpt>
      <trkpt lat="45.76909" lon="4.82849">
        <ele>183</ele>
        <time>2013-02-22T22:12:48Z</time>
      </trkpt>
      <trkpt lat="45.76911" lon="4.82851">
        <ele>183</ele>
        <time>2013-02-22T22:12:49Z</time>
      </trkpt>
      <trkpt lat="45.76919" lon="4.82866">
        <ele>189</ele>
        <time>2013-02-22T22:12:54Z</time>
      </trkpt>
      <trkpt lat="45.76922" lon="4.82868">
        <ele>189</ele>
        <time>2013-02-22T22:12:55Z</time>
      </trkpt>
      <trkpt lat="45.76926" lon="4.82878">
        <ele>189</ele>
        <time>2013-02-22T22:12:58Z</time>
      </trkpt>
      <trkpt lat="45.76927" lon="4.82895">
        <ele>189</ele>
        <time>2013-02-22T22:13:03Z</time>
      </trkpt>
      <trkpt lat="45.76927" lon="4.82898">
        <ele>188</ele>
        <time>2013-02-22T22:13:04Z</time>
      </trkpt>
      <trkpt lat="45.76929" lon="4.82917">
        <ele>187</ele>
        <time>2013-02-22T22:13:09Z</time>
      </trkpt>
      <trkpt lat="45.7693" lon="4.82923">
        <ele>188</ele>
        <time>2013-02-22T22:13:11Z</time>
      </trkpt>
      <trkpt lat="45.76932" lon="4.82932">
        <ele>189</ele>
        <time>2013-02-22T22:13:14Z</time>
      </trkpt>
      <trkpt lat="45.76931" lon="4.82946">
        <ele>189</ele>
        <time>2013-02-22T22:13:19Z</time>
      </trkpt>
      <trkpt lat="45.76932" lon="4.8295">
        <ele>190</ele>
        <time>2013-02-22T22:13:20Z</time>
      </trkpt>
      <trkpt lat="45.76933" lon="4.82959">
        <ele>190</ele>
        <time>2013-02-22T22:13:23Z</time>
      </trkpt>
      <trkpt lat="45.76933" lon="4.82961">
        <ele>190</ele>
        <time>2013-02-22T22:13:24Z</time>
      </trkpt>
      <trkpt lat="45.7693" lon="4.82976">
        <ele>190</ele>
        <time>2013-02-22T22:13:27Z</time>
      </trkpt>
      <trkpt lat="45.7693" lon="4.82983">
        <ele>190</ele>
        <time>2013-02-22T22:13:29Z</time>
      </trkpt>
      <trkpt lat="45.76929" lon="4.83004">
        <ele>189</ele>
        <time>2013-02-22T22:13:35Z</time>
      </trkpt>
      <trkpt lat="45.7693" lon="4.83017">
        <ele>190</ele>
        <time>2013-02-22T22:13:40Z</time>
      </trkpt>
      <trkpt lat="45.76929" lon="4.8302">
        <ele>190</ele>
        <time>2013-02-22T22:13:42Z</time>
      </trkpt>
      <trkpt lat="45.7693" lon="4.83022">
        <ele>190</ele>
        <time>2013-02-22T22:13:45Z</time>
      </trkpt>
      <trkpt lat="45.76926" lon="4.83028">
        <ele>190</ele>
        <time>2013-02-22T22:13:49Z</time>
      </trkpt>
      <trkpt lat="45.76925" lon="4.83029">
        <ele>190</ele>
        <time>2013-02-22T22:13:52Z</time>
      </trkpt>
      <trkpt lat="45.76925" lon="4.83033">
        <ele>190</ele>
        <time>2013-02-22T22:14:02Z</time>
      </trkpt>
      <trkpt lat="45.76925" lon="4.83032">
        <ele>190</ele>
        <time>2013-02-22T22:14:04Z</time>
      </trkpt>
      <trkpt lat="45.76924" lon="4.83031">
        <ele>190</ele>
        <time>2013-02-22T22:14:06Z</time>
      </trkpt>
      <trkpt lat="45.76919" lon="4.83034">
        <ele>190</ele>
        <time>2013-02-22T22:14:18Z</time>
      </trkpt>
      <trkpt lat="45.76916" lon="4.8303">
        <ele>187</ele>
        <time>2013-02-22T22:14:23Z</time>
      </trkpt>
      <trkpt lat="45.76914" lon="4.83028">
        <ele>187</ele>
        <time>2013-02-22T22:14:25Z</time>
      </trkpt>
      <trkpt lat="45.76912" lon="4.83027">
        <ele>187</ele>
        <time>2013-02-22T22:14:30Z</time>
      </trkpt>
      <trkpt lat="45.76912" lon="4.83032">
        <ele>187</ele>
        <time>2013-02-22T22:14:42Z</time>
      </trkpt>
      <trkpt lat="45.76915" lon="4.83026">
        <ele>187</ele>
        <time>2013-02-22T22:14:54Z</time>
      </trkpt>
      <trkpt lat="45.76923" lon="4.83025">
        <ele>190</ele>
        <time>2013-02-22T22:15:35Z</time>
      </trkpt>
      <trkpt lat="45.76922" lon="4.83026">
        <ele>190</ele>
        <time>2013-02-22T22:15:40Z</time>
      </trkpt>
      <trkpt lat="45.76913" lon="4.83035">
        <ele>187</ele>
        <time>2013-02-22T22:16:04Z</time>
      </trkpt>
      <trkpt lat="45.76909" lon="4.83039">
        <ele>187</ele>
        <time>2013-02-22T22:16:06Z</time>
      </trkpt>
      <trkpt lat="45.76909" lon="4.83042">
        <ele>187</ele>
        <time>2013-02-22T22:16:09Z</time>
      </trkpt>
      <trkpt lat="45.76909" lon="4.8304">
        <ele>187</ele>
        <time>2013-02-22T22:16:10Z</time>
      </trkpt>
      <trkpt lat="45.76909" lon="4.83037">
        <ele>187</ele>
        <time>2013-02-22T22:16:13Z</time>
      </trkpt>
      <trkpt lat="45.76909" lon="4.83035">
        <ele>187</ele>
        <time>2013-02-22T22:16:14Z</time>
      </trkpt>
      <trkpt lat="45.76916" lon="4.83033">
        <ele>187</ele>
        <time>2013-02-22T22:16:24Z</time>
      </trkpt>
      <trkpt lat="45.76916" lon="4.83035">
        <ele>187</ele>
        <time>2013-02-22T22:16:50Z</time>
      </trkpt>
      <trkpt lat="45.76915" lon="4.83038">
        <ele>187</ele>
        <time>2013-02-22T22:17:03Z</time>
      </trkpt>
      <trkpt lat="45.76916" lon="4.83039">
        <ele>187</ele>
        <time>2013-02-22T22:17:06Z</time>
      </trkpt>
      <trkpt lat="45.76911" lon="4.8304">
        <ele>187</ele>
        <time>2013-02-22T22:17:39Z</time>
      </trkpt>
      <trkpt lat="45.76911" lon="4.83031">
        <ele>187</ele>
        <time>2013-02-22T22:17:54Z</time>
      </trkpt>
      <trkpt lat="45.76915" lon="4.83036">
        <ele>187</ele>
        <time>2013-02-22T22:17:59Z</time>
      </trkpt>
      <trkpt lat="45.76922" lon="4.83034">
        <ele>190</ele>
        <time>2013-02-22T22:18:06Z</time>
      </trkpt>
      <trkpt lat="45.76924" lon="4.83034">
        <ele>190</ele>
        <time>2013-02-22T22:18:08Z</time>
      </trkpt>
      <trkpt lat="45.76928" lon="4.83033">
        <ele>190</ele>
        <time>2013-02-22T22:18:11Z</time>
      </trkpt>
      <trkpt lat="45.76928" lon="4.83034">
        <ele>190</ele>
        <time>2013-02-22T22:18:12Z</time>
      </trkpt>
      <trkpt lat="45.76929" lon="4.83035">
        <ele>190</ele>
        <time>2013-02-22T22:18:13Z</time>
      </trkpt>
      <trkpt lat="45.76936" lon="4.83041">
        <ele>191</ele>
        <time>2013-02-22T22:18:20Z</time>
      </trkpt>
      <trkpt lat="45.76938" lon="4.83042">
        <ele>191</ele>
        <time>2013-02-22T22:18:23Z</time>
      </trkpt>
      <trkpt lat="45.76939" lon="4.83043">
        <ele>191</ele>
        <time>2013-02-22T22:18:24Z</time>
      </trkpt>
      <trkpt lat="45.7694" lon="4.83047">
        <ele>191</ele>
        <time>2013-02-22T22:18:29Z</time>
      </trkpt>
      <trkpt lat="45.76941" lon="4.8305">
        <ele>191</ele>
        <time>2013-02-22T22:18:31Z</time>
      </trkpt>
      <trkpt lat="45.76942" lon="4.83052">
        <ele>191</ele>
        <time>2013-02-22T22:18:33Z</time>
      </trkpt>
      <trkpt lat="45.76943" lon="4.83052">
        <ele>191</ele>
        <time>2013-02-22T22:18:34Z</time>
      </trkpt>
      <trkpt lat="45.76946" lon="4.83052">
        <ele>191</ele>
        <time>2013-02-22T22:18:37Z</time>
      </trkpt>
      <trkpt lat="45.76948" lon="4.83052">
        <ele>191</ele>
        <time>2013-02-22T22:18:38Z</time>
      </trkpt>
      <trkpt lat="45.76951" lon="4.8305">
        <ele>191</ele>
        <time>2013-02-22T22:18:40Z</time>
      </trkpt>
      <trkpt lat="45.76956" lon="4.83049">
        <ele>191</ele>
        <time>2013-02-22T22:18:43Z</time>
      </trkpt>
      <trkpt lat="45.76962" lon="4.83047">
        <ele>192</ele>
        <time>2013-02-22T22:18:46Z</time>
      </trkpt>
      <trkpt lat="45.76966" lon="4.83045">
        <ele>192</ele>
        <time>2013-02-22T22:18:48Z</time>
      </trkpt>
      <trkpt lat="45.76973" lon="4.8304">
        <ele>192</ele>
        <time>2013-02-22T22:18:52Z</time>
      </trkpt>
      <trkpt lat="45.76982" lon="4.83035">
        <ele>192</ele>
        <time>2013-02-22T22:18:56Z</time>
      </trkpt>
      <trkpt lat="45.76988" lon="4.83032">
        <ele>193</ele>
        <time>2013-02-22T22:18:58Z</time>
      </trkpt>
      <trkpt lat="45.76998" lon="4.83026">
        <ele>193</ele>
        <time>2013-02-22T22:19:03Z</time>
      </trkpt>
      <trkpt lat="45.76999" lon="4.83026">
        <ele>193</ele>
        <time>2013-02-22T22:19:04Z</time>
      </trkpt>
      <trkpt lat="45.77001" lon="4.83027">
        <ele>199</ele>
        <time>2013-02-22T22:19:05Z</time>
      </trkpt>
      <trkpt lat="45.77003" lon="4.83028">
        <ele>199</ele>
        <time>2013-02-22T22:19:07Z</time>
      </trkpt>
      <trkpt lat="45.77009" lon="4.83026">
        <ele>199</ele>
        <time>2013-02-22T22:19:13Z</time>
      </trkpt>
      <trkpt lat="45.77011" lon="4.83022">
        <ele>199</ele>
        <time>2013-02-22T22:19:19Z</time>
      </trkpt>
      <trkpt lat="45.77017" lon="4.83019">
        <ele>200</ele>
        <time>2013-02-22T22:19:25Z</time>
      </trkpt>
      <trkpt lat="45.77022" lon="4.83014">
        <ele>200</ele>
        <time>2013-02-22T22:19:30Z</time>
      </trkpt>
      <trkpt lat="45.77024" lon="4.82997">
        <ele>200</ele>
        <time>2013-02-22T22:19:37Z</time>
      </trkpt>
      <trkpt lat="45.77023" lon="4.82979">
        <ele>200</ele>
        <time>2013-02-22T22:19:43Z</time>
      </trkpt>
      <trkpt lat="45.77019" lon="4.82969">
        <ele>201</ele>
        <time>2013-02-22T22:19:46Z</time>
      </trkpt>
      <trkpt lat="45.77018" lon="4.82967">
        <ele>201</ele>
        <time>2013-02-22T22:19:47Z</time>
      </trkpt>
      <trkpt lat="45.77017" lon="4.82964">
        <ele>201</ele>
        <time>2013-02-22T22:19:48Z</time>
      </trkpt>
      <trkpt lat="45.77016" lon="4.82955">
        <ele>201</ele>
        <time>2013-02-22T22:19:51Z</time>
      </trkpt>
      <trkpt lat="45.77017" lon="4.82954">
        <ele>201</ele>
        <time>2013-02-22T22:19:52Z</time>
      </trkpt>
      <trkpt lat="45.77019" lon="4.82946">
        <ele>201</ele>
        <time>2013-02-22T22:19:56Z</time>
      </trkpt>
      <trkpt lat="45.7702" lon="4.82941">
        <ele>201</ele>
        <time>2013-02-22T22:19:58Z</time>
      </trkpt>
      <trkpt lat="45.77021" lon="4.82939">
        <ele>201</ele>
        <time>2013-02-22T22:19:59Z</time>
      </trkpt>
      <trkpt lat="45.77029" lon="4.82927">
        <ele>201</ele>
        <time>2013-02-22T22:20:05Z</time>
      </trkpt>
      <trkpt lat="45.77031" lon="4.82925">
        <ele>202</ele>
        <time>2013-02-22T22:20:06Z</time>
      </trkpt>
      <trkpt lat="45.77035" lon="4.8292">
        <ele>202</ele>
        <time>2013-02-22T22:20:10Z</time>
      </trkpt>
      <trkpt lat="45.77036" lon="4.82918">
        <ele>202</ele>
        <time>2013-02-22T22:20:12Z</time>
      </trkpt>
      <trkpt lat="45.77038" lon="4.82917">
        <ele>204</ele>
        <time>2013-02-22T22:20:15Z</time>
      </trkpt>
      <trkpt lat="45.77038" lon="4.82916">
        <ele>204</ele>
        <time>2013-02-22T22:20:16Z</time>
      </trkpt>
      <trkpt lat="45.77042" lon="4.82909">
        <ele>205</ele>
        <time>2013-02-22T22:20:21Z</time>
      </trkpt>
      <trkpt lat="45.77045" lon="4.82907">
        <ele>205</ele>
        <time>2013-02-22T22:20:24Z</time>
      </trkpt>
      <trkpt lat="45.77048" lon="4.82905">
        <ele>206</ele>
        <time>2013-02-22T22:20:28Z</time>
      </trkpt>
      <trkpt lat="45.77048" lon="4.82903">
        <ele>206</ele>
        <time>2013-02-22T22:20:30Z</time>
      </trkpt>
      <trkpt lat="45.77047" lon="4.82902">
        <ele>206</ele>
        <time>2013-02-22T22:20:32Z</time>
      </trkpt>
      <trkpt lat="45.77051" lon="4.82899">
        <ele>206</ele>
        <time>2013-02-22T22:20:36Z</time>
      </trkpt>
      <trkpt lat="45.77052" lon="4.82898">
        <ele>206</ele>
        <time>2013-02-22T22:20:37Z</time>
      </trkpt>
      <trkpt lat="45.77059" lon="4.82891">
        <ele>207</ele>
        <time>2013-02-22T22:20:42Z</time>
      </trkpt>
      <trkpt lat="45.77061" lon="4.8289">
        <ele>207</ele>
        <time>2013-02-22T22:20:43Z</time>
      </trkpt>
      <trkpt lat="45.77065" lon="4.82887">
        <ele>207</ele>
        <time>2013-02-22T22:20:45Z</time>
      </trkpt>
      <trkpt lat="45.77069" lon="4.82884">
        <ele>207</ele>
        <time>2013-02-22T22:20:48Z</time>
      </trkpt>
      <trkpt lat="45.77078" lon="4.82879">
        <ele>208</ele>
        <time>2013-02-22T22:20:53Z</time>
      </trkpt>
      <trkpt lat="45.77093" lon="4.82867">
        <ele>217</ele>
        <time>2013-02-22T22:20:59Z</time>
      </trkpt>
      <trkpt lat="45.77095" lon="4.82864">
        <ele>217</ele>
        <time>2013-02-22T22:21:00Z</time>
      </trkpt>
      <trkpt lat="45.77103" lon="4.82857">
        <ele>218</ele>
        <time>2013-02-22T22:21:04Z</time>
      </trkpt>
      <trkpt lat="45.77112" lon="4.82846">
        <ele>218</ele>
        <time>2013-02-22T22:21:07Z</time>
      </trkpt>
      <trkpt lat="45.77116" lon="4.82845">
        <ele>218</ele>
        <time>2013-02-22T22:21:08Z</time>
      </trkpt>
      <trkpt lat="45.7713" lon="4.82837">
        <ele>219</ele>
        <time>2013-02-22T22:21:13Z</time>
      </trkpt>
      <trkpt lat="45.77145" lon="4.82832">
        <ele>222</ele>
        <time>2013-02-22T22:21:18Z</time>
      </trkpt>
      <trkpt lat="45.77149" lon="4.8283">
        <ele>222</ele>
        <time>2013-02-22T22:21:20Z</time>
      </trkpt>
      <trkpt lat="45.77149" lon="4.82824">
        <ele>222</ele>
        <time>2013-02-22T22:21:22Z</time>
      </trkpt>
      <trkpt lat="45.77156" lon="4.82812">
        <ele>222</ele>
        <time>2013-02-22T22:21:27Z</time>
      </trkpt>
      <trkpt lat="45.77156" lon="4.82804">
        <ele>222</ele>
        <time>2013-02-22T22:21:30Z</time>
      </trkpt>
      <trkpt lat="45.77157" lon="4.82801">
        <ele>222</ele>
        <time>2013-02-22T22:21:32Z</time>
      </trkpt>
      <trkpt lat="45.77162" lon="4.82792">
        <ele>222</ele>
        <time>2013-02-22T22:21:37Z</time>
      </trkpt>
      <trkpt lat="45.77166" lon="4.82789">
        <ele>222</ele>
        <time>2013-02-22T22:21:40Z</time>
      </trkpt>
      <trkpt lat="45.77167" lon="4.82787">
        <ele>229</ele>
        <time>2013-02-22T22:21:41Z</time>
      </trkpt>
      <trkpt lat="45.77169" lon="4.82792">
        <ele>229</ele>
        <time>2013-02-22T22:21:45Z</time>
      </trkpt>
      <trkpt lat="45.77169" lon="4.82794">
        <ele>229</ele>
        <time>2013-02-22T22:21:46Z</time>
      </trkpt>
      <trkpt lat="45.7717" lon="4.82796">
        <ele>229</ele>
        <time>2013-02-22T22:21:47Z</time>
      </trkpt>
      <trkpt lat="45.77174" lon="4.82799">
        <ele>230</ele>
        <time>2013-02-22T22:21:51Z</time>
      </trkpt>
      <trkpt lat="45.77175" lon="4.82801">
        <ele>230</ele>
        <time>2013-02-22T22:21:52Z</time>
      </trkpt>
      <trkpt lat="45.77174" lon="4.8281">
        <ele>229</ele>
        <time>2013-02-22T22:21:56Z</time>
      </trkpt>
      <trkpt lat="45.77173" lon="4.82814">
        <ele>229</ele>
        <time>2013-02-22T22:21:58Z</time>
      </trkpt>
      <trkpt lat="45.77174" lon="4.82815">
        <ele>229</ele>
        <time>2013-02-22T22:21:59Z</time>
      </trkpt>
      <trkpt lat="45.77176" lon="4.82818">
        <ele>228</ele>
        <time>2013-02-22T22:22:01Z</time>
      </trkpt>
      <trkpt lat="45.77182" lon="4.82819">
        <ele>229</ele>
        <time>2013-02-22T22:22:06Z</time>
      </trkpt>
      <trkpt lat="45.77189" lon="4.82825">
        <ele>230</ele>
        <time>2013-02-22T22:22:11Z</time>
      </trkpt>
      <trkpt lat="45.77193" lon="4.82828">
        <ele>231</ele>
        <time>2013-02-22T22:22:16Z</time>
      </trkpt>
      <trkpt lat="45.77194" lon="4.82829">
        <ele>231</ele>
        <time>2013-02-22T22:22:17Z</time>
      </trkpt>
      <trkpt lat="45.77201" lon="4.82831">
        <ele>232</ele>
        <time>2013-02-22T22:22:25Z</time>
      </trkpt>
      <trkpt lat="45.77203" lon="4.82831">
        <ele>232</ele>
        <time>2013-02-22T22:22:27Z</time>
      </trkpt>
      <trkpt lat="45.77205" lon="4.82835">
        <ele>233</ele>
        <time>2013-02-22T22:22:30Z</time>
      </trkpt>
      <trkpt lat="45.77205" lon="4.82838">
        <ele>233</ele>
        <time>2013-02-22T22:22:33Z</time>
      </trkpt>
      <trkpt lat="45.77206" lon="4.82842">
        <ele>233</ele>
        <time>2013-02-22T22:22:36Z</time>
      </trkpt>
      <trkpt lat="45.77207" lon="4.82843">
        <ele>233</ele>
        <time>2013-02-22T22:22:37Z</time>
      </trkpt>
      <trkpt lat="45.77208" lon="4.82844">
        <ele>233</ele>
        <time>2013-02-22T22:22:38Z</time>
      </trkpt>
      <trkpt lat="45.77213" lon="4.82848">
        <ele>234</ele>
        <time>2013-02-22T22:22:42Z</time>
      </trkpt>
      <trkpt lat="45.77214" lon="4.82848">
        <ele>234</ele>
        <time>2013-02-22T22:22:43Z</time>
      </trkpt>
      <trkpt lat="45.77216" lon="4.82851">
        <ele>234</ele>
        <time>2013-02-22T22:22:45Z</time>
      </trkpt>
      <trkpt lat="45.77217" lon="4.82853">
        <ele>235</ele>
        <time>2013-02-22T22:22:46Z</time>
      </trkpt>
      <trkpt lat="45.77223" lon="4.82866">
        <ele>235</ele>
        <time>2013-02-22T22:22:52Z</time>
      </trkpt>
      <trkpt lat="45.77222" lon="4.82867">
        <ele>235</ele>
        <time>2013-02-22T22:22:54Z</time>
      </trkpt>
      <trkpt lat="45.77221" lon="4.82869">
        <ele>235</ele>
        <time>2013-02-22T22:22:57Z</time>
      </trkpt>
      <trkpt lat="45.77222" lon="4.82868">
        <ele>235</ele>
        <time>2013-02-22T22:22:58Z</time>
      </trkpt>
      <trkpt lat="45.77225" lon="4.82868">
        <ele>235</ele>
        <time>2013-02-22T22:23:01Z</time>
      </trkpt>
      <trkpt lat="45.77231" lon="4.82868">
        <ele>236</ele>
        <time>2013-02-22T22:23:07Z</time>
      </trkpt>
      <trkpt lat="45.77235" lon="4.8287">
        <ele>236</ele>
        <time>2013-02-22T22:23:09Z</time>
      </trkpt>
      <trkpt lat="45.77237" lon="4.82873">
        <ele>236</ele>
        <time>2013-02-22T22:23:10Z</time>
      </trkpt>
      <trkpt lat="45.77237" lon="4.82879">
        <ele>236</ele>
        <time>2013-02-22T22:23:13Z</time>
      </trkpt>
      <trkpt lat="45.77237" lon="4.82879">
        <ele>236</ele>
        <time>2013-02-22T22:23:14Z</time>
      </trkpt>
      <trkpt lat="45.7723" lon="4.82882">
        <ele>236</ele>
        <time>2013-02-22T22:23:21Z</time>
      </trkpt>
      <trkpt lat="45.77231" lon="4.82883">
        <ele>236</ele>
        <time>2013-02-22T22:23:25Z</time>
      </trkpt>
      <trkpt lat="45.77235" lon="4.82883">
        <ele>236</ele>
        <time>2013-02-22T22:23:28Z</time>
      </trkpt>
      <trkpt lat="45.77238" lon="4.8289">
        <ele>237</ele>
        <time>2013-02-22T22:23:31Z</time>
      </trkpt>
      <trkpt lat="45.77236" lon="4.82899">
        <ele>237</ele>
        <time>2013-02-22T22:23:33Z</time>
      </trkpt>
      <trkpt lat="45.77237" lon="4.82903">
        <ele>238</ele>
        <time>2013-02-22T22:23:34Z</time>
      </trkpt>
      <trkpt lat="45.77237" lon="4.82908">
        <ele>238</ele>
        <time>2013-02-22T22:23:35Z</time>
      </trkpt>
      <trkpt lat="45.77241" lon="4.82928">
        <ele>239</ele>
        <time>2013-02-22T22:23:40Z</time>
      </trkpt>
      <trkpt lat="45.77245" lon="4.82932">
        <ele>239</ele>
        <time>2013-02-22T22:23:43Z</time>
      </trkpt>
      <trkpt lat="45.77246" lon="4.82934">
        <ele>239</ele>
        <time>2013-02-22T22:23:44Z</time>
      </trkpt>
      <trkpt lat="45.77246" lon="4.82943">
        <ele>238</ele>
        <time>2013-02-22T22:23:47Z</time>
      </trkpt>
      <trkpt lat="45.77247" lon="4.82943">
        <ele>238</ele>
        <time>2013-02-22T22:23:48Z</time>
      </trkpt>
      <trkpt lat="45.77248" lon="4.82941">
        <ele>238</ele>
        <time>2013-02-22T22:23:50Z</time>
      </trkpt>
      <trkpt lat="45.77249" lon="4.82941">
        <ele>238</ele>
        <time>2013-02-22T22:23:56Z</time>
      </trkpt>
      <trkpt lat="45.77253" lon="4.82941">
        <ele>248</ele>
        <time>2013-02-22T22:24:02Z</time>
      </trkpt>
      <trkpt lat="45.77253" lon="4.82938">
        <ele>248</ele>
        <time>2013-02-22T22:24:09Z</time>
      </trkpt>
      <trkpt lat="45.77254" lon="4.82937">
        <ele>248</ele>
        <time>2013-02-22T22:24:10Z</time>
      </trkpt>
      <trkpt lat="45.77257" lon="4.82936">
        <ele>248</ele>
        <time>2013-02-22T22:24:16Z</time>
      </trkpt>
      <trkpt lat="45.77264" lon="4.82934">
        <ele>248</ele>
        <time>2013-02-22T22:24:25Z</time>
      </trkpt>
      <trkpt lat="45.77268" lon="4.82934">
        <ele>249</ele>
        <time>2013-02-22T22:24:31Z</time>
      </trkpt>
      <trkpt lat="45.7727" lon="4.82934">
        <ele>249</ele>
        <time>2013-02-22T22:24:37Z</time>
      </trkpt>
      <trkpt lat="45.77273" lon="4.82934">
        <ele>249</ele>
        <time>2013-02-22T22:24:40Z</time>
      </trkpt>
      <trkpt lat="45.77274" lon="4.82934">
        <ele>250</ele>
        <time>2013-02-22T22:24:41Z</time>
      </trkpt>
      <trkpt lat="45.77276" lon="4.82933">
        <ele>250</ele>
        <time>2013-02-22T22:24:43Z</time>
      </trkpt>
      <trkpt lat="45.77278" lon="4.82933">
        <ele>250</ele>
        <time>2013-02-22T22:24:47Z</time>
      </trkpt>
      <trkpt lat="45.77289" lon="4.82931">
        <ele>251</ele>
        <time>2013-02-22T22:25:04Z</time>
      </trkpt>
      <trkpt lat="45.7729" lon="4.82931">
        <ele>252</ele>
        <time>2013-02-22T22:25:06Z</time>
      </trkpt>
      <trkpt lat="45.77295" lon="4.82931">
        <ele>252</ele>
        <time>2013-02-22T22:25:15Z</time>
      </trkpt>
      <trkpt lat="45.77295" lon="4.8293">
        <ele>252</ele>
        <time>2013-02-22T22:25:19Z</time>
      </trkpt>
      <trkpt lat="45.77298" lon="4.82929">
        <ele>253</ele>
        <time>2013-02-22T22:25:25Z</time>
      </trkpt>
      <trkpt lat="45.77297" lon="4.82934">
        <ele>253</ele>
        <time>2013-02-22T22:25:45Z</time>
      </trkpt>
      <trkpt lat="45.77296" lon="4.8294">
        <ele>252</ele>
        <time>2013-02-22T22:26:03Z</time>
      </trkpt>
      <trkpt lat="45.773" lon="4.82937">
        <ele>253</ele>
        <time>2013-02-22T22:26:08Z</time>
      </trkpt>
      <trkpt lat="45.77305" lon="4.82936">
        <ele>254</ele>
        <time>2013-02-22T22:26:11Z</time>
      </trkpt>
      <trkpt lat="45.77316" lon="4.82934">
        <ele>255</ele>
        <time>2013-02-22T22:26:17Z</time>
      </trkpt>
      <trkpt lat="45.77319" lon="4.82933">
        <ele>255</ele>
        <time>2013-02-22T22:26:18Z</time>
      </trkpt>
      <trkpt lat="45.77331" lon="4.82931">
        <ele>257</ele>
        <time>2013-02-22T22:26:22Z</time>
      </trkpt>
      <trkpt lat="45.7734" lon="4.82932">
        <ele>259</ele>
        <time>2013-02-22T22:26:25Z</time>
      </trkpt>
      <trkpt lat="45.77346" lon="4.82934">
        <ele>259</ele>
        <time>2013-02-22T22:26:28Z</time>
      </trkpt>
      <trkpt lat="45.77357" lon="4.82935">
        <ele>259</ele>
        <time>2013-02-22T22:26:33Z</time>
      </trkpt>
      <trkpt lat="45.77359" lon="4.82935">
        <ele>259</ele>
        <time>2013-02-22T22:26:34Z</time>
      </trkpt>
      <trkpt lat="45.7737" lon="4.82934">
        <ele>259</ele>
        <time>2013-02-22T22:26:39Z</time>
      </trkpt>
      <trkpt lat="45.77379" lon="4.8293">
        <ele>258</ele>
        <time>2013-02-22T22:26:42Z</time>
      </trkpt>
      <trkpt lat="45.77386" lon="4.82925">
        <ele>258</ele>
        <time>2013-02-22T22:26:44Z</time>
      </trkpt>
      <trkpt lat="45.77399" lon="4.82923">
        <ele>258</ele>
        <time>2013-02-22T22:26:49Z</time>
      </trkpt>
      <trkpt lat="45.77406" lon="4.82935">
        <ele>258</ele>
        <time>2013-02-22T22:26:53Z</time>
      </trkpt>
      <trkpt lat="45.77405" lon="4.82939">
        <ele>258</ele>
        <time>2013-02-22T22:26:54Z</time>
      </trkpt>
      <trkpt lat="45.77406" lon="4.82947">
        <ele>258</ele>
        <time>2013-02-22T22:26:56Z</time>
      </trkpt>
      <trkpt lat="45.77405" lon="4.82968">
        <ele>258</ele>
        <time>2013-02-22T22:27:01Z</time>
      </trkpt>
      <trkpt lat="45.77405" lon="4.82975">
        <ele>258</ele>
        <time>2013-02-22T22:27:03Z</time>
      </trkpt>
      <trkpt lat="45.77407" lon="4.82985">
        <ele>257</ele>
        <time>2013-02-22T22:27:07Z</time>
      </trkpt>
      <trkpt lat="45.77395" lon="4.82987">
        <ele>257</ele>
        <time>2013-02-22T22:27:12Z</time>
      </trkpt>
      <trkpt lat="45.77393" lon="4.82988">
        <ele>258</ele>
        <time>2013-02-22T22:27:13Z</time>
      </trkpt>
      <trkpt lat="45.77387" lon="4.82991">
        <ele>258</ele>
        <time>2013-02-22T22:27:15Z</time>
      </trkpt>
      <trkpt lat="45.77381" lon="4.82993">
        <ele>258</ele>
        <time>2013-02-22T22:27:18Z</time>
      </trkpt>
      <trkpt lat="45.77376" lon="4.82994">
        <ele>258</ele>
        <time>2013-02-22T22:27:20Z</time>
      </trkpt>
      <trkpt lat="45.77369" lon="4.82995">
        <ele>258</ele>
        <time>2013-02-22T22:27:22Z</time>
      </trkpt>
      <trkpt lat="45.77361" lon="4.82991">
        <ele>258</ele>
        <time>2013-02-22T22:27:25Z</time>
      </trkpt>
      <trkpt lat="45.77359" lon="4.82994">
        <ele>258</ele>
        <time>2013-02-22T22:27:26Z</time>
      </trkpt>
      <trkpt lat="45.77359" lon="4.82998">
        <ele>258</ele>
        <time>2013-02-22T22:27:27Z</time>
      </trkpt>
      <trkpt lat="45.77356" lon="4.83012">
        <ele>257</ele>
        <time>2013-02-22T22:27:30Z</time>
      </trkpt>
      <trkpt lat="45.77359" lon="4.83026">
        <ele>257</ele>
        <time>2013-02-22T22:27:34Z</time>
      </trkpt>
      <trkpt lat="45.77359" lon="4.83031">
        <ele>257</ele>
        <time>2013-02-22T22:27:35Z</time>
      </trkpt>
      <trkpt lat="45.77356" lon="4.83053">
        <ele>257</ele>
        <time>2013-02-22T22:27:40Z</time>
      </trkpt>
      <trkpt lat="45.77356" lon="4.83079">
        <ele>256</ele>
        <time>2013-02-22T22:27:47Z</time>
      </trkpt>
      <trkpt lat="45.77354" lon="4.831">
        <ele>255</ele>
        <time>2013-02-22T22:27:52Z</time>
      </trkpt>
      <trkpt lat="45.77353" lon="4.83107">
        <ele>255</ele>
        <time>2013-02-22T22:27:54Z</time>
      </trkpt>
      <trkpt lat="45.77354" lon="4.83117">
        <ele>255</ele>
        <time>2013-02-22T22:27:57Z</time>
      </trkpt>
      <trkpt lat="45.77351" lon="4.83127">
        <ele>255</ele>
        <time>2013-02-22T22:28:01Z</time>
      </trkpt>
      <trkpt lat="45.7735" lon="4.83129">
        <ele>255</ele>
        <time>2013-02-22T22:28:02Z</time>
      </trkpt>
      <trkpt lat="45.77347" lon="4.83131">
        <ele>255</ele>
        <time>2013-02-22T22:28:03Z</time>
      </trkpt>
      <trkpt lat="45.7734" lon="4.83133">
        <ele>254</ele>
        <time>2013-02-22T22:28:06Z</time>
      </trkpt>
      <trkpt lat="45.77329" lon="4.83137">
        <ele>251</ele>
        <time>2013-02-22T22:28:10Z</time>
      </trkpt>
      <trkpt lat="45.77327" lon="4.83137">
        <ele>251</ele>
        <time>2013-02-22T22:28:11Z</time>
      </trkpt>
      <trkpt lat="45.77325" lon="4.83138">
        <ele>251</ele>
        <time>2013-02-22T22:28:12Z</time>
      </trkpt>
      <trkpt lat="45.77322" lon="4.83138">
        <ele>250</ele>
        <time>2013-02-22T22:28:15Z</time>
      </trkpt>
      <trkpt lat="45.7732" lon="4.83147">
        <ele>250</ele>
        <time>2013-02-22T22:28:19Z</time>
      </trkpt>
      <trkpt lat="45.77318" lon="4.83151">
        <ele>250</ele>
        <time>2013-02-22T22:28:20Z</time>
      </trkpt>
      <trkpt lat="45.77317" lon="4.83156">
        <ele>251</ele>
        <time>2013-02-22T22:28:21Z</time>
      </trkpt>
      <trkpt lat="45.77313" lon="4.83168">
        <ele>249</ele>
        <time>2013-02-22T22:28:24Z</time>
      </trkpt>
      <trkpt lat="45.77309" lon="4.83175">
        <ele>249</ele>
        <time>2013-02-22T22:28:26Z</time>
      </trkpt>
      <trkpt lat="45.77309" lon="4.83182">
        <ele>248</ele>
        <time>2013-02-22T22:28:28Z</time>
      </trkpt>
      <trkpt lat="45.77302" lon="4.83189">
        <ele>248</ele>
        <time>2013-02-22T22:28:32Z</time>
      </trkpt>
      <trkpt lat="45.77298" lon="4.83191">
        <ele>247</ele>
        <time>2013-02-22T22:28:33Z</time>
      </trkpt>
      <trkpt lat="45.77277" lon="4.83193">
        <ele>245</ele>
        <time>2013-02-22T22:28:38Z</time>
      </trkpt>
      <trkpt lat="45.77264" lon="4.83188">
        <ele>244</ele>
        <time>2013-02-22T22:28:43Z</time>
      </trkpt>
      <trkpt lat="45.77258" lon="4.83186">
        <ele>244</ele>
        <time>2013-02-22T22:28:45Z</time>
      </trkpt>
      <trkpt lat="45.77254" lon="4.83183">
        <ele>243</ele>
        <time>2013-02-22T22:28:48Z</time>
      </trkpt>
      <trkpt lat="45.77245" lon="4.83179">
        <ele>238</ele>
        <time>2013-02-22T22:28:55Z</time>
      </trkpt>
      <trkpt lat="45.77241" lon="4.83178">
        <ele>238</ele>
        <time>2013-02-22T22:28:58Z</time>
      </trkpt>
      <trkpt lat="45.77237" lon="4.83179">
        <ele>237</ele>
        <time>2013-02-22T22:29:01Z</time>
      </trkpt>
      <trkpt lat="45.7723" lon="4.8318">
        <ele>236</ele>
        <time>2013-02-22T22:29:07Z</time>
      </trkpt>
      <trkpt lat="45.77224" lon="4.83179">
        <ele>236</ele>
        <time>2013-02-22T22:29:13Z</time>
      </trkpt>
      <trkpt lat="45.77222" lon="4.83178">
        <ele>235</ele>
        <time>2013-02-22T22:29:15Z</time>
      </trkpt>
      <trkpt lat="45.77215" lon="4.83177">
        <ele>235</ele>
        <time>2013-02-22T22:29:20Z</time>
      </trkpt>
      <trkpt lat="45.77206" lon="4.83175">
        <ele>233</ele>
        <time>2013-02-22T22:29:26Z</time>
      </trkpt>
      <trkpt lat="45.77203" lon="4.83175">
        <ele>233</ele>
        <time>2013-02-22T22:29:28Z</time>
      </trkpt>
      <trkpt lat="45.77195" lon="4.83172">
        <ele>232</ele>
        <time>2013-02-22T22:29:32Z</time>
      </trkpt>
      <trkpt lat="45.77193" lon="4.83172">
        <ele>231</ele>
        <time>2013-02-22T22:29:33Z</time>
      </trkpt>
      <trkpt lat="45.77187" lon="4.83171">
        <ele>230</ele>
        <time>2013-02-22T22:29:36Z</time>
      </trkpt>
      <trkpt lat="45.77184" lon="4.83171">
        <ele>230</ele>
        <time>2013-02-22T22:29:37Z</time>
      </trkpt>
      <trkpt lat="45.77183" lon="4.83171">
        <ele>230</ele>
        <time>2013-02-22T22:29:38Z</time>
      </trkpt>
      <trkpt lat="45.77177" lon="4.83172">
        <ele>229</ele>
        <time>2013-02-22T22:29:41Z</time>
      </trkpt>
      <trkpt lat="45.77164" lon="4.83169">
        <ele>225</ele>
        <time>2013-02-22T22:29:46Z</time>
      </trkpt>
      <trkpt lat="45.77142" lon="4.83171">
        <ele>223</ele>
        <time>2013-02-22T22:29:52Z</time>
      </trkpt>
      <trkpt lat="45.77126" lon="4.83171">
        <ele>221</ele>
        <time>2013-02-22T22:29:57Z</time>
      </trkpt>
      <trkpt lat="45.77124" lon="4.83171">
        <ele>221</ele>
        <time>2013-02-22T22:29:58Z</time>
      </trkpt>
      <trkpt lat="45.77111" lon="4.83161">
        <ele>217</ele>
        <time>2013-02-22T22:30:03Z</time>
      </trkpt>
      <trkpt lat="45.77103" lon="4.83162">
        <ele>216</ele>
        <time>2013-02-22T22:30:05Z</time>
      </trkpt>
      <trkpt lat="45.77093" lon="4.8316">
        <ele>215</ele>
        <time>2013-02-22T22:30:08Z</time>
      </trkpt>
      <trkpt lat="45.77083" lon="4.83164">
        <ele>213</ele>
        <time>2013-02-22T22:30:11Z</time>
      </trkpt>
      <trkpt lat="45.77074" lon="4.83166">
        <ele>211</ele>
        <time>2013-02-22T22:30:13Z</time>
      </trkpt>
      <trkpt lat="45.77063" lon="4.83167">
        <ele>211</ele>
        <time>2013-02-22T22:30:16Z</time>
      </trkpt>
      <trkpt lat="45.77048" lon="4.83167">
        <ele>209</ele>
        <time>2013-02-22T22:30:21Z</time>
      </trkpt>
      <trkpt lat="45.77042" lon="4.83169">
        <ele>208</ele>
        <time>2013-02-22T22:30:22Z</time>
      </trkpt>
      <trkpt lat="45.77029" lon="4.83167">
        <ele>206</ele>
        <time>2013-02-22T22:30:27Z</time>
      </trkpt>
      <trkpt lat="45.77023" lon="4.83166">
        <ele>203</ele>
        <time>2013-02-22T22:30:29Z</time>
      </trkpt>
      <trkpt lat="45.77017" lon="4.83165">
        <ele>202</ele>
        <time>2013-02-22T22:30:32Z</time>
      </trkpt>
      <trkpt lat="45.77003" lon="4.83164">
        <ele>201</ele>
        <time>2013-02-22T22:30:36Z</time>
      </trkpt>
      <trkpt lat="45.77" lon="4.83163">
        <ele>201</ele>
        <time>2013-02-22T22:30:37Z</time>
      </trkpt>
      <trkpt lat="45.76981" lon="4.83168">
        <ele>199</ele>
        <time>2013-02-22T22:30:42Z</time>
      </trkpt>
      <trkpt lat="45.76968" lon="4.83177">
        <ele>199</ele>
        <time>2013-02-22T22:30:47Z</time>
      </trkpt>
      <trkpt lat="45.76962" lon="4.83181">
        <ele>198</ele>
        <time>2013-02-22T22:30:49Z</time>
      </trkpt>
      <trkpt lat="45.76952" lon="4.8319">
        <ele>198</ele>
        <time>2013-02-22T22:30:51Z</time>
      </trkpt>
      <trkpt lat="45.76948" lon="4.83196">
        <ele>198</ele>
        <time>2013-02-22T22:30:52Z</time>
      </trkpt>
      <trkpt lat="45.76946" lon="4.832">
        <ele>198</ele>
        <time>2013-02-22T22:30:53Z</time>
      </trkpt>
      <trkpt lat="45.7694" lon="4.83203">
        <ele>198</ele>
        <time>2013-02-22T22:30:55Z</time>
      </trkpt>
      <trkpt lat="45.76928" lon="4.83206">
        <ele>198</ele>
        <time>2013-02-22T22:30:59Z</time>
      </trkpt>
      <trkpt lat="45.76925" lon="4.83204">
        <ele>198</ele>
        <time>2013-02-22T22:31:00Z</time>
      </trkpt>
      <trkpt lat="45.76915" lon="4.83205">
        <ele>193</ele>
        <time>2013-02-22T22:31:05Z</time>
      </trkpt>
      <trkpt lat="45.76908" lon="4.83211">
        <ele>193</ele>
        <time>2013-02-22T22:31:08Z</time>
      </trkpt>
      <trkpt lat="45.76899" lon="4.83216">
        <ele>193</ele>
        <time>2013-02-22T22:31:11Z</time>
      </trkpt>
      <trkpt lat="45.76894" lon="4.83227">
        <ele>193</ele>
        <time>2013-02-22T22:31:14Z</time>
      </trkpt>
      <trkpt lat="45.76896" lon="4.83231">
        <ele>194</ele>
        <time>2013-02-22T22:31:15Z</time>
      </trkpt>
      <trkpt lat="45.76897" lon="4.83236">
        <ele>194</ele>
        <time>2013-02-22T22:31:16Z</time>
      </trkpt>
      <trkpt lat="45.76891" lon="4.83243">
        <ele>194</ele>
        <time>2013-02-22T22:31:20Z</time>
      </trkpt>
      <trkpt lat="45.76889" lon="4.83243">
        <ele>193</ele>
        <time>2013-02-22T22:31:21Z</time>
      </trkpt>
      <trkpt lat="45.76887" lon="4.83243">
        <ele>193</ele>
        <time>2013-02-22T22:31:22Z</time>
      </trkpt>
      <trkpt lat="45.76882" lon="4.8324">
        <ele>193</ele>
        <time>2013-02-22T22:31:24Z</time>
      </trkpt>
      <trkpt lat="45.76879" lon="4.83243">
        <ele>193</ele>
        <time>2013-02-22T22:31:25Z</time>
      </trkpt>
      <trkpt lat="45.76877" lon="4.83256">
        <ele>193</ele>
        <time>2013-02-22T22:31:28Z</time>
      </trkpt>
      <trkpt lat="45.76877" lon="4.8326">
        <ele>193</ele>
        <time>2013-02-22T22:31:29Z</time>
      </trkpt>
      <trkpt lat="45.76874" lon="4.83268">
        <ele>192</ele>
        <time>2013-02-22T22:31:32Z</time>
      </trkpt>
      <trkpt lat="45.76874" lon="4.83267">
        <ele>192</ele>
        <time>2013-02-22T22:31:33Z</time>
      </trkpt>
      <trkpt lat="45.76873" lon="4.83264">
        <ele>192</ele>
        <time>2013-02-22T22:31:36Z</time>
      </trkpt>
      <trkpt lat="45.76872" lon="4.83263">
        <ele>192</ele>
        <time>2013-02-22T22:31:37Z</time>
      </trkpt>
      <trkpt lat="45.76871" lon="4.83255">
        <ele>192</ele>
        <time>2013-02-22T22:31:42Z</time>
      </trkpt>
      <trkpt lat="45.7687" lon="4.83255">
        <ele>192</ele>
        <time>2013-02-22T22:31:43Z</time>
      </trkpt>
      <trkpt lat="45.76862" lon="4.83252">
        <ele>191</ele>
        <time>2013-02-22T22:31:48Z</time>
      </trkpt>
      <trkpt lat="45.76857" lon="4.8325">
        <ele>191</ele>
        <time>2013-02-22T22:31:50Z</time>
      </trkpt>
      <trkpt lat="45.7685" lon="4.83251">
        <ele>190</ele>
        <time>2013-02-22T22:31:54Z</time>
      </trkpt>
      <trkpt lat="45.76848" lon="4.83253">
        <ele>190</ele>
        <time>2013-02-22T22:31:55Z</time>
      </trkpt>
      <trkpt lat="45.76844" lon="4.83257">
        <ele>190</ele>
        <time>2013-02-22T22:31:56Z</time>
      </trkpt>
      <trkpt lat="45.76828" lon="4.83266">
        <ele>187</ele>
        <time>2013-02-22T22:32:02Z</time>
      </trkpt>
      <trkpt lat="45.76827" lon="4.83266">
        <ele>187</ele>
        <time>2013-02-22T22:32:03Z</time>
      </trkpt>
      <trkpt lat="45.7682" lon="4.83266">
        <ele>187</ele>
        <time>2013-02-22T22:32:07Z</time>
      </trkpt>
      <trkpt lat="45.76819" lon="4.83266">
        <ele>187</ele>
        <time>2013-02-22T22:32:08Z</time>
      </trkpt>
      <trkpt lat="45.76812" lon="4.8328">
        <ele>186</ele>
        <time>2013-02-22T22:32:17Z</time>
      </trkpt>
      <trkpt lat="45.76807" lon="4.83279">
        <ele>186</ele>
        <time>2013-02-22T22:32:20Z</time>
      </trkpt>
      <trkpt lat="45.76803" lon="4.83281">
        <ele>186</ele>
        <time>2013-02-22T22:32:22Z</time>
      </trkpt>
      <trkpt lat="45.76802" lon="4.83282">
        <ele>186</ele>
        <time>2013-02-22T22:32:23Z</time>
      </trkpt>
      <trkpt lat="45.768" lon="4.83281">
        <ele>186</ele>
        <time>2013-02-22T22:32:26Z</time>
      </trkpt>
      <trkpt lat="45.76796" lon="4.83277">
        <ele>186</ele>
        <time>2013-02-22T22:32:35Z</time>
      </trkpt>
      <trkpt lat="45.76793" lon="4.83279">
        <ele>186</ele>
        <time>2013-02-22T22:32:39Z</time>
      </trkpt>
      <trkpt lat="45.76792" lon="4.83281">
        <ele>186</ele>
        <time>2013-02-22T22:32:45Z</time>
      </trkpt>
      <trkpt lat="45.768" lon="4.83273">
        <ele>186</ele>
        <time>2013-02-22T22:33:02Z</time>
      </trkpt>
      <trkpt lat="45.76803" lon="4.8327">
        <ele>186</ele>
        <time>2013-02-22T22:33:04Z</time>
      </trkpt>
      <trkpt lat="45.76803" lon="4.83269">
        <ele>186</ele>
        <time>2013-02-22T22:33:05Z</time>
      </trkpt>
      <trkpt lat="45.76807" lon="4.83267">
        <ele>186</ele>
        <time>2013-02-22T22:33:10Z</time>
      </trkpt>
      <trkpt lat="45.76808" lon="4.83265">
        <ele>186</ele>
        <time>2013-02-22T22:33:14Z</time>
      </trkpt>
      <trkpt lat="45.768" lon="4.8327">
        <ele>186</ele>
        <time>2013-02-22T22:33:42Z</time>
      </trkpt>
      <trkpt lat="45.76802" lon="4.83266">
        <ele>186</ele>
        <time>2013-02-22T22:33:44Z</time>
      </trkpt>
      <trkpt lat="45.76804" lon="4.83264">
        <ele>186</ele>
        <time>2013-02-22T22:33:45Z</time>
      </trkpt>
      <trkpt lat="45.76805" lon="4.83261">
        <ele>186</ele>
        <time>2013-02-22T22:33:46Z</time>
      </trkpt>
      <trkpt lat="45.76808" lon="4.83255">
        <ele>187</ele>
        <time>2013-02-22T22:33:49Z</time>
      </trkpt>
      <trkpt lat="45.76812" lon="4.83246">
        <ele>187</ele>
        <time>2013-02-22T22:33:52Z</time>
      </trkpt>
      <trkpt lat="45.76813" lon="4.83238">
        <ele>187</ele>
        <time>2013-02-22T22:33:54Z</time>
      </trkpt>
      <trkpt lat="45.76812" lon="4.83235">
        <ele>187</ele>
        <time>2013-02-22T22:33:55Z</time>
      </trkpt>
      <trkpt lat="45.76809" lon="4.83225">
        <ele>186</ele>
        <time>2013-02-22T22:33:58Z</time>
      </trkpt>
      <trkpt lat="45.76808" lon="4.83222">
        <ele>186</ele>
        <time>2013-02-22T22:33:59Z</time>
      </trkpt>
      <trkpt lat="45.76808" lon="4.83219">
        <ele>186</ele>
        <time>2013-02-22T22:34:00Z</time>
      </trkpt>
      <trkpt lat="45.7681" lon="4.83211">
        <ele>186</ele>
        <time>2013-02-22T22:34:03Z</time>
      </trkpt>
      <trkpt lat="45.76811" lon="4.83209">
        <ele>186</ele>
        <time>2013-02-22T22:34:04Z</time>
      </trkpt>
      <trkpt lat="45.7682" lon="4.83205">
        <ele>186</ele>
        <time>2013-02-22T22:34:07Z</time>
      </trkpt>
      <trkpt lat="45.7683" lon="4.83201">
        <ele>186</ele>
        <time>2013-02-22T22:34:10Z</time>
      </trkpt>
      <trkpt lat="45.76839" lon="4.83194">
        <ele>190</ele>
        <time>2013-02-22T22:34:13Z</time>
      </trkpt>
      <trkpt lat="45.76849" lon="4.83188">
        <ele>190</ele>
        <time>2013-02-22T22:34:16Z</time>
      </trkpt>
      <trkpt lat="45.76855" lon="4.83183">
        <ele>190</ele>
        <time>2013-02-22T22:34:18Z</time>
      </trkpt>
      <trkpt lat="45.76866" lon="4.83178">
        <ele>191</ele>
        <time>2013-02-22T22:34:23Z</time>
      </trkpt>
      <trkpt lat="45.76868" lon="4.83178">
        <ele>191</ele>
        <time>2013-02-22T22:34:24Z</time>
      </trkpt>
      <trkpt lat="45.76879" lon="4.83171">
        <ele>192</ele>
        <time>2013-02-22T22:34:29Z</time>
      </trkpt>
      <trkpt lat="45.76886" lon="4.83168">
        <ele>192</ele>
        <time>2013-02-22T22:34:32Z</time>
      </trkpt>
      <trkpt lat="45.76886" lon="4.83171">
        <ele>192</ele>
        <time>2013-02-22T22:34:33Z</time>
      </trkpt>
      <trkpt lat="45.7689" lon="4.83175">
        <ele>192</ele>
        <time>2013-02-22T22:34:38Z</time>
      </trkpt>
      <trkpt lat="45.76896" lon="4.83175">
        <ele>193</ele>
        <time>2013-02-22T22:35:02Z</time>
      </trkpt>
      <trkpt lat="45.769" lon="4.83171">
        <ele>193</ele>
        <time>2013-02-22T22:35:07Z</time>
      </trkpt>
      <trkpt lat="45.76901" lon="4.83169">
        <ele>193</ele>
        <time>2013-02-22T22:35:10Z</time>
      </trkpt>
      <trkpt lat="45.76902" lon="4.83167">
        <ele>193</ele>
        <time>2013-02-22T22:35:11Z</time>
      </trkpt>
      <trkpt lat="45.76908" lon="4.83159">
        <ele>192</ele>
        <time>2013-02-22T22:35:15Z</time>
      </trkpt>
      <trkpt lat="45.76911" lon="4.8315">
        <ele>192</ele>
        <time>2013-02-22T22:35:20Z</time>
      </trkpt>
      <trkpt lat="45.76914" lon="4.83145">
        <ele>191</ele>
        <time>2013-02-22T22:35:25Z</time>
      </trkpt>
      <trkpt lat="45.76918" lon="4.8314">
        <ele>194</ele>
        <time>2013-02-22T22:35:28Z</time>
      </trkpt>
      <trkpt lat="45.7692" lon="4.83138">
        <ele>194</ele>
        <time>2013-02-22T22:35:29Z</time>
      </trkpt>
      <trkpt lat="45.7693" lon="4.83131">
        <ele>194</ele>
        <time>2013-02-22T22:35:33Z</time>
      </trkpt>
      <trkpt lat="45.76938" lon="4.83124">
        <ele>194</ele>
        <time>2013-02-22T22:35:36Z</time>
      </trkpt>
      <trkpt lat="45.76945" lon="4.83114">
        <ele>194</ele>
        <time>2013-02-22T22:35:39Z</time>
      </trkpt>
      <trkpt lat="45.76953" lon="4.83111">
        <ele>194</ele>
        <time>2013-02-22T22:35:42Z</time>
      </trkpt>
      <trkpt lat="45.76954" lon="4.8311">
        <ele>194</ele>
        <time>2013-02-22T22:35:43Z</time>
      </trkpt>
      <trkpt lat="45.76955" lon="4.83116">
        <ele>194</ele>
        <time>2013-02-22T22:35:47Z</time>
      </trkpt>
      <trkpt lat="45.76955" lon="4.83117">
        <ele>194</ele>
        <time>2013-02-22T22:35:48Z</time>
      </trkpt>
      <trkpt lat="45.76956" lon="4.83117">
        <ele>194</ele>
        <time>2013-02-22T22:35:49Z</time>
      </trkpt>
      <trkpt lat="45.76958" lon="4.83112">
        <ele>194</ele>
        <time>2013-02-22T22:35:51Z</time>
      </trkpt>
      <trkpt lat="45.76958" lon="4.8311">
        <ele>194</ele>
        <time>2013-02-22T22:35:52Z</time>
      </trkpt>
      <trkpt lat="45.76963" lon="4.83102">
        <ele>194</ele>
        <time>2013-02-22T22:35:55Z</time>
      </trkpt>
      <trkpt lat="45.76968" lon="4.831">
        <ele>194</ele>
        <time>2013-02-22T22:35:57Z</time>
      </trkpt>
      <trkpt lat="45.77041" lon="4.83088">
        <ele>204</ele>
        <time>2013-02-22T22:36:23Z</time>
      </trkpt>
      <trkpt lat="45.77041" lon="4.8309">
        <ele>204</ele>
        <time>2013-02-22T22:36:24Z</time>
      </trkpt>
      <trkpt lat="45.77043" lon="4.83097">
        <ele>204</ele>
        <time>2013-02-22T22:36:27Z</time>
      </trkpt>
      <trkpt lat="45.77043" lon="4.83096">
        <ele>204</ele>
        <time>2013-02-22T22:36:29Z</time>
      </trkpt>
      <trkpt lat="45.77042" lon="4.83098">
        <ele>204</ele>
        <time>2013-02-22T22:36:31Z</time>
      </trkpt>
      <trkpt lat="45.77043" lon="4.83099">
        <ele>204</ele>
        <time>2013-02-22T22:36:34Z</time>
      </trkpt>
      <trkpt lat="45.77046" lon="4.83094">
        <ele>204</ele>
        <time>2013-02-22T22:36:36Z</time>
      </trkpt>
      <trkpt lat="45.77049" lon="4.83091">
        <ele>205</ele>
        <time>2013-02-22T22:36:37Z</time>
      </trkpt>
      <trkpt lat="45.77052" lon="4.83087">
        <ele>205</ele>
        <time>2013-02-22T22:36:38Z</time>
      </trkpt>
      <trkpt lat="45.7706" lon="4.83078">
        <ele>204</ele>
        <time>2013-02-22T22:36:42Z</time>
      </trkpt>
      <trkpt lat="45.77318" lon="4.83078">
        <ele>254</ele>
        <time>2013-02-22T22:40:24Z</time>
      </trkpt>
      <trkpt lat="45.77316" lon="4.83079">
        <ele>254</ele>
        <time>2013-02-22T22:40:25Z</time>
      </trkpt>
      <trkpt lat="45.77332" lon="4.83086">
        <ele>255</ele>
        <time>2013-02-22T22:40:27Z</time>
      </trkpt>
      <trkpt lat="45.77335" lon="4.83087">
        <ele>256</ele>
        <time>2013-02-22T22:40:28Z</time>
      </trkpt>
      <trkpt lat="45.77339" lon="4.83087">
        <ele>256</ele>
        <time>2013-02-22T22:40:30Z</time>
      </trkpt>
      <trkpt lat="45.77341" lon="4.83087">
        <ele>256</ele>
        <time>2013-02-22T22:40:31Z</time>
      </trkpt>
      <trkpt lat="45.77343" lon="4.8309">
        <ele>255</ele>
        <time>2013-02-22T22:40:34Z</time>
      </trkpt>
      <trkpt lat="45.77345" lon="4.8309">
        <ele>255</ele>
        <time>2013-02-22T22:40:36Z</time>
      </trkpt>
      <trkpt lat="45.77345" lon="4.83089">
        <ele>255</ele>
        <time>2013-02-22T22:40:37Z</time>
      </trkpt>
      <trkpt lat="45.77347" lon="4.83086">
        <ele>255</ele>
        <time>2013-02-22T22:40:42Z</time>
      </trkpt>
      <trkpt lat="45.77361" lon="4.83089">
        <ele>255</ele>
        <time>2013-02-22T22:40:49Z</time>
      </trkpt>
      <trkpt lat="45.77367" lon="4.83091">
        <ele>255</ele>
        <time>2013-02-22T22:40:53Z</time>
      </trkpt>
      <trkpt lat="45.77372" lon="4.83094">
        <ele>255</ele>
        <time>2013-02-22T22:40:57Z</time>
      </trkpt>
      <trkpt lat="45.77378" lon="4.83101">
        <ele>255</ele>
        <time>2013-02-22T22:41:04Z</time>
      </trkpt>
      <trkpt lat="45.77382" lon="4.83103">
        <ele>255</ele>
        <time>2013-02-22T22:41:09Z</time>
      </trkpt>
      <trkpt lat="45.77384" lon="4.83103">
        <ele>255</ele>
        <time>2013-02-22T22:41:10Z</time>
      </trkpt>
      <trkpt lat="45.77396" lon="4.831">
        <ele>255</ele>
        <time>2013-02-22T22:41:17Z</time>
      </trkpt>
      <trkpt lat="45.77403" lon="4.83097">
        <ele>255</ele>
        <time>2013-02-22T22:41:22Z</time>
      </trkpt>
      <trkpt lat="45.77405" lon="4.83095">
        <ele>255</ele>
        <time>2013-02-22T22:41:25Z</time>
      </trkpt>
      <trkpt lat="45.77408" lon="4.83095">
        <ele>255</ele>
        <time>2013-02-22T22:42:23Z</time>
      </trkpt>
      <trkpt lat="45.77408" lon="4.83098">
        <ele>255</ele>
        <time>2013-02-22T22:42:25Z</time>
      </trkpt>
      <trkpt lat="45.77409" lon="4.83101">
        <ele>255</ele>
        <time>2013-02-22T22:42:27Z</time>
      </trkpt>
      <trkpt lat="45.77412" lon="4.83109">
        <ele>255</ele>
        <time>2013-02-22T22:42:32Z</time>
      </trkpt>
      <trkpt lat="45.77414" lon="4.8312">
        <ele>255</ele>
        <time>2013-02-22T22:42:39Z</time>
      </trkpt>
      <trkpt lat="45.77415" lon="4.83125">
        <ele>255</ele>
        <time>2013-02-22T22:42:41Z</time>
      </trkpt>
      <trkpt lat="45.77418" lon="4.83132">
        <ele>255</ele>
        <time>2013-02-22T22:42:43Z</time>
      </trkpt>
      <trkpt lat="45.7742" lon="4.83135">
        <ele>255</ele>
        <time>2013-02-22T22:42:44Z</time>
      </trkpt>
      <trkpt lat="45.77425" lon="4.83154">
        <ele>255</ele>
        <time>2013-02-22T22:42:49Z</time>
      </trkpt>
      <trkpt lat="45.77425" lon="4.83162">
        <ele>255</ele>
        <time>2013-02-22T22:42:51Z</time>
      </trkpt>
      <trkpt lat="45.77426" lon="4.83169">
        <ele>255</ele>
        <time>2013-02-22T22:42:53Z</time>
      </trkpt>
      <trkpt lat="45.77427" lon="4.83189">
        <ele>255</ele>
        <time>2013-02-22T22:42:58Z</time>
      </trkpt>
      <trkpt lat="45.77428" lon="4.83194">
        <ele>255</ele>
        <time>2013-02-22T22:42:59Z</time>
      </trkpt>
      <trkpt lat="45.77431" lon="4.83214">
        <ele>255</ele>
        <time>2013-02-22T22:43:04Z</time>
      </trkpt>
      <trkpt lat="45.77431" lon="4.83217">
        <ele>255</ele>
        <time>2013-02-22T22:43:05Z</time>
      </trkpt>
      <trkpt lat="45.77434" lon="4.83235">
        <ele>255</ele>
        <time>2013-02-22T22:43:10Z</time>
      </trkpt>
      <trkpt lat="45.77434" lon="4.83243">
        <ele>255</ele>
        <time>2013-02-22T22:43:12Z</time>
      </trkpt>
      <trkpt lat="45.77435" lon="4.83261">
        <ele>255</ele>
        <time>2013-02-22T22:43:17Z</time>
      </trkpt>
      <trkpt lat="45.77436" lon="4.83272">
        <ele>255</ele>
        <time>2013-02-22T22:43:20Z</time>
      </trkpt>
      <trkpt lat="45.77436" lon="4.83279">
        <ele>255</ele>
        <time>2013-02-22T22:43:22Z</time>
      </trkpt>
      <trkpt lat="45.77438" lon="4.833">
        <ele>255</ele>
        <time>2013-02-22T22:43:28Z</time>
      </trkpt>
      <trkpt lat="45.77439" lon="4.83307">
        <ele>255</ele>
        <time>2013-02-22T22:43:30Z</time>
      </trkpt>
      <trkpt lat="45.77441" lon="4.83318">
        <ele>255</ele>
        <time>2013-02-22T22:43:33Z</time>
      </trkpt>
      <trkpt lat="45.77444" lon="4.83326">
        <ele>255</ele>
        <time>2013-02-22T22:43:35Z</time>
      </trkpt>
      <trkpt lat="45.77445" lon="4.83341">
        <ele>255</ele>
        <time>2013-02-22T22:43:39Z</time>
      </trkpt>
      <trkpt lat="45.77446" lon="4.83353">
        <ele>254</ele>
        <time>2013-02-22T22:43:42Z</time>
      </trkpt>
      <trkpt lat="45.77447" lon="4.83357">
        <ele>254</ele>
        <time>2013-02-22T22:43:43Z</time>
      </trkpt>
      <trkpt lat="45.77448" lon="4.83377">
        <ele>254</ele>
        <time>2013-02-22T22:43:48Z</time>
      </trkpt>
      <trkpt lat="45.77448" lon="4.83382">
        <ele>254</ele>
        <time>2013-02-22T22:43:49Z</time>
      </trkpt>
      <trkpt lat="45.77446" lon="4.83398">
        <ele>254</ele>
        <time>2013-02-22T22:43:53Z</time>
      </trkpt>
      <trkpt lat="45.77446" lon="4.83402">
        <ele>254</ele>
        <time>2013-02-22T22:43:54Z</time>
      </trkpt>
      <trkpt lat="45.77445" lon="4.8341">
        <ele>254</ele>
        <time>2013-02-22T22:43:56Z</time>
      </trkpt>
      <trkpt lat="45.77445" lon="4.83414">
        <ele>254</ele>
        <time>2013-02-22T22:43:57Z</time>
      </trkpt>
      <trkpt lat="45.77445" lon="4.83425">
        <ele>253</ele>
        <time>2013-02-22T22:44:00Z</time>
      </trkpt>
      <trkpt lat="45.77445" lon="4.8343">
        <ele>252</ele>
        <time>2013-02-22T22:44:01Z</time>
      </trkpt>
      <trkpt lat="45.77445" lon="4.83438">
        <ele>252</ele>
        <time>2013-02-22T22:44:03Z</time>
      </trkpt>
      <trkpt lat="45.77447" lon="4.83453">
        <ele>252</ele>
        <time>2013-02-22T22:44:07Z</time>
      </trkpt>
      <trkpt lat="45.77448" lon="4.83465">
        <ele>252</ele>
        <time>2013-02-22T22:44:10Z</time>
      </trkpt>
      <trkpt lat="45.77449" lon="4.83474">
        <ele>251</ele>
        <time>2013-02-22T22:44:13Z</time>
      </trkpt>
      <trkpt lat="45.7745" lon="4.83488">
        <ele>251</ele>
        <time>2013-02-22T22:44:18Z</time>
      </trkpt>
      <trkpt lat="45.77449" lon="4.83492">
        <ele>251</ele>
        <time>2013-02-22T22:44:19Z</time>
      </trkpt>
      <trkpt lat="45.77444" lon="4.83512">
        <ele>248</ele>
        <time>2013-02-22T22:44:24Z</time>
      </trkpt>
      <trkpt lat="45.77442" lon="4.83519">
        <ele>247</ele>
        <time>2013-02-22T22:44:26Z</time>
      </trkpt>
      <trkpt lat="45.77438" lon="4.83536">
        <ele>246</ele>
        <time>2013-02-22T22:44:31Z</time>
      </trkpt>
      <trkpt lat="45.77436" lon="4.83544">
        <ele>246</ele>
        <time>2013-02-22T22:44:35Z</time>
      </trkpt>
      <trkpt lat="45.77435" lon="4.83545">
        <ele>245</ele>
        <time>2013-02-22T22:44:36Z</time>
      </trkpt>
      <trkpt lat="45.77433" lon="4.83555">
        <ele>245</ele>
        <time>2013-02-22T22:44:42Z</time>
      </trkpt>
      <trkpt lat="45.77432" lon="4.83558">
        <ele>244</ele>
        <time>2013-02-22T22:44:44Z</time>
      </trkpt>
      <trkpt lat="45.77432" lon="4.83561">
        <ele>244</ele>
        <time>2013-02-22T22:44:46Z</time>
      </trkpt>
      <trkpt lat="45.77429" lon="4.83569">
        <ele>243</ele>
        <time>2013-02-22T22:44:50Z</time>
      </trkpt>
      <trkpt lat="45.77429" lon="4.83571">
        <ele>243</ele>
        <time>2013-02-22T22:44:51Z</time>
      </trkpt>
      <trkpt lat="45.77427" lon="4.83579">
        <ele>242</ele>
        <time>2013-02-22T22:44:54Z</time>
      </trkpt>
      <trkpt lat="45.77425" lon="4.83581">
        <ele>241</ele>
        <time>2013-02-22T22:44:55Z</time>
      </trkpt>
      <trkpt lat="45.77421" lon="4.83583">
        <ele>240</ele>
        <time>2013-02-22T22:45:00Z</time>
      </trkpt>
      <trkpt lat="45.77419" lon="4.83582">
        <ele>240</ele>
        <time>2013-02-22T22:45:03Z</time>
      </trkpt>
      <trkpt lat="45.77418" lon="4.83582">
        <ele>240</ele>
        <time>2013-02-22T22:45:07Z</time>
      </trkpt>
      <trkpt lat="45.77417" lon="4.83579">
        <ele>240</ele>
        <time>2013-02-22T22:45:11Z</time>
      </trkpt>
      <trkpt lat="45.77417" lon="4.83576">
        <ele>240</ele>
        <time>2013-02-22T22:45:14Z</time>
      </trkpt>
      <trkpt lat="45.77417" lon="4.83576">
        <ele>241</ele>
        <time>2013-02-22T22:45:20Z</time>
      </trkpt>
      <trkpt lat="45.77418" lon="4.83577">
        <ele>241</ele>
        <time>2013-02-22T22:45:21Z</time>
      </trkpt>
      <trkpt lat="45.77422" lon="4.83583">
        <ele>240</ele>
        <time>2013-02-22T22:45:24Z</time>
      </trkpt>
      <trkpt lat="45.77422" lon="4.83587">
        <ele>238</ele>
        <time>2013-02-22T22:45:26Z</time>
      </trkpt>
      <trkpt lat="45.77421" lon="4.83592">
        <ele>237</ele>
        <time>2013-02-22T22:45:28Z</time>
      </trkpt>
      <trkpt lat="45.7742" lon="4.83594">
        <ele>237</ele>
        <time>2013-02-22T22:45:29Z</time>
      </trkpt>
      <trkpt lat="45.77418" lon="4.836">
        <ele>236</ele>
        <time>2013-02-22T22:45:32Z</time>
      </trkpt>
      <trkpt lat="45.77413" lon="4.83612">
        <ele>228</ele>
        <time>2013-02-22T22:45:39Z</time>
      </trkpt>
      <trkpt lat="45.77411" lon="4.83617">
        <ele>227</ele>
        <time>2013-02-22T22:45:41Z</time>
      </trkpt>
      <trkpt lat="45.77415" lon="4.83621">
        <ele>226</ele>
        <time>2013-02-22T22:45:43Z</time>
      </trkpt>
      <trkpt lat="45.77426" lon="4.83632">
        <ele>231</ele>
        <time>2013-02-22T22:45:50Z</time>
      </trkpt>
      <trkpt lat="45.77428" lon="4.83634">
        <ele>231</ele>
        <time>2013-02-22T22:45:51Z</time>
      </trkpt>
      <trkpt lat="45.77437" lon="4.83639">
        <ele>231</ele>
        <time>2013-02-22T22:45:56Z</time>
      </trkpt>
      <trkpt lat="45.7744" lon="4.83639">
        <ele>231</ele>
        <time>2013-02-22T22:45:58Z</time>
      </trkpt>
      <trkpt lat="45.77443" lon="4.83634">
        <ele>232</ele>
        <time>2013-02-22T22:46:01Z</time>
      </trkpt>
      <trkpt lat="45.77449" lon="4.8363">
        <ele>233</ele>
        <time>2013-02-22T22:46:04Z</time>
      </trkpt>
      <trkpt lat="45.77459" lon="4.83631">
        <ele>233</ele>
        <time>2013-02-22T22:46:07Z</time>
      </trkpt>
      <trkpt lat="45.77461" lon="4.83631">
        <ele>234</ele>
        <time>2013-02-22T22:46:08Z</time>
      </trkpt>
      <trkpt lat="45.77462" lon="4.8363">
        <ele>234</ele>
        <time>2013-02-22T22:46:09Z</time>
      </trkpt>
      <trkpt lat="45.77463" lon="4.83628">
        <ele>234</ele>
        <time>2013-02-22T22:46:11Z</time>
      </trkpt>
      <trkpt lat="45.77466" lon="4.83625">
        <ele>234</ele>
        <time>2013-02-22T22:46:18Z</time>
      </trkpt>
      <trkpt lat="45.77466" lon="4.83628">
        <ele>234</ele>
        <time>2013-02-22T22:46:20Z</time>
      </trkpt>
      <trkpt lat="45.77468" lon="4.83633">
        <ele>234</ele>
        <time>2013-02-22T22:46:25Z</time>
      </trkpt>
      <trkpt lat="45.77469" lon="4.83639">
        <ele>233</ele>
        <time>2013-02-22T22:46:31Z</time>
      </trkpt>
      <trkpt lat="45.77474" lon="4.83642">
        <ele>233</ele>
        <time>2013-02-22T22:46:34Z</time>
      </trkpt>
      <trkpt lat="45.77475" lon="4.83645">
        <ele>233</ele>
        <time>2013-02-22T22:46:37Z</time>
      </trkpt>
      <trkpt lat="45.77474" lon="4.83647">
        <ele>233</ele>
        <time>2013-02-22T22:46:38Z</time>
      </trkpt>
      <trkpt lat="45.7747" lon="4.83654">
        <ele>232</ele>
        <time>2013-02-22T22:46:42Z</time>
      </trkpt>
      <trkpt lat="45.77472" lon="4.83658">
        <ele>232</ele>
        <time>2013-02-22T22:46:47Z</time>
      </trkpt>
      <trkpt lat="45.77472" lon="4.83669">
        <ele>221</ele>
        <time>2013-02-22T22:46:50Z</time>
      </trkpt>
      <trkpt lat="45.7747" lon="4.83676">
        <ele>220</ele>
        <time>2013-02-22T22:46:53Z</time>
      </trkpt>
      <trkpt lat="45.77467" lon="4.83684">
        <ele>219</ele>
        <time>2013-02-22T22:46:56Z</time>
      </trkpt>
      <trkpt lat="45.77466" lon="4.83687">
        <ele>218</ele>
        <time>2013-02-22T22:46:58Z</time>
      </trkpt>
      <trkpt lat="45.77464" lon="4.83694">
        <ele>217</ele>
        <time>2013-02-22T22:47:01Z</time>
      </trkpt>
      <trkpt lat="45.77462" lon="4.83703">
        <ele>216</ele>
        <time>2013-02-22T22:47:05Z</time>
      </trkpt>
      <trkpt lat="45.77459" lon="4.83704">
        <ele>216</ele>
        <time>2013-02-22T22:47:11Z</time>
      </trkpt>
      <trkpt lat="45.77456" lon="4.83705">
        <ele>215</ele>
        <time>2013-02-22T22:47:16Z</time>
      </trkpt>
      <trkpt lat="45.77454" lon="4.8371">
        <ele>214</ele>
        <time>2013-02-22T22:47:21Z</time>
      </trkpt>
      <trkpt lat="45.77452" lon="4.83713">
        <ele>214</ele>
        <time>2013-02-22T22:47:23Z</time>
      </trkpt>
      <trkpt lat="45.77448" lon="4.83715">
        <ele>213</ele>
        <time>2013-02-22T22:47:29Z</time>
      </trkpt>
      <trkpt lat="45.77447" lon="4.83718">
        <ele>213</ele>
        <time>2013-02-22T22:47:30Z</time>
      </trkpt>
      <trkpt lat="45.77445" lon="4.83719">
        <ele>212</ele>
        <time>2013-02-22T22:47:32Z</time>
      </trkpt>
      <trkpt lat="45.77443" lon="4.83719">
        <ele>212</ele>
        <time>2013-02-22T22:47:34Z</time>
      </trkpt>
      <trkpt lat="45.77438" lon="4.83722">
        <ele>211</ele>
        <time>2013-02-22T22:47:41Z</time>
      </trkpt>
      <trkpt lat="45.77429" lon="4.83725">
        <ele>210</ele>
        <time>2013-02-22T22:47:47Z</time>
      </trkpt>
      <trkpt lat="45.77427" lon="4.83726">
        <ele>209</ele>
        <time>2013-02-22T22:47:51Z</time>
      </trkpt>
      <trkpt lat="45.77426" lon="4.83727">
        <ele>209</ele>
        <time>2013-02-22T22:47:52Z</time>
      </trkpt>
      <trkpt lat="45.77428" lon="4.83731">
        <ele>208</ele>
        <time>2013-02-22T22:47:56Z</time>
      </trkpt>
      <trkpt lat="45.77433" lon="4.83731">
        <ele>209</ele>
        <time>2013-02-22T22:47:59Z</time>
      </trkpt>
      <trkpt lat="45.77434" lon="4.83732">
        <ele>209</ele>
        <time>2013-02-22T22:48:00Z</time>
      </trkpt>
      <trkpt lat="45.77436" lon="4.83741">
        <ele>208</ele>
        <time>2013-02-22T22:48:04Z</time>
      </trkpt>
      <trkpt lat="45.77437" lon="4.83743">
        <ele>208</ele>
        <time>2013-02-22T22:48:05Z</time>
      </trkpt>
      <trkpt lat="45.77436" lon="4.83742">
        <ele>207</ele>
        <time>2013-02-22T22:48:07Z</time>
      </trkpt>
      <trkpt lat="45.77433" lon="4.83739">
        <ele>207</ele>
        <time>2013-02-22T22:48:09Z</time>
      </trkpt>
      <trkpt lat="45.77428" lon="4.83736">
        <ele>207</ele>
        <time>2013-02-22T22:48:12Z</time>
      </trkpt>
      <trkpt lat="45.77426" lon="4.83736">
        <ele>206</ele>
        <time>2013-02-22T22:48:14Z</time>
      </trkpt>
      <trkpt lat="45.77425" lon="4.83737">
        <ele>206</ele>
        <time>2013-02-22T22:48:15Z</time>
      </trkpt>
      <trkpt lat="45.7742" lon="4.8374">
        <ele>204</ele>
        <time>2013-02-22T22:48:18Z</time>
      </trkpt>
      <trkpt lat="45.77417" lon="4.83743">
        <ele>202</ele>
        <time>2013-02-22T22:48:20Z</time>
      </trkpt>
      <trkpt lat="45.77418" lon="4.83749">
        <ele>199</ele>
        <time>2013-02-22T22:48:23Z</time>
      </trkpt>
      <trkpt lat="45.77418" lon="4.83753">
        <ele>198</ele>
        <time>2013-02-22T22:48:27Z</time>
      </trkpt>
      <trkpt lat="45.77419" lon="4.83755">
        <ele>197</ele>
        <time>2013-02-22T22:48:28Z</time>
      </trkpt>
      <trkpt lat="45.77418" lon="4.83759">
        <ele>197</ele>
        <time>2013-02-22T22:48:30Z</time>
      </trkpt>
      <trkpt lat="45.77417" lon="4.8376">
        <ele>194</ele>
        <time>2013-02-22T22:48:32Z</time>
      </trkpt>
      <trkpt lat="45.77414" lon="4.83766">
        <ele>192</ele>
        <time>2013-02-22T22:48:38Z</time>
      </trkpt>
      <trkpt lat="45.7741" lon="4.83767">
        <ele>191</ele>
        <time>2013-02-22T22:48:44Z</time>
      </trkpt>
      <trkpt lat="45.77407" lon="4.8377">
        <ele>190</ele>
        <time>2013-02-22T22:48:46Z</time>
      </trkpt>
      <trkpt lat="45.77406" lon="4.83771">
        <ele>190</ele>
        <time>2013-02-22T22:48:47Z</time>
      </trkpt>
      <trkpt lat="45.77405" lon="4.83772">
        <ele>190</ele>
        <time>2013-02-22T22:48:50Z</time>
      </trkpt>
      <trkpt lat="45.77407" lon="4.83769">
        <ele>190</ele>
        <time>2013-02-22T22:48:52Z</time>
      </trkpt>
      <trkpt lat="45.77409" lon="4.83772">
        <ele>190</ele>
        <time>2013-02-22T22:48:55Z</time>
      </trkpt>
      <trkpt lat="45.77408" lon="4.83781">
        <ele>188</ele>
        <time>2013-02-22T22:48:57Z</time>
      </trkpt>
      <trkpt lat="45.77407" lon="4.83793">
        <ele>187</ele>
        <time>2013-02-22T22:49:00Z</time>
      </trkpt>
      <trkpt lat="45.77402" lon="4.83799">
        <ele>186</ele>
        <time>2013-02-22T22:49:03Z</time>
      </trkpt>
      <trkpt lat="45.77399" lon="4.83815">
        <ele>184</ele>
        <time>2013-02-22T22:49:08Z</time>
      </trkpt>
      <trkpt lat="45.77398" lon="4.83819">
        <ele>184</ele>
        <time>2013-02-22T22:49:09Z</time>
      </trkpt>
      <trkpt lat="45.77396" lon="4.83824">
        <ele>183</ele>
        <time>2013-02-22T22:49:11Z</time>
      </trkpt>
      <trkpt lat="45.77391" lon="4.83824">
        <ele>183</ele>
        <time>2013-02-22T22:49:13Z</time>
      </trkpt>
      <trkpt lat="45.77384" lon="4.83819">
        <ele>183</ele>
        <time>2013-02-22T22:49:16Z</time>
      </trkpt>
      <trkpt lat="45.77382" lon="4.83816">
        <ele>183</ele>
        <time>2013-02-22T22:49:17Z</time>
      </trkpt>
      <trkpt lat="45.7738" lon="4.83814">
        <ele>184</ele>
        <time>2013-02-22T22:49:18Z</time>
      </trkpt>
      <trkpt lat="45.77368" lon="4.83801">
        <ele>184</ele>
        <time>2013-02-22T22:49:24Z</time>
      </trkpt>
      <trkpt lat="45.77365" lon="4.83795">
        <ele>184</ele>
        <time>2013-02-22T22:49:28Z</time>
      </trkpt>
      <trkpt lat="45.77365" lon="4.83794">
        <ele>184</ele>
        <time>2013-02-22T22:49:29Z</time>
      </trkpt>
      <trkpt lat="45.77365" lon="4.83791">
        <ele>184</ele>
        <time>2013-02-22T22:49:34Z</time>
      </trkpt>
      <trkpt lat="45.77365" lon="4.83789">
        <ele>185</ele>
        <time>2013-02-22T22:49:55Z</time>
      </trkpt>
      <trkpt lat="45.77367" lon="4.83786">
        <ele>185</ele>
        <time>2013-02-22T22:49:59Z</time>
      </trkpt>
      <trkpt lat="45.77368" lon="4.83776">
        <ele>186</ele>
        <time>2013-02-22T22:50:10Z</time>
      </trkpt>
      <trkpt lat="45.77367" lon="4.83779">
        <ele>185</ele>
        <time>2013-02-22T22:50:11Z</time>
      </trkpt>
      <trkpt lat="45.77367" lon="4.83779">
        <ele>186</ele>
        <time>2013-02-22T22:50:13Z</time>
      </trkpt>
      <trkpt lat="45.77368" lon="4.83777">
        <ele>186</ele>
        <time>2013-02-22T22:50:14Z</time>
      </trkpt>
      <trkpt lat="45.77371" lon="4.83768">
        <ele>186</ele>
        <time>2013-02-22T22:50:20Z</time>
      </trkpt>
      <trkpt lat="45.77371" lon="4.83768">
        <ele>187</ele>
        <time>2013-02-22T22:50:21Z</time>
      </trkpt>
      <trkpt lat="45.77373" lon="4.83768">
        <ele>187</ele>
        <time>2013-02-22T22:50:22Z</time>
      </trkpt>
      <trkpt lat="45.77374" lon="4.83767">
        <ele>187</ele>
        <time>2013-02-22T22:50:24Z</time>
      </trkpt>
      <trkpt lat="45.77378" lon="4.83766">
        <ele>187</ele>
        <time>2013-02-22T22:50:26Z</time>
      </trkpt>
      <trkpt lat="45.77378" lon="4.83766">
        <ele>187</ele>
        <time>2013-02-22T22:50:27Z</time>
      </trkpt>
      <trkpt lat="45.77377" lon="4.83767">
        <ele>187</ele>
        <time>2013-02-22T22:50:30Z</time>
      </trkpt>
      <trkpt lat="45.77376" lon="4.83764">
        <ele>187</ele>
        <time>2013-02-22T22:50:32Z</time>
      </trkpt>
      <trkpt lat="45.77375" lon="4.83758">
        <ele>187</ele>
        <time>2013-02-22T22:50:36Z</time>
      </trkpt>
      <trkpt lat="45.77372" lon="4.83756">
        <ele>187</ele>
        <time>2013-02-22T22:50:42Z</time>
      </trkpt>
      <trkpt lat="45.77372" lon="4.83752">
        <ele>187</ele>
        <time>2013-02-22T22:50:46Z</time>
      </trkpt>
      <trkpt lat="45.77372" lon="4.83754">
        <ele>187</ele>
        <time>2013-02-22T22:50:48Z</time>
      </trkpt>
      <trkpt lat="45.77371" lon="4.83759">
        <ele>187</ele>
        <time>2013-02-22T22:50:53Z</time>
      </trkpt>
      <trkpt lat="45.77371" lon="4.83762">
        <ele>187</ele>
        <time>2013-02-22T22:50:56Z</time>
      </trkpt>
      <trkpt lat="45.77371" lon="4.83763">
        <ele>187</ele>
        <time>2013-02-22T22:50:57Z</time>
      </trkpt>
      <trkpt lat="45.77371" lon="4.83762">
        <ele>187</ele>
        <time>2013-02-22T22:51:00Z</time>
      </trkpt>
      <trkpt lat="45.77378" lon="4.83762">
        <ele>187</ele>
        <time>2013-02-22T22:51:04Z</time>
      </trkpt>
      <trkpt lat="45.77377" lon="4.83764">
        <ele>187</ele>
        <time>2013-02-22T22:51:05Z</time>
      </trkpt>
      <trkpt lat="45.77375" lon="4.83765">
        <ele>187</ele>
        <time>2013-02-22T22:51:06Z</time>
      </trkpt>
      <trkpt lat="45.77369" lon="4.83768">
        <ele>186</ele>
        <time>2013-02-22T22:51:09Z</time>
      </trkpt>
      <trkpt lat="45.77368" lon="4.83767">
        <ele>186</ele>
        <time>2013-02-22T22:51:11Z</time>
      </trkpt>
      <trkpt lat="45.77372" lon="4.83766">
        <ele>187</ele>
        <time>2013-02-22T22:51:13Z</time>
      </trkpt>
      <trkpt lat="45.7737" lon="4.83761">
        <ele>187</ele>
        <time>2013-02-22T22:51:18Z</time>
      </trkpt>
      <trkpt lat="45.77362" lon="4.83752">
        <ele>187</ele>
        <time>2013-02-22T22:51:28Z</time>
      </trkpt>
      <trkpt lat="45.77364" lon="4.8375">
        <ele>197</ele>
        <time>2013-02-22T22:51:31Z</time>
      </trkpt>
      <trkpt lat="45.7737" lon="4.83748">
        <ele>198</ele>
        <time>2013-02-22T22:51:34Z</time>
      </trkpt>
      <trkpt lat="45.77378" lon="4.83743">
        <ele>199</ele>
        <time>2013-02-22T22:51:38Z</time>
      </trkpt>
      <trkpt lat="45.77377" lon="4.8374">
        <ele>199</ele>
        <time>2013-02-22T22:51:41Z</time>
      </trkpt>
      <trkpt lat="45.7738" lon="4.83734">
        <ele>200</ele>
        <time>2013-02-22T22:51:43Z</time>
      </trkpt>
      <trkpt lat="45.77382" lon="4.83732">
        <ele>200</ele>
        <time>2013-02-22T22:51:44Z</time>
      </trkpt>
      <trkpt lat="45.77386" lon="4.83728">
        <ele>201</ele>
        <time>2013-02-22T22:51:51Z</time>
      </trkpt>
      <trkpt lat="45.77381" lon="4.83715">
        <ele>202</ele>
        <time>2013-02-22T22:51:58Z</time>
      </trkpt>
      <trkpt lat="45.77379" lon="4.83719">
        <ele>201</ele>
        <time>2013-02-22T22:51:59Z</time>
      </trkpt>
      <trkpt lat="45.77376" lon="4.83715">
        <ele>201</ele>
        <time>2013-02-22T22:52:02Z</time>
      </trkpt>
      <trkpt lat="45.77374" lon="4.83712">
        <ele>201</ele>
        <time>2013-02-22T22:52:05Z</time>
      </trkpt>
      <trkpt lat="45.77375" lon="4.83711">
        <ele>202</ele>
        <time>2013-02-22T22:52:06Z</time>
      </trkpt>
      <trkpt lat="45.7737" lon="4.83726">
        <ele>200</ele>
        <time>2013-02-22T22:52:13Z</time>
      </trkpt>
      <trkpt lat="45.77369" lon="4.8373">
        <ele>199</ele>
        <time>2013-02-22T22:52:14Z</time>
      </trkpt>
      <trkpt lat="45.7737" lon="4.83733">
        <ele>199</ele>
        <time>2013-02-22T22:52:20Z</time>
      </trkpt>
      <trkpt lat="45.77379" lon="4.8373">
        <ele>200</ele>
        <time>2013-02-22T22:52:37Z</time>
      </trkpt>
      <trkpt lat="45.77377" lon="4.83733">
        <ele>199</ele>
        <time>2013-02-22T22:52:40Z</time>
      </trkpt>
      <trkpt lat="45.77378" lon="4.83727">
        <ele>200</ele>
        <time>2013-02-22T22:52:45Z</time>
      </trkpt>
      <trkpt lat="45.77378" lon="4.8372">
        <ele>201</ele>
        <time>2013-02-22T22:52:51Z</time>
      </trkpt>
      <trkpt lat="45.77379" lon="4.83719">
        <ele>201</ele>
        <time>2013-02-22T22:52:52Z</time>
      </trkpt>
      <trkpt lat="45.77382" lon="4.83712">
        <ele>202</ele>
        <time>2013-02-22T22:52:56Z</time>
      </trkpt>
      <trkpt lat="45.77382" lon="4.8371">
        <ele>202</ele>
        <time>2013-02-22T22:52:57Z</time>
      </trkpt>
      <trkpt lat="45.77383" lon="4.83707">
        <ele>203</ele>
        <time>2013-02-22T22:52:59Z</time>
      </trkpt>
      <trkpt lat="45.77387" lon="4.83698">
        <ele>204</ele>
        <time>2013-02-22T22:53:03Z</time>
      </trkpt>
      <trkpt lat="45.77388" lon="4.83696">
        <ele>205</ele>
        <time>2013-02-22T22:53:04Z</time>
      </trkpt>
      <trkpt lat="45.77391" lon="4.83689">
        <ele>206</ele>
        <time>2013-02-22T22:53:06Z</time>
      </trkpt>
      <trkpt lat="45.77394" lon="4.83687">
        <ele>207</ele>
        <time>2013-02-22T22:53:07Z</time>
      </trkpt>
      <trkpt lat="45.77399" lon="4.83672">
        <ele>211</ele>
        <time>2013-02-22T22:53:12Z</time>
      </trkpt>
      <trkpt lat="45.77399" lon="4.83665">
        <ele>221</ele>
        <time>2013-02-22T22:53:14Z</time>
      </trkpt>
      <trkpt lat="45.774" lon="4.83656">
        <ele>221</ele>
        <time>2013-02-22T22:53:17Z</time>
      </trkpt>
      <trkpt lat="45.774" lon="4.83656">
        <ele>221</ele>
        <time>2013-02-22T22:53:18Z</time>
      </trkpt>
      <trkpt lat="45.774" lon="4.83659">
        <ele>221</ele>
        <time>2013-02-22T22:53:20Z</time>
      </trkpt>
      <trkpt lat="45.774" lon="4.8366">
        <ele>221</ele>
        <time>2013-02-22T22:53:21Z</time>
      </trkpt>
      <trkpt lat="45.77405" lon="4.8366">
        <ele>221</ele>
        <time>2013-02-22T22:53:29Z</time>
      </trkpt>
      <trkpt lat="45.77407" lon="4.8366">
        <ele>221</ele>
        <time>2013-02-22T22:53:31Z</time>
      </trkpt>
      <trkpt lat="45.77409" lon="4.8366">
        <ele>221</ele>
        <time>2013-02-22T22:53:33Z</time>
      </trkpt>
      <trkpt lat="45.77412" lon="4.83661">
        <ele>221</ele>
        <time>2013-02-22T22:53:37Z</time>
      </trkpt>
      <trkpt lat="45.77423" lon="4.83672">
        <ele>219</ele>
        <time>2013-02-22T22:53:50Z</time>
      </trkpt>
      <trkpt lat="45.77425" lon="4.83669">
        <ele>219</ele>
        <time>2013-02-22T22:53:52Z</time>
      </trkpt>
      <trkpt lat="45.77429" lon="4.83672">
        <ele>218</ele>
        <time>2013-02-22T22:54:03Z</time>
      </trkpt>
      <trkpt lat="45.7743" lon="4.83676">
        <ele>218</ele>
        <time>2013-02-22T22:54:09Z</time>
      </trkpt>
      <trkpt lat="45.77432" lon="4.83669">
        <ele>218</ele>
        <time>2013-02-22T22:54:13Z</time>
      </trkpt>
      <trkpt lat="45.77431" lon="4.83665">
        <ele>226</ele>
        <time>2013-02-22T22:54:18Z</time>
      </trkpt>
      <trkpt lat="45.77431" lon="4.83664">
        <ele>226</ele>
        <time>2013-02-22T22:54:19Z</time>
      </trkpt>
      <trkpt lat="45.77432" lon="4.83664">
        <ele>226</ele>
        <time>2013-02-22T22:54:20Z</time>
      </trkpt>
      <trkpt lat="45.77436" lon="4.83658">
        <ele>228</ele>
        <time>2013-02-22T22:54:25Z</time>
      </trkpt>
      <trkpt lat="45.77436" lon="4.83657">
        <ele>228</ele>
        <time>2013-02-22T22:54:26Z</time>
      </trkpt>
      <trkpt lat="45.77436" lon="4.83653">
        <ele>229</ele>
        <time>2013-02-22T22:54:31Z</time>
      </trkpt>
      <trkpt lat="45.77437" lon="4.83647">
        <ele>230</ele>
        <time>2013-02-22T22:54:37Z</time>
      </trkpt>
      <trkpt lat="45.77438" lon="4.83645">
        <ele>230</ele>
        <time>2013-02-22T22:54:42Z</time>
      </trkpt>
      <trkpt lat="45.77439" lon="4.83645">
        <ele>230</ele>
        <time>2013-02-22T22:54:53Z</time>
      </trkpt>
      <trkpt lat="45.77435" lon="4.83643">
        <ele>230</ele>
        <time>2013-02-22T22:55:30Z</time>
      </trkpt>
      <trkpt lat="45.77426" lon="4.83635">
        <ele>231</ele>
        <time>2013-02-22T22:55:38Z</time>
      </trkpt>
      <trkpt lat="45.77422" lon="4.83633">
        <ele>231</ele>
        <time>2013-02-22T22:55:40Z</time>
      </trkpt>
      <trkpt lat="45.77414" lon="4.83625">
        <ele>226</ele>
        <time>2013-02-22T22:55:45Z</time>
      </trkpt>
      <trkpt lat="45.77406" lon="4.8362">
        <ele>226</ele>
        <time>2013-02-22T22:55:49Z</time>
      </trkpt>
      <trkpt lat="45.77399" lon="4.83618">
        <ele>226</ele>
        <time>2013-02-22T22:55:51Z</time>
      </trkpt>
      <trkpt lat="45.77389" lon="4.83614">
        <ele>226</ele>
        <time>2013-02-22T22:55:54Z</time>
      </trkpt>
      <trkpt lat="45.77384" lon="4.83611">
        <ele>226</ele>
        <time>2013-02-22T22:55:56Z</time>
      </trkpt>
      <trkpt lat="45.77379" lon="4.83596">
        <ele>227</ele>
        <time>2013-02-22T22:56:02Z</time>
      </trkpt>
      <trkpt lat="45.77378" lon="4.83592">
        <ele>227</ele>
        <time>2013-02-22T22:56:03Z</time>
      </trkpt>
      <trkpt lat="45.77368" lon="4.83574">
        <ele>238</ele>
        <time>2013-02-22T22:56:08Z</time>
      </trkpt>
      <trkpt lat="45.77365" lon="4.8357">
        <ele>238</ele>
        <time>2013-02-22T22:56:09Z</time>
      </trkpt>
      <trkpt lat="45.77351" lon="4.83559">
        <ele>238</ele>
        <time>2013-02-22T22:56:14Z</time>
      </trkpt>
      <trkpt lat="45.77348" lon="4.83557">
        <ele>238</ele>
        <time>2013-02-22T22:56:16Z</time>
      </trkpt>
      <trkpt lat="45.77343" lon="4.83552">
        <ele>238</ele>
        <time>2013-02-22T22:56:20Z</time>
      </trkpt>
      <trkpt lat="45.77334" lon="4.83545">
        <ele>239</ele>
        <time>2013-02-22T22:56:24Z</time>
      </trkpt>
      <trkpt lat="45.77332" lon="4.83544">
        <ele>232</ele>
        <time>2013-02-22T22:56:25Z</time>
      </trkpt>
      <trkpt lat="45.77326" lon="4.8354">
        <ele>232</ele>
        <time>2013-02-22T22:56:29Z</time>
      </trkpt>
      <trkpt lat="45.7731" lon="4.83536">
        <ele>232</ele>
        <time>2013-02-22T22:56:35Z</time>
      </trkpt>
      <trkpt lat="45.773" lon="4.83526">
        <ele>232</ele>
        <time>2013-02-22T22:56:40Z</time>
      </trkpt>
      <trkpt lat="45.77295" lon="4.83518">
        <ele>232</ele>
        <time>2013-02-22T22:56:43Z</time>
      </trkpt>
      <trkpt lat="45.77291" lon="4.83513">
        <ele>232</ele>
        <time>2013-02-22T22:56:45Z</time>
      </trkpt>
      <trkpt lat="45.77281" lon="4.83499">
        <ele>238</ele>
        <time>2013-02-22T22:56:51Z</time>
      </trkpt>
      <trkpt lat="45.77275" lon="4.83491">
        <ele>237</ele>
        <time>2013-02-22T22:56:55Z</time>
      </trkpt>
      <trkpt lat="45.77275" lon="4.83488">
        <ele>238</ele>
        <time>2013-02-22T22:56:56Z</time>
      </trkpt>
      <trkpt lat="45.77272" lon="4.8348">
        <ele>238</ele>
        <time>2013-02-22T22:57:00Z</time>
      </trkpt>
      <trkpt lat="45.77272" lon="4.83479">
        <ele>238</ele>
        <time>2013-02-22T22:57:02Z</time>
      </trkpt>
      <trkpt lat="45.7727" lon="4.8348">
        <ele>238</ele>
        <time>2013-02-22T22:57:06Z</time>
      </trkpt>
      <trkpt lat="45.77269" lon="4.83478">
        <ele>238</ele>
        <time>2013-02-22T22:57:09Z</time>
      </trkpt>
      <trkpt lat="45.77267" lon="4.83477">
        <ele>238</ele>
        <time>2013-02-22T22:57:13Z</time>
      </trkpt>
      <trkpt lat="45.77267" lon="4.83477">
        <ele>238</ele>
        <time>2013-02-22T22:57:17Z</time>
      </trkpt>
      <trkpt lat="45.77265" lon="4.83477">
        <ele>238</ele>
        <time>2013-02-22T22:57:20Z</time>
      </trkpt>
      <trkpt lat="45.77264" lon="4.83475">
        <ele>238</ele>
        <time>2013-02-22T22:57:21Z</time>
      </trkpt>
      <trkpt lat="45.77262" lon="4.83472">
        <ele>238</ele>
        <time>2013-02-22T22:57:25Z</time>
      </trkpt>
      <trkpt lat="45.77253" lon="4.8347">
        <ele>238</ele>
        <time>2013-02-22T22:57:30Z</time>
      </trkpt>
      <trkpt lat="45.77252" lon="4.83469">
        <ele>238</ele>
        <time>2013-02-22T22:57:31Z</time>
      </trkpt>
      <trkpt lat="45.77243" lon="4.83465">
        <ele>233</ele>
        <time>2013-02-22T22:57:35Z</time>
      </trkpt>
      <trkpt lat="45.77239" lon="4.83464">
        <ele>233</ele>
        <time>2013-02-22T22:57:37Z</time>
      </trkpt>
      <trkpt lat="45.77233" lon="4.83469">
        <ele>233</ele>
        <time>2013-02-22T22:57:39Z</time>
      </trkpt>
      <trkpt lat="45.7723" lon="4.83472">
        <ele>233</ele>
        <time>2013-02-22T22:57:40Z</time>
      </trkpt>
      <trkpt lat="45.77226" lon="4.83474">
        <ele>233</ele>
        <time>2013-02-22T22:57:41Z</time>
      </trkpt>
      <trkpt lat="45.77214" lon="4.83478">
        <ele>232</ele>
        <time>2013-02-22T22:57:44Z</time>
      </trkpt>
      <trkpt lat="45.77212" lon="4.83478">
        <ele>232</ele>
        <time>2013-02-22T22:57:45Z</time>
      </trkpt>
      <trkpt lat="45.77211" lon="4.83476">
        <ele>232</ele>
        <time>2013-02-22T22:57:49Z</time>
      </trkpt>
      <trkpt lat="45.77184" lon="4.83467">
        <ele>232</ele>
        <time>2013-02-22T22:58:01Z</time>
      </trkpt>
      <trkpt lat="45.77189" lon="4.83469">
        <ele>232</ele>
        <time>2013-02-22T22:58:03Z</time>
      </trkpt>
      <trkpt lat="45.77189" lon="4.83467">
        <ele>232</ele>
        <time>2013-02-22T22:58:04Z</time>
      </trkpt>
      <trkpt lat="45.77192" lon="4.83461">
        <ele>232</ele>
        <time>2013-02-22T22:58:10Z</time>
      </trkpt>
      <trkpt lat="45.77188" lon="4.83461">
        <ele>232</ele>
        <time>2013-02-22T22:58:23Z</time>
      </trkpt>
      <trkpt lat="45.77186" lon="4.83463">
        <ele>232</ele>
        <time>2013-02-22T22:58:28Z</time>
      </trkpt>
      <trkpt lat="45.77184" lon="4.83467">
        <ele>232</ele>
        <time>2013-02-22T22:58:31Z</time>
      </trkpt>
      <trkpt lat="45.77181" lon="4.83473">
        <ele>232</ele>
        <time>2013-02-22T22:58:34Z</time>
      </trkpt>
      <trkpt lat="45.7711" lon="4.8353">
        <ele>214</ele>
        <time>2013-02-22T22:59:00Z</time>
      </trkpt>
      <trkpt lat="45.77119" lon="4.83522">
        <ele>215</ele>
        <time>2013-02-22T22:59:01Z</time>
      </trkpt>
      <trkpt lat="45.77132" lon="4.83504">
        <ele>218</ele>
        <time>2013-02-22T22:59:02Z</time>
      </trkpt>
      <trkpt lat="45.77145" lon="4.83488">
        <ele>225</ele>
        <time>2013-02-22T22:59:04Z</time>
      </trkpt>
      <trkpt lat="45.77151" lon="4.83482">
        <ele>226</ele>
        <time>2013-02-22T22:59:05Z</time>
      </trkpt>
      <trkpt lat="45.77163" lon="4.8347">
        <ele>226</ele>
        <time>2013-02-22T22:59:09Z</time>
      </trkpt>
      <trkpt lat="45.77167" lon="4.83467">
        <ele>226</ele>
        <time>2013-02-22T22:59:10Z</time>
      </trkpt>
      <trkpt lat="45.77168" lon="4.83464">
        <ele>232</ele>
        <time>2013-02-22T22:59:11Z</time>
      </trkpt>
      <trkpt lat="45.77172" lon="4.83459">
        <ele>232</ele>
        <time>2013-02-22T22:59:13Z</time>
      </trkpt>
      <trkpt lat="45.77172" lon="4.83458">
        <ele>232</ele>
        <time>2013-02-22T22:59:16Z</time>
      </trkpt>
      <trkpt lat="45.77153" lon="4.83465">
        <ele>225</ele>
        <time>2013-02-22T22:59:28Z</time>
      </trkpt>
      <trkpt lat="45.77133" lon="4.8344">
        <ele>225</ele>
        <time>2013-02-22T22:59:42Z</time>
      </trkpt>
      <trkpt lat="45.7713" lon="4.83446">
        <ele>224</ele>
        <time>2013-02-22T22:59:46Z</time>
      </trkpt>
      <trkpt lat="45.7713" lon="4.83447">
        <ele>224</ele>
        <time>2013-02-22T22:59:48Z</time>
      </trkpt>
      <trkpt lat="45.77127" lon="4.8345">
        <ele>224</ele>
        <time>2013-02-22T22:59:49Z</time>
      </trkpt>
      <trkpt lat="45.77102" lon="4.83455">
        <ele>222</ele>
        <time>2013-02-22T23:00:01Z</time>
      </trkpt>
      <trkpt lat="45.77102" lon="4.83452">
        <ele>222</ele>
        <time>2013-02-22T23:00:02Z</time>
      </trkpt>
      <trkpt lat="45.77095" lon="4.83444">
        <ele>221</ele>
        <time>2013-02-22T23:00:06Z</time>
      </trkpt>
      <trkpt lat="45.77094" lon="4.83442">
        <ele>221</ele>
        <time>2013-02-22T23:00:07Z</time>
      </trkpt>
      <trkpt lat="45.77094" lon="4.83438">
        <ele>221</ele>
        <time>2013-02-22T23:00:09Z</time>
      </trkpt>
      <trkpt lat="45.77095" lon="4.83437">
        <ele>221</ele>
        <time>2013-02-22T23:00:11Z</time>
      </trkpt>
      <trkpt lat="45.7709" lon="4.83441">
        <ele>221</ele>
        <time>2013-02-22T23:00:44Z</time>
      </trkpt>
      <trkpt lat="45.77087" lon="4.83443">
        <ele>221</ele>
        <time>2013-02-22T23:00:47Z</time>
      </trkpt>
      <trkpt lat="45.77084" lon="4.83446">
        <ele>221</ele>
        <time>2013-02-22T23:00:49Z</time>
      </trkpt>
      <trkpt lat="45.77083" lon="4.83449">
        <ele>213</ele>
        <time>2013-02-22T23:00:52Z</time>
      </trkpt>
      <trkpt lat="45.77087" lon="4.83444">
        <ele>221</ele>
        <time>2013-02-22T23:00:57Z</time>
      </trkpt>
      <trkpt lat="45.77087" lon="4.83436">
        <ele>221</ele>
        <time>2013-02-22T23:01:01Z</time>
      </trkpt>
      <trkpt lat="45.77087" lon="4.83428">
        <ele>220</ele>
        <time>2013-02-22T23:01:06Z</time>
      </trkpt>
      <trkpt lat="45.77085" lon="4.83427">
        <ele>220</ele>
        <time>2013-02-22T23:01:07Z</time>
      </trkpt>
      <trkpt lat="45.77083" lon="4.83428">
        <ele>215</ele>
        <time>2013-02-22T23:01:08Z</time>
      </trkpt>
      <trkpt lat="45.77078" lon="4.8343">
        <ele>215</ele>
        <time>2013-02-22T23:01:10Z</time>
      </trkpt>
      <trkpt lat="45.77074" lon="4.8343">
        <ele>214</ele>
        <time>2013-02-22T23:01:11Z</time>
      </trkpt>
      <trkpt lat="45.77063" lon="4.83427">
        <ele>213</ele>
        <time>2013-02-22T23:01:15Z</time>
      </trkpt>
      <trkpt lat="45.7706" lon="4.83423">
        <ele>213</ele>
        <time>2013-02-22T23:01:18Z</time>
      </trkpt>
      <trkpt lat="45.7706" lon="4.83421">
        <ele>213</ele>
        <time>2013-02-22T23:01:19Z</time>
      </trkpt>
      <trkpt lat="45.7706" lon="4.83415">
        <ele>214</ele>
        <time>2013-02-22T23:01:21Z</time>
      </trkpt>
      <trkpt lat="45.7706" lon="4.83406">
        <ele>213</ele>
        <time>2013-02-22T23:01:23Z</time>
      </trkpt>
      <trkpt lat="45.77059" lon="4.83404">
        <ele>213</ele>
        <time>2013-02-22T23:01:24Z</time>
      </trkpt>
      <trkpt lat="45.77053" lon="4.83406">
        <ele>212</ele>
        <time>2013-02-22T23:01:27Z</time>
      </trkpt>
      <trkpt lat="45.77044" lon="4.83409">
        <ele>211</ele>
        <time>2013-02-22T23:01:30Z</time>
      </trkpt>
      <trkpt lat="45.77039" lon="4.83408">
        <ele>211</ele>
        <time>2013-02-22T23:01:32Z</time>
      </trkpt>
      <trkpt lat="45.77027" lon="4.83403">
        <ele>209</ele>
        <time>2013-02-22T23:01:36Z</time>
      </trkpt>
      <trkpt lat="45.77028" lon="4.83403">
        <ele>210</ele>
        <time>2013-02-22T23:01:37Z</time>
      </trkpt>
      <trkpt lat="45.7703" lon="4.83401">
        <ele>210</ele>
        <time>2013-02-22T23:01:38Z</time>
      </trkpt>
      <trkpt lat="45.7703" lon="4.83399">
        <ele>210</ele>
        <time>2013-02-22T23:01:39Z</time>
      </trkpt>
      <trkpt lat="45.77028" lon="4.83396">
        <ele>210</ele>
        <time>2013-02-22T23:01:43Z</time>
      </trkpt>
      <trkpt lat="45.77034" lon="4.8339">
        <ele>210</ele>
        <time>2013-02-22T23:01:44Z</time>
      </trkpt>
      <trkpt lat="45.77039" lon="4.83384">
        <ele>211</ele>
        <time>2013-02-22T23:01:45Z</time>
      </trkpt>
      <trkpt lat="45.77043" lon="4.8338">
        <ele>211</ele>
        <time>2013-02-22T23:01:47Z</time>
      </trkpt>
      <trkpt lat="45.77045" lon="4.83359">
        <ele>212</ele>
        <time>2013-02-22T23:01:51Z</time>
      </trkpt>
      <trkpt lat="45.77045" lon="4.83345">
        <ele>212</ele>
        <time>2013-02-22T23:01:55Z</time>
      </trkpt>
      <trkpt lat="45.77049" lon="4.83343">
        <ele>212</ele>
        <time>2013-02-22T23:02:00Z</time>
      </trkpt>
      <trkpt lat="45.77021" lon="4.83366">
        <ele>209</ele>
        <time>2013-02-22T23:02:10Z</time>
      </trkpt>
      <trkpt lat="45.76998" lon="4.83381">
        <ele>201</ele>
        <time>2013-02-22T23:02:12Z</time>
      </trkpt>
      <trkpt lat="45.7698" lon="4.83393">
        <ele>201</ele>
        <time>2013-02-22T23:02:13Z</time>
      </trkpt>
      <trkpt lat="45.76976" lon="4.83391">
        <ele>201</ele>
        <time>2013-02-22T23:02:14Z</time>
      </trkpt>
      <trkpt lat="45.76974" lon="4.8339">
        <ele>200</ele>
        <time>2013-02-22T23:02:15Z</time>
      </trkpt>
      <trkpt lat="45.76969" lon="4.83391">
        <ele>200</ele>
        <time>2013-02-22T23:02:16Z</time>
      </trkpt>
      <trkpt lat="45.76964" lon="4.83389">
        <ele>200</ele>
        <time>2013-02-22T23:02:18Z</time>
      </trkpt>
      <trkpt lat="45.76957" lon="4.83392">
        <ele>200</ele>
        <time>2013-02-22T23:02:20Z</time>
      </trkpt>
      <trkpt lat="45.76955" lon="4.83396">
        <ele>199</ele>
        <time>2013-02-22T23:02:24Z</time>
      </trkpt>
      <trkpt lat="45.76957" lon="4.83393">
        <ele>200</ele>
        <time>2013-02-22T23:02:25Z</time>
      </trkpt>
      <trkpt lat="45.76955" lon="4.83392">
        <ele>199</ele>
        <time>2013-02-22T23:02:28Z</time>
      </trkpt>
      <trkpt lat="45.76953" lon="4.83394">
        <ele>199</ele>
        <time>2013-02-22T23:02:29Z</time>
      </trkpt>
      <trkpt lat="45.76947" lon="4.83407">
        <ele>199</ele>
        <time>2013-02-22T23:02:31Z</time>
      </trkpt>
      <trkpt lat="45.76937" lon="4.83417">
        <ele>199</ele>
        <time>2013-02-22T23:02:35Z</time>
      </trkpt>
      <trkpt lat="45.76937" lon="4.83416">
        <ele>198</ele>
        <time>2013-02-22T23:02:37Z</time>
      </trkpt>
      <trkpt lat="45.76936" lon="4.83417">
        <ele>199</ele>
        <time>2013-02-22T23:02:38Z</time>
      </trkpt>
      <trkpt lat="45.76933" lon="4.83421">
        <ele>198</ele>
        <time>2013-02-22T23:02:39Z</time>
      </trkpt>
      <trkpt lat="45.76925" lon="4.83428">
        <ele>198</ele>
        <time>2013-02-22T23:02:42Z</time>
      </trkpt>
      <trkpt lat="45.76916" lon="4.8343">
        <ele>195</ele>
        <time>2013-02-22T23:02:44Z</time>
      </trkpt>
      <trkpt lat="45.76902" lon="4.83432">
        <ele>194</ele>
        <time>2013-02-22T23:02:47Z</time>
      </trkpt>
      <trkpt lat="45.76896" lon="4.83436">
        <ele>194</ele>
        <time>2013-02-22T23:02:49Z</time>
      </trkpt>
      <trkpt lat="45.76894" lon="4.83439">
        <ele>194</ele>
        <time>2013-02-22T23:02:50Z</time>
      </trkpt>
      <trkpt lat="45.7689" lon="4.83439">
        <ele>193</ele>
        <time>2013-02-22T23:02:51Z</time>
      </trkpt>
      <trkpt lat="45.76888" lon="4.83439">
        <ele>193</ele>
        <time>2013-02-22T23:02:52Z</time>
      </trkpt>
      <trkpt lat="45.76877" lon="4.83442">
        <ele>193</ele>
        <time>2013-02-22T23:02:56Z</time>
      </trkpt>
      <trkpt lat="45.76874" lon="4.83442">
        <ele>192</ele>
        <time>2013-02-22T23:02:57Z</time>
      </trkpt>
      <trkpt lat="45.76871" lon="4.83443">
        <ele>192</ele>
        <time>2013-02-22T23:02:58Z</time>
      </trkpt>
      <trkpt lat="45.76858" lon="4.83446">
        <ele>192</ele>
        <time>2013-02-22T23:03:01Z</time>
      </trkpt>
      <trkpt lat="45.76856" lon="4.83447">
        <ele>191</ele>
        <time>2013-02-22T23:03:02Z</time>
      </trkpt>
      <trkpt lat="45.76848" lon="4.8345">
        <ele>191</ele>
        <time>2013-02-22T23:03:05Z</time>
      </trkpt>
      <trkpt lat="45.76846" lon="4.83451">
        <ele>191</ele>
        <time>2013-02-22T23:03:07Z</time>
      </trkpt>
      <trkpt lat="45.76843" lon="4.83451">
        <ele>191</ele>
        <time>2013-02-22T23:03:09Z</time>
      </trkpt>
      <trkpt lat="45.76843" lon="4.83449">
        <ele>191</ele>
        <time>2013-02-22T23:03:10Z</time>
      </trkpt>
      <trkpt lat="45.7684" lon="4.83445">
        <ele>191</ele>
        <time>2013-02-22T23:03:12Z</time>
      </trkpt>
      <trkpt lat="45.76838" lon="4.83441">
        <ele>191</ele>
        <time>2013-02-22T23:03:14Z</time>
      </trkpt>
      <trkpt lat="45.76833" lon="4.8343">
        <ele>187</ele>
        <time>2013-02-22T23:03:18Z</time>
      </trkpt>
      <trkpt lat="45.76827" lon="4.83422">
        <ele>188</ele>
        <time>2013-02-22T23:03:20Z</time>
      </trkpt>
      <trkpt lat="45.76823" lon="4.83416">
        <ele>187</ele>
        <time>2013-02-22T23:03:22Z</time>
      </trkpt>
      <trkpt lat="45.76819" lon="4.83416">
        <ele>187</ele>
        <time>2013-02-22T23:03:23Z</time>
      </trkpt>
      <trkpt lat="45.76811" lon="4.83411">
        <ele>186</ele>
        <time>2013-02-22T23:03:26Z</time>
      </trkpt>
      <trkpt lat="45.76793" lon="4.83416">
        <ele>185</ele>
        <time>2013-02-22T23:03:31Z</time>
      </trkpt>
      <trkpt lat="45.7679" lon="4.83416">
        <ele>184</ele>
        <time>2013-02-22T23:03:32Z</time>
      </trkpt>
      <trkpt lat="45.76782" lon="4.83413">
        <ele>184</ele>
        <time>2013-02-22T23:03:35Z</time>
      </trkpt>
      <trkpt lat="45.76775" lon="4.83408">
        <ele>183</ele>
        <time>2013-02-22T23:03:39Z</time>
      </trkpt>
      <trkpt lat="45.76775" lon="4.83407">
        <ele>183</ele>
        <time>2013-02-22T23:03:40Z</time>
      </trkpt>
      <trkpt lat="45.76772" lon="4.83405">
        <ele>183</ele>
        <time>2013-02-22T23:03:44Z</time>
      </trkpt>
      <trkpt lat="45.76772" lon="4.83404">
        <ele>183</ele>
        <time>2013-02-22T23:03:46Z</time>
      </trkpt>
      <trkpt lat="45.76769" lon="4.834">
        <ele>183</ele>
        <time>2013-02-22T23:03:52Z</time>
      </trkpt>
      <trkpt lat="45.76768" lon="4.83398">
        <ele>183</ele>
        <time>2013-02-22T23:03:57Z</time>
      </trkpt>
      <trkpt lat="45.76767" lon="4.83395">
        <ele>183</ele>
        <time>2013-02-22T23:04:05Z</time>
      </trkpt>
      <trkpt lat="45.76766" lon="4.83394">
        <ele>183</ele>
        <time>2013-02-22T23:04:12Z</time>
      </trkpt>
      <trkpt lat="45.76765" lon="4.8339">
        <ele>183</ele>
        <time>2013-02-22T23:04:17Z</time>
      </trkpt>
      <trkpt lat="45.76764" lon="4.83388">
        <ele>183</ele>
        <time>2013-02-22T23:04:19Z</time>
      </trkpt>
      <trkpt lat="45.76765" lon="4.83387">
        <ele>183</ele>
        <time>2013-02-22T23:04:24Z</time>
      </trkpt>
      <trkpt lat="45.76766" lon="4.83389">
        <ele>183</ele>
        <time>2013-02-22T23:04:27Z</time>
      </trkpt>
      <trkpt lat="45.76768" lon="4.83393">
        <ele>183</ele>
        <time>2013-02-22T23:04:30Z</time>
      </trkpt>
      <trkpt lat="45.76772" lon="4.83399">
        <ele>183</ele>
        <time>2013-02-22T23:04:36Z</time>
      </trkpt>
      <trkpt lat="45.76772" lon="4.83399">
        <ele>183</ele>
        <time>2013-02-22T23:05:00Z</time>
      </trkpt>
      <trkpt lat="45.76766" lon="4.83397">
        <ele>183</ele>
        <time>2013-02-22T23:05:21Z</time>
      </trkpt>
      <trkpt lat="45.76766" lon="4.83396">
        <ele>183</ele>
        <time>2013-02-22T23:05:22Z</time>
      </trkpt>
      <trkpt lat="45.76764" lon="4.83389">
        <ele>183</ele>
        <time>2013-02-22T23:05:28Z</time>
      </trkpt>
      <trkpt lat="45.76761" lon="4.83374">
        <ele>184</ele>
        <time>2013-02-22T23:05:33Z</time>
      </trkpt>
      <trkpt lat="45.7676" lon="4.8337">
        <ele>184</ele>
        <time>2013-02-22T23:05:34Z</time>
      </trkpt>
      <trkpt lat="45.76752" lon="4.83352">
        <ele>184</ele>
        <time>2013-02-22T23:05:39Z</time>
      </trkpt>
      <trkpt lat="45.76751" lon="4.83348">
        <ele>184</ele>
        <time>2013-02-22T23:05:40Z</time>
      </trkpt>
      <trkpt lat="45.76745" lon="4.83332">
        <ele>183</ele>
        <time>2013-02-22T23:05:44Z</time>
      </trkpt>
      <trkpt lat="45.76742" lon="4.83324">
        <ele>184</ele>
        <time>2013-02-22T23:05:46Z</time>
      </trkpt>
      <trkpt lat="45.76739" lon="4.83316">
        <ele>184</ele>
        <time>2013-02-22T23:05:48Z</time>
      </trkpt>
      <trkpt lat="45.76732" lon="4.83299">
        <ele>184</ele>
        <time>2013-02-22T23:05:53Z</time>
      </trkpt>
      <trkpt lat="45.76726" lon="4.83291">
        <ele>185</ele>
        <time>2013-02-22T23:05:57Z</time>
      </trkpt>
      <trkpt lat="45.76724" lon="4.83291">
        <ele>185</ele>
        <time>2013-02-22T23:05:58Z</time>
      </trkpt>
      <trkpt lat="45.76715" lon="4.83289">
        <ele>185</ele>
        <time>2013-02-22T23:06:01Z</time>
      </trkpt>
      <trkpt lat="45.76711" lon="4.83287">
        <ele>185</ele>
        <time>2013-02-22T23:06:03Z</time>
      </trkpt>
      <trkpt lat="45.7671" lon="4.83271">
        <ele>185</ele>
        <time>2013-02-22T23:06:07Z</time>
      </trkpt>
      <trkpt lat="45.7671" lon="4.83268">
        <ele>185</ele>
        <time>2013-02-22T23:06:08Z</time>
      </trkpt>
      <trkpt lat="45.76709" lon="4.83265">
        <ele>185</ele>
        <time>2013-02-22T23:06:09Z</time>
      </trkpt>
      <trkpt lat="45.76709" lon="4.8325">
        <ele>185</ele>
        <time>2013-02-22T23:06:13Z</time>
      </trkpt>
      <trkpt lat="45.76706" lon="4.83235">
        <ele>186</ele>
        <time>2013-02-22T23:06:17Z</time>
      </trkpt>
      <trkpt lat="45.76705" lon="4.8323">
        <ele>186</ele>
        <time>2013-02-22T23:06:18Z</time>
      </trkpt>
      <trkpt lat="45.76701" lon="4.83213">
        <ele>186</ele>
        <time>2013-02-22T23:06:22Z</time>
      </trkpt>
      <trkpt lat="45.767" lon="4.8321">
        <ele>186</ele>
        <time>2013-02-22T23:06:23Z</time>
      </trkpt>
      <trkpt lat="45.76699" lon="4.83195">
        <ele>186</ele>
        <time>2013-02-22T23:06:27Z</time>
      </trkpt>
      <trkpt lat="45.76694" lon="4.83183">
        <ele>186</ele>
        <time>2013-02-22T23:06:31Z</time>
      </trkpt>
      <trkpt lat="45.7669" lon="4.83178">
        <ele>186</ele>
        <time>2013-02-22T23:06:33Z</time>
      </trkpt>
      <trkpt lat="45.76685" lon="4.83165">
        <ele>185</ele>
        <time>2013-02-22T23:06:37Z</time>
      </trkpt>
      <trkpt lat="45.76684" lon="4.83162">
        <ele>185</ele>
        <time>2013-02-22T23:06:38Z</time>
      </trkpt>
      <trkpt lat="45.76686" lon="4.83144">
        <ele>185</ele>
        <time>2013-02-22T23:06:42Z</time>
      </trkpt>
      <trkpt lat="45.76685" lon="4.83134">
        <ele>185</ele>
        <time>2013-02-22T23:06:45Z</time>
      </trkpt>
      <trkpt lat="45.76682" lon="4.83127">
        <ele>185</ele>
        <time>2013-02-22T23:06:47Z</time>
      </trkpt>
      <trkpt lat="45.76674" lon="4.83109">
        <ele>184</ele>
        <time>2013-02-22T23:06:52Z</time>
      </trkpt>
      <trkpt lat="45.76672" lon="4.8309">
        <ele>184</ele>
        <time>2013-02-22T23:06:56Z</time>
      </trkpt>
      <trkpt lat="45.76668" lon="4.83081">
        <ele>183</ele>
        <time>2013-02-22T23:06:59Z</time>
      </trkpt>
      <trkpt lat="45.76666" lon="4.83073">
        <ele>180</ele>
        <time>2013-02-22T23:07:01Z</time>
      </trkpt>
      <trkpt lat="45.76659" lon="4.83057">
        <ele>178</ele>
        <time>2013-02-22T23:07:06Z</time>
      </trkpt>
      <trkpt lat="45.76659" lon="4.83054">
        <ele>177</ele>
        <time>2013-02-22T23:07:07Z</time>
      </trkpt>
      <trkpt lat="45.76658" lon="4.83045">
        <ele>176</ele>
        <time>2013-02-22T23:07:11Z</time>
      </trkpt>
      <trkpt lat="45.76658" lon="4.83044">
        <ele>176</ele>
        <time>2013-02-22T23:07:12Z</time>
      </trkpt>
      <trkpt lat="45.76661" lon="4.83041">
        <ele>176</ele>
        <time>2013-02-22T23:07:23Z</time>
      </trkpt>
      <trkpt lat="45.7666" lon="4.8304">
        <ele>176</ele>
        <time>2013-02-22T23:07:24Z</time>
      </trkpt>
      <trkpt lat="45.76661" lon="4.83036">
        <ele>176</ele>
        <time>2013-02-22T23:07:32Z</time>
      </trkpt>
      <trkpt lat="45.76661" lon="4.83034">
        <ele>176</ele>
        <time>2013-02-22T23:07:45Z</time>
      </trkpt>
      <trkpt lat="45.76662" lon="4.83028">
        <ele>175</ele>
        <time>2013-02-22T23:08:06Z</time>
      </trkpt>
      <trkpt lat="45.76662" lon="4.83025">
        <ele>175</ele>
        <time>2013-02-22T23:08:08Z</time>
      </trkpt>
      <trkpt lat="45.76663" lon="4.83019">
        <ele>174</ele>
        <time>2013-02-22T23:08:10Z</time>
      </trkpt>
      <trkpt lat="45.76666" lon="4.83011">
        <ele>174</ele>
        <time>2013-02-22T23:08:12Z</time>
      </trkpt>
      <trkpt lat="45.76669" lon="4.83001">
        <ele>174</ele>
        <time>2013-02-22T23:08:15Z</time>
      </trkpt>
      <trkpt lat="45.76668" lon="4.82998">
        <ele>173</ele>
        <time>2013-02-22T23:08:16Z</time>
      </trkpt>
      <trkpt lat="45.76662" lon="4.82985">
        <ele>171</ele>
        <time>2013-02-22T23:08:20Z</time>
      </trkpt>
      <trkpt lat="45.7666" lon="4.82982">
        <ele>171</ele>
        <time>2013-02-22T23:08:21Z</time>
      </trkpt>
      <trkpt lat="45.76653" lon="4.82963">
        <ele>170</ele>
        <time>2013-02-22T23:08:26Z</time>
      </trkpt>
      <trkpt lat="45.76651" lon="4.82959">
        <ele>169</ele>
        <time>2013-02-22T23:08:27Z</time>
      </trkpt>
      <trkpt lat="45.76646" lon="4.8294">
        <ele>169</ele>
        <time>2013-02-22T23:08:32Z</time>
      </trkpt>
      <trkpt lat="45.76645" lon="4.82936">
        <ele>169</ele>
        <time>2013-02-22T23:08:33Z</time>
      </trkpt>
      <trkpt lat="45.76637" lon="4.82915">
        <ele>171</ele>
        <time>2013-02-22T23:08:39Z</time>
      </trkpt>
      <trkpt lat="45.76636" lon="4.82911">
        <ele>172</ele>
        <time>2013-02-22T23:08:40Z</time>
      </trkpt>
      <trkpt lat="45.76631" lon="4.82903">
        <ele>172</ele>
        <time>2013-02-22T23:08:43Z</time>
      </trkpt>
      <trkpt lat="45.76627" lon="4.82893">
        <ele>173</ele>
        <time>2013-02-22T23:08:47Z</time>
      </trkpt>
      <trkpt lat="45.76628" lon="4.8289">
        <ele>173</ele>
        <time>2013-02-22T23:08:52Z</time>
      </trkpt>
      <trkpt lat="45.76628" lon="4.82888">
        <ele>173</ele>
        <time>2013-02-22T23:08:54Z</time>
      </trkpt>
      <trkpt lat="45.7663" lon="4.82887">
        <ele>173</ele>
        <time>2013-02-22T23:08:58Z</time>
      </trkpt>
      <trkpt lat="45.7663" lon="4.82887">
        <ele>173</ele>
        <time>2013-02-22T23:08:59Z</time>
      </trkpt>
      <trkpt lat="45.76633" lon="4.82877">
        <ele>174</ele>
        <time>2013-02-22T23:09:16Z</time>
      </trkpt>
      <trkpt lat="45.76631" lon="4.8287">
        <ele>174</ele>
        <time>2013-02-22T23:09:20Z</time>
      </trkpt>
      <trkpt lat="45.76631" lon="4.82868">
        <ele>174</ele>
        <time>2013-02-22T23:09:21Z</time>
      </trkpt>
      <trkpt lat="45.7663" lon="4.82864">
        <ele>175</ele>
        <time>2013-02-22T23:09:23Z</time>
      </trkpt>
      <trkpt lat="45.76628" lon="4.82856">
        <ele>175</ele>
        <time>2013-02-22T23:09:25Z</time>
      </trkpt>
      <trkpt lat="45.76622" lon="4.82838">
        <ele>176</ele>
        <time>2013-02-22T23:09:30Z</time>
      </trkpt>
      <trkpt lat="45.76621" lon="4.82834">
        <ele>176</ele>
        <time>2013-02-22T23:09:31Z</time>
      </trkpt>
      <trkpt lat="45.76617" lon="4.82819">
        <ele>179</ele>
        <time>2013-02-22T23:09:35Z</time>
      </trkpt>
      <trkpt lat="45.76616" lon="4.82812">
        <ele>180</ele>
        <time>2013-02-22T23:09:37Z</time>
      </trkpt>
      <trkpt lat="45.76614" lon="4.82802">
        <ele>180</ele>
        <time>2013-02-22T23:09:40Z</time>
      </trkpt>
      <trkpt lat="45.76617" lon="4.82791">
        <ele>180</ele>
        <time>2013-02-22T23:09:44Z</time>
      </trkpt>
      <trkpt lat="45.76618" lon="4.82784">
        <ele>180</ele>
        <time>2013-02-22T23:09:46Z</time>
      </trkpt>
      <trkpt lat="45.76616" lon="4.82773">
        <ele>180</ele>
        <time>2013-02-22T23:09:49Z</time>
      </trkpt>
      <trkpt lat="45.76614" lon="4.82769">
        <ele>180</ele>
        <time>2013-02-22T23:09:50Z</time>
      </trkpt>
      <trkpt lat="45.7661" lon="4.8276">
        <ele>180</ele>
        <time>2013-02-22T23:09:53Z</time>
      </trkpt>
      <trkpt lat="45.76606" lon="4.82752">
        <ele>181</ele>
        <time>2013-02-22T23:09:55Z</time>
      </trkpt>
      <trkpt lat="45.76604" lon="4.82737">
        <ele>183</ele>
        <time>2013-02-22T23:09:58Z</time>
      </trkpt>
      <trkpt lat="45.76602" lon="4.82733">
        <ele>183</ele>
        <time>2013-02-22T23:09:59Z</time>
      </trkpt>
      <trkpt lat="45.76598" lon="4.82727">
        <ele>183</ele>
        <time>2013-02-22T23:10:02Z</time>
      </trkpt>
      <trkpt lat="45.76592" lon="4.82725">
        <ele>183</ele>
        <time>2013-02-22T23:10:04Z</time>
      </trkpt>
      <trkpt lat="45.76588" lon="4.82724">
        <ele>183</ele>
        <time>2013-02-22T23:10:06Z</time>
      </trkpt>
      <trkpt lat="45.76585" lon="4.82725">
        <ele>183</ele>
        <time>2013-02-22T23:10:07Z</time>
      </trkpt>
      <trkpt lat="45.76581" lon="4.82725">
        <ele>187</ele>
        <time>2013-02-22T23:10:08Z</time>
      </trkpt>
      <trkpt lat="45.76569" lon="4.82731">
        <ele>187</ele>
        <time>2013-02-22T23:10:12Z</time>
      </trkpt>
      <trkpt lat="45.76565" lon="4.82733">
        <ele>187</ele>
        <time>2013-02-22T23:10:13Z</time>
      </trkpt>
      <trkpt lat="45.76546" lon="4.82735">
        <ele>187</ele>
        <time>2013-02-22T23:10:18Z</time>
      </trkpt>
      <trkpt lat="45.76542" lon="4.82733">
        <ele>188</ele>
        <time>2013-02-22T23:10:20Z</time>
      </trkpt>
      <trkpt lat="45.76533" lon="4.82728">
        <ele>188</ele>
        <time>2013-02-22T23:10:23Z</time>
      </trkpt>
      <trkpt lat="45.76528" lon="4.82726">
        <ele>188</ele>
        <time>2013-02-22T23:10:25Z</time>
      </trkpt>
      <trkpt lat="45.76524" lon="4.82726">
        <ele>188</ele>
        <time>2013-02-22T23:10:26Z</time>
      </trkpt>
      <trkpt lat="45.76521" lon="4.82725">
        <ele>188</ele>
        <time>2013-02-22T23:10:27Z</time>
      </trkpt>
      <trkpt lat="45.76509" lon="4.82728">
        <ele>188</ele>
        <time>2013-02-22T23:10:32Z</time>
      </trkpt>
      <trkpt lat="45.76498" lon="4.82732">
        <ele>189</ele>
        <time>2013-02-22T23:10:36Z</time>
      </trkpt>
      <trkpt lat="45.76495" lon="4.82732">
        <ele>189</ele>
        <time>2013-02-22T23:10:37Z</time>
      </trkpt>
      <trkpt lat="45.76491" lon="4.8273">
        <ele>189</ele>
        <time>2013-02-22T23:10:39Z</time>
      </trkpt>
      <trkpt lat="45.76488" lon="4.82729">
        <ele>190</ele>
        <time>2013-02-22T23:10:40Z</time>
      </trkpt>
      <trkpt lat="45.76487" lon="4.82729">
        <ele>190</ele>
        <time>2013-02-22T23:10:41Z</time>
      </trkpt>
      <trkpt lat="45.76482" lon="4.82725">
        <ele>190</ele>
        <time>2013-02-22T23:10:44Z</time>
      </trkpt>
      <trkpt lat="45.7648" lon="4.82728">
        <ele>190</ele>
        <time>2013-02-22T23:10:45Z</time>
      </trkpt>
      <trkpt lat="45.76473" lon="4.82735">
        <ele>190</ele>
        <time>2013-02-22T23:10:49Z</time>
      </trkpt>
      <trkpt lat="45.76466" lon="4.82745">
        <ele>190</ele>
        <time>2013-02-22T23:10:51Z</time>
      </trkpt>
      <trkpt lat="45.7646" lon="4.82752">
        <ele>184</ele>
        <time>2013-02-22T23:10:53Z</time>
      </trkpt>
      <trkpt lat="45.7646" lon="4.82755">
        <ele>184</ele>
        <time>2013-02-22T23:10:54Z</time>
      </trkpt>
      <trkpt lat="45.7646" lon="4.8276">
        <ele>184</ele>
        <time>2013-02-22T23:10:56Z</time>
      </trkpt>
      <trkpt lat="45.7646" lon="4.82761">
        <ele>184</ele>
        <time>2013-02-22T23:11:00Z</time>
      </trkpt>
      <trkpt lat="45.76451" lon="4.82765">
        <ele>184</ele>
        <time>2013-02-22T23:11:02Z</time>
      </trkpt>
      <trkpt lat="45.76442" lon="4.82766">
        <ele>185</ele>
        <time>2013-02-22T23:11:04Z</time>
      </trkpt>
      <trkpt lat="45.7644" lon="4.82767">
        <ele>185</ele>
        <time>2013-02-22T23:11:05Z</time>
      </trkpt>
      <trkpt lat="45.76437" lon="4.82768">
        <ele>185</ele>
        <time>2013-02-22T23:11:06Z</time>
      </trkpt>
      <trkpt lat="45.76428" lon="4.82762">
        <ele>186</ele>
        <time>2013-02-22T23:11:11Z</time>
      </trkpt>
      <trkpt lat="45.76426" lon="4.82761">
        <ele>186</ele>
        <time>2013-02-22T23:11:12Z</time>
      </trkpt>
      <trkpt lat="45.76417" lon="4.82764">
        <ele>186</ele>
        <time>2013-02-22T23:11:15Z</time>
      </trkpt>
      <trkpt lat="45.76404" lon="4.82765">
        <ele>186</ele>
        <time>2013-02-22T23:11:19Z</time>
      </trkpt>
      <trkpt lat="45.76401" lon="4.82766">
        <ele>186</ele>
        <time>2013-02-22T23:11:20Z</time>
      </trkpt>
      <trkpt lat="45.76389" lon="4.82766">
        <ele>185</ele>
        <time>2013-02-22T23:11:24Z</time>
      </trkpt>
      <trkpt lat="45.76387" lon="4.82764">
        <ele>185</ele>
        <time>2013-02-22T23:11:25Z</time>
      </trkpt>
      <trkpt lat="45.76375" lon="4.82758">
        <ele>185</ele>
        <time>2013-02-22T23:11:29Z</time>
      </trkpt>
      <trkpt lat="45.76368" lon="4.82759">
        <ele>185</ele>
        <time>2013-02-22T23:11:32Z</time>
      </trkpt>
      <trkpt lat="45.76365" lon="4.82759">
        <ele>185</ele>
        <time>2013-02-22T23:11:33Z</time>
      </trkpt>
      <trkpt lat="45.76362" lon="4.82759">
        <ele>185</ele>
        <time>2013-02-22T23:11:34Z</time>
      </trkpt>
      <trkpt lat="45.76351" lon="4.82753">
        <ele>185</ele>
        <time>2013-02-22T23:11:38Z</time>
      </trkpt>
      <trkpt lat="45.76344" lon="4.82758">
        <ele>185</ele>
        <time>2013-02-22T23:11:42Z</time>
      </trkpt>
      <trkpt lat="45.76344" lon="4.8276">
        <ele>185</ele>
        <time>2013-02-22T23:11:43Z</time>
      </trkpt>
      <trkpt lat="45.76344" lon="4.82768">
        <ele>185</ele>
        <time>2013-02-22T23:11:46Z</time>
      </trkpt>
      <trkpt lat="45.76345" lon="4.8277">
        <ele>185</ele>
        <time>2013-02-22T23:11:47Z</time>
      </trkpt>
      <trkpt lat="45.76345" lon="4.82776">
        <ele>185</ele>
        <time>2013-02-22T23:11:49Z</time>
      </trkpt>
      <trkpt lat="45.76345" lon="4.8278">
        <ele>184</ele>
        <time>2013-02-22T23:11:50Z</time>
      </trkpt>
      <trkpt lat="45.76338" lon="4.82792">
        <ele>184</ele>
        <time>2013-02-22T23:11:53Z</time>
      </trkpt>
      <trkpt lat="45.76333" lon="4.82796">
        <ele>182</ele>
        <time>2013-02-22T23:11:54Z</time>
      </trkpt>
      <trkpt lat="45.7633" lon="4.82798">
        <ele>182</ele>
        <time>2013-02-22T23:11:55Z</time>
      </trkpt>
      <trkpt lat="45.76315" lon="4.82794">
        <ele>182</ele>
        <time>2013-02-22T23:11:59Z</time>
      </trkpt>
      <trkpt lat="45.7631" lon="4.82793">
        <ele>182</ele>
        <time>2013-02-22T23:12:00Z</time>
      </trkpt>
      <trkpt lat="45.76305" lon="4.8279">
        <ele>182</ele>
        <time>2013-02-22T23:12:01Z</time>
      </trkpt>
      <trkpt lat="45.76296" lon="4.82788">
        <ele>182</ele>
        <time>2013-02-22T23:12:05Z</time>
      </trkpt>
      <trkpt lat="45.76285" lon="4.82784">
        <ele>182</ele>
        <time>2013-02-22T23:12:08Z</time>
      </trkpt>
      <trkpt lat="45.76283" lon="4.82784">
        <ele>182</ele>
        <time>2013-02-22T23:12:09Z</time>
      </trkpt>
      <trkpt lat="45.76279" lon="4.82782">
        <ele>182</ele>
        <time>2013-02-22T23:12:11Z</time>
      </trkpt>
      <trkpt lat="45.76273" lon="4.82773">
        <ele>182</ele>
        <time>2013-02-22T23:12:14Z</time>
      </trkpt>
      <trkpt lat="45.76264" lon="4.82767">
        <ele>182</ele>
        <time>2013-02-22T23:12:18Z</time>
      </trkpt>
      <trkpt lat="45.76258" lon="4.82763">
        <ele>183</ele>
        <time>2013-02-22T23:12:20Z</time>
      </trkpt>
      <trkpt lat="45.76257" lon="4.82759">
        <ele>183</ele>
        <time>2013-02-22T23:12:22Z</time>
      </trkpt>
      <trkpt lat="45.76256" lon="4.82755">
        <ele>183</ele>
        <time>2013-02-22T23:12:24Z</time>
      </trkpt>
      <trkpt lat="45.7625" lon="4.82755">
        <ele>183</ele>
        <time>2013-02-22T23:12:26Z</time>
      </trkpt>
      <trkpt lat="45.76243" lon="4.82759">
        <ele>181</ele>
        <time>2013-02-22T23:12:28Z</time>
      </trkpt>
      <trkpt lat="45.76238" lon="4.8276">
        <ele>181</ele>
        <time>2013-02-22T23:12:30Z</time>
      </trkpt>
      <trkpt lat="45.76235" lon="4.82758">
        <ele>181</ele>
        <time>2013-02-22T23:12:31Z</time>
      </trkpt>
      <trkpt lat="45.76233" lon="4.82756">
        <ele>181</ele>
        <time>2013-02-22T23:12:32Z</time>
      </trkpt>
      <trkpt lat="45.76224" lon="4.8275">
        <ele>183</ele>
        <time>2013-02-22T23:12:35Z</time>
      </trkpt>
      <trkpt lat="45.76222" lon="4.82749">
        <ele>183</ele>
        <time>2013-02-22T23:12:36Z</time>
      </trkpt>
      <trkpt lat="45.76215" lon="4.82747">
        <ele>183</ele>
        <time>2013-02-22T23:12:39Z</time>
      </trkpt>
      <trkpt lat="45.76208" lon="4.82745">
        <ele>182</ele>
        <time>2013-02-22T23:12:41Z</time>
      </trkpt>
      <trkpt lat="45.76205" lon="4.82742">
        <ele>182</ele>
        <time>2013-02-22T23:12:45Z</time>
      </trkpt>
      <trkpt lat="45.76196" lon="4.82739">
        <ele>182</ele>
        <time>2013-02-22T23:12:49Z</time>
      </trkpt>
      <trkpt lat="45.76193" lon="4.82739">
        <ele>182</ele>
        <time>2013-02-22T23:12:50Z</time>
      </trkpt>
      <trkpt lat="45.76177" lon="4.82735">
        <ele>182</ele>
        <time>2013-02-22T23:12:53Z</time>
      </trkpt>
      <trkpt lat="45.76169" lon="4.82728">
        <ele>182</ele>
        <time>2013-02-22T23:12:55Z</time>
      </trkpt>
      <trkpt lat="45.76159" lon="4.82721">
        <ele>181</ele>
        <time>2013-02-22T23:13:00Z</time>
      </trkpt>
      <trkpt lat="45.76147" lon="4.8272">
        <ele>181</ele>
        <time>2013-02-22T23:13:04Z</time>
      </trkpt>
      <trkpt lat="45.76144" lon="4.82719">
        <ele>181</ele>
        <time>2013-02-22T23:13:05Z</time>
      </trkpt>
      <trkpt lat="45.76139" lon="4.82717">
        <ele>181</ele>
        <time>2013-02-22T23:13:06Z</time>
      </trkpt>
      <trkpt lat="45.76126" lon="4.82706">
        <ele>181</ele>
        <time>2013-02-22T23:13:10Z</time>
      </trkpt>
      <trkpt lat="45.76123" lon="4.82703">
        <ele>181</ele>
        <time>2013-02-22T23:13:11Z</time>
      </trkpt>
      <trkpt lat="45.7611" lon="4.82698">
        <ele>180</ele>
        <time>2013-02-22T23:13:15Z</time>
      </trkpt>
      <trkpt lat="45.76108" lon="4.82696">
        <ele>180</ele>
        <time>2013-02-22T23:13:17Z</time>
      </trkpt>
      <trkpt lat="45.76104" lon="4.82697">
        <ele>180</ele>
        <time>2013-02-22T23:13:19Z</time>
      </trkpt>
      <trkpt lat="45.76103" lon="4.82697">
        <ele>180</ele>
        <time>2013-02-22T23:13:20Z</time>
      </trkpt>
      <trkpt lat="45.76102" lon="4.82696">
        <ele>180</ele>
        <time>2013-02-22T23:13:21Z</time>
      </trkpt>
    </trkseg>
  </trk>
</gpx>